# Wetter Temperatur Luftdruck Luftfeuchtigkeit Sichtweite Windgeschwindigkeit Windrichtung Zeit
1 Clouds 28 1015 76 10000 6.53 86 10:49 14.08.2022
2 Clouds 25 1015 80 10000 5.96 87 08:50 14.08.2022
3 Clouds 20 1015 83 10000 5.15 87 06:21 14.08.2022
4 Clouds 21 1016 85 10000 6.42 81 02:48 14.08.2022
5 Clouds 22 1017 80 10000 5.41 74 23:53 13.08.2022
6 Clouds 21 1018 79 10000 5.08 83 22:52 13.08.2022
7 Clouds 22 1018 78 10000 5.64 77 20:58 13.08.2022
8 Clouds 22 1018 78 10000 5.64 77 20:33 13.08.2022
9 Clouds 22 1018 77 10000 5.87 68 19:37 13.08.2022
10 Clouds 29 1019 74 10000 6.21 63 17:59 13.08.2022
11 Clouds 23 1019 73 10000 6.2 64 15:31 13.08.2022
12 Clouds 23 1020 72 10000 5.75 73 14:28 13.08.2022
13 Clouds 23 1020 72 10000 5.75 73 13:40 13.08.2022
14 Clouds 31 1020 69 10000 4.99 76 11:52 13.08.2022
15 Clouds 28 1021 69 10000 4.44 77 10:31 13.08.2022
16 Clouds 25 1020 74 10000 3.03 76 09:18 13.08.2022
17 Clear 18 1020 81 10000 3.37 77 05:57 13.08.2022
18 Clear 20 1022 76 10000 4.88 104 00:29 13.08.2022
19 Clear 21 1022 73 10000 5.14 99 22:20 12.08.2022
20 Clear 21 1021 68 10000 5.32 92 20:54 12.08.2022
21 Clear 22 1021 65 10000 5.42 88 19:42 12.08.2022
22 Clear 22 1021 63 10000 5.78 83 18:52 12.08.2022
23 Clear 30 1022 61 10000 6.06 81 17:36 12.08.2022
24 Clear 30 1022 61 10000 6.44 75 16:24 12.08.2022
25 Clear 23 1022 61 10000 6.14 73 14:47 12.08.2022
26 Clear 23 1022 60 10000 4.36 66 12:57 12.08.2022
27 Clouds 22 1023 62 10000 3.95 88 11:19 12.08.2022
28 Clouds 22 1023 70 10000 3.85 97 08:47 12.08.2022
29 Clouds 19 1023 77 10000 3.99 95 07:26 12.08.2022
30 Clear 17 1023 74 10000 3.43 98 03:35 12.08.2022
31 Clear 19 1024 74 10000 3.94 109 00:31 12.08.2022
32 Clear 20 1024 73 10000 4.11 104 23:40 11.08.2022
33 Clear 19 1024 73 10000 4.05 96 22:35 11.08.2022
34 Clear 19 1024 74 10000 4.56 95 21:47 11.08.2022
35 Clear 20 1024 72 10000 4.69 90 21:22 11.08.2022
36 Clear 20 1023 70 10000 4.92 85 20:29 11.08.2022
37 Clouds 26 1023 70 10000 4.95 84 19:33 11.08.2022
38 Clouds 21 1023 67 10000 5.42 76 18:41 11.08.2022
39 Clear 28 1024 64 10000 5.46 66 16:42 11.08.2022
40 Clear 21 1024 64 10000 5.57 64 15:42 11.08.2022
41 Clear 21 1024 64 10000 5.57 64 15:42 11.08.2022
42 Clouds 21 1025 65 10000 5.45 60 14:20 11.08.2022
43 Clouds 21 1025 63 10000 4.26 55 11:51 11.08.2022
44 Clouds 22 1026 64 10000 2.48 92 08:48 11.08.2022
45 Clear 16 1025 70 10000 2.5 99 05:44 11.08.2022
46 Clear 19 1026 70 10000 2.77 117 02:33 11.08.2022
47 Clear 19 1026 69 10000 3.9 117 22:59 10.08.2022
48 Clear 19 1027 68 10000 3.94 111 21:46 10.08.2022
49 Clear 19 1027 67 10000 3.97 101 20:56 10.08.2022
50 Clouds 23 1026 66 10000 3.91 88 20:27 10.08.2022
51 Clouds 20 1026 64 10000 4.33 89 18:48 10.08.2022
52 Clouds 25 1027 63 10000 4.62 67 17:27 10.08.2022
53 Clouds 20 1028 65 10000 4.17 56 14:53 10.08.2022
54 Clouds 20 1028 65 10000 3.81 45 13:33 10.08.2022
55 Clouds 20 1029 66 10000 1.92 29 10:50 10.08.2022
56 Clouds 19 1029 68 10000 0.75 107 08:39 10.08.2022
57 Clouds 17 1029 66 10000 0.61 115 07:35 10.08.2022
58 Clouds 16 1028 68 10000 0.73 84 04:50 10.08.2022
59 Clouds 18 1028 70 10000 1.61 110 01:52 10.08.2022
60 Clouds 18 1029 73 10000 2.35 116 23:32 09.08.2022
61 Clear 18 1029 74 10000 2.56 104 22:45 09.08.2022
62 Clear 19 1029 73 10000 3.44 69 21:24 09.08.2022
63 Clouds 23 1028 69 10000 3.23 55 19:28 09.08.2022
64 Clouds 20 1028 67 10000 3.32 49 17:53 09.08.2022
65 Clouds 20 1028 66 10000 3.34 40 17:26 09.08.2022
66 Clouds 20 1028 66 10000 3.34 40 16:30 09.08.2022
67 Clouds 19 1028 67 10000 3.79 36 15:26 09.08.2022
68 Clouds 19 1028 66 10000 2.21 348 12:20 09.08.2022
69 Clouds 21 1028 67 10000 0.95 188 08:54 09.08.2022
70 Clear 19 1028 70 10000 1.51 198 08:26 09.08.2022
71 Clear 15 1027 71 10000 1.12 242 07:18 09.08.2022
72 Clear 16 1027 71 10000 0.84 191 02:27 09.08.2022
73 Clear 18 1027 72 10000 0.59 227 23:26 08.08.2022
74 Clear 18 1027 72 10000 0.59 227 22:52 08.08.2022
75 Clear 18 1026 72 10000 0.53 239 21:48 08.08.2022
76 Clear 18 1026 71 10000 0.92 302 20:51 08.08.2022
77 Clouds 18 1025 69 10000 1.3 318 19:50 08.08.2022
78 Clouds 19 1025 65 10000 1.45 323 18:19 08.08.2022
79 Clouds 19 1025 66 10000 2.3 343 15:57 08.08.2022
80 Clouds 19 1025 66 10000 2.3 343 15:38 08.08.2022
81 Clouds 18 1025 70 10000 4.17 302 12:50 08.08.2022
82 Clouds 18 1025 69 10000 3.96 288 11:48 08.08.2022
83 Clear 20 1025 68 10000 3.73 259 09:36 08.08.2022
84 Clouds 17 1024 71 10000 3.57 235 05:37 08.08.2022
85 Clouds 17 1024 68 10000 3.25 204 02:24 08.08.2022
86 Clouds 17 1024 66 10000 0.93 168 22:25 07.08.2022
87 Clouds 17 1024 66 10000 0.93 168 21:38 07.08.2022
88 Clouds 18 1023 67 10000 2.41 301 20:25 07.08.2022
89 Clouds 18 1023 67 10000 2.41 301 19:54 07.08.2022
90 Clouds 18 1023 67 10000 2.41 301 19:34 07.08.2022
91 Clouds 18 1023 66 10000 4.02 298 18:23 07.08.2022
92 Clouds 18 1024 65 10000 4.81 295 16:54 07.08.2022
93 Clouds 18 1024 65 10000 4.81 295 16:35 07.08.2022
94 Clouds 17 1024 62 10000 5.88 283 15:20 07.08.2022
95 Clouds 17 1025 66 10000 6.09 274 13:26 07.08.2022
96 Clouds 17 1026 65 10000 4.92 261 11:27 07.08.2022
97 Clouds 21 1026 65 10000 4.92 261 10:34 07.08.2022
98 Clouds 14 1025 70 10000 3.87 247 07:36 07.08.2022
99 Clouds 16 1025 68 10000 5.24 297 03:20 07.08.2022
100 Clear 17 1025 64 10000 6.36 301 00:57 07.08.2022
101 Clear 18 1025 62 10000 6.47 293 22:25 06.08.2022
102 Clear 18 1025 63 10000 6.9 292 20:46 06.08.2022
103 Clear 19 1024 61 10000 6.27 288 19:41 06.08.2022
104 Clear 22 1024 60 10000 6.57 289 18:30 06.08.2022
105 Clear 19 1024 60 10000 7.09 289 17:33 06.08.2022
106 Clear 18 1024 61 10000 8.99 266 14:48 06.08.2022
107 Clear 18 1024 58 10000 8.46 274 13:49 06.08.2022
108 Clear 17 1024 59 10000 8.95 293 11:59 06.08.2022
109 Clear 17 1024 62 10000 9.59 293 10:33 06.08.2022
110 Clear 19 1023 68 10000 9.77 294 08:40 06.08.2022
111 Clear 17 1020 69 10000 10.14 309 03:54 06.08.2022
112 Clouds 17 1018 75 10000 6.9 288 23:54 05.08.2022
113 Clouds 18 1017 73 10000 6.05 289 22:33 05.08.2022
114 Clouds 17 1016 72 10000 6.99 294 20:20 05.08.2022
115 Clouds 20 1015 75 10000 6.13 290 18:47 05.08.2022
116 Rain 20 1015 81 10000 6.56 301 18:27 05.08.2022
117 Rain 20 1015 82 10000 6.37 308 16:50 05.08.2022
118 Clouds 18 1014 84 10000 4.23 312 15:23 05.08.2022
119 Rain 21 1014 84 10000 4.23 312 14:33 05.08.2022
120 Rain 21 1014 81 10000 4.22 346 13:25 05.08.2022
121 Clouds 22 1014 81 10000 4.22 346 12:45 05.08.2022
122 Rain 22 1013 86 10000 5.57 335 10:59 05.08.2022
123 Rain 19 1013 93 10000 6.77 341 08:45 05.08.2022
124 Clouds 19 1013 93 10000 7.6 337 07:33 05.08.2022
125 Clouds 22 1012 87 10000 2.4 185 01:52 05.08.2022
126 Clouds 21 1012 86 10000 5.26 48 22:43 04.08.2022
127 Rain 20 1013 89 10000 6.97 349 21:28 04.08.2022
128 Clouds 20 1013 89 10000 6.97 349 20:53 04.08.2022
129 Clouds 20 1013 89 10000 6.97 349 20:33 04.08.2022
130 Clouds 22 1011 81 10000 8.43 350 18:58 04.08.2022
131 Clouds 22 1011 81 10000 8.43 350 18:33 04.08.2022
132 Clouds 27 1011 51 10000 4.85 112 15:51 04.08.2022
133 Clouds 26 1013 58 10000 1.83 67 13:26 04.08.2022
134 Clouds 35 1013 59 10000 1.11 155 11:39 04.08.2022
135 Clouds 30 1014 63 10000 3.14 165 10:21 04.08.2022
136 Clouds 23 1014 69 10000 3.04 143 07:45 04.08.2022
137 Clouds 22 1015 73 10000 0.58 327 02:48 04.08.2022
138 Clouds 22 1015 72 10000 0.8 247 00:43 04.08.2022
139 Clouds 22 1014 71 10000 1 181 23:40 03.08.2022
140 Clouds 23 1014 67 10000 2.34 137 21:31 03.08.2022
141 Clouds 24 1014 64 10000 3.44 108 20:21 03.08.2022
142 Clouds 24 1014 62 10000 3.1 92 19:24 03.08.2022
143 Clouds 23 1014 65 10000 2.3 30 16:50 03.08.2022
144 Clouds 23 1014 67 10000 2.51 5 16:22 03.08.2022
145 Clouds 22 1015 68 10000 2.6 322 13:52 03.08.2022
146 Clouds 23 1015 63 10000 4.13 221 10:57 03.08.2022
147 Clouds 20 1015 64 10000 5.71 204 07:32 03.08.2022
148 Clouds 20 1015 61 10000 5.54 170 04:22 03.08.2022
149 Clouds 21 1015 62 10000 5.38 156 03:24 03.08.2022
150 Clouds 21 1016 66 10000 3.84 135 00:54 03.08.2022
151 Clouds 22 1016 65 10000 4.37 142 22:49 02.08.2022
152 Rain 22 1016 66 10000 3.25 159 21:52 02.08.2022
153 Clouds 19 1016 65 10000 3.81 137 20:37 02.08.2022
154 Clouds 19 1016 66 10000 3.25 89 18:42 02.08.2022
155 Clouds 18 1017 65 10000 2.78 27 15:36 02.08.2022
156 Clouds 22 1018 64 10000 2.6 283 11:32 02.08.2022
157 Clouds 19 1019 65 10000 2.53 274 09:18 02.08.2022
158 Clouds 16 1018 64 10000 3.21 287 07:53 02.08.2022
159 Clouds 16 1018 64 10000 3.4 298 06:43 02.08.2022
160 Clouds 16 1017 63 10000 4.14 309 04:54 02.08.2022
161 Clouds 18 1017 63 10000 6.46 322 23:38 01.08.2022
162 Clouds 18 1016 65 10000 6.73 308 22:25 01.08.2022
163 Clouds 19 1016 65 10000 6.62 296 20:52 01.08.2022
164 Clouds 22 1015 67 10000 4.76 274 19:25 01.08.2022
165 Clouds 22 1015 67 10000 4.76 274 18:40 01.08.2022
166 Clouds 23 1015 75 10000 4.05 325 16:53 01.08.2022
167 Clouds 17 1015 82 10000 6.4 333 15:52 01.08.2022
168 Clouds 17 1015 82 10000 6.4 333 15:30 01.08.2022
169 Clouds 17 1014 87 10000 8.12 328 14:43 01.08.2022
170 Clouds 19 1013 88 10000 5.75 318 12:47 01.08.2022
171 Clouds 18 1012 88 10000 3.12 270 10:22 01.08.2022
172 Clouds 20 1012 88 10000 1.59 243 08:34 01.08.2022
173 Clouds 19 1011 86 10000 3.42 171 04:56 01.08.2022
174 Clouds 16 1011 89 10000 3.49 158 03:49 01.08.2022
175 Clouds 17 1012 82 10000 3.73 163 00:49 01.08.2022
176 Rain 18 1013 78 10000 3.79 194 22:41 31.07.2022
177 Clouds 19 1012 75 10000 5.49 126 21:33 31.07.2022
178 Clouds 19 1013 69 10000 5.87 117 19:56 31.07.2022
179 Clouds 20 1013 67 10000 5.38 116 18:35 31.07.2022
180 Clouds 20 1014 69 10000 5.9 78 15:54 31.07.2022
181 Clouds 19 1015 70 10000 4.72 59 13:51 31.07.2022
182 Clouds 19 1016 69 10000 3.44 62 12:28 31.07.2022
183 Clouds 20 1016 69 10000 2.39 84 09:55 31.07.2022
184 Clouds 18 1016 74 10000 2.28 117 08:18 31.07.2022
185 Clear 17 1017 78 10000 3.01 112 03:49 31.07.2022
186 Clouds 17 1018 81 10000 4.3 111 23:53 30.07.2022
187 Clouds 17 1018 81 10000 5.39 96 22:19 30.07.2022
188 Clouds 17 1018 81 10000 5.39 96 22:19 30.07.2022
189 Clouds 17 1018 81 10000 5.39 96 21:49 30.07.2022
190 Clouds 18 1018 78 10000 5.48 94 20:58 30.07.2022
191 Clouds 18 1018 78 10000 5.48 94 20:58 30.07.2022
192 Clouds 18 1018 74 10000 5.92 92 19:59 30.07.2022
193 Clouds 26 1017 74 10000 6.3 88 18:57 30.07.2022
194 Clouds 26 1018 73 10000 6.11 83 17:45 30.07.2022
195 Clouds 19 1018 73 10000 5.98 82 15:55 30.07.2022
196 Clouds 19 1018 72 10000 5.98 84 15:25 30.07.2022
197 Clouds 19 1018 70 10000 5.91 88 13:21 30.07.2022
198 Clouds 19 1018 70 10000 5.39 95 12:20 30.07.2022
199 Clouds 24 1019 70 10000 5.34 101 10:36 30.07.2022
200 Clouds 19 1018 72 10000 5.75 107 09:57 30.07.2022
201 Clouds 18 1018 74 10000 5.97 108 08:44 30.07.2022
202 Clouds 18 1018 78 10000 6.15 108 06:50 30.07.2022
203 Clouds 18 1018 83 10000 5.91 95 02:33 30.07.2022
204 Clouds 18 1019 79 10000 7.58 92 22:57 29.07.2022
205 Clouds 18 1019 79 10000 8.25 88 21:30 29.07.2022
206 Clouds 18 1019 80 10000 8.69 86 20:50 29.07.2022
207 Clouds 23 1019 80 10000 8.49 79 19:34 29.07.2022
208 Clouds 18 1020 78 10000 7.36 69 16:44 29.07.2022
209 Clouds 19 1020 76 10000 6.56 84 14:23 29.07.2022
210 Clouds 18 1021 76 10000 6.05 86 12:41 29.07.2022
211 Clouds 17 1021 70 10000 3.96 94 08:52 29.07.2022
212 Clouds 16 1021 72 10000 3.44 101 08:22 29.07.2022
213 Clouds 15 1021 71 10000 3.47 115 04:39 29.07.2022
214 Clouds 15 1022 70 10000 1.94 86 23:46 28.07.2022
215 Clouds 15 1021 69 10000 0.93 4 21:39 28.07.2022
216 Clouds 15 1021 69 10000 1.3 313 20:52 28.07.2022
217 Clouds 16 1020 67 10000 1.48 306 20:18 28.07.2022
218 Clouds 16 1020 67 10000 1.48 306 19:40 28.07.2022
219 Clouds 21 1020 70 10000 3.61 275 18:19 28.07.2022
220 Clouds 16 1020 70 10000 3.61 275 17:36 28.07.2022
221 Clouds 15 1020 69 10000 3.72 270 16:41 28.07.2022
222 Clouds 15 1020 65 10000 3.62 277 13:57 28.07.2022
223 Clouds 15 1020 66 10000 4.13 283 12:40 28.07.2022
224 Clear 14 1020 71 10000 5.01 293 08:49 28.07.2022
225 Clear 14 1018 73 10000 6.48 301 05:41 28.07.2022
226 Clear 14 1018 73 10000 6.77 298 05:21 28.07.2022
227 Clouds 17 1017 63 10000 8.55 302 23:41 27.07.2022
228 Clouds 18 1016 66 10000 8.24 295 21:31 27.07.2022
229 Clouds 20 1015 66 10000 7.71 286 20:19 27.07.2022
230 Clouds 18 1015 65 10000 8.84 281 19:26 27.07.2022
231 Clouds 18 1015 64 10000 8.92 284 16:33 27.07.2022
232 Clouds 17 1015 63 10000 9.99 287 15:51 27.07.2022
233 Clouds 17 1015 64 10000 10.64 282 14:42 27.07.2022
234 Clouds 16 1015 62 10000 10.96 284 13:57 27.07.2022
235 Clouds 15 1014 68 10000 11.25 283 11:18 27.07.2022
236 Clouds 17 1013 70 10000 11.36 287 07:53 27.07.2022
237 Clouds 16 1013 68 10000 10 281 05:18 27.07.2022
238 Clouds 18 1013 63 10000 10.98 283 23:41 26.07.2022
239 Clouds 17 1013 62 10000 11.31 282 22:20 26.07.2022
240 Clouds 17 1013 64 10000 11.12 281 21:19 26.07.2022
241 Clouds 17 1012 65 10000 10.83 280 19:39 26.07.2022
242 Clouds 18 1012 65 10000 10.86 276 18:41 26.07.2022
243 Clouds 18 1012 66 10000 10.45 280 17:55 26.07.2022
244 Clouds 18 1012 65 10000 10.14 276 15:47 26.07.2022
245 Clouds 18 1011 66 10000 9.59 277 14:44 26.07.2022
246 Clouds 18 1011 70 10000 8.81 286 12:41 26.07.2022
247 Rain 21 1009 80 10000 9.55 299 10:57 26.07.2022
248 Clouds 18 1008 86 10000 11 262 08:31 26.07.2022
249 Clouds 17 1008 88 10000 9.75 246 05:30 26.07.2022
250 Clouds 20 1006 88 10000 7.67 261 00:24 26.07.2022
251 Rain 21 1006 90 10000 7.5 270 22:51 25.07.2022
252 Rain 18 1006 91 10000 9.3 284 22:21 25.07.2022
253 Rain 18 1006 91 10000 9.3 284 21:38 25.07.2022
254 Rain 19 1006 93 10000 8.22 260 20:39 25.07.2022
255 Rain 20 1004 81 10000 4.87 280 19:27 25.07.2022
256 Rain 21 1003 75 10000 3.64 324 18:18 25.07.2022
257 Clouds 23 1004 65 10000 5.28 296 17:26 25.07.2022
258 Clouds 33 1005 53 10000 4.97 186 14:32 25.07.2022
259 Clouds 32 1009 51 10000 6.4 164 11:50 25.07.2022
260 Clouds 25 1011 58 10000 7.33 174 08:32 25.07.2022
261 Clouds 19 1014 66 10000 5.96 182 02:21 25.07.2022
262 Clouds 22 1015 71 10000 6.11 160 23:51 24.07.2022
263 Clouds 19 1015 74 10000 6.22 151 22:54 24.07.2022
264 Clouds 19 1016 73 10000 6.39 144 22:26 24.07.2022
265 Clouds 19 1016 74 10000 6.76 136 21:19 24.07.2022
266 Clouds 19 1016 74 10000 6.76 136 20:47 24.07.2022
267 Clouds 19 1016 71 10000 6.89 134 19:54 24.07.2022
268 Clouds 20 1016 68 10000 5.44 119 18:38 24.07.2022
269 Clouds 18 1018 65 10000 0.69 25 16:29 24.07.2022
270 Clouds 18 1018 65 10000 0.69 25 15:45 24.07.2022
271 Clouds 17 1019 69 10000 2 294 14:29 24.07.2022
272 Clouds 17 1019 72 10000 3.4 280 12:54 24.07.2022
273 Clouds 17 1020 73 10000 3.99 271 11:40 24.07.2022
274 Clouds 16 1020 74 10000 4.27 267 11:00 24.07.2022
275 Clouds 18 1019 75 10000 4.9 282 08:33 24.07.2022
276 Clouds 15 1019 76 10000 5.21 292 07:52 24.07.2022
277 Clouds 15 1019 77 10000 6.52 291 05:49 24.07.2022
278 Clouds 18 1018 79 10000 7.08 299 00:29 24.07.2022
279 Clouds 19 1017 79 10000 8.09 299 21:37 23.07.2022
280 Clouds 17 1016 81 10000 10.27 288 20:28 23.07.2022
281 Clouds 17 1016 75 10000 9.37 280 18:50 23.07.2022
282 Clouds 17 1016 73 10000 9.55 266 17:29 23.07.2022
283 Clouds 17 1016 73 10000 9.55 266 16:35 23.07.2022
284 Clouds 17 1016 71 10000 9.18 265 15:31 23.07.2022
285 Clouds 17 1016 71 10000 9.09 267 14:59 23.07.2022
286 Clouds 17 1016 71 10000 9.09 267 14:30 23.07.2022
287 Clouds 18 1016 69 10000 9.12 267 13:39 23.07.2022
288 Clouds 19 1016 71 10000 8.63 261 11:18 23.07.2022
289 Clouds 17 1015 72 10000 8.37 262 10:22 23.07.2022
290 Clouds 17 1015 72 10000 7.97 257 08:55 23.07.2022
291 Clouds 16 1016 75 10000 6.54 261 03:40 23.07.2022
292 Clouds 17 1016 76 10000 7.02 272 01:58 23.07.2022
293 Clouds 17 1016 76 10000 8.01 281 23:39 22.07.2022
294 Clouds 18 1016 74 10000 7.36 264 20:57 22.07.2022
295 Clear 19 1016 72 10000 7.4 264 19:47 22.07.2022
296 Clear 19 1016 71 10000 7.31 262 18:36 22.07.2022
297 Clear 23 1016 70 10000 7.06 262 17:37 22.07.2022
298 Clear 18 1016 73 10000 8.11 258 15:26 22.07.2022
299 Clouds 17 1017 78 10000 9.01 265 12:23 22.07.2022
300 Rain 17 1016 85 10000 7.58 262 09:43 22.07.2022
301 Rain 17 1016 86 10000 7.12 263 09:18 22.07.2022
302 Clouds 18 1015 88 10000 6.49 268 07:23 22.07.2022
303 Clouds 18 1015 89 10000 4.93 222 04:18 22.07.2022
304 Clouds 19 1015 90 10000 4.74 219 22:56 21.07.2022
305 Clouds 19 1015 93 10000 3.87 226 21:37 21.07.2022
306 Clouds 19 1016 93 10000 2.78 251 19:35 21.07.2022
307 Clouds 20 1015 87 7740 9.63 252 18:29 21.07.2022
308 Clouds 21 1015 81 10000 5.42 273 17:20 21.07.2022
309 Clouds 21 1015 79 10000 5.55 277 15:39 21.07.2022
310 Clouds 21 1015 80 10000 6.6 265 14:45 21.07.2022
311 Clouds 20 1015 82 10000 10.79 255 13:22 21.07.2022
312 Clouds 25 1014 82 10000 9.53 259 11:43 21.07.2022
313 Clouds 25 1013 59 10000 5.53 180 09:51 21.07.2022
314 Clouds 27 1013 61 10000 4.88 155 08:53 21.07.2022
315 Clouds 22 1013 63 10000 4.81 153 07:50 21.07.2022
316 Clouds 24 1013 64 10000 5.04 167 06:26 21.07.2022
317 Clouds 22 1014 62 10000 5.66 142 02:35 21.07.2022
318 Clouds 28 1015 65 10000 6.38 134 22:46 20.07.2022
319 Clear 29 1015 66 10000 6.78 125 22:18 20.07.2022
320 Clear 32 1015 67 10000 7.16 117 20:46 20.07.2022
321 Clear 23 1015 67 10000 7.8 112 19:46 20.07.2022
322 Clear 36 1016 63 10000 7.81 113 18:53 20.07.2022
323 Clear 36 1016 63 10000 7.81 113 18:30 20.07.2022
324 Clear 25 1017 58 10000 8.46 107 17:25 20.07.2022
325 Clear 25 1017 58 10000 8.22 104 15:33 20.07.2022
326 Clear 25 1018 57 10000 7.8 103 14:36 20.07.2022
327 Clouds 25 1018 56 10000 6.11 115 12:54 20.07.2022
328 Clouds 32 1019 61 10000 5.2 127 10:57 20.07.2022
329 Clear 18 1019 70 10000 4.49 150 06:21 20.07.2022
330 Clear 21 1019 64 10000 4.12 130 01:47 20.07.2022
331 Clear 21 1020 63 10000 3.78 127 00:42 20.07.2022
332 Clear 20 1020 64 10000 3.18 139 22:36 19.07.2022
333 Clear 21 1019 62 10000 3.34 134 22:18 19.07.2022
334 Clear 22 1019 59 10000 3.02 118 20:50 19.07.2022
335 Clouds 22 1019 58 10000 2.18 109 19:32 19.07.2022
336 Clouds 22 1019 60 10000 1.17 81 18:42 19.07.2022
337 Clouds 22 1019 60 10000 0.95 25 17:55 19.07.2022
338 Clouds 21 1020 63 10000 1.74 332 15:49 19.07.2022
339 Clouds 20 1020 68 10000 2.62 302 13:46 19.07.2022
340 Clouds 19 1020 72 10000 2.55 294 11:34 19.07.2022
341 Clear 19 1020 75 10000 2.76 279 09:54 19.07.2022
342 Clear 19 1020 76 10000 2.74 270 08:48 19.07.2022
343 Clouds 18 1020 79 10000 2.85 278 08:21 19.07.2022
344 Clouds 18 1019 79 10000 3.31 279 07:18 19.07.2022
345 Clouds 18 1019 78 10000 3.52 272 05:23 19.07.2022
346 Clouds 18 1019 78 10000 3.52 272 04:40 19.07.2022
347 Clouds 19 1019 76 10000 3.3 255 00:21 19.07.2022
348 Clouds 19 1019 75 10000 3.08 241 23:21 18.07.2022
349 Clouds 19 1019 75 10000 3.08 241 22:55 18.07.2022
350 Clouds 19 1019 73 10000 2.83 222 21:50 18.07.2022
351 Clouds 20 1019 70 10000 2.96 207 20:50 18.07.2022
352 Clouds 20 1020 67 10000 3.62 243 19:24 18.07.2022
353 Clouds 19 1021 70 10000 2.96 283 16:52 18.07.2022
354 Clouds 19 1021 71 10000 3.51 282 15:42 18.07.2022
355 Clouds 18 1022 75 10000 4.62 256 13:45 18.07.2022
356 Clouds 18 1023 76 10000 5.05 264 12:38 18.07.2022
357 Clouds 18 1023 80 10000 5.23 253 10:37 18.07.2022
358 Clouds 17 1024 83 10000 5.66 262 08:50 18.07.2022
359 Clouds 17 1023 85 10000 5.97 259 06:58 18.07.2022
360 Clouds 17 1024 82 10000 6.95 282 00:36 18.07.2022
361 Clouds 18 1024 79 10000 6.97 277 22:34 17.07.2022
362 Clouds 17 1024 79 10000 6.68 268 21:47 17.07.2022
363 Clouds 21 1024 79 10000 7.39 262 21:18 17.07.2022
364 Clouds 21 1024 79 10000 7.39 262 20:37 17.07.2022
365 Clouds 22 1024 77 10000 6.93 273 19:29 17.07.2022
366 Clouds 18 1024 77 10000 9.35 274 18:27 17.07.2022
367 Clouds 18 1024 77 10000 9.35 274 17:38 17.07.2022
368 Clouds 17 1024 78 10000 9.67 261 16:51 17.07.2022
369 Clouds 17 1024 78 10000 9.67 261 16:51 17.07.2022
370 Clouds 17 1024 73 10000 7.67 261 16:26 17.07.2022
371 Clouds 17 1024 70 10000 7.2 275 14:44 17.07.2022
372 Clouds 17 1024 70 10000 8.58 276 13:31 17.07.2022
373 Clouds 16 1024 69 10000 9.03 283 11:41 17.07.2022
374 Clouds 15 1024 74 10000 8.88 290 09:24 17.07.2022
375 Clouds 14 1023 75 10000 7.87 293 05:25 17.07.2022
376 Clear 16 1023 72 10000 8.57 300 02:32 17.07.2022
377 Clear 17 1021 71 10000 9.8 303 23:20 16.07.2022
378 Clear 17 1020 71 10000 9.13 300 21:32 16.07.2022
379 Clear 18 1019 66 10000 8.66 300 19:40 16.07.2022
380 Clear 18 1018 67 10000 8.03 300 18:35 16.07.2022
381 Clear 18 1017 66 10000 7.84 309 16:53 16.07.2022
382 Clear 17 1016 65 10000 8.5 295 14:31 16.07.2022
383 Clouds 16 1015 66 10000 11.45 302 11:38 16.07.2022
384 Rain 17 1014 71 10000 11.63 306 09:35 16.07.2022
385 Clouds 15 1014 72 10000 11.65 310 08:48 16.07.2022
386 Clouds 16 1013 76 10000 10.93 318 08:29 16.07.2022
387 Rain 13 1014 91 8715 6.28 231 04:28 16.07.2022
388 Rain 14 1015 84 10000 5.87 255 03:29 16.07.2022
389 Clouds 16 1016 67 10000 9.32 279 23:38 15.07.2022
390 Clouds 16 1016 66 10000 9.06 283 22:42 15.07.2022
391 Clouds 16 1016 68 10000 9.7 282 21:29 15.07.2022
392 Clouds 16 1016 68 10000 9.7 282 20:31 15.07.2022
393 Clouds 16 1016 68 10000 11.08 279 18:44 15.07.2022
394 Clouds 17 1016 68 10000 11.05 272 17:48 15.07.2022
395 Clouds 17 1016 63 10000 9.59 275 14:57 15.07.2022
396 Clouds 17 1016 59 10000 10.64 288 13:20 15.07.2022
397 Clouds 16 1016 61 10000 11.62 291 11:45 15.07.2022
398 Clouds 16 1016 64 10000 12.11 292 10:42 15.07.2022
399 Clouds 16 1015 69 10000 12.88 291 07:42 15.07.2022
400 Clouds 15 1014 70 10000 12.01 293 02:24 15.07.2022
401 Clouds 15 1014 69 10000 12.02 294 00:38 15.07.2022
402 Clouds 16 1014 66 10000 11.56 296 22:54 14.07.2022
403 Clouds 17 1013 67 10000 10.46 291 21:57 14.07.2022
404 Clouds 17 1013 67 10000 10.46 291 21:32 14.07.2022
405 Clouds 17 1013 68 10000 9.68 292 20:57 14.07.2022
406 Clouds 17 1013 68 10000 9.68 292 20:37 14.07.2022
407 Clouds 17 1013 71 10000 9.96 284 20:18 14.07.2022
408 Clouds 17 1014 69 10000 9.55 267 16:42 14.07.2022
409 Clouds 17 1015 68 10000 9.2 266 16:18 14.07.2022
410 Clouds 17 1015 69 10000 9.49 268 14:44 14.07.2022
411 Clouds 17 1016 69 10000 9.98 269 13:39 14.07.2022
412 Clouds 17 1016 67 10000 9.83 275 12:23 14.07.2022
413 Clouds 16 1016 66 10000 9.5 278 11:26 14.07.2022
414 Clouds 16 1016 66 10000 9.5 278 10:49 14.07.2022
415 Clouds 15 1017 71 10000 9.09 296 08:28 14.07.2022
416 Clouds 15 1016 72 10000 9.96 310 04:18 14.07.2022
417 Clear 16 1016 69 10000 10.87 306 00:55 14.07.2022
418 Clear 17 1016 71 10000 10.71 305 00:18 14.07.2022
419 Clear 19 1015 70 10000 9.95 303 22:28 13.07.2022
420 Clear 19 1015 70 10000 9.95 303 21:38 13.07.2022
421 Clear 19 1015 73 10000 9.88 296 20:38 13.07.2022
422 Clouds 20 1013 76 10000 8.03 272 18:26 13.07.2022
423 Clouds 20 1013 76 10000 6.07 267 17:22 13.07.2022
424 Clouds 20 1014 77 10000 5.41 264 16:18 13.07.2022
425 Clouds 20 1015 78 10000 5.78 269 13:57 13.07.2022
426 Clouds 20 1016 75 10000 6.36 247 11:36 13.07.2022
427 Clouds 19 1016 80 10000 5.78 251 10:44 13.07.2022
428 Clouds 19 1016 80 10000 7.12 266 09:49 13.07.2022
429 Clouds 19 1017 79 10000 8.6 279 09:20 13.07.2022
430 Rain 18 1017 84 10000 6.94 259 05:21 13.07.2022
431 Clouds 18 1019 80 10000 6.4 281 01:21 13.07.2022
432 Clouds 19 1020 83 10000 6.57 283 23:21 12.07.2022
433 Clouds 19 1020 82 10000 6.43 282 21:49 12.07.2022
434 Clouds 19 1020 83 10000 6.66 281 20:54 12.07.2022
435 Clouds 19 1020 83 10000 6.66 281 20:36 12.07.2022
436 Clouds 18 1020 80 10000 6.66 267 18:53 12.07.2022
437 Clouds 18 1021 81 10000 7.18 271 17:32 12.07.2022
438 Clouds 18 1021 79 10000 6.19 272 15:37 12.07.2022
439 Clear 18 1022 82 10000 7.38 274 13:55 12.07.2022
440 Clear 17 1022 84 10000 7.29 271 11:59 12.07.2022
441 Clear 17 1022 83 10000 6.52 281 10:51 12.07.2022
442 Clear 17 1023 83 10000 5.5 305 09:22 12.07.2022
443 Clear 21 1022 78 10000 5.24 313 08:18 12.07.2022
444 Clear 17 1022 74 10000 5.21 313 06:24 12.07.2022
445 Clear 17 1022 74 10000 5.21 313 05:39 12.07.2022
446 Clouds 17 1021 74 10000 5.74 311 01:57 12.07.2022
447 Clouds 17 1021 74 10000 5.74 311 01:57 12.07.2022
448 Clouds 17 1021 76 10000 5.43 309 01:57 12.07.2022
449 Clouds 17 1021 74 10000 5.21 318 22:59 11.07.2022
450 Clouds 18 1021 74 10000 5.27 312 22:29 11.07.2022
451 Clouds 18 1021 74 10000 5.34 305 20:33 11.07.2022
452 Clouds 18 1020 75 10000 5.87 292 19:36 11.07.2022
453 Clouds 17 1020 75 10000 7.11 279 18:32 11.07.2022
454 Clouds 17 1020 75 10000 7.45 276 17:46 11.07.2022
455 Clouds 17 1020 76 10000 7.03 273 16:19 11.07.2022
456 Clear 17 1021 75 10000 7.16 275 14:38 11.07.2022
457 Clouds 17 1020 73 10000 6.15 311 11:49 11.07.2022
458 Clouds 16 1019 75 10000 6.32 328 10:29 11.07.2022
459 Clouds 17 1019 74 10000 7.14 328 09:42 11.07.2022
460 Clouds 16 1019 74 10000 7.4 336 08:34 11.07.2022
461 Clouds 16 1018 73 10000 7.83 341 05:52 11.07.2022
462 Clear 17 1018 66 10000 8.36 320 00:22 11.07.2022
463 Clear 17 1018 65 10000 8.39 324 23:28 10.07.2022
464 Clear 17 1018 65 10000 8.07 330 21:55 10.07.2022
465 Clear 17 1017 63 10000 7.99 336 20:54 10.07.2022
466 Clear 18 1017 65 10000 8 335 19:50 10.07.2022
467 Clear 21 1017 63 10000 7.73 334 18:53 10.07.2022
468 Clear 18 1017 64 10000 6.72 324 17:41 10.07.2022
469 Clear 18 1017 66 10000 6.83 294 16:58 10.07.2022
470 Clear 17 1017 67 10000 7.72 277 16:20 10.07.2022
471 Clouds 17 1017 68 10000 7.55 279 14:33 10.07.2022
472 Clouds 16 1017 64 10000 8.04 293 12:38 10.07.2022
473 Clouds 16 1017 66 10000 8.68 294 11:34 10.07.2022
474 Clouds 15 1016 73 10000 9.99 305 09:28 10.07.2022
475 Clouds 15 1016 73 10000 9.99 305 08:38 10.07.2022
476 Clouds 15 1016 74 10000 10.36 308 05:36 10.07.2022
477 Clouds 15 1017 71 10000 11.79 306 23:35 09.07.2022
478 Clouds 16 1017 67 10000 11.92 303 22:26 09.07.2022
479 Clouds 18 1017 67 10000 11.92 303 21:40 09.07.2022
480 Clouds 20 1017 66 10000 11.06 296 19:37 09.07.2022
481 Clear 18 1017 66 10000 10.62 296 18:25 09.07.2022
482 Clear 17 1018 68 10000 10.38 295 17:21 09.07.2022
483 Clear 18 1018 71 10000 10.66 298 15:58 09.07.2022
484 Clear 18 1018 71 10000 10.66 298 15:38 09.07.2022
485 Clouds 18 1018 68 10000 9.32 294 14:21 09.07.2022
486 Clouds 18 1018 68 10000 9.32 294 13:47 09.07.2022
487 Clouds 18 1019 72 10000 9.52 291 11:45 09.07.2022
488 Clouds 17 1019 77 10000 9.29 287 10:26 09.07.2022
489 Clouds 20 1019 77 10000 9.29 287 09:38 09.07.2022
490 Clouds 17 1019 81 10000 10.25 288 07:44 09.07.2022
491 Clouds 16 1020 80 10000 11.65 294 04:41 09.07.2022
492 Clouds 17 1022 75 10000 10.18 289 23:41 08.07.2022
493 Clouds 17 1022 76 10000 9.78 289 22:33 08.07.2022
494 Clear 19 1022 74 10000 6.89 290 21:26 08.07.2022
495 Clear 18 1022 74 10000 6.89 290 20:35 08.07.2022
496 Clouds 18 1022 72 10000 6.62 285 19:38 08.07.2022
497 Clouds 22 1022 70 10000 7.67 290 17:50 08.07.2022
498 Clouds 18 1022 73 10000 7.17 274 16:29 08.07.2022
499 Clouds 17 1023 76 10000 7.37 287 14:50 08.07.2022
500 Clouds 17 1023 81 10000 9.29 296 12:42 08.07.2022
501 Clouds 16 1022 81 10000 10.16 296 10:52 08.07.2022
502 Clouds 18 1022 77 10000 9.5 296 09:58 08.07.2022
503 Clouds 18 1022 79 10000 9.14 294 07:53 08.07.2022
504 Clear 17 1021 80 10000 9.15 310 06:23 08.07.2022
505 Clouds 18 1019 83 10000 8.25 322 00:41 08.07.2022
506 Clouds 18 1017 84 10000 9.63 341 22:57 07.07.2022
507 Clouds 18 1016 82 10000 8.16 329 21:52 07.07.2022
508 Clouds 20 1014 77 10000 5.16 302 19:47 07.07.2022
509 Clouds 21 1014 74 10000 5.91 293 17:56 07.07.2022
510 Clouds 22 1014 77 10000 7.01 295 16:32 07.07.2022
511 Clouds 18 1013 81 10000 6.77 300 14:21 07.07.2022
512 Clouds 20 1012 85 10000 5.63 303 12:46 07.07.2022
513 Clouds 20 1011 85 10000 4.67 292 12:23 07.07.2022
514 Clouds 19 1011 85 10000 4.67 292 11:34 07.07.2022
515 Clouds 17 1011 87 10000 4.92 272 10:46 07.07.2022
516 Clouds 17 1011 92 10000 6.35 250 10:28 07.07.2022
517 Clouds 17 1011 92 10000 6.35 250 09:52 07.07.2022
518 Rain 15 1011 96 10000 9.58 220 06:32 07.07.2022
519 Clouds 16 1015 75 10000 8.33 230 00:31 07.07.2022
520 Clouds 16 1016 68 10000 8.01 239 23:36 06.07.2022
521 Clouds 16 1016 64 10000 8.45 258 23:18 06.07.2022
522 Clouds 17 1016 64 10000 8.45 258 22:52 06.07.2022
523 Clouds 17 1016 64 10000 8.45 258 22:33 06.07.2022
524 Clouds 17 1017 62 10000 8.82 269 20:30 06.07.2022
525 Clouds 19 1017 64 10000 9 265 19:33 06.07.2022
526 Clouds 17 1019 59 10000 7.6 274 17:22 06.07.2022
527 Clouds 17 1019 59 10000 8.13 281 15:58 06.07.2022
528 Clouds 17 1020 60 10000 8.32 287 13:21 06.07.2022
529 Clouds 16 1019 62 10000 8.33 289 12:28 06.07.2022
530 Clouds 16 1019 62 10000 8.33 289 11:44 06.07.2022
531 Clouds 16 1019 70 10000 8.74 299 09:50 06.07.2022
532 Clouds 16 1019 72 10000 8.04 301 07:44 06.07.2022
533 Clouds 16 1018 74 10000 7.34 293 07:19 06.07.2022
534 Clouds 16 1019 74 10000 7.65 277 00:38 06.07.2022
535 Clouds 17 1019 68 10000 7.57 274 22:43 05.07.2022
536 Clouds 18 1018 67 10000 6.78 269 21:29 05.07.2022
537 Clouds 18 1018 67 10000 6.78 269 20:35 05.07.2022
538 Clouds 18 1018 69 10000 6.94 264 19:40 05.07.2022
539 Clear 18 1018 69 10000 7.6 260 18:23 05.07.2022
540 Clear 18 1018 69 10000 7.6 260 17:39 05.07.2022
541 Clouds 18 1019 68 10000 7.35 263 16:39 05.07.2022
542 Clouds 18 1019 67 10000 7.41 267 15:23 05.07.2022
543 Clear 17 1019 67 10000 7.71 264 13:36 05.07.2022
544 Clouds 17 1019 69 10000 8.15 266 12:41 05.07.2022
545 Clouds 17 1019 71 10000 8.76 265 10:46 05.07.2022
546 Clouds 17 1019 72 10000 8.77 267 09:58 05.07.2022
547 Clouds 16 1018 76 10000 8.82 251 08:24 05.07.2022
548 Clouds 16 1018 78 10000 8.58 247 07:21 05.07.2022
549 Clear 16 1018 79 10000 7.76 246 04:40 05.07.2022
550 Clear 17 1018 75 10000 7.39 257 02:48 05.07.2022
551 Clouds 17 1017 71 10000 8.28 275 23:42 04.07.2022
552 Clouds 18 1017 73 10000 7.71 281 22:59 04.07.2022
553 Clouds 18 1017 72 10000 6.97 270 22:20 04.07.2022
554 Clouds 18 1017 73 10000 6.23 249 21:18 04.07.2022
555 Clouds 18 1017 73 10000 6.23 249 20:50 04.07.2022
556 Clouds 18 1017 73 10000 6.23 249 20:32 04.07.2022
557 Clouds 19 1017 71 10000 6.55 265 19:44 04.07.2022
558 Clouds 19 1016 73 10000 6.1 255 19:25 04.07.2022
559 Clouds 18 1017 73 10000 6.27 264 17:40 04.07.2022
560 Clouds 18 1017 72 10000 6.85 262 15:42 04.07.2022
561 Clouds 18 1017 72 10000 7.42 261 14:42 04.07.2022
562 Clouds 18 1017 71 10000 7.99 261 13:27 04.07.2022
563 Clear 18 1017 71 10000 7.94 270 11:43 04.07.2022
564 Clear 18 1017 74 10000 6.88 275 10:33 04.07.2022
565 Clear 18 1016 77 10000 6.4 281 09:40 04.07.2022
566 Clouds 18 1015 79 10000 6.48 277 06:53 04.07.2022
567 Clouds 17 1015 86 10000 3.12 315 03:30 04.07.2022
568 Rain 19 1015 82 10000 4.79 286 00:30 04.07.2022
569 Clouds 20 1015 79 10000 2.16 222 22:58 03.07.2022
570 Clouds 20 1015 83 10000 0.61 253 20:47 03.07.2022
571 Clouds 20 1015 79 10000 2.31 261 20:25 03.07.2022
572 Clouds 20 1015 77 10000 2.41 334 19:26 03.07.2022
573 Clouds 20 1015 77 10000 2.41 334 18:32 03.07.2022
574 Clouds 21 1015 76 10000 1.35 309 17:43 03.07.2022
575 Clouds 23 1015 60 10000 5.3 141 15:29 03.07.2022
576 Clouds 23 1015 60 10000 5.3 141 14:58 03.07.2022
577 Clouds 23 1016 59 10000 5.99 139 13:59 03.07.2022
578 Clouds 23 1016 59 10000 5.99 139 13:33 03.07.2022
579 Clouds 28 1017 59 10000 6.39 151 12:32 03.07.2022
580 Clouds 27 1018 62 10000 7.31 156 11:20 03.07.2022
581 Clouds 22 1018 62 10000 7.31 156 10:38 03.07.2022
582 Clouds 22 1018 65 10000 7.06 159 09:31 03.07.2022
583 Clouds 19 1018 70 10000 6.82 157 07:34 03.07.2022
584 Clouds 18 1021 80 10000 7.24 129 01:42 03.07.2022
585 Clouds 18 1021 75 10000 6.59 117 23:50 02.07.2022
586 Clouds 18 1021 73 10000 6.14 120 22:33 02.07.2022
587 Clouds 18 1022 71 10000 5.63 120 20:50 02.07.2022
588 Clouds 19 1022 66 10000 4.6 117 19:52 02.07.2022
589 Clouds 19 1022 63 10000 3.1 104 19:20 02.07.2022
590 Clear 19 1022 64 10000 1.32 70 17:41 02.07.2022
591 Clear 19 1022 65 10000 1.28 342 16:49 02.07.2022
592 Clear 18 1023 69 10000 6.32 274 13:52 02.07.2022
593 Clear 18 1023 69 10000 7.14 261 12:21 02.07.2022
594 Clear 18 1023 71 10000 7.46 257 11:26 02.07.2022
595 Clear 18 1023 71 10000 7.46 257 10:37 02.07.2022
596 Clear 18 1022 73 10000 7.17 253 08:55 02.07.2022
597 Clouds 17 1021 73 10000 7.25 261 08:20 02.07.2022
598 Clouds 16 1021 76 10000 7.34 260 07:27 02.07.2022
599 Rain 18 1019 74 10000 9.23 280 01:53 02.07.2022
600 Clouds 17 1019 73 10000 8.75 294 23:56 01.07.2022
601 Clouds 17 1018 77 10000 9.52 298 22:41 01.07.2022
602 Clouds 17 1017 82 10000 10.99 293 21:48 01.07.2022
603 Rain 17 1017 83 10000 9.68 292 21:28 01.07.2022
604 Rain 17 1017 83 10000 9.68 292 20:40 01.07.2022
605 Rain 18 1016 88 9532 10.76 288 19:46 01.07.2022
606 Rain 19 1014 92 10000 9.47 299 17:53 01.07.2022
607 Clouds 19 1013 94 10000 9.5 307 16:22 01.07.2022
608 Clouds 21 1013 92 8793 3.96 319 13:55 01.07.2022
609 Clouds 21 1013 87 10000 2.98 35 12:55 01.07.2022
610 Clouds 21 1013 86 10000 3.22 113 10:20 01.07.2022
611 Clouds 20 1013 86 10000 3.22 113 09:47 01.07.2022
612 Clouds 18 1012 93 10000 3.63 107 05:25 01.07.2022
613 Clouds 18 1013 93 10000 4.16 93 00:42 01.07.2022
614 Rain 18 1013 93 10000 5.03 97 23:26 30.06.2022
615 Clouds 18 1013 93 10000 5.03 97 22:44 30.06.2022
616 Clouds 18 1013 92 10000 4.75 104 22:26 30.06.2022
617 Clouds 18 1013 92 10000 4.75 104 21:48 30.06.2022
618 Clouds 19 1013 90 10000 4.52 101 20:30 30.06.2022
619 Clouds 19 1013 89 10000 5.09 87 19:55 30.06.2022
620 Clouds 19 1013 88 10000 4.88 72 19:26 30.06.2022
621 Clouds 19 1013 88 10000 4.88 72 18:43 30.06.2022
622 Clouds 20 1013 87 10000 4.65 77 17:49 30.06.2022
623 Clouds 20 1013 86 10000 6.49 78 16:55 30.06.2022
624 Clouds 20 1013 85 10000 5.94 71 15:44 30.06.2022
625 Clouds 20 1014 79 10000 6.15 75 13:50 30.06.2022
626 Clouds 20 1014 77 10000 5.99 78 12:36 30.06.2022
627 Clouds 20 1014 77 10000 5.99 78 12:36 30.06.2022
628 Clouds 20 1015 77 10000 5.86 82 11:59 30.06.2022
629 Clouds 19 1015 75 10000 5.4 90 09:55 30.06.2022
630 Clouds 19 1015 75 10000 5.4 90 09:37 30.06.2022
631 Clouds 19 1015 74 10000 5.54 86 08:19 30.06.2022
632 Clear 19 1016 74 10000 5.56 83 07:40 30.06.2022
633 Clear 18 1017 76 10000 5.27 89 02:49 30.06.2022
634 Clear 18 1017 73 10000 3.84 95 23:38 29.06.2022
635 Clear 18 1017 74 10000 4.19 103 22:41 29.06.2022
636 Clear 18 1017 75 10000 3.97 93 21:59 29.06.2022
637 Clear 19 1017 75 10000 3.84 86 20:35 29.06.2022
638 Clouds 19 1017 75 10000 4.33 82 19:56 29.06.2022
639 Clouds 19 1017 75 10000 4.99 75 17:55 29.06.2022
640 Clouds 19 1017 75 10000 4.99 75 17:55 29.06.2022
641 Clouds 19 1017 75 10000 4.99 75 17:32 29.06.2022
642 Clouds 19 1018 75 10000 5.34 69 15:44 29.06.2022
643 Clouds 19 1019 68 10000 4.49 59 13:45 29.06.2022
644 Clouds 19 1019 66 10000 4.45 64 12:38 29.06.2022
645 Clouds 19 1020 60 10000 3.49 72 09:50 29.06.2022
646 Clouds 19 1020 62 10000 3.51 77 09:26 29.06.2022
647 Clear 18 1020 70 10000 2.89 87 06:29 29.06.2022
648 Clear 17 1020 70 10000 2.27 100 04:42 29.06.2022
649 Clear 18 1021 72 10000 0.21 14 00:53 29.06.2022
650 Clear 18 1021 72 10000 0.21 14 00:34 29.06.2022
651 Clear 18 1021 73 10000 0.62 324 22:52 28.06.2022
652 Clear 18 1021 73 10000 1.37 328 21:59 28.06.2022
653 Clear 18 1021 73 10000 1.37 328 21:40 28.06.2022
654 Clear 18 1021 72 10000 1.77 313 21:22 28.06.2022
655 Clear 18 1021 70 10000 2.27 293 19:56 28.06.2022
656 Clear 18 1021 70 10000 2.27 293 19:31 28.06.2022
657 Clear 18 1021 68 10000 2.85 288 18:40 28.06.2022
658 Clear 18 1021 70 10000 4.45 277 17:25 28.06.2022
659 Clear 18 1021 70 10000 4.89 280 15:55 28.06.2022
660 Clear 19 1021 69 10000 4.32 281 14:54 28.06.2022
661 Clouds 18 1021 70 10000 3.91 296 14:19 28.06.2022
662 Clouds 18 1021 74 10000 2.19 310 13:45 28.06.2022
663 Clouds 18 1021 77 10000 3.46 319 12:35 28.06.2022
664 Clouds 17 1020 83 10000 7.27 312 10:40 28.06.2022
665 Clouds 17 1019 88 10000 6.58 311 08:56 28.06.2022
666 Clouds 17 1019 88 10000 6.58 311 08:38 28.06.2022
667 Clouds 17 1018 86 10000 8.29 293 07:20 28.06.2022
668 Clouds 17 1017 88 10000 8.69 275 04:54 28.06.2022
669 Clouds 19 1015 96 8039 8.17 264 23:53 27.06.2022
670 Clouds 19 1015 96 10000 6.54 286 23:28 27.06.2022
671 Clouds 19 1015 96 10000 6.54 286 22:42 27.06.2022
672 Clouds 19 1015 96 10000 6.7 286 21:30 27.06.2022
673 Clouds 20 1014 96 10000 7.31 283 20:34 27.06.2022
674 Rain 21 1013 90 10000 4.85 315 18:55 27.06.2022
675 Rain 21 1012 88 10000 4.97 337 17:45 27.06.2022
676 Clouds 23 1012 74 10000 2.96 98 15:51 27.06.2022
677 Clouds 24 1013 67 10000 5.04 111 14:26 27.06.2022
678 Clouds 24 1013 70 10000 4.32 115 13:24 27.06.2022
679 Clouds 24 1013 70 10000 4.32 115 12:49 27.06.2022
680 Clouds 22 1014 78 10000 4.36 150 10:22 27.06.2022
681 Clouds 21 1014 80 10000 5.61 143 08:43 27.06.2022
682 Clouds 20 1014 84 10000 5.03 129 07:53 27.06.2022
683 Clouds 19 1014 87 10000 4.03 116 06:38 27.06.2022
684 Clouds 20 1015 87 10000 1.28 31 01:54 27.06.2022
685 Rain 20 1016 85 10000 2.16 30 23:39 26.06.2022
686 Clouds 19 1016 90 10000 3.66 37 21:51 26.06.2022
687 Rain 19 1016 93 10000 4.56 331 20:34 26.06.2022
688 Rain 22 1015 80 10000 3.3 153 19:23 26.06.2022
689 Rain 22 1015 77 10000 2.98 124 18:24 26.06.2022
690 Clouds 23 1015 76 10000 2.75 113 15:53 26.06.2022
691 Rain 23 1015 75 10000 4.38 112 14:34 26.06.2022
692 Clouds 24 1015 69 10000 2.99 108 13:30 26.06.2022
693 Clouds 23 1015 70 10000 2.96 135 12:52 26.06.2022
694 Clouds 22 1015 75 10000 3.29 154 11:21 26.06.2022
695 Clouds 22 1014 80 10000 3.44 166 10:23 26.06.2022
696 Clouds 21 1014 84 10000 3.56 164 08:46 26.06.2022
697 Clouds 19 1014 87 10000 2.84 151 07:30 26.06.2022
698 Clouds 21 1014 89 10000 1.35 88 00:49 26.06.2022
699 Clouds 21 1014 91 10000 1.34 122 00:20 26.06.2022
700 Clouds 21 1014 91 10000 1.34 122 23:33 25.06.2022
701 Clouds 21 1014 91 9885 1.29 181 22:55 25.06.2022
702 Clouds 21 1013 90 10000 1.3 159 22:27 25.06.2022
703 Clouds 21 1013 90 10000 1.3 159 21:37 25.06.2022
704 Clouds 22 1013 90 10000 2.48 130 21:18 25.06.2022
705 Clouds 22 1013 85 10000 2.77 101 20:25 25.06.2022
706 Clouds 23 1013 86 10000 1.06 111 19:20 25.06.2022
707 Clouds 23 1012 83 10000 0.82 92 17:53 25.06.2022
708 Clouds 25 1012 84 10000 1.36 160 17:19 25.06.2022
709 Clouds 22 1012 76 10000 5.45 140 14:59 25.06.2022
710 Clouds 21 1012 78 10000 5.66 114 13:27 25.06.2022
711 Clouds 26 1012 78 10000 5.66 114 12:37 25.06.2022
712 Clouds 22 1012 79 10000 2.99 123 10:34 25.06.2022
713 Clouds 22 1011 83 10000 2.89 154 08:58 25.06.2022
714 Clouds 23 1011 83 10000 2.89 154 08:36 25.06.2022
715 Clouds 19 1011 84 10000 3.22 163 07:54 25.06.2022
716 Clouds 18 1010 82 10000 3.88 183 03:33 25.06.2022
717 Clouds 18 1009 83 10000 6.04 206 00:34 25.06.2022
718 Clouds 22 1007 60 10000 9.24 140 22:54 24.06.2022
719 Clouds 22 1007 61 10000 10.27 126 21:41 24.06.2022
720 Clouds 22 1007 65 10000 9.44 113 20:45 24.06.2022
721 Clear 22 1007 66 10000 9.12 110 20:18 24.06.2022
722 Clear 22 1007 67 10000 8.4 101 19:21 24.06.2022
723 Clear 22 1007 67 10000 8.4 101 18:48 24.06.2022
724 Clear 22 1007 67 10000 8.4 101 18:30 24.06.2022
725 Clear 22 1008 65 10000 8.48 103 17:20 24.06.2022
726 Clear 23 1009 61 10000 8.67 108 15:29 24.06.2022
727 Clear 23 1010 60 10000 8.58 116 14:27 24.06.2022
728 Clear 23 1010 60 10000 8.58 116 13:55 24.06.2022
729 Clear 23 1010 60 10000 8.58 116 13:55 24.06.2022
730 Clear 22 1010 63 10000 7.4 128 11:44 24.06.2022
731 Clear 22 1011 66 10000 7.53 135 10:55 24.06.2022
732 Clear 21 1011 69 10000 7.79 138 09:55 24.06.2022
733 Clear 20 1011 73 10000 7.17 136 09:29 24.06.2022
734 Clear 20 1011 73 10000 7.17 136 08:52 24.06.2022
735 Clear 18 1012 83 10000 5.95 127 06:48 24.06.2022
736 Clear 18 1012 83 10000 5.95 127 06:30 24.06.2022
737 Clear 17 1012 87 10000 5.94 115 05:52 24.06.2022
738 Clouds 17 1014 80 10000 5.75 107 01:28 24.06.2022
739 Clouds 17 1015 81 10000 5.62 105 22:44 23.06.2022
740 Clouds 17 1015 81 10000 5.26 102 21:54 23.06.2022
741 Clouds 18 1015 80 10000 4.71 101 20:54 23.06.2022
742 Clear 18 1015 81 10000 4.76 108 20:32 23.06.2022
743 Clear 19 1015 77 10000 5.24 98 18:49 23.06.2022
744 Clear 19 1015 77 10000 4.73 87 17:50 23.06.2022
745 Clear 19 1015 77 10000 4.73 87 17:50 23.06.2022
746 Clear 19 1016 74 10000 4.84 80 16:42 23.06.2022
747 Clear 18 1016 74 10000 4.51 71 15:43 23.06.2022
748 Clouds 18 1016 73 10000 3.71 61 15:23 23.06.2022
749 Clouds 17 1016 74 10000 1.83 19 13:21 23.06.2022
750 Clouds 17 1016 78 10000 1.53 294 11:23 23.06.2022
751 Clouds 17 1016 78 10000 1.53 294 10:31 23.06.2022
752 Clouds 16 1016 82 10000 1.54 234 08:35 23.06.2022
753 Clouds 16 1014 80 10000 1.47 217 02:38 23.06.2022
754 Clouds 16 1014 83 10000 0.38 294 00:26 23.06.2022
755 Clouds 16 1014 83 10000 1.05 344 23:27 22.06.2022
756 Clouds 16 1014 83 10000 1.05 344 22:31 22.06.2022
757 Clouds 16 1013 84 10000 2.53 310 21:21 22.06.2022
758 Clouds 16 1013 84 10000 2.53 310 20:34 22.06.2022
759 Clouds 17 1013 84 10000 3.13 298 19:52 22.06.2022
760 Clouds 17 1013 83 10000 3.64 301 18:40 22.06.2022
761 Clear 16 1013 84 10000 5.15 279 17:27 22.06.2022
762 Clear 16 1013 83 10000 6.29 277 16:24 22.06.2022
763 Clear 16 1013 83 10000 5.93 264 15:26 22.06.2022
764 Clouds 16 1013 78 10000 4.8 263 14:19 22.06.2022
765 Clouds 16 1013 78 10000 4.8 263 13:37 22.06.2022
766 Clouds 16 1013 79 10000 4.44 269 13:18 22.06.2022
767 Clouds 16 1014 80 10000 4.74 284 11:49 22.06.2022
768 Clouds 16 1013 80 10000 4.4 277 10:55 22.06.2022
769 Clouds 15 1013 80 10000 4.07 283 10:19 22.06.2022
770 Clouds 15 1012 81 10000 4.42 294 08:27 22.06.2022
771 Clouds 15 1013 77 10000 4.89 268 04:50 22.06.2022
772 Clouds 16 1013 77 10000 4.76 289 01:23 22.06.2022
773 Clear 16 1013 76 10000 4.69 294 00:24 22.06.2022
774 Clear 16 1013 74 10000 4.81 287 22:19 21.06.2022
775 Clear 17 1013 75 10000 5.33 288 19:56 21.06.2022
776 Clear 17 1013 76 10000 5.71 281 18:35 21.06.2022
777 Clear 17 1013 77 10000 6 278 17:39 21.06.2022
778 Clear 16 1013 73 10000 6.91 290 14:22 21.06.2022
779 Clear 16 1013 72 10000 7.31 303 11:49 21.06.2022
780 Clear 15 1013 75 10000 9.69 308 10:18 21.06.2022
781 Clear 15 1012 76 10000 10.16 309 08:48 21.06.2022
782 Clouds 14 1011 80 10000 10.02 303 07:23 21.06.2022
783 Clouds 14 1010 77 10000 9.14 316 02:27 21.06.2022
784 Clouds 14 1009 76 10000 9.29 332 23:26 20.06.2022
785 Clouds 14 1009 74 10000 8.59 325 21:58 20.06.2022
786 Clouds 14 1009 74 10000 8.59 325 21:31 20.06.2022
787 Clouds 14 1009 77 10000 7.48 329 19:49 20.06.2022
788 Clouds 15 1009 73 10000 6.18 306 18:54 20.06.2022
789 Clouds 15 1009 72 10000 4.88 288 18:24 20.06.2022
790 Clouds 15 1009 72 10000 4.88 288 17:40 20.06.2022
791 Clouds 16 1010 63 10000 2.35 288 16:20 20.06.2022
792 Clouds 15 1010 70 10000 2.68 297 14:18 20.06.2022
793 Clouds 15 1011 72 10000 0.95 267 11:46 20.06.2022
794 Clouds 14 1011 77 10000 2.17 226 09:48 20.06.2022
795 Clouds 14 1011 81 10000 2.97 200 08:45 20.06.2022
796 Clouds 14 1012 80 10000 3.6 214 07:35 20.06.2022
797 Clouds 13 1012 79 10000 2.68 187 03:51 20.06.2022
798 Clouds 13 1012 76 10000 0.33 182 00:52 20.06.2022
799 Clouds 13 1012 78 10000 1.85 12 23:29 19.06.2022
800 Clouds 13 1012 80 10000 2.27 10 22:19 19.06.2022
801 Clouds 13 1012 80 10000 2.27 10 21:42 19.06.2022
802 Clouds 14 1012 82 10000 3.06 35 20:48 19.06.2022
803 Clouds 14 1012 82 10000 3.67 26 19:49 19.06.2022
804 Clouds 13 1012 84 10000 4.27 19 19:24 19.06.2022
805 Rain 13 1012 84 10000 4.27 19 18:32 19.06.2022
806 Clouds 13 1011 85 10000 5.61 8 17:42 19.06.2022
807 Rain 14 1011 83 10000 5.76 7 17:20 19.06.2022
808 Rain 14 1010 82 10000 6.41 43 16:28 19.06.2022
809 Rain 14 1010 82 10000 6.41 43 15:35 19.06.2022
810 Clouds 14 1010 88 10000 8.54 49 14:42 19.06.2022
811 Clouds 14 1010 89 10000 8.04 51 13:52 19.06.2022
812 Rain 15 1010 88 10000 7.32 68 12:22 19.06.2022
813 Clouds 15 1010 90 10000 7.88 64 10:53 19.06.2022
814 Clouds 15 1010 88 9038 5.43 30 09:21 19.06.2022
815 Clouds 15 1010 88 9038 5.43 30 08:32 19.06.2022
816 Clouds 16 1011 84 9786 1.87 347 07:26 19.06.2022
817 Rain 16 1012 86 10000 3.09 308 04:27 19.06.2022
818 Clouds 16 1013 80 10000 5.5 293 01:28 19.06.2022
819 Clouds 16 1013 76 10000 5.36 280 00:23 19.06.2022
820 Clouds 16 1013 76 10000 5.36 280 23:35 18.06.2022
821 Clouds 17 1014 75 10000 7.39 280 22:33 18.06.2022
822 Clouds 17 1014 73 10000 7.34 276 20:55 18.06.2022
823 Clouds 18 1013 73 10000 5.99 273 20:24 18.06.2022
824 Clouds 18 1014 78 10000 6.15 277 19:25 18.06.2022
825 Clouds 18 1014 78 10000 6.15 277 18:44 18.06.2022
826 Clouds 18 1014 80 10000 6.15 274 17:30 18.06.2022
827 Clouds 18 1014 80 10000 6.15 274 17:30 18.06.2022
828 Clouds 18 1014 80 10000 6.15 274 17:30 18.06.2022
829 Clouds 18 1014 85 10000 6.26 272 16:20 18.06.2022
830 Clear 17 1014 88 10000 6.81 270 15:18 18.06.2022
831 Clear 17 1014 88 10000 6.81 270 14:42 18.06.2022
832 Clear 17 1014 88 10000 6.76 264 12:51 18.06.2022
833 Clear 17 1014 85 10000 7.22 263 11:31 18.06.2022
834 Clear 19 1013 74 10000 7.85 257 10:26 18.06.2022
835 Clear 19 1013 72 10000 6.73 225 09:20 18.06.2022
836 Clouds 18 1014 71 10000 7.4 212 08:19 18.06.2022
837 Clouds 17 1014 69 10000 8.33 200 06:43 18.06.2022
838 Clouds 16 1017 77 10000 7.21 177 03:24 18.06.2022
839 Clouds 16 1019 79 10000 5.71 175 01:24 18.06.2022
840 Clouds 16 1019 79 10000 5.71 175 00:42 18.06.2022
841 Clouds 17 1020 79 10000 3.95 185 23:52 17.06.2022
842 Clouds 17 1020 79 10000 3.95 185 23:52 17.06.2022
843 Clouds 16 1021 81 10000 2.26 211 22:56 17.06.2022
844 Clouds 17 1022 82 10000 4.74 285 20:42 17.06.2022
845 Rain 17 1022 76 10000 5.14 272 19:30 17.06.2022
846 Clouds 17 1022 74 10000 4.59 266 18:34 17.06.2022
847 Clouds 17 1022 74 10000 4.66 265 17:43 17.06.2022
848 Clouds 17 1022 75 10000 5.29 268 16:43 17.06.2022
849 Clouds 17 1023 75 10000 5.18 261 15:43 17.06.2022
850 Clouds 16 1023 76 10000 5.19 262 14:58 17.06.2022
851 Clouds 16 1023 78 10000 5.42 265 14:20 17.06.2022
852 Clouds 16 1023 78 10000 5.42 265 13:45 17.06.2022
853 Clouds 16 1023 80 10000 6.27 266 12:57 17.06.2022
854 Clouds 16 1023 79 10000 6.62 270 11:57 17.06.2022
855 Clouds 16 1023 79 10000 6.62 270 11:36 17.06.2022
856 Clouds 16 1023 77 10000 6.22 273 10:51 17.06.2022
857 Clouds 15 1022 80 10000 5.91 286 08:30 17.06.2022
858 Clouds 15 1022 80 10000 6.22 296 07:47 17.06.2022
859 Clouds 15 1022 80 10000 5.95 301 05:57 17.06.2022
860 Clouds 15 1021 83 10000 7.22 307 03:19 17.06.2022
861 Clouds 15 1021 83 10000 7.58 307 00:42 17.06.2022
862 Clear 16 1021 80 10000 6.7 302 22:45 16.06.2022
863 Clear 16 1020 79 10000 6.09 299 22:26 16.06.2022
864 Clear 17 1020 76 10000 6.58 293 21:19 16.06.2022
865 Clear 17 1020 76 10000 6.58 293 20:50 16.06.2022
866 Clouds 17 1020 77 10000 6.76 282 19:58 16.06.2022
867 Clouds 16 1020 78 10000 7.51 269 18:44 16.06.2022
868 Clouds 16 1020 78 10000 7.73 266 17:44 16.06.2022
869 Clouds 16 1020 77 10000 6.66 267 17:20 16.06.2022
870 Clouds 16 1020 76 10000 6.55 275 15:44 16.06.2022
871 Clouds 16 1020 75 10000 5.43 275 15:20 16.06.2022
872 Clouds 15 1020 75 10000 4.39 287 13:55 16.06.2022
873 Clouds 15 1020 76 10000 4.63 304 12:47 16.06.2022
874 Clouds 15 1020 78 10000 5.13 319 12:20 16.06.2022
875 Clouds 15 1019 80 10000 5.36 332 11:21 16.06.2022
876 Clouds 15 1019 80 10000 5.36 332 10:35 16.06.2022
877 Clouds 15 1019 82 10000 5.32 345 09:39 16.06.2022
878 Clouds 15 1018 83 10000 5.15 359 08:50 16.06.2022
879 Clouds 15 1018 82 10000 4.37 333 07:38 16.06.2022
880 Clouds 15 1018 81 10000 2.84 313 05:48 16.06.2022
881 Clouds 15 1018 79 10000 2.41 284 03:56 16.06.2022
882 Clouds 15 1019 76 10000 1.66 284 01:52 16.06.2022
883 Clouds 15 1019 75 10000 1.51 290 01:22 16.06.2022
884 Clouds 15 1019 75 10000 1.22 304 00:22 16.06.2022
885 Clouds 15 1019 75 10000 1.47 301 22:53 15.06.2022
886 Clouds 15 1019 75 10000 1.47 312 21:37 15.06.2022
887 Clouds 15 1019 73 10000 2.12 304 20:59 15.06.2022
888 Clouds 15 1019 73 10000 2.12 304 20:36 15.06.2022
889 Clouds 15 1019 71 10000 2.1 299 20:18 15.06.2022
890 Clouds 16 1019 68 10000 2.2 305 18:41 15.06.2022
891 Clouds 16 1020 67 10000 3.33 301 17:53 15.06.2022
892 Clouds 16 1020 67 10000 4.15 285 16:27 15.06.2022
893 Clouds 16 1020 69 10000 4.25 278 15:22 15.06.2022
894 Clouds 15 1020 70 10000 2.91 276 13:29 15.06.2022
895 Clouds 15 1020 70 10000 2.91 276 12:47 15.06.2022
896 Clouds 15 1021 70 10000 2.77 289 11:37 15.06.2022
897 Clouds 15 1020 73 10000 3 297 10:22 15.06.2022
898 Clouds 15 1020 73 10000 3 297 09:34 15.06.2022
899 Clouds 15 1020 77 10000 3.98 294 07:58 15.06.2022
900 Clouds 15 1020 79 10000 4.41 291 06:33 15.06.2022
901 Clouds 15 1020 83 10000 5.65 289 03:28 15.06.2022
902 Clouds 15 1020 83 10000 5.86 282 01:37 15.06.2022
903 Clouds 15 1020 83 10000 5.64 284 00:41 15.06.2022
904 Clouds 15 1020 82 10000 5.71 287 23:38 14.06.2022
905 Clouds 15 1020 81 10000 6.4 285 22:51 14.06.2022
906 Clouds 16 1020 80 10000 6.56 280 21:53 14.06.2022
907 Clouds 16 1019 79 10000 6.26 280 21:27 14.06.2022
908 Clouds 16 1019 79 10000 6.26 280 20:48 14.06.2022
909 Clouds 16 1019 78 10000 6.43 282 19:59 14.06.2022
910 Clouds 16 1019 77 10000 6.88 287 18:45 14.06.2022
911 Clouds 15 1019 77 10000 8.49 282 17:29 14.06.2022
912 Clouds 15 1019 77 10000 8.49 282 16:43 14.06.2022
913 Clouds 15 1020 77 10000 9.38 280 15:49 14.06.2022
914 Clouds 15 1020 76 10000 9.54 279 14:57 14.06.2022
915 Clouds 15 1020 76 10000 9.54 279 14:57 14.06.2022
916 Clouds 15 1019 73 10000 8.57 280 14:23 14.06.2022
917 Clouds 15 1020 74 10000 9.1 278 13:39 14.06.2022
918 Clouds 15 1020 71 10000 8.99 286 12:30 14.06.2022
919 Clouds 14 1020 71 10000 9.2 291 11:28 14.06.2022
920 Clouds 14 1020 71 10000 9.2 291 10:44 14.06.2022
921 Clouds 14 1019 72 10000 9.47 293 09:48 14.06.2022
922 Clouds 14 1019 74 10000 9.69 295 08:45 14.06.2022
923 Clouds 13 1019 73 10000 9.75 294 07:31 14.06.2022
924 Clouds 13 1018 73 10000 9.97 294 04:44 14.06.2022
925 Clouds 13 1018 73 10000 10.4 295 02:49 14.06.2022
926 Clouds 14 1018 71 10000 10.42 297 00:28 14.06.2022
927 Rain 15 1017 68 10000 10 301 23:22 13.06.2022
928 Clouds 15 1017 69 10000 8.79 297 22:25 13.06.2022
929 Clouds 15 1017 69 10000 8.79 297 21:49 13.06.2022
930 Clouds 15 1017 69 10000 8.1 298 20:31 13.06.2022
931 Clear 15 1016 69 10000 8.53 297 19:34 13.06.2022
932 Clear 15 1016 68 10000 7.46 291 17:58 13.06.2022
933 Clear 15 1016 68 10000 7.46 291 17:38 13.06.2022
934 Rain 16 1016 66 10000 7.09 292 16:52 13.06.2022
935 Clouds 15 1016 68 10000 7.55 288 15:38 13.06.2022
936 Clouds 15 1016 71 10000 8.25 281 14:43 13.06.2022
937 Clouds 15 1016 68 10000 8.31 276 13:53 13.06.2022
938 Rain 15 1016 68 10000 8.61 275 12:48 13.06.2022
939 Clouds 15 1015 67 10000 8.22 273 11:26 13.06.2022
940 Clouds 15 1015 68 10000 7.98 281 10:27 13.06.2022
941 Rain 15 1015 68 10000 7.98 281 09:38 13.06.2022
942 Clouds 14 1015 72 10000 7.9 285 07:53 13.06.2022
943 Clouds 14 1015 74 10000 7.72 283 06:28 13.06.2022
944 Clear 15 1016 74 10000 6.87 276 03:18 13.06.2022
945 Clouds 15 1016 75 10000 6.58 278 01:38 13.06.2022
946 Clouds 16 1017 77 10000 5.28 278 00:22 13.06.2022
947 Clouds 16 1017 77 10000 4.32 276 23:25 12.06.2022
948 Clouds 16 1017 77 10000 4.24 292 22:23 12.06.2022
949 Clouds 17 1017 76 10000 4.78 291 21:28 12.06.2022
950 Clouds 17 1017 76 10000 5.74 276 20:34 12.06.2022
951 Rain 17 1017 74 10000 6.05 268 19:38 12.06.2022
952 Clouds 17 1017 73 10000 5.67 265 18:39 12.06.2022
953 Clouds 17 1017 75 10000 5.3 276 16:42 12.06.2022
954 Clouds 17 1018 74 10000 4.88 278 15:30 12.06.2022
955 Clouds 17 1018 72 10000 3.74 271 14:32 12.06.2022
956 Clouds 17 1019 73 10000 4.04 272 13:55 12.06.2022
957 Clouds 16 1019 74 10000 4.17 263 12:58 12.06.2022
958 Clouds 16 1019 74 10000 4.4 262 11:47 12.06.2022
959 Clouds 16 1020 74 10000 4.77 260 10:45 12.06.2022
960 Clouds 16 1020 75 10000 4.86 255 09:28 12.06.2022
961 Clouds 16 1020 75 10000 4.86 255 08:49 12.06.2022
962 Clouds 16 1020 75 10000 5.35 261 07:40 12.06.2022
963 Clouds 16 1020 78 10000 4.97 252 05:39 12.06.2022
964 Clouds 16 1020 75 10000 3.77 244 03:38 12.06.2022
965 Clouds 16 1020 75 10000 3.77 244 03:38 12.06.2022
966 Clear 16 1021 76 10000 3.59 252 01:44 12.06.2022
967 Clear 15 1021 77 10000 4.21 267 00:59 12.06.2022
968 Clear 15 1021 77 10000 4.21 267 00:30 12.06.2022
969 Clear 16 1021 77 10000 4.39 274 23:56 11.06.2022
970 Clear 16 1021 78 10000 4.43 285 22:53 11.06.2022
971 Clear 16 1021 79 10000 4.61 294 22:29 11.06.2022
972 Clear 17 1020 80 10000 5.49 294 20:55 11.06.2022
973 Clear 17 1020 81 10000 6.13 288 20:26 11.06.2022
974 Clear 17 1020 79 10000 6.55 287 19:33 11.06.2022
975 Clear 18 1020 79 10000 6.42 277 18:37 11.06.2022
976 Clear 18 1020 77 10000 7.1 272 17:58 11.06.2022
977 Clear 18 1020 77 10000 7.1 272 17:38 11.06.2022
978 Clear 18 1019 79 10000 5.63 281 17:19 11.06.2022
979 Clear 18 1019 79 10000 5.63 281 16:38 11.06.2022
980 Clear 18 1019 84 10000 6 286 15:46 11.06.2022
981 Clouds 18 1019 83 10000 4.21 260 13:54 11.06.2022
982 Clouds 17 1019 88 10000 4.06 270 13:36 11.06.2022
983 Clouds 18 1019 85 10000 3 226 11:36 11.06.2022
984 Clouds 17 1020 89 10000 4.41 226 10:29 11.06.2022
985 Clouds 17 1020 89 10000 4.41 226 09:40 11.06.2022
986 Clouds 17 1020 83 10000 4.02 209 07:58 11.06.2022
987 Clouds 16 1020 84 10000 4.93 217 06:32 11.06.2022
988 Clouds 16 1020 80 10000 4.58 221 05:26 11.06.2022
989 Clouds 15 1020 81 10000 4.48 193 02:35 11.06.2022
990 Clouds 15 1020 81 10000 4.65 198 01:41 11.06.2022
991 Clouds 15 1020 80 10000 4.72 191 00:37 11.06.2022
992 Clouds 16 1020 75 10000 3.63 190 22:55 10.06.2022
993 Clouds 17 1020 72 10000 2.71 175 22:20 10.06.2022
994 Clouds 17 1020 72 10000 1.23 184 21:22 10.06.2022
995 Clouds 17 1020 72 10000 1.23 184 20:36 10.06.2022
996 Clouds 17 1020 73 10000 0.34 265 20:18 10.06.2022
997 Clouds 17 1020 72 10000 0.75 286 19:19 10.06.2022
998 Clouds 17 1020 72 10000 0.96 291 18:29 10.06.2022
999 Clouds 17 1020 72 10000 0.96 291 17:42 10.06.2022
1000 Clouds 16 1020 73 10000 1.89 278 16:59 10.06.2022
1001 Clear 16 1021 76 10000 2.9 265 16:25 10.06.2022
1002 Clear 16 1021 76 10000 2.9 265 15:37 10.06.2022
1003 Clouds 16 1021 80 10000 6.16 264 13:57 10.06.2022
1004 Clouds 15 1021 79 10000 6.73 265 12:50 10.06.2022
1005 Clouds 15 1021 78 10000 6.64 266 11:43 10.06.2022
1006 Clouds 15 1021 77 10000 6.42 273 10:45 10.06.2022
1007 Clouds 15 1020 77 10000 7.07 279 09:54 10.06.2022
1008 Clouds 15 1020 75 10000 7.38 282 08:42 10.06.2022
1009 Clouds 15 1020 78 10000 7.79 283 07:30 10.06.2022
1010 Clouds 14 1019 81 10000 8.09 284 06:45 10.06.2022
1011 Clouds 14 1019 84 10000 8.52 285 06:26 10.06.2022
1012 Clouds 15 1017 88 10000 8.93 285 03:56 10.06.2022
1013 Clouds 15 1017 93 10000 7.94 278 01:42 10.06.2022
1014 Clouds 15 1016 92 10000 7.55 277 00:40 10.06.2022
1015 Clouds 15 1016 91 10000 7.38 272 23:49 09.06.2022
1016 Clouds 16 1014 86 10000 6.85 273 22:18 09.06.2022
1017 Clouds 16 1014 86 10000 6.85 273 21:37 09.06.2022
1018 Clouds 16 1014 85 10000 6.03 267 20:55 09.06.2022
1019 Clouds 17 1013 84 10000 5.64 266 20:26 09.06.2022
1020 Clouds 17 1012 84 10000 5.59 260 19:29 09.06.2022
1021 Clouds 17 1012 84 10000 5.59 260 18:34 09.06.2022
1022 Clouds 17 1012 88 10000 6.54 261 17:18 09.06.2022
1023 Clouds 16 1011 88 10000 6.52 259 15:54 09.06.2022
1024 Clouds 16 1011 88 10000 5.51 269 14:38 09.06.2022
1025 Clouds 17 1010 87 10000 4.01 283 13:55 09.06.2022
1026 Clouds 17 1010 86 10000 3.88 276 13:29 09.06.2022
1027 Clouds 17 1009 87 10000 3.98 276 12:21 09.06.2022
1028 Clouds 17 1009 87 10000 4.74 277 11:19 09.06.2022
1029 Clouds 17 1008 87 10000 4.45 257 09:50 09.06.2022
1030 Clouds 17 1008 87 10000 4.45 257 09:31 09.06.2022
1031 Clouds 16 1008 89 10000 3.77 220 08:21 09.06.2022
1032 Rain 16 1007 90 10000 2.89 185 06:55 09.06.2022
1033 Clouds 15 1007 91 10000 5.23 105 03:22 09.06.2022
1034 Clouds 15 1007 88 10000 5.71 113 23:55 08.06.2022
1035 Clouds 15 1007 86 10000 5.74 108 22:59 08.06.2022
1036 Clouds 15 1008 84 10000 5.71 104 22:27 08.06.2022
1037 Clouds 15 1008 84 10000 5.71 104 21:57 08.06.2022
1038 Clouds 16 1007 84 10000 5.52 96 21:24 08.06.2022
1039 Clouds 16 1008 83 10000 5.27 89 20:22 08.06.2022
1040 Clouds 16 1007 83 10000 5.32 88 19:39 08.06.2022
1041 Clouds 16 1007 83 10000 5.32 88 19:39 08.06.2022
1042 Clouds 16 1007 81 10000 4.83 77 18:48 08.06.2022
1043 Clouds 16 1008 79 10000 3.88 75 17:35 08.06.2022
1044 Clouds 16 1008 78 10000 2.95 63 15:52 08.06.2022
1045 Clear 15 1009 78 10000 2.56 334 14:18 08.06.2022
1046 Clouds 15 1009 79 10000 2.76 311 12:46 08.06.2022
1047 Clouds 15 1009 79 10000 3.25 281 11:35 08.06.2022
1048 Clouds 15 1009 78 10000 3.71 258 10:37 08.06.2022
1049 Clouds 14 1009 83 10000 4.34 232 09:28 08.06.2022
1050 Clouds 14 1009 83 10000 4.34 232 08:49 08.06.2022
1051 Clear 13 1009 87 10000 5.52 226 06:43 08.06.2022
1052 Clear 13 1009 87 10000 5.8 223 04:35 08.06.2022
1053 Clouds 14 1010 86 10000 5.8 227 00:57 08.06.2022
1054 Clouds 14 1010 85 10000 5.2 229 23:31 07.06.2022
1055 Clouds 15 1010 83 10000 4.35 236 22:51 07.06.2022
1056 Clouds 15 1010 83 10000 4.35 236 22:33 07.06.2022
1057 Clouds 15 1010 81 10000 3.95 247 21:37 07.06.2022
1058 Clouds 16 1010 78 10000 3.56 255 21:18 07.06.2022
1059 Clouds 16 1010 78 10000 3.56 255 20:37 07.06.2022
1060 Clouds 17 1010 80 10000 4.94 227 19:49 07.06.2022
1061 Clouds 17 1009 77 10000 4.89 240 18:25 07.06.2022
1062 Clouds 17 1009 77 10000 4.89 240 17:31 07.06.2022
1063 Rain 17 1010 74 10000 4.42 237 16:44 07.06.2022
1064 Clouds 17 1010 73 10000 2.16 195 15:58 07.06.2022
1065 Clouds 17 1010 73 10000 2.16 195 15:30 07.06.2022
1066 Clouds 17 1010 73 10000 1.43 128 14:56 07.06.2022
1067 Clouds 17 1010 73 10000 1.43 128 14:38 07.06.2022
1068 Clouds 17 1011 71 10000 3.29 230 13:33 07.06.2022
1069 Clouds 17 1011 73 10000 4.53 233 12:54 07.06.2022
1070 Clouds 17 1012 75 10000 5.47 229 11:51 07.06.2022
1071 Clouds 16 1012 76 10000 5.3 217 10:48 07.06.2022
1072 Clouds 15 1012 80 10000 4.36 205 08:53 07.06.2022
1073 Clouds 14 1012 83 10000 4.31 220 07:54 07.06.2022
1074 Clouds 14 1012 84 10000 3.88 234 06:41 07.06.2022
1075 Clouds 15 1012 82 10000 5.44 242 04:41 07.06.2022
1076 Clouds 14 1013 93 10000 5.5 170 01:27 07.06.2022
1077 Clouds 15 1013 93 10000 5.44 147 23:58 06.06.2022
1078 Clouds 15 1013 94 10000 5.24 144 22:54 06.06.2022
1079 Clouds 15 1013 94 10000 5.24 144 22:30 06.06.2022
1080 Rain 16 1013 88 10000 3.53 157 21:18 06.06.2022
1081 Clouds 17 1013 76 10000 2.55 166 19:29 06.06.2022
1082 Clouds 17 1013 76 10000 2.55 166 18:53 06.06.2022
1083 Clouds 17 1013 79 10000 1.83 208 18:26 06.06.2022
1084 Clouds 17 1014 82 10000 2.36 236 17:27 06.06.2022
1085 Clouds 16 1014 85 10000 4.06 240 16:18 06.06.2022
1086 Clouds 16 1014 85 10000 4.06 240 15:33 06.06.2022
1087 Clouds 16 1014 85 10000 3.92 234 14:36 06.06.2022
1088 Clouds 16 1014 86 10000 4.11 251 13:26 06.06.2022
1089 Clouds 16 1014 86 10000 4.11 251 12:36 06.06.2022
1090 Clouds 16 1013 90 10000 4.03 230 11:53 06.06.2022
1091 Clouds 15 1013 95 10000 4.92 175 10:41 06.06.2022
1092 Rain 15 1013 96 10000 6.58 160 09:40 06.06.2022
1093 Rain 15 1014 94 10000 6.64 160 08:32 06.06.2022
1094 Rain 15 1013 81 10000 7.33 140 07:28 06.06.2022
1095 Clouds 16 1013 74 10000 8.12 127 05:28 06.06.2022
1096 Clouds 16 1013 76 10000 7.6 118 03:39 06.06.2022
1097 Clouds 15 1015 83 10000 7.15 103 01:23 06.06.2022
1098 Clouds 15 1015 83 10000 7.15 103 00:39 06.06.2022
1099 Clouds 15 1016 82 10000 7.39 95 23:43 05.06.2022
1100 Clouds 15 1016 82 10000 7.44 87 22:47 05.06.2022
1101 Clouds 15 1017 81 10000 6.15 93 20:57 05.06.2022
1102 Clouds 15 1017 79 10000 6.24 86 19:44 05.06.2022
1103 Clouds 16 1017 77 10000 6.29 86 18:30 05.06.2022
1104 Clouds 16 1017 77 10000 6.29 86 18:30 05.06.2022
1105 Clouds 16 1018 73 10000 6.13 86 17:55 05.06.2022
1106 Clouds 16 1018 70 10000 6.16 90 17:26 05.06.2022
1107 Clouds 16 1018 70 10000 6.16 90 16:52 05.06.2022
1108 Clouds 16 1018 70 10000 6.16 90 16:34 05.06.2022
1109 Clouds 16 1020 64 10000 4.8 105 14:27 05.06.2022
1110 Clouds 16 1021 65 10000 4.83 104 12:57 05.06.2022
1111 Clouds 16 1021 67 10000 3.93 101 11:49 05.06.2022
1112 Clear 16 1022 70 10000 2.75 113 10:42 05.06.2022
1113 Clear 15 1021 74 10000 3.19 121 10:22 05.06.2022
1114 Clear 15 1022 77 10000 2.93 143 08:40 05.06.2022
1115 Clear 14 1022 79 10000 3.03 147 08:20 05.06.2022
1116 Clear 12 1022 77 10000 2.53 164 05:23 05.06.2022
1117 Clear 12 1022 77 10000 2.53 164 04:30 05.06.2022
1118 Clear 13 1023 79 10000 1.51 67 01:33 05.06.2022
1119 Clear 14 1023 78 10000 2.05 18 00:52 05.06.2022
1120 Clear 14 1023 74 10000 2.72 331 22:43 04.06.2022
1121 Clear 14 1023 71 10000 1.62 304 20:55 04.06.2022
1122 Clear 14 1022 67 10000 1.33 315 18:53 04.06.2022
1123 Clear 14 1022 71 10000 1.64 352 16:47 04.06.2022
1124 Clear 14 1022 75 10000 2.68 1 16:19 04.06.2022
1125 Clear 14 1023 78 10000 3.03 1 15:22 04.06.2022
1126 Clear 13 1023 79 10000 3.24 1 13:46 04.06.2022
1127 Clear 13 1022 82 10000 3.53 15 11:23 04.06.2022
1128 Clear 13 1022 82 10000 3.53 15 10:52 04.06.2022
1129 Clear 13 1022 84 10000 4.07 14 09:46 04.06.2022
1130 Clear 13 1022 84 10000 4.16 14 08:44 04.06.2022
1131 Clouds 13 1021 84 10000 3.32 15 07:59 04.06.2022
1132 Clouds 13 1021 81 10000 3.2 11 06:20 04.06.2022
1133 Clouds 13 1021 78 10000 2.32 42 02:57 04.06.2022
1134 Clouds 13 1021 79 10000 1.01 37 00:21 04.06.2022
1135 Clouds 13 1021 78 10000 1.41 27 22:54 03.06.2022
1136 Clouds 13 1021 79 10000 1.09 17 21:46 03.06.2022
1137 Clear 13 1020 78 10000 1.46 15 20:40 03.06.2022
1138 Clear 13 1020 77 10000 1.62 348 19:33 03.06.2022
1139 Clear 13 1021 77 10000 2.51 301 16:56 03.06.2022
1140 Clear 13 1021 79 10000 2.88 290 15:52 03.06.2022
1141 Clouds 13 1022 81 10000 3.61 291 14:25 03.06.2022
1142 Clouds 13 1022 80 10000 4.18 274 12:21 03.06.2022
1143 Clouds 12 1022 81 10000 4.41 265 09:57 03.06.2022
1144 Clouds 12 1022 82 10000 4.72 268 09:29 03.06.2022
1145 Clouds 12 1022 85 10000 4.85 277 07:45 03.06.2022
1146 Clouds 12 1022 87 10000 5.11 273 06:59 03.06.2022
1147 Clouds 12 1021 88 10000 5.42 272 06:28 03.06.2022
1148 Clouds 12 1021 88 10000 5.96 269 03:39 03.06.2022
1149 Clouds 13 1020 85 10000 7.98 270 23:53 02.06.2022
1150 Clear 13 1020 85 10000 8 267 22:33 02.06.2022
1151 Clouds 13 1019 84 10000 7.79 271 20:56 02.06.2022
1152 Clouds 13 1019 82 10000 8.11 271 19:58 02.06.2022
1153 Clouds 14 1019 82 10000 8.65 275 19:39 02.06.2022
1154 Clouds 13 1019 83 10000 9.23 275 18:51 02.06.2022
1155 Clouds 13 1018 82 10000 10.01 268 16:30 02.06.2022
1156 Clear 13 1018 82 10000 9.73 263 15:47 02.06.2022
1157 Clouds 13 1018 85 10000 10.44 263 13:32 02.06.2022
1158 Clouds 13 1017 84 10000 10.39 261 12:51 02.06.2022
1159 Rain 12 1017 87 10000 10.5 255 10:48 02.06.2022
1160 Clouds 12 1017 80 10000 10 252 09:45 02.06.2022
1161 Clouds 12 1016 80 10000 9.13 251 09:26 02.06.2022
1162 Clouds 12 1016 76 10000 7.88 261 08:23 02.06.2022
1163 Clouds 12 1015 76 10000 7.24 280 06:21 02.06.2022
1164 Clouds 12 1014 77 10000 5.38 290 03:53 02.06.2022
1165 Clouds 12 1014 78 10000 5.93 295 01:36 02.06.2022
1166 Clouds 13 1013 78 10000 5.41 291 23:36 01.06.2022
1167 Clouds 13 1013 77 10000 4 297 22:18 01.06.2022
1168 Clouds 13 1013 74 10000 3.05 286 21:26 01.06.2022
1169 Clouds 13 1013 74 10000 3.05 286 20:39 01.06.2022
1170 Clouds 12 1012 81 10000 2.14 149 19:52 01.06.2022
1171 Clouds 12 1012 80 10000 3.01 125 18:52 01.06.2022
1172 Rain 13 1012 77 10000 3.12 105 17:40 01.06.2022
1173 Rain 13 1012 73 10000 2.91 63 16:33 01.06.2022
1174 Rain 13 1012 70 10000 1.84 17 14:51 01.06.2022
1175 Clouds 13 1012 69 10000 1.92 46 13:44 01.06.2022
1176 Clouds 12 1013 75 10000 3.31 347 11:41 01.06.2022
1177 Clouds 12 1013 78 10000 5.22 306 09:34 01.06.2022
1178 Clouds 13 1012 74 10000 0.74 274 08:29 01.06.2022
1179 Clouds 12 1012 73 10000 0.74 28 07:21 01.06.2022
1180 Clouds 12 1012 75 10000 1.17 36 05:22 01.06.2022
1181 Clouds 12 1014 73 10000 2.03 155 00:20 01.06.2022
1182 Clouds 12 1014 70 10000 1.78 165 23:26 31.05.2022
1183 Clouds 12 1014 70 10000 1.78 165 22:36 31.05.2022
1184 Clouds 12 1014 68 10000 1.46 163 21:45 31.05.2022
1185 Clouds 12 1013 66 10000 0.86 190 20:45 31.05.2022
1186 Clouds 12 1013 66 10000 0.86 190 20:45 31.05.2022
1187 Clouds 13 1013 66 10000 0.43 263 19:57 31.05.2022
1188 Clouds 13 1013 65 10000 1.74 265 18:50 31.05.2022
1189 Clouds 13 1014 65 10000 2.61 270 17:50 31.05.2022
1190 Clouds 13 1014 66 10000 3.47 273 16:56 31.05.2022
1191 Clouds 12 1014 68 10000 4.31 280 15:40 31.05.2022
1192 Clouds 12 1014 71 10000 6.13 270 13:52 31.05.2022
1193 Clouds 12 1015 77 10000 6.3 262 12:20 31.05.2022
1194 Clouds 12 1014 78 10000 6.1 264 10:55 31.05.2022
1195 Clouds 12 1014 81 10000 5.78 282 09:29 31.05.2022
1196 Clouds 12 1013 81 10000 6.6 277 07:24 31.05.2022
1197 Clouds 12 1013 82 10000 6.59 275 05:19 31.05.2022
1198 Clouds 12 1013 85 10000 4.53 270 00:52 31.05.2022
1199 Clouds 12 1013 84 10000 4.53 268 23:27 30.05.2022
1200 Clouds 12 1013 84 10000 4.53 268 22:56 30.05.2022
1201 Clouds 12 1012 84 10000 4.3 266 21:52 30.05.2022
1202 Clouds 12 1012 84 10000 4.3 266 21:32 30.05.2022
1203 Clouds 13 1011 80 10000 4.39 254 20:20 30.05.2022
1204 Clouds 13 1011 79 10000 4.76 227 18:41 30.05.2022
1205 Clouds 13 1011 77 10000 4.55 227 17:36 30.05.2022
1206 Rain 13 1011 79 10000 3.89 228 16:41 30.05.2022
1207 Rain 13 1011 74 10000 2.66 213 14:49 30.05.2022
1208 Clouds 13 1010 74 10000 2.27 218 12:24 30.05.2022
1209 Clouds 13 1010 76 10000 2.56 219 10:46 30.05.2022
1210 Clouds 12 1010 78 10000 2.73 211 09:38 30.05.2022
1211 Clouds 10 1009 87 10000 3.02 145 07:22 30.05.2022
1212 Clouds 10 1009 87 10000 2.8 149 05:49 30.05.2022
1213 Clouds 11 1009 84 10000 3.5 170 02:24 30.05.2022
1214 Rain 12 1009 80 10000 1.94 148 23:21 29.05.2022
1215 Clouds 12 1009 80 10000 1.94 148 22:38 29.05.2022
1216 Rain 12 1009 78 10000 0.6 118 21:19 29.05.2022
1217 Clouds 12 1009 80 10000 1.51 163 19:38 29.05.2022
1218 Clouds 12 1009 80 10000 1.11 183 19:18 29.05.2022
1219 Clouds 12 1009 79 10000 1.04 223 17:32 29.05.2022
1220 Clouds 12 1009 78 10000 3.22 261 15:49 29.05.2022
1221 Clouds 12 1009 79 10000 4.01 266 15:28 29.05.2022
1222 Clouds 12 1009 80 10000 4.87 264 14:23 29.05.2022
1223 Clouds 12 1010 82 10000 4.89 267 11:55 29.05.2022
1224 Clouds 12 1010 83 10000 5.31 278 10:42 29.05.2022
1225 Clouds 12 1009 84 10000 5.72 276 09:52 29.05.2022
1226 Clouds 12 1009 82 10000 4.16 253 06:57 29.05.2022
1227 Clouds 11 1009 85 10000 3.95 280 04:49 29.05.2022
1228 Clouds 11 1009 85 10000 3.95 280 04:31 29.05.2022
1229 Clouds 12 1009 83 10000 7.25 291 00:35 29.05.2022
1230 Clouds 12 1009 82 10000 7.39 292 23:42 28.05.2022
1231 Clouds 12 1009 79 10000 7.48 295 22:46 28.05.2022
1232 Clouds 13 1009 77 10000 7.67 294 21:45 28.05.2022
1233 Rain 13 1009 77 10000 7.85 293 20:30 28.05.2022
1234 Clouds 13 1008 73 10000 6.92 297 19:18 28.05.2022
1235 Clouds 13 1008 72 10000 6.91 289 18:19 28.05.2022
1236 Clouds 13 1008 71 10000 6.9 288 16:57 28.05.2022
1237 Rain 13 1009 70 10000 8.11 298 15:45 28.05.2022
1238 Rain 13 1008 71 10000 8.37 305 15:19 28.05.2022
1239 Clouds 12 1008 73 10000 10.76 309 13:27 28.05.2022
1240 Clouds 12 1008 73 10000 10.76 309 13:27 28.05.2022
1241 Clouds 12 1008 73 10000 10.76 309 12:42 28.05.2022
1242 Clouds 12 1007 78 10000 12.81 299 11:28 28.05.2022
1243 Clouds 12 1007 78 10000 12.81 299 10:34 28.05.2022
1244 Clouds 11 1007 80 10000 13.1 308 09:46 28.05.2022
1245 Rain 10 1006 83 10000 13.57 291 07:56 28.05.2022
1246 Rain 10 1006 75 10000 13.52 289 06:33 28.05.2022
1247 Clouds 10 1006 73 10000 13.8 291 04:43 28.05.2022
1248 Rain 10 1007 72 10000 14.77 286 01:46 28.05.2022
1249 Clouds 11 1008 70 10000 14.47 283 23:55 27.05.2022
1250 Clear 11 1008 69 10000 13.96 283 22:38 27.05.2022
1251 Clear 11 1008 69 10000 13.96 283 22:38 27.05.2022
1252 Clear 11 1009 72 10000 13.54 282 21:22 27.05.2022
1253 Clear 11 1009 72 10000 13.54 282 20:43 27.05.2022
1254 Clouds 12 1009 73 10000 13.43 283 20:18 27.05.2022
1255 Clouds 12 1008 72 10000 13.4 283 19:37 27.05.2022
1256 Clouds 12 1008 73 10000 13.08 285 19:19 27.05.2022
1257 Clouds 12 1008 73 10000 13.08 285 19:19 27.05.2022
1258 Clouds 12 1009 78 10000 12.98 284 16:53 27.05.2022
1259 Clouds 12 1009 78 10000 13.33 277 15:56 27.05.2022
1260 Rain 12 1009 77 10000 13.7 271 14:53 27.05.2022
1261 Rain 12 1009 74 10000 13.58 272 13:40 27.05.2022
1262 Rain 12 1010 71 10000 12.98 273 12:20 27.05.2022
1263 Clouds 12 1010 71 10000 12.98 273 11:30 27.05.2022
1264 Clouds 12 1010 72 10000 12.45 274 10:41 27.05.2022
1265 Clear 12 1010 70 10000 12.07 281 09:59 27.05.2022
1266 Clear 11 1010 70 10000 12.72 289 09:29 27.05.2022
1267 Clouds 11 1010 71 10000 13.11 291 07:39 27.05.2022
1268 Clouds 11 1010 71 10000 13.11 291 07:39 27.05.2022
1269 Clouds 12 1009 88 10000 11.47 252 03:59 27.05.2022
1270 Rain 12 1012 86 10000 9.38 248 01:27 27.05.2022
1271 Rain 13 1013 79 10000 9.8 264 23:23 26.05.2022
1272 Rain 13 1013 76 10000 9.77 272 22:22 26.05.2022
1273 Rain 13 1013 73 10000 10.19 274 21:27 26.05.2022
1274 Clouds 13 1013 72 10000 11.96 272 19:35 26.05.2022
1275 Clouds 13 1013 71 10000 12.48 272 18:51 26.05.2022
1276 Clouds 14 1013 70 10000 13.04 271 17:36 26.05.2022
1277 Clear 14 1013 70 10000 13.18 271 16:30 26.05.2022
1278 Clear 14 1013 69 10000 12.32 268 15:28 26.05.2022
1279 Clear 13 1013 72 10000 11.97 270 14:20 26.05.2022
1280 Clear 13 1013 78 10000 12.88 269 12:18 26.05.2022
1281 Clear 13 1012 79 10000 13.09 271 11:21 26.05.2022
1282 Clear 13 1011 82 10000 13 267 09:39 26.05.2022
1283 Clear 13 1011 80 10000 12.14 263 08:48 26.05.2022
1284 Clouds 13 1010 89 10000 12.34 246 06:47 26.05.2022
1285 Clouds 12 1011 89 10000 9.04 226 02:51 26.05.2022
1286 Rain 12 1012 86 10000 5.63 203 00:19 26.05.2022
1287 Clouds 13 1012 85 10000 4.46 216 22:58 25.05.2022
1288 Clouds 13 1013 85 10000 5.54 245 21:44 25.05.2022
1289 Clouds 13 1013 80 10000 6.05 254 20:50 25.05.2022
1290 Clouds 14 1012 77 10000 4.42 238 19:56 25.05.2022
1291 Clouds 14 1012 74 10000 3.7 233 18:48 25.05.2022
1292 Clouds 14 1012 75 10000 3.56 252 17:26 25.05.2022
1293 Clouds 14 1012 75 10000 3.56 252 16:35 25.05.2022
1294 Clouds 14 1012 76 10000 3.75 252 15:49 25.05.2022
1295 Clouds 13 1013 78 10000 4.36 257 14:51 25.05.2022
1296 Clouds 13 1013 78 10000 4.36 257 14:32 25.05.2022
1297 Clouds 13 1013 81 10000 4.96 264 13:27 25.05.2022
1298 Clouds 13 1013 82 10000 5.38 266 11:51 25.05.2022
1299 Clouds 13 1013 83 10000 5.14 259 10:42 25.05.2022
1300 Clouds 13 1012 83 10000 4.87 248 09:53 25.05.2022
1301 Clouds 12 1012 88 10000 5.02 234 08:22 25.05.2022
1302 Clouds 12 1011 89 10000 5.39 243 06:45 25.05.2022
1303 Clouds 12 1010 87 10000 6.09 243 02:55 25.05.2022
1304 Clouds 13 1009 90 10000 6.44 242 23:53 24.05.2022
1305 Clouds 13 1008 89 10000 6.06 245 23:23 24.05.2022
1306 Clouds 13 1008 88 10000 5.88 239 22:19 24.05.2022
1307 Clouds 13 1008 88 10000 5.88 239 21:38 24.05.2022
1308 Rain 13 1007 91 10000 4.71 209 21:19 24.05.2022
1309 Clouds 13 1006 91 10000 4.65 211 19:37 24.05.2022
1310 Clouds 13 1006 92 10000 5.28 243 18:50 24.05.2022
1311 Rain 13 1005 95 9030 9.27 262 16:41 24.05.2022
1312 Clouds 14 1004 85 10000 3.22 246 16:19 24.05.2022
1313 Clouds 14 1004 85 10000 3.22 246 16:19 24.05.2022
1314 Clouds 14 1003 85 10000 2.59 259 14:50 24.05.2022
1315 Clouds 14 1003 86 10000 4.79 257 13:52 24.05.2022
1316 Clouds 14 1003 89 10000 6.58 258 12:49 24.05.2022
1317 Clouds 14 1001 92 10000 6.69 262 10:46 24.05.2022
1318 Rain 13 1000 94 10000 7.65 259 09:43 24.05.2022
1319 Rain 13 999 97 4803 7.43 183 08:49 24.05.2022
1320 Clouds 12 999 95 6303 9.46 151 06:56 24.05.2022
1321 Clouds 14 1000 76 10000 11.73 135 03:56 24.05.2022
1322 Clouds 14 1001 73 10000 11.26 127 01:53 24.05.2022
1323 Clouds 14 1002 71 10000 11.43 128 01:33 24.05.2022
1324 Clouds 14 1004 75 10000 9.7 121 22:55 23.05.2022
1325 Clouds 14 1004 79 10000 9.89 108 21:55 23.05.2022
1326 Clouds 13 1005 79 10000 10.2 103 21:29 23.05.2022
1327 Clouds 13 1005 79 10000 10.2 103 20:35 23.05.2022
1328 Clouds 13 1005 80 10000 10.22 102 19:32 23.05.2022
1329 Clouds 14 1006 81 10000 9.71 101 18:58 23.05.2022
1330 Clouds 14 1006 81 10000 9.71 101 18:31 23.05.2022
1331 Clouds 15 1008 75 10000 8.52 100 17:24 23.05.2022
1332 Clouds 15 1008 70 10000 7.85 104 15:31 23.05.2022
1333 Clouds 15 1010 70 10000 7.24 116 13:22 23.05.2022
1334 Clouds 14 1011 72 10000 6.46 118 11:33 23.05.2022
1335 Clouds 14 1012 74 10000 5.3 129 10:42 23.05.2022
1336 Clouds 13 1012 76 10000 4.83 139 09:39 23.05.2022
1337 Clouds 13 1013 78 10000 4.96 150 08:38 23.05.2022
1338 Clouds 11 1013 82 10000 4.4 161 06:47 23.05.2022
1339 Clouds 11 1013 82 10000 4.35 165 06:22 23.05.2022
1340 Clouds 12 1014 75 10000 3.5 163 02:35 23.05.2022
1341 Clouds 12 1014 74 10000 2.6 179 01:46 23.05.2022
1342 Clouds 12 1015 74 10000 1.76 189 00:44 23.05.2022
1343 Clouds 12 1015 75 10000 2.12 240 22:43 22.05.2022
1344 Clouds 13 1015 76 10000 2.72 247 21:56 22.05.2022
1345 Clouds 13 1015 76 10000 2.72 247 21:36 22.05.2022
1346 Clouds 13 1015 78 10000 3.23 255 20:40 22.05.2022
1347 Clear 13 1015 79 10000 3.82 254 20:19 22.05.2022
1348 Clear 13 1015 79 10000 4.01 259 18:58 22.05.2022
1349 Clear 13 1015 79 10000 4.01 259 18:31 22.05.2022
1350 Clear 13 1015 80 10000 4.29 266 17:55 22.05.2022
1351 Clear 13 1015 81 10000 4.53 271 16:51 22.05.2022
1352 Clear 13 1016 80 10000 4.37 279 15:22 22.05.2022
1353 Clear 13 1016 80 10000 4.37 279 14:36 22.05.2022
1354 Clouds 13 1016 81 10000 5.9 294 12:54 22.05.2022
1355 Clouds 12 1016 82 10000 6.21 293 12:24 22.05.2022
1356 Clouds 12 1016 86 10000 5.69 290 10:38 22.05.2022
1357 Clouds 12 1015 88 10000 6.19 304 09:27 22.05.2022
1358 Clouds 12 1015 89 10000 6.49 303 07:44 22.05.2022
1359 Clouds 12 1015 89 10000 6.49 307 06:41 22.05.2022
1360 Clouds 12 1015 89 10000 8.08 307 04:18 22.05.2022
1361 Clouds 12 1015 82 10000 2.83 313 00:59 22.05.2022
1362 Clouds 12 1015 82 10000 2.78 328 23:57 21.05.2022
1363 Clouds 12 1015 83 10000 3.73 330 23:29 21.05.2022
1364 Clouds 12 1015 83 10000 4.7 321 21:59 21.05.2022
1365 Rain 12 1015 83 10000 4.7 321 21:37 21.05.2022
1366 Rain 12 1015 84 10000 5.8 308 20:47 21.05.2022
1367 Clouds 13 1014 80 10000 7.68 320 19:55 21.05.2022
1368 Rain 13 1013 78 10000 8.89 310 19:20 21.05.2022
1369 Rain 14 1012 79 10000 10.23 287 17:23 21.05.2022
1370 Rain 13 1012 80 10000 10.36 280 14:58 21.05.2022
1371 Clouds 13 1012 84 10000 9.44 275 14:24 21.05.2022
1372 Clouds 13 1012 84 10000 10.72 273 13:34 21.05.2022
1373 Clouds 13 1012 88 10000 11.6 263 12:39 21.05.2022
1374 Clouds 12 1012 91 10000 11.83 260 11:45 21.05.2022
1375 Clouds 12 1011 82 10000 11.79 275 10:22 21.05.2022
1376 Clouds 12 1011 79 10000 13.19 279 09:18 21.05.2022
1377 Clouds 12 1011 79 10000 13.19 279 08:39 21.05.2022
1378 Clouds 10 1009 83 10000 12.68 324 06:22 21.05.2022
1379 Rain 13 1004 91 7231 8.63 112 02:23 21.05.2022
1380 Rain 13 1007 86 10000 6.63 96 23:42 20.05.2022
1381 Rain 13 1008 86 10000 6.25 83 22:41 20.05.2022
1382 Rain 13 1011 86 10000 4.35 109 22:18 20.05.2022
1383 Clouds 13 1011 86 10000 4.36 94 21:27 20.05.2022
1384 Clouds 13 1011 86 10000 4.36 94 20:51 20.05.2022
1385 Clouds 13 1012 86 10000 1.92 78 19:55 20.05.2022
1386 Clouds 13 1014 87 10000 1.03 167 18:59 20.05.2022
1387 Clouds 13 1015 88 10000 1.4 218 18:27 20.05.2022
1388 Clouds 13 1015 88 10000 2.47 261 16:50 20.05.2022
1389 Clouds 13 1017 87 10000 3.84 272 15:55 20.05.2022
1390 Clouds 13 1017 87 10000 3.84 272 15:32 20.05.2022
1391 Clouds 13 1018 89 10000 5.44 276 14:28 20.05.2022
1392 Clouds 13 1018 89 10000 5.44 276 13:44 20.05.2022
1393 Clouds 13 1018 92 10000 6.37 285 10:56 20.05.2022
1394 Clouds 13 1018 94 10000 6.55 276 09:50 20.05.2022
1395 Clouds 13 1018 95 10000 6.69 269 08:38 20.05.2022
1396 Clouds 13 1017 98 10000 7.8 269 06:45 20.05.2022
1397 Clouds 13 1016 97 10000 7.54 269 06:21 20.05.2022
1398 Clouds 14 1015 98 4209 7.8 271 03:53 20.05.2022
1399 Clouds 15 1015 96 10000 5.59 242 23:54 19.05.2022
1400 Rain 15 1014 96 10000 3.59 255 22:44 19.05.2022
1401 Rain 15 1014 96 10000 5.71 264 21:53 19.05.2022
1402 Rain 17 1015 87 10000 7.43 238 21:25 19.05.2022
1403 Clouds 17 1015 87 10000 7.43 238 20:59 19.05.2022
1404 Clouds 18 1014 83 10000 3.87 212 20:21 19.05.2022
1405 Clouds 17 1015 85 10000 4.23 238 19:34 19.05.2022
1406 Clouds 18 1016 79 10000 4.51 213 17:59 19.05.2022
1407 Clouds 19 1017 74 10000 5.52 205 16:29 19.05.2022
1408 Clouds 19 1017 72 10000 5.64 201 14:52 19.05.2022
1409 Clouds 19 1018 74 10000 5.52 202 14:23 19.05.2022
1410 Clouds 18 1018 76 10000 5.44 203 12:35 19.05.2022
1411 Clouds 17 1019 79 10000 5.54 202 11:25 19.05.2022
1412 Clouds 16 1020 85 10000 5.55 186 08:59 19.05.2022
1413 Clouds 15 1020 86 10000 5.79 182 07:48 19.05.2022
1414 Clouds 14 1020 82 10000 5.98 181 04:50 19.05.2022
1415 Clouds 14 1021 76 10000 5.96 174 01:59 19.05.2022
1416 Clouds 14 1022 81 10000 6.12 169 23:55 18.05.2022
1417 Clouds 14 1022 80 10000 6.01 166 22:47 18.05.2022
1418 Clouds 15 1022 79 10000 6.03 156 21:47 18.05.2022
1419 Clouds 15 1022 80 10000 5.79 150 21:26 18.05.2022
1420 Clouds 15 1022 80 10000 5.79 150 20:41 18.05.2022
1421 Clouds 16 1022 79 10000 5.63 146 20:18 18.05.2022
1422 Clouds 16 1023 74 10000 5.46 144 18:28 18.05.2022
1423 Clouds 16 1023 74 10000 5.46 144 17:41 18.05.2022
1424 Clouds 16 1024 72 10000 5.48 149 17:23 18.05.2022
1425 Clouds 16 1024 72 10000 5.48 149 16:34 18.05.2022
1426 Clouds 16 1024 71 10000 5.56 156 15:41 18.05.2022
1427 Clouds 15 1025 69 10000 5.97 153 14:35 18.05.2022
1428 Clouds 15 1025 67 10000 6.55 148 13:41 18.05.2022
1429 Clouds 14 1026 67 10000 7.04 148 12:43 18.05.2022
1430 Clouds 13 1026 65 10000 7.44 148 11:34 18.05.2022
1431 Clouds 13 1026 65 10000 7.95 146 10:56 18.05.2022
1432 Clouds 12 1027 65 10000 8.01 145 09:50 18.05.2022
1433 Clouds 11 1027 68 10000 8.3 141 07:51 18.05.2022
1434 Clouds 10 1026 65 10000 9.03 141 06:41 18.05.2022
1435 Clouds 11 1026 67 10000 9.65 113 01:22 18.05.2022
1436 Clouds 11 1026 67 10000 9.69 107 00:23 18.05.2022
1437 Clouds 11 1025 67 10000 9.49 103 21:57 17.05.2022
1438 Clouds 11 1025 66 10000 9.73 98 21:20 17.05.2022
1439 Clouds 11 1025 66 10000 9.73 98 21:20 17.05.2022
1440 Clouds 12 1024 64 10000 9.67 94 20:22 17.05.2022
1441 Clouds 12 1024 69 10000 9.28 88 19:28 17.05.2022
1442 Clouds 12 1023 71 10000 8.85 87 17:52 17.05.2022
1443 Clouds 12 1023 71 10000 8.43 84 16:59 17.05.2022
1444 Clouds 12 1023 71 10000 8.43 84 16:31 17.05.2022
1445 Clouds 12 1023 72 10000 8.18 83 15:32 17.05.2022
1446 Clouds 12 1023 73 10000 8.04 82 14:31 17.05.2022
1447 Clouds 12 1023 74 10000 6.92 78 13:37 17.05.2022
1448 Clouds 13 1022 75 10000 6.46 78 11:58 17.05.2022
1449 Clouds 13 1022 77 10000 5.56 90 09:38 17.05.2022
1450 Clouds 12 1021 79 10000 5.37 95 08:43 17.05.2022
1451 Clouds 12 1020 83 10000 5.92 95 06:52 17.05.2022
1452 Clouds 12 1020 83 10000 5.82 86 04:24 17.05.2022
1453 Clouds 12 1020 79 10000 5.9 85 00:47 17.05.2022
1454 Clouds 12 1020 76 10000 4.18 103 22:44 16.05.2022
1455 Clouds 12 1020 76 10000 4.66 104 22:18 16.05.2022
1456 Clouds 12 1019 74 10000 5.05 107 20:49 16.05.2022
1457 Clouds 13 1018 73 10000 6.17 104 19:57 16.05.2022
1458 Clouds 13 1019 74 10000 5.42 97 18:32 16.05.2022
1459 Clouds 13 1020 70 10000 5.45 82 16:28 16.05.2022
1460 Clouds 13 1021 70 10000 4.59 71 14:42 16.05.2022
1461 Clouds 13 1021 69 10000 3.86 65 13:26 16.05.2022
1462 Clouds 12 1021 69 10000 2.86 58 11:34 16.05.2022
1463 Clouds 12 1021 73 10000 1.5 53 10:24 16.05.2022
1464 Clouds 11 1021 76 10000 0.74 50 07:34 16.05.2022
1465 Clouds 11 1021 79 10000 0.57 65 05:40 16.05.2022
1466 Clear 12 1021 77 10000 1.59 356 23:59 15.05.2022
1467 Clear 12 1021 76 10000 1.9 333 22:36 15.05.2022
1468 Clear 12 1021 77 10000 1.93 317 21:48 15.05.2022
1469 Clear 12 1021 77 10000 2.5 301 21:21 15.05.2022
1470 Clear 12 1021 80 10000 3.79 264 20:35 15.05.2022
1471 Clouds 12 1021 80 10000 4.53 266 18:30 15.05.2022
1472 Clouds 12 1022 81 10000 4.96 266 16:37 15.05.2022
1473 Clouds 12 1022 81 10000 4.98 269 14:18 15.05.2022
1474 Clouds 12 1022 81 10000 5.04 269 13:44 15.05.2022
1475 Clouds 11 1022 82 10000 4.73 278 11:55 15.05.2022
1476 Clouds 11 1022 83 10000 4.97 284 10:43 15.05.2022
1477 Clear 11 1022 84 10000 5.57 300 08:58 15.05.2022
1478 Clear 11 1021 83 10000 6.19 300 07:22 15.05.2022
1479 Clear 11 1021 83 10000 6.19 300 06:42 15.05.2022
1480 Clear 11 1020 82 10000 6.47 306 02:43 15.05.2022
1481 Clouds 11 1020 81 10000 6.6 298 00:22 15.05.2022
1482 Clouds 11 1020 81 10000 6.6 298 23:36 14.05.2022
1483 Clouds 12 1019 78 10000 7.56 302 21:45 14.05.2022
1484 Clouds 12 1019 77 10000 8.14 298 21:25 14.05.2022
1485 Clouds 12 1018 75 10000 8.12 298 20:26 14.05.2022
1486 Clouds 12 1018 73 10000 8.12 298 19:20 14.05.2022
1487 Clouds 12 1018 73 10000 8.12 298 18:57 14.05.2022
1488 Clouds 13 1017 74 10000 8.24 305 17:44 14.05.2022
1489 Clouds 13 1017 75 10000 9.96 282 15:58 14.05.2022
1490 Clouds 13 1016 78 10000 10.15 275 14:38 14.05.2022
1491 Clouds 13 1016 78 10000 10.15 275 14:38 14.05.2022
1492 Clouds 12 1016 82 10000 10.46 272 13:27 14.05.2022
1493 Clouds 12 1016 85 10000 10.79 271 11:45 14.05.2022
1494 Clouds 12 1015 86 10000 11.35 271 10:44 14.05.2022
1495 Clouds 12 1015 87 10000 11.76 268 10:18 14.05.2022
1496 Clouds 12 1014 88 10000 11.79 265 09:23 14.05.2022
1497 Clouds 11 1014 89 10000 11.73 262 07:34 14.05.2022
1498 Clouds 11 1014 86 10000 11.4 250 04:43 14.05.2022
1499 Clouds 11 1015 87 10000 10.39 258 00:43 14.05.2022
1500 Clouds 12 1015 85 10000 10.42 265 23:28 13.05.2022
1501 Clouds 12 1015 85 10000 10.42 265 22:55 13.05.2022
1502 Clouds 12 1015 84 10000 10.27 267 22:21 13.05.2022
1503 Clouds 12 1015 82 10000 10.64 269 20:59 13.05.2022
1504 Clouds 12 1015 82 10000 10.64 269 20:40 13.05.2022
1505 Clouds 12 1014 81 10000 10.27 269 20:21 13.05.2022
1506 Clouds 12 1014 80 10000 10.29 269 19:18 13.05.2022
1507 Clouds 12 1013 79 10000 9.75 265 17:47 13.05.2022
1508 Clouds 12 1013 79 10000 9.7 263 17:23 13.05.2022
1509 Clouds 12 1013 78 10000 9.51 259 15:48 13.05.2022
1510 Clouds 12 1014 81 10000 8.35 252 14:45 13.05.2022
1511 Clouds 11 1014 86 10000 8.68 268 12:54 13.05.2022
1512 Clouds 12 1013 78 10000 8.14 251 12:20 13.05.2022
1513 Clouds 11 1013 81 10000 6.89 224 10:23 13.05.2022
1514 Clouds 11 1014 82 10000 6.16 229 09:29 13.05.2022
1515 Clouds 11 1014 82 10000 6.09 243 07:59 13.05.2022
1516 Clouds 11 1014 83 10000 6.91 242 07:30 13.05.2022
1517 Clouds 10 1014 85 10000 7.57 253 05:46 13.05.2022
1518 Clouds 11 1014 86 10000 7.67 252 01:37 13.05.2022
1519 Clouds 11 1015 82 10000 7.74 255 23:43 12.05.2022
1520 Clouds 12 1015 80 10000 7.75 255 22:42 12.05.2022
1521 Clouds 12 1015 78 10000 7.64 261 21:36 12.05.2022
1522 Clear 12 1014 74 10000 8.51 273 20:22 12.05.2022
1523 Clear 13 1014 74 10000 8.71 270 18:30 12.05.2022
1524 Clear 13 1014 74 10000 8.35 258 16:52 12.05.2022
1525 Clear 12 1014 75 10000 8.02 260 15:30 12.05.2022
1526 Clear 12 1014 78 10000 10.18 268 13:58 12.05.2022
1527 Clear 12 1014 79 10000 10.99 267 13:21 12.05.2022
1528 Clear 12 1012 80 10000 10.81 275 10:35 12.05.2022
1529 Clear 11 1010 86 10000 10.04 283 08:58 12.05.2022
1530 Clear 11 1010 86 10000 10.04 283 08:39 12.05.2022
1531 Clouds 11 1009 86 10000 9.54 283 07:37 12.05.2022
1532 Rain 11 1006 92 10000 10.37 264 05:30 12.05.2022
1533 Rain 11 1006 86 10000 3.25 250 02:21 12.05.2022
1534 Rain 11 1006 87 10000 2.55 21 23:55 11.05.2022
1535 Clouds 12 1007 87 10000 3.59 347 22:31 11.05.2022
1536 Clouds 12 1007 86 10000 2.46 315 21:32 11.05.2022
1537 Clouds 12 1007 87 10000 1.61 306 20:52 11.05.2022
1538 Clouds 13 1007 85 10000 6.4 280 17:56 11.05.2022
1539 Clouds 14 1007 80 10000 7.27 254 16:50 11.05.2022
1540 Clouds 14 1008 82 10000 5.99 232 14:50 11.05.2022
1541 Clouds 14 1009 86 10000 7.21 222 14:26 11.05.2022
1542 Clouds 14 1009 87 10000 6.86 230 13:51 11.05.2022
1543 Clouds 13 1010 89 10000 5.91 204 11:51 11.05.2022
1544 Clouds 12 1011 87 10000 4.91 197 10:27 11.05.2022
1545 Clouds 12 1011 87 10000 4.73 204 08:33 11.05.2022
1546 Clouds 11 1011 91 10000 4.53 261 05:19 11.05.2022
1547 Clouds 13 1013 96 10000 5.32 217 00:42 11.05.2022
1548 Rain 12 1013 97 10000 2.91 190 22:30 10.05.2022
1549 Rain 13 1014 95 10000 3.62 233 21:55 10.05.2022
1550 Rain 13 1013 87 10000 2.83 269 20:56 10.05.2022
1551 Rain 14 1013 86 10000 7.08 280 19:27 10.05.2022
1552 Clouds 16 1013 77 10000 5.56 213 17:54 10.05.2022
1553 Clouds 16 1014 75 10000 6.03 210 17:21 10.05.2022
1554 Clouds 17 1015 71 10000 6.7 200 15:28 10.05.2022
1555 Clouds 16 1017 71 10000 7.4 186 12:39 10.05.2022
1556 Clouds 15 1018 72 10000 7.38 184 11:50 10.05.2022
1557 Clouds 14 1018 74 10000 7.36 182 11:20 10.05.2022
1558 Clouds 13 1019 76 10000 7.22 178 10:26 10.05.2022
1559 Clouds 13 1019 77 10000 7.26 179 09:25 10.05.2022
1560 Clouds 11 1020 81 10000 7.78 175 06:54 10.05.2022
1561 Clouds 11 1022 77 10000 7.75 169 03:57 10.05.2022
1562 Clouds 11 1024 80 10000 6.01 158 00:57 10.05.2022
1563 Clouds 11 1025 78 10000 6.48 131 22:56 09.05.2022
1564 Clouds 11 1026 77 10000 6.95 124 21:51 09.05.2022
1565 Clear 11 1026 76 10000 6.89 119 20:54 09.05.2022
1566 Clouds 12 1026 72 10000 6.85 112 19:23 09.05.2022
1567 Clouds 12 1027 70 10000 6.83 111 17:51 09.05.2022
1568 Clouds 13 1028 68 10000 6.8 107 16:38 09.05.2022
1569 Clouds 13 1028 65 10000 6.62 108 15:52 09.05.2022
1570 Clouds 13 1029 63 10000 6.44 108 15:24 09.05.2022
1571 Clouds 13 1029 63 10000 6.2 109 14:31 09.05.2022
1572 Clouds 13 1030 62 10000 6.02 111 13:50 09.05.2022
1573 Clouds 12 1030 62 10000 5.07 124 12:26 09.05.2022
1574 Clouds 12 1030 62 10000 5.07 124 11:37 09.05.2022
1575 Clouds 12 1030 63 10000 4.85 133 10:43 09.05.2022
1576 Clouds 11 1030 66 10000 5.48 141 08:51 09.05.2022
1577 Clouds 10 1030 69 10000 5.58 137 07:54 09.05.2022
1578 Clouds 9 1030 75 10000 5.18 120 03:36 09.05.2022
1579 Clouds 9 1029 84 10000 4.82 109 00:20 09.05.2022
1580 Clouds 10 1029 83 10000 4.55 105 22:56 08.05.2022
1581 Clouds 10 1029 80 10000 4.44 98 21:56 08.05.2022
1582 Clouds 10 1028 75 10000 3.68 89 20:37 08.05.2022
1583 Clouds 11 1027 76 10000 3.8 76 19:45 08.05.2022
1584 Clear 11 1027 71 10000 1.75 35 18:57 08.05.2022
1585 Clear 11 1027 70 10000 1.4 338 18:19 08.05.2022
1586 Clear 11 1027 69 10000 1.83 310 16:56 08.05.2022
1587 Clear 11 1026 70 10000 2.68 303 15:40 08.05.2022
1588 Clear 10 1026 71 10000 3.25 302 15:20 08.05.2022
1589 Clear 10 1026 71 10000 3.25 302 15:20 08.05.2022
1590 Clouds 10 1026 71 10000 3.89 301 12:39 08.05.2022
1591 Clouds 9 1026 74 10000 4.53 303 10:32 08.05.2022
1592 Clouds 9 1025 76 10000 4.79 304 09:59 08.05.2022
1593 Clouds 9 1025 76 10000 4.79 304 09:31 08.05.2022
1594 Clouds 8 1024 72 10000 5.07 297 07:33 08.05.2022
1595 Clouds 9 1023 71 10000 6.23 312 04:20 08.05.2022
1596 Clouds 9 1023 71 10000 6 315 03:19 08.05.2022
1597 Clouds 11 1023 76 10000 5.45 319 00:28 08.05.2022
1598 Clouds 11 1023 76 10000 5.45 319 23:53 07.05.2022
1599 Clouds 11 1022 75 10000 5.16 319 22:51 07.05.2022
1600 Clouds 11 1022 75 10000 5.16 319 22:33 07.05.2022
1601 Clouds 11 1022 74 10000 5.01 312 21:43 07.05.2022
1602 Clouds 12 1022 79 10000 4.68 305 20:55 07.05.2022
1603 Clouds 12 1021 82 10000 5.67 272 19:58 07.05.2022
1604 Clouds 12 1021 81 10000 4.32 254 17:51 07.05.2022
1605 Clouds 12 1021 83 10000 4.4 285 15:53 07.05.2022
1606 Clouds 11 1021 92 10000 5.61 283 14:20 07.05.2022
1607 Clouds 11 1021 90 10000 5.62 275 10:59 07.05.2022
1608 Clouds 11 1021 90 10000 6.12 273 09:38 07.05.2022
1609 Clouds 11 1020 90 10000 6.03 267 07:52 07.05.2022
1610 Clouds 11 1020 90 10000 5.73 264 06:44 07.05.2022
1611 Clouds 11 1020 90 10000 4.93 253 05:22 07.05.2022
1612 Clouds 11 1020 89 10000 4.67 245 03:32 07.05.2022
1613 Clouds 11 1021 83 10000 4.58 211 23:38 06.05.2022
1614 Clouds 12 1022 80 10000 4.2 212 22:32 06.05.2022
1615 Clouds 12 1022 78 10000 3.36 221 21:45 06.05.2022
1616 Clouds 12 1022 78 10000 2.94 246 20:35 06.05.2022
1617 Clouds 12 1022 77 10000 3.33 252 19:41 06.05.2022
1618 Clouds 12 1022 74 10000 2.95 251 19:18 06.05.2022
1619 Clouds 12 1022 70 10000 3.24 256 18:23 06.05.2022
1620 Clouds 12 1023 70 10000 3.26 256 16:57 06.05.2022
1621 Clear 11 1023 71 10000 3.13 256 15:47 06.05.2022
1622 Clear 11 1024 73 10000 3.38 257 14:54 06.05.2022
1623 Clear 10 1024 72 10000 3.35 266 13:26 06.05.2022
1624 Clear 10 1024 72 10000 3.35 266 12:40 06.05.2022
1625 Clear 10 1024 73 10000 3.25 277 11:45 06.05.2022
1626 Clear 10 1024 73 10000 3.24 290 10:30 06.05.2022
1627 Clouds 10 1024 74 10000 3.82 296 09:46 06.05.2022
1628 Clouds 10 1024 75 10000 4.25 297 08:33 06.05.2022
1629 Clouds 10 1023 82 10000 3.78 302 06:50 06.05.2022
1630 Clouds 10 1023 83 10000 3.94 309 05:37 06.05.2022
1631 Clouds 11 1023 83 10000 5.17 277 02:50 06.05.2022
1632 Clouds 11 1023 82 10000 5.01 270 01:31 06.05.2022
1633 Clear 11 1023 84 10000 4.42 282 22:32 05.05.2022
1634 Clear 11 1022 84 10000 4.86 268 21:22 05.05.2022
1635 Clouds 11 1022 81 10000 5.18 263 19:55 05.05.2022
1636 Clouds 10 1021 78 10000 5.68 264 18:35 05.05.2022
1637 Clouds 10 1021 77 10000 5.78 265 16:35 05.05.2022
1638 Clouds 10 1021 80 10000 4.34 279 14:51 05.05.2022
1639 Clouds 10 1021 80 10000 4.2 299 13:24 05.05.2022
1640 Clouds 10 1021 80 10000 4.2 299 12:53 05.05.2022
1641 Clouds 9 1020 82 10000 4.43 303 10:52 05.05.2022
1642 Clouds 9 1020 83 10000 4.81 304 09:40 05.05.2022
1643 Clouds 9 1019 82 10000 4.93 297 07:36 05.05.2022
1644 Clouds 9 1018 82 10000 3.71 290 05:42 05.05.2022
1645 Clouds 10 1018 74 10000 3.67 307 02:18 05.05.2022
1646 Clouds 10 1018 74 10000 3.23 288 01:32 05.05.2022
1647 Clouds 10 1018 78 10000 1.9 293 23:53 04.05.2022
1648 Clouds 10 1018 81 10000 1.09 289 22:46 04.05.2022
1649 Clouds 10 1018 81 10000 0.38 276 21:54 04.05.2022
1650 Clouds 11 1018 80 10000 0.11 31 21:29 04.05.2022
1651 Clouds 11 1018 80 10000 0.11 31 20:30 04.05.2022
1652 Clouds 11 1017 81 10000 1.94 94 19:55 04.05.2022
1653 Clouds 11 1017 79 10000 2.04 86 19:24 04.05.2022
1654 Clouds 11 1017 79 10000 2.12 85 18:22 04.05.2022
1655 Clouds 11 1017 79 10000 2.12 85 17:58 04.05.2022
1656 Clouds 11 1018 78 10000 2.44 80 15:57 04.05.2022
1657 Clouds 11 1018 78 10000 2.44 80 15:30 04.05.2022
1658 Clouds 11 1018 75 10000 2.5 46 14:21 04.05.2022
1659 Clouds 11 1018 75 10000 2.88 55 13:50 04.05.2022
1660 Clouds 11 1019 74 10000 1.83 42 12:34 04.05.2022
1661 Clouds 10 1019 77 10000 1.36 151 10:57 04.05.2022
1662 Clouds 10 1019 78 10000 2.31 160 09:46 04.05.2022
1663 Clouds 9 1019 81 10000 2.86 162 08:49 04.05.2022
1664 Clouds 8 1019 83 10000 3.72 167 07:33 04.05.2022
1665 Clouds 7 1019 84 10000 3.55 161 03:50 04.05.2022
1666 Clouds 8 1018 80 10000 3.41 153 01:41 04.05.2022
1667 Clouds 8 1018 73 10000 2.2 156 22:54 03.05.2022
1668 Clouds 9 1018 74 10000 1.37 167 21:47 03.05.2022
1669 Clouds 9 1017 75 10000 0.83 220 21:21 03.05.2022
1670 Clouds 9 1017 75 10000 0.83 220 21:21 03.05.2022
1671 Clouds 9 1017 75 10000 0.83 220 20:38 03.05.2022
1672 Clouds 9 1017 70 10000 1.53 273 19:21 03.05.2022
1673 Clouds 9 1017 70 10000 1.53 273 18:42 03.05.2022
1674 Clouds 9 1017 71 10000 3.65 268 17:20 03.05.2022
1675 Clouds 9 1017 71 10000 3.65 268 17:20 03.05.2022
1676 Clouds 9 1017 72 10000 4.54 272 15:51 03.05.2022
1677 Clouds 9 1017 73 10000 4.35 275 14:23 03.05.2022
1678 Clouds 9 1017 73 10000 4.82 273 12:35 03.05.2022
1679 Clouds 9 1017 82 10000 4.74 313 11:24 03.05.2022
1680 Clouds 9 1016 88 10000 4.95 299 10:26 03.05.2022
1681 Clouds 10 1015 90 10000 6.13 269 08:19 03.05.2022
1682 Clouds 9 1015 90 10000 6.37 265 06:45 03.05.2022
1683 Clouds 9 1015 83 10000 5.85 278 01:59 03.05.2022
1684 Clouds 10 1016 75 10000 6.08 273 22:56 02.05.2022
1685 Clouds 10 1017 75 10000 5.51 267 22:28 02.05.2022
1686 Clouds 10 1017 75 10000 5.51 267 21:37 02.05.2022
1687 Clouds 10 1016 74 10000 5.95 266 19:26 02.05.2022
1688 Clouds 10 1017 72 10000 6.19 269 18:26 02.05.2022
1689 Clouds 10 1017 72 10000 6.19 269 17:39 02.05.2022
1690 Clouds 10 1017 71 10000 6.16 268 16:42 02.05.2022
1691 Clear 10 1018 75 10000 6.76 267 15:41 02.05.2022
1692 Clear 10 1018 74 10000 5.85 263 14:45 02.05.2022
1693 Clouds 10 1019 72 10000 4.64 263 13:42 02.05.2022
1694 Clouds 10 1020 72 10000 4.11 275 11:41 02.05.2022
1695 Clouds 9 1020 74 10000 3.98 262 09:45 02.05.2022
1696 Clouds 8 1021 77 10000 3.73 252 08:29 02.05.2022
1697 Clouds 8 1021 78 10000 3.47 238 06:56 02.05.2022
1698 Clouds 9 1022 78 10000 1.05 278 00:47 02.05.2022
1699 Clouds 9 1022 78 10000 1.05 278 00:47 02.05.2022
1700 Clouds 9 1022 77 10000 1.14 279 00:22 02.05.2022
1701 Clouds 9 1022 77 10000 1.17 283 22:55 01.05.2022
1702 Clouds 9 1022 77 10000 1.51 284 21:45 01.05.2022
1703 Clouds 9 1022 75 10000 2.07 298 20:50 01.05.2022
1704 Clouds 10 1022 72 10000 2.95 294 19:27 01.05.2022
1705 Clouds 10 1022 72 10000 2.95 294 18:53 01.05.2022
1706 Clouds 10 1022 70 10000 2.63 292 17:51 01.05.2022
1707 Clouds 10 1022 70 10000 2.27 304 16:38 01.05.2022
1708 Clouds 9 1022 72 10000 2.35 318 16:18 01.05.2022
1709 Clouds 9 1023 75 10000 2.58 333 14:54 01.05.2022
1710 Clouds 9 1023 72 10000 2.75 330 12:52 01.05.2022
1711 Clouds 9 1023 74 10000 3.13 324 10:36 01.05.2022
1712 Clouds 9 1023 79 10000 3.27 303 08:50 01.05.2022
1713 Clouds 8 1022 80 10000 3.06 263 06:50 01.05.2022
1714 Clouds 9 1022 78 10000 3.15 305 02:46 01.05.2022
1715 Clouds 9 1023 74 10000 3.84 281 22:51 30.04.2022
1716 Clouds 9 1023 74 10000 3.84 281 22:51 30.04.2022
1717 Clouds 9 1023 75 10000 3.7 273 21:33 30.04.2022
1718 Clouds 9 1023 75 10000 3.7 273 21:33 30.04.2022
1719 Clouds 9 1023 79 10000 3.78 272 20:22 30.04.2022
1720 Clouds 9 1023 79 10000 3.78 272 19:31 30.04.2022
1721 Clouds 10 1023 79 10000 3.81 277 17:37 30.04.2022
1722 Clouds 10 1023 78 10000 3.15 290 16:28 30.04.2022
1723 Clouds 10 1024 78 10000 3.13 295 15:19 30.04.2022
1724 Clouds 10 1024 78 10000 3.13 295 14:30 30.04.2022
1725 Clouds 9 1024 78 10000 2.41 277 11:59 30.04.2022
1726 Clouds 9 1024 78 10000 2.41 277 11:32 30.04.2022
1727 Clouds 9 1025 79 10000 2.4 265 10:30 30.04.2022
1728 Clouds 9 1025 82 10000 1.81 247 08:26 30.04.2022
1729 Clouds 8 1025 77 10000 1.99 265 04:58 30.04.2022
1730 Clouds 8 1026 69 10000 2.77 200 00:34 30.04.2022
1731 Clouds 8 1027 70 10000 2.4 181 23:29 29.04.2022
1732 Clouds 8 1027 73 10000 1.41 178 22:29 29.04.2022
1733 Clouds 8 1027 76 10000 0.59 245 21:26 29.04.2022
1734 Clouds 8 1027 76 10000 0.59 245 20:36 29.04.2022
1735 Clouds 8 1026 74 10000 1.7 290 19:33 29.04.2022
1736 Clouds 9 1027 72 10000 2.97 280 17:48 29.04.2022
1737 Clouds 9 1027 72 10000 3.2 280 16:43 29.04.2022
1738 Clouds 9 1028 76 10000 3.05 283 14:38 29.04.2022
1739 Clouds 9 1028 79 10000 3.37 287 14:19 29.04.2022
1740 Clouds 9 1029 79 10000 3.72 290 12:41 29.04.2022
1741 Clouds 9 1029 73 10000 2.64 275 10:57 29.04.2022
1742 Clouds 10 1028 76 10000 0.29 195 08:18 29.04.2022
1743 Clouds 7 1028 79 10000 0.98 316 07:27 29.04.2022
1744 Clouds 7 1028 79 10000 0.98 316 06:35 29.04.2022
1745 Clouds 7 1028 84 10000 3.63 325 03:28 29.04.2022
1746 Clouds 8 1028 84 10000 4.55 276 00:18 29.04.2022
1747 Clouds 9 1028 79 10000 4.65 256 23:26 28.04.2022
1748 Clouds 10 1028 79 10000 4.65 256 22:40 28.04.2022
1749 Clear 8 1028 76 10000 4.59 253 21:46 28.04.2022
1750 Clear 9 1028 74 10000 4.88 260 20:55 28.04.2022
1751 Clouds 9 1028 73 10000 5.01 261 20:22 28.04.2022
1752 Clouds 9 1027 74 10000 5.08 259 19:40 28.04.2022
1753 Clouds 9 1027 74 10000 5.34 261 19:21 28.04.2022
1754 Clouds 9 1027 81 10000 5.62 262 18:23 28.04.2022
1755 Clouds 9 1028 84 10000 5.18 267 16:59 28.04.2022
1756 Clouds 9 1028 82 10000 4.19 273 16:22 28.04.2022
1757 Clouds 9 1028 82 10000 4.19 273 15:57 28.04.2022
1758 Clouds 9 1028 80 10000 3.64 284 15:27 28.04.2022
1759 Clouds 9 1028 77 10000 3.34 285 13:44 28.04.2022
1760 Clouds 12 1028 75 10000 2.53 289 12:42 28.04.2022
1761 Clouds 11 1028 72 10000 1.4 301 11:56 28.04.2022
1762 Clouds 10 1028 72 10000 0.48 4 10:44 28.04.2022
1763 Clouds 10 1028 73 10000 0.86 91 09:52 28.04.2022
1764 Clouds 9 1028 74 10000 1.56 95 08:30 28.04.2022
1765 Clouds 8 1027 75 10000 1.85 82 06:59 28.04.2022
1766 Clouds 7 1027 76 10000 2 67 05:55 28.04.2022
1767 Clouds 7 1027 76 10000 2 67 05:37 28.04.2022
1768 Clouds 6 1027 75 10000 1.94 56 04:38 28.04.2022
1769 Clouds 7 1027 79 10000 2.95 108 00:22 28.04.2022
1770 Clouds 7 1027 81 10000 3.71 100 22:39 27.04.2022
1771 Clouds 7 1026 83 10000 4.14 90 21:54 27.04.2022
1772 Clear 8 1026 82 10000 3.83 81 20:59 27.04.2022
1773 Clear 8 1026 82 10000 3.83 81 20:37 27.04.2022
1774 Clouds 8 1025 82 10000 3.13 62 19:37 27.04.2022
1775 Clouds 8 1025 80 10000 2.68 42 19:18 27.04.2022
1776 Clouds 9 1025 78 10000 2.76 23 18:22 27.04.2022
1777 Clouds 9 1025 77 10000 3.05 8 16:58 27.04.2022
1778 Clouds 9 1025 76 10000 3.12 356 14:33 27.04.2022
1779 Clouds 8 1025 79 10000 4.02 55 12:23 27.04.2022
1780 Clouds 8 1024 80 10000 4.2 58 11:20 27.04.2022
1781 Clouds 8 1024 81 10000 4.35 51 09:43 27.04.2022
1782 Clouds 7 1022 85 10000 3.49 332 07:18 27.04.2022
1783 Clouds 6 1021 79 10000 3.3 325 04:45 27.04.2022
1784 Clouds 7 1021 72 10000 1.92 315 01:34 27.04.2022
1785 Clouds 8 1020 72 10000 1.74 326 00:38 27.04.2022
1786 Clouds 8 1020 70 10000 2.12 337 23:40 26.04.2022
1787 Clouds 8 1020 69 10000 2.62 345 23:22 26.04.2022
1788 Clouds 9 1020 69 10000 2.62 345 22:41 26.04.2022
1789 Clouds 9 1019 70 10000 2.65 348 21:37 26.04.2022
1790 Clouds 9 1019 71 10000 2.52 323 20:53 26.04.2022
1791 Clouds 9 1019 71 10000 2.52 323 20:33 26.04.2022
1792 Clear 8 1018 71 10000 2.71 283 19:32 26.04.2022
1793 Clear 9 1018 71 10000 2.94 280 18:51 26.04.2022
1794 Clear 9 1018 69 10000 2.87 287 18:18 26.04.2022
1795 Clear 9 1017 68 10000 2.94 302 17:22 26.04.2022
1796 Clear 9 1017 68 10000 3.07 308 14:46 26.04.2022
1797 Clouds 9 1017 69 10000 3.38 306 13:34 26.04.2022
1798 Clouds 8 1017 70 10000 2.95 288 12:22 26.04.2022
1799 Clouds 8 1017 71 10000 2.52 287 10:46 26.04.2022
1800 Clouds 12 1017 73 10000 2.59 298 09:41 26.04.2022
1801 Clear 6 1016 76 10000 3.3 286 07:59 26.04.2022
1802 Clear 5 1016 80 10000 3.02 246 04:37 26.04.2022
1803 Clouds 5 1015 77 10000 2.58 268 02:20 26.04.2022
1804 Clouds 6 1015 74 10000 3.04 277 00:26 26.04.2022
1805 Clouds 7 1015 72 10000 3.34 272 22:50 25.04.2022
1806 Clouds 8 1015 70 10000 3.14 274 21:44 25.04.2022
1807 Clouds 8 1015 70 10000 2.24 277 20:46 25.04.2022
1808 Clouds 7 1014 72 10000 1.07 303 19:39 25.04.2022
1809 Clouds 7 1014 70 10000 2.08 356 18:25 25.04.2022
1810 Clouds 7 1014 70 10000 2.08 356 17:32 25.04.2022
1811 Clouds 7 1014 73 10000 2.89 8 15:38 25.04.2022
1812 Clouds 7 1014 74 10000 3.05 19 15:18 25.04.2022
1813 Clouds 7 1014 75 10000 3.42 29 13:43 25.04.2022
1814 Clouds 6 1013 77 10000 4.6 39 11:53 25.04.2022
1815 Clouds 6 1013 77 10000 5.76 46 10:27 25.04.2022
1816 Clouds 10 1012 77 10000 6.42 43 09:20 25.04.2022
1817 Clouds 6 1012 79 10000 6.9 48 07:19 25.04.2022
1818 Clouds 5 1011 81 10000 7.31 55 05:32 25.04.2022
1819 Clouds 6 1011 86 10000 10.02 63 01:24 25.04.2022
1820 Clouds 6 1011 85 10000 10.53 63 23:53 24.04.2022
1821 Clouds 7 1011 85 10000 11.16 64 22:53 24.04.2022
1822 Clouds 7 1011 85 10000 11.16 64 22:32 24.04.2022
1823 Clouds 7 1011 85 10000 11.66 67 21:54 24.04.2022
1824 Clouds 7 1011 85 10000 11.88 68 21:20 24.04.2022
1825 Clouds 7 1011 85 10000 11.88 68 20:38 24.04.2022
1826 Clouds 8 1010 86 10000 12.22 66 19:50 24.04.2022
1827 Clouds 9 1009 86 10000 12.25 67 18:28 24.04.2022
1828 Clouds 9 1009 86 10000 12.25 67 17:40 24.04.2022
1829 Clouds 9 1009 86 10000 11.76 69 17:19 24.04.2022
1830 Clouds 9 1009 86 10000 11.76 69 16:48 24.04.2022
1831 Clouds 10 1010 86 10000 11.26 69 16:20 24.04.2022
1832 Clouds 10 1010 86 10000 11.26 69 15:32 24.04.2022
1833 Clouds 10 1010 86 10000 11.03 70 14:30 24.04.2022
1834 Clouds 10 1010 88 10000 10.67 67 13:26 24.04.2022
1835 Clouds 10 1010 88 10000 10.67 67 12:37 24.04.2022
1836 Clouds 11 1010 86 10000 10.34 68 11:39 24.04.2022
1837 Clouds 10 1010 86 10000 10.07 69 10:32 24.04.2022
1838 Clouds 9 1010 86 10000 10.56 69 09:39 24.04.2022
1839 Clouds 8 1010 87 10000 10.18 64 07:39 24.04.2022
1840 Clouds 7 1010 85 10000 9.6 58 04:56 24.04.2022
1841 Clouds 7 1011 83 10000 8.15 52 01:50 24.04.2022
1842 Clouds 7 1011 82 10000 7.6 55 00:33 24.04.2022
1843 Clouds 7 1011 82 10000 5.74 56 23:45 23.04.2022
1844 Clear 7 1012 83 10000 5.09 63 23:22 23.04.2022
1845 Clear 8 1012 83 10000 4.96 69 21:55 23.04.2022
1846 Clear 8 1012 83 10000 4.96 69 21:35 23.04.2022
1847 Clear 7 1012 83 10000 4.89 71 20:57 23.04.2022
1848 Clouds 7 1012 83 10000 4.67 70 19:54 23.04.2022
1849 Clouds 7 1012 81 10000 4.57 75 19:19 23.04.2022
1850 Clouds 7 1012 81 10000 4.57 75 18:53 23.04.2022
1851 Clouds 7 1012 81 10000 5.42 67 18:28 23.04.2022
1852 Clouds 7 1012 81 10000 5.42 67 17:43 23.04.2022
1853 Clouds 7 1013 82 10000 5.92 63 16:43 23.04.2022
1854 Clouds 7 1013 84 10000 6.26 59 15:32 23.04.2022
1855 Clear 7 1015 86 10000 6.47 58 12:50 23.04.2022
1856 Clear 7 1015 86 10000 6.23 57 10:52 23.04.2022
1857 Clear 12 1015 85 10000 5.98 63 09:38 23.04.2022
1858 Clear 7 1015 86 10000 5.93 68 07:38 23.04.2022
1859 Clear 7 1015 87 10000 6.86 78 03:54 23.04.2022
1860 Clear 7 1015 85 10000 8.13 80 01:55 23.04.2022
1861 Clear 8 1015 83 10000 8.96 76 23:33 22.04.2022
1862 Clear 8 1015 83 10000 9.41 70 22:28 22.04.2022
1863 Clear 9 1015 83 10000 9.41 70 21:44 22.04.2022
1864 Clear 10 1014 83 10000 9.63 74 20:55 22.04.2022
1865 Clear 11 1014 83 10000 10.19 75 20:28 22.04.2022
1866 Clouds 8 1014 84 10000 9.32 72 19:22 22.04.2022
1867 Clouds 8 1014 84 10000 9.32 72 18:52 22.04.2022
1868 Clear 14 1014 85 10000 9.2 73 17:54 22.04.2022
1869 Clear 15 1014 85 10000 9.1 72 16:52 22.04.2022
1870 Clear 15 1014 84 10000 9.14 73 15:47 22.04.2022
1871 Clouds 9 1014 85 10000 8.87 67 15:22 22.04.2022
1872 Clouds 8 1014 87 10000 8.86 63 13:54 22.04.2022
1873 Clouds 8 1014 88 10000 8.86 62 13:27 22.04.2022
1874 Clouds 8 1014 88 10000 8.86 62 12:30 22.04.2022
1875 Clouds 7 1015 88 10000 8.79 64 11:23 22.04.2022
1876 Clouds 12 1015 88 10000 8.79 64 10:53 22.04.2022
1877 Clouds 11 1015 88 10000 8.79 64 10:32 22.04.2022
1878 Clouds 10 1014 89 10000 8.85 68 09:54 22.04.2022
1879 Clouds 8 1014 89 10000 8.77 67 08:56 22.04.2022
1880 Clouds 8 1014 90 10000 8.91 64 08:29 22.04.2022
1881 Clear 7 1014 90 10000 8.67 64 05:31 22.04.2022
1882 Clear 8 1016 87 10000 8.92 59 00:53 22.04.2022
1883 Clear 7 1016 86 10000 8.22 57 23:29 21.04.2022
1884 Clear 7 1016 86 10000 8.22 57 22:34 21.04.2022
1885 Clouds 7 1016 85 10000 7.25 61 21:25 21.04.2022
1886 Clouds 7 1016 85 10000 7.2 64 20:29 21.04.2022
1887 Clouds 7 1016 88 10000 7.42 58 18:49 21.04.2022
1888 Clouds 7 1016 88 10000 7.42 58 18:49 21.04.2022
1889 Clouds 8 1016 87 10000 7.46 58 18:19 21.04.2022
1890 Clouds 14 1017 86 10000 7.62 58 16:56 21.04.2022
1891 Clouds 13 1017 86 10000 8.11 55 15:24 21.04.2022
1892 Clouds 13 1017 86 10000 8.11 55 14:52 21.04.2022
1893 Clouds 13 1017 88 10000 7.66 54 13:59 21.04.2022
1894 Clouds 12 1017 88 10000 7.55 55 13:21 21.04.2022
1895 Clouds 12 1017 88 10000 7.55 55 13:21 21.04.2022
1896 Clouds 12 1017 88 10000 7.64 56 12:22 21.04.2022
1897 Clouds 11 1017 88 10000 7.47 53 09:33 21.04.2022
1898 Clouds 10 1017 88 10000 7.84 58 08:38 21.04.2022
1899 Clouds 7 1016 88 10000 8.04 57 06:36 21.04.2022
1900 Clouds 7 1016 85 10000 8.24 53 03:41 21.04.2022
1901 Clouds 7 1017 84 10000 8.39 52 03:20 21.04.2022
1902 Clouds 7 1017 84 10000 8.39 52 02:44 21.04.2022
1903 Clouds 8 1017 84 10000 8.78 48 00:34 21.04.2022
1904 Clouds 8 1017 82 10000 8.59 50 23:37 20.04.2022
1905 Clear 8 1017 79 10000 8.45 47 23:18 20.04.2022
1906 Clear 9 1017 79 10000 8.45 47 22:34 20.04.2022
1907 Clear 8 1017 77 10000 8.31 51 21:43 20.04.2022
1908 Clear 8 1018 77 10000 7.89 55 20:44 20.04.2022
1909 Clear 8 1018 77 10000 7.89 55 20:44 20.04.2022
1910 Clouds 8 1017 78 10000 8.92 57 20:21 20.04.2022
1911 Clouds 8 1017 78 10000 8.92 57 19:44 20.04.2022
1912 Clouds 8 1017 78 10000 8.37 51 18:46 20.04.2022
1913 Clouds 8 1017 78 10000 8.1 48 17:50 20.04.2022
1914 Clouds 8 1018 78 10000 7.75 48 16:39 20.04.2022
1915 Clouds 8 1018 81 10000 7.15 43 15:26 20.04.2022
1916 Clouds 7 1019 82 10000 6.07 26 12:22 20.04.2022
1917 Clouds 7 1019 82 10000 6.07 26 11:42 20.04.2022
1918 Clouds 12 1019 83 10000 5.95 29 10:44 20.04.2022
1919 Clouds 11 1019 83 10000 5.9 27 09:31 20.04.2022
1920 Clouds 11 1019 84 10000 5.96 27 08:40 20.04.2022
1921 Clouds 10 1019 84 10000 5.86 20 08:18 20.04.2022
1922 Clouds 7 1019 83 10000 5.06 26 06:23 20.04.2022
1923 Clouds 7 1020 78 10000 4.7 35 02:34 20.04.2022
1924 Clouds 7 1020 78 10000 5.06 65 00:22 20.04.2022
1925 Clouds 7 1020 77 10000 5.7 68 22:59 19.04.2022
1926 Clouds 7 1020 77 10000 5.91 71 22:24 19.04.2022
1927 Clouds 7 1020 77 10000 5.91 71 21:55 19.04.2022
1928 Clouds 7 1020 78 10000 5.99 72 20:59 19.04.2022
1929 Clouds 7 1020 78 10000 5.99 72 20:37 19.04.2022
1930 Clouds 7 1019 81 10000 6.38 65 19:41 19.04.2022
1931 Clouds 7 1019 81 10000 6.62 64 18:37 19.04.2022
1932 Clouds 7 1019 78 10000 6.98 55 17:24 19.04.2022
1933 Clouds 7 1019 78 10000 6.98 55 16:42 19.04.2022
1934 Clouds 7 1019 78 10000 6.98 55 16:42 19.04.2022
1935 Clouds 13 1019 78 10000 7.09 52 16:20 19.04.2022
1936 Clouds 7 1019 78 10000 7.14 48 14:46 19.04.2022
1937 Clouds 7 1019 78 10000 7.14 48 14:46 19.04.2022
1938 Clouds 7 1019 72 10000 6.4 50 13:22 19.04.2022
1939 Clouds 7 1019 72 10000 6.4 50 12:49 19.04.2022
1940 Clouds 7 1019 68 10000 6.34 56 11:38 19.04.2022
1941 Clear 11 1018 66 10000 6.14 64 09:52 19.04.2022
1942 Clear 9 1018 69 10000 5.78 63 08:43 19.04.2022
1943 Clouds 5 1018 68 10000 3.92 66 04:26 19.04.2022
1944 Clouds 6 1017 67 10000 3.43 65 03:19 19.04.2022
1945 Clouds 7 1019 68 10000 3.27 73 00:24 19.04.2022
1946 Clouds 7 1019 68 10000 3.19 81 22:58 18.04.2022
1947 Clouds 7 1020 67 10000 4.03 78 21:29 18.04.2022
1948 Clouds 7 1020 67 10000 4.03 78 20:46 18.04.2022
1949 Clouds 7 1020 66 10000 4.25 72 20:25 18.04.2022
1950 Clouds 7 1020 66 10000 4.31 76 19:42 18.04.2022
1951 Clouds 7 1020 65 10000 4.87 70 18:53 18.04.2022
1952 Clouds 7 1021 62 10000 5.12 66 17:53 18.04.2022
1953 Clouds 7 1021 62 10000 5.12 66 17:33 18.04.2022
1954 Clouds 7 1021 62 10000 4.82 67 16:44 18.04.2022
1955 Clouds 8 1021 63 10000 4.67 67 16:21 18.04.2022
1956 Clouds 8 1022 63 10000 4.37 77 14:43 18.04.2022
1957 Clouds 8 1022 65 10000 4.22 84 13:35 18.04.2022
1958 Clouds 8 1022 65 10000 4.22 84 13:35 18.04.2022
1959 Clouds 8 1023 67 10000 4.33 99 12:29 18.04.2022
1960 Clouds 8 1023 69 10000 4.6 101 11:27 18.04.2022
1961 Clouds 8 1023 69 10000 4.6 101 10:31 18.04.2022
1962 Clouds 11 1023 71 10000 4.22 103 09:30 18.04.2022
1963 Clear 6 1023 78 10000 2.76 95 07:42 18.04.2022
1964 Clear 5 1023 79 10000 2.23 37 05:35 18.04.2022
1965 Clear 6 1026 69 10000 2.49 358 00:27 18.04.2022
1966 Clear 8 1027 67 10000 2.52 348 22:40 17.04.2022
1967 Clear 8 1027 66 10000 2.43 335 21:42 17.04.2022
1968 Clear 8 1027 65 10000 2.48 320 21:22 17.04.2022
1969 Clear 8 1027 65 10000 2.48 320 20:33 17.04.2022
1970 Clouds 8 1027 68 10000 1.82 337 19:28 17.04.2022
1971 Clouds 8 1028 69 10000 1.77 325 17:45 17.04.2022
1972 Clouds 8 1029 71 10000 2.88 350 15:39 17.04.2022
1973 Clouds 7 1030 73 10000 2.83 338 14:54 17.04.2022
1974 Clouds 7 1030 74 10000 3.13 349 13:48 17.04.2022
1975 Clouds 7 1031 76 10000 3.14 356 12:58 17.04.2022
1976 Clouds 7 1031 77 10000 3.88 355 12:27 17.04.2022
1977 Clouds 7 1031 77 10000 4.11 346 10:46 17.04.2022
1978 Clouds 7 1031 77 10000 3.66 346 10:28 17.04.2022
1979 Clouds 11 1031 77 10000 3.66 346 09:34 17.04.2022
1980 Clouds 8 1032 78 10000 4.17 346 08:51 17.04.2022
1981 Clouds 4 1032 75 10000 3.63 343 07:30 17.04.2022
1982 Clouds 3 1033 71 10000 3.61 332 04:30 17.04.2022
1983 Clouds 4 1034 73 10000 4.05 298 01:26 17.04.2022
1984 Clouds 6 1035 70 10000 3.92 298 23:52 16.04.2022
1985 Clouds 7 1035 67 10000 4.23 295 22:35 16.04.2022
1986 Clouds 7 1035 65 10000 3.87 287 21:39 16.04.2022
1987 Clouds 7 1035 65 10000 2.86 271 20:32 16.04.2022
1988 Clouds 7 1035 68 10000 2.11 287 18:59 16.04.2022
1989 Clouds 7 1035 67 10000 1.72 320 17:52 16.04.2022
1990 Clouds 7 1035 69 10000 1.93 339 16:40 16.04.2022
1991 Clouds 7 1036 70 10000 2.06 339 15:45 16.04.2022
1992 Clouds 7 1036 70 10000 2.06 339 15:45 16.04.2022
1993 Clouds 7 1036 72 10000 2.11 358 14:57 16.04.2022
1994 Clouds 6 1037 69 10000 2.88 8 13:58 16.04.2022
1995 Clouds 6 1037 69 10000 2.88 8 13:37 16.04.2022
1996 Clouds 6 1037 68 10000 3.33 29 12:27 16.04.2022
1997 Clouds 6 1037 68 10000 3.71 35 11:18 16.04.2022
1998 Clear 10 1036 69 10000 4.37 40 09:56 16.04.2022
1999 Clear 8 1036 69 10000 5.13 42 08:59 16.04.2022
2000 Clouds 7 1036 69 10000 6.2 41 08:18 16.04.2022
2001 Clouds 5 1035 67 10000 6.56 47 06:59 16.04.2022
2002 Clear 5 1034 70 10000 7.13 41 03:36 16.04.2022
2003 Clear 5 1034 70 10000 7.17 46 00:31 16.04.2022
2004 Clear 5 1033 69 10000 7.21 59 23:27 15.04.2022
2005 Clear 5 1033 69 10000 7.21 59 22:37 15.04.2022
2006 Clear 6 1032 70 10000 6.81 56 21:58 15.04.2022
2007 Clear 6 1032 71 10000 6.33 63 21:18 15.04.2022
2008 Clouds 6 1031 71 10000 7.01 59 20:27 15.04.2022
2009 Clouds 7 1031 71 10000 7.01 59 19:40 15.04.2022
2010 Clouds 7 1030 72 10000 7.36 55 18:54 15.04.2022
2011 Clouds 7 1030 75 10000 8 60 18:25 15.04.2022
2012 Clouds 7 1030 75 10000 8 60 17:49 15.04.2022
2013 Clouds 7 1029 78 10000 9.09 58 17:22 15.04.2022
2014 Clouds 7 1028 80 10000 10 54 16:24 15.04.2022
2015 Clouds 7 1028 80 10000 10 54 15:37 15.04.2022
2016 Clouds 7 1027 85 10000 10.6 47 13:55 15.04.2022
2017 Clouds 8 1026 89 10000 10.21 48 12:46 15.04.2022
2018 Clouds 8 1025 91 10000 10.51 48 11:59 15.04.2022
2019 Clouds 7 1025 91 10000 10.51 48 11:40 15.04.2022
2020 Clouds 7 1024 91 10000 10.42 47 10:45 15.04.2022
2021 Rain 8 1023 91 10000 10.51 50 09:57 15.04.2022
2022 Clouds 8 1022 94 10000 10.91 51 09:22 15.04.2022
2023 Rain 10 1021 96 10000 8.31 28 08:24 15.04.2022
2024 Clouds 10 1019 97 10000 6.48 337 06:47 15.04.2022
2025 Clouds 10 1019 97 10000 6.48 337 06:47 15.04.2022
2026 Clouds 10 1019 94 10000 5.07 299 04:28 15.04.2022
2027 Clouds 7 1018 92 10000 5.27 279 00:32 15.04.2022
2028 Clouds 7 1019 90 10000 5.55 280 23:20 14.04.2022
2029 Clouds 7 1019 90 10000 5.55 280 22:44 14.04.2022
2030 Clouds 11 1018 89 10000 5.31 271 22:25 14.04.2022
2031 Clouds 8 1018 90 10000 5.51 265 21:39 14.04.2022
2032 Clouds 9 1017 90 10000 5.02 269 19:24 14.04.2022
2033 Clouds 9 1017 90 10000 5.02 269 18:53 14.04.2022
2034 Clouds 9 1017 91 10000 4.46 261 17:45 14.04.2022
2035 Clouds 9 1017 93 10000 4.27 254 16:51 14.04.2022
2036 Clouds 9 1017 94 10000 4.51 253 15:51 14.04.2022
2037 Clouds 15 1018 93 10000 5.86 261 13:53 14.04.2022
2038 Clouds 15 1018 92 10000 5.74 253 13:21 14.04.2022
2039 Clouds 14 1018 92 10000 5.74 253 12:32 14.04.2022
2040 Clouds 15 1018 93 10000 5.19 259 11:43 14.04.2022
2041 Clouds 15 1017 93 10000 4.74 257 11:18 14.04.2022
2042 Clouds 15 1017 93 10000 4.74 257 10:31 14.04.2022
2043 Clouds 13 1017 94 10000 4.2 249 09:30 14.04.2022
2044 Clouds 12 1017 96 10000 3.69 263 08:24 14.04.2022
2045 Rain 12 1017 99 10000 2.66 234 05:57 14.04.2022
2046 Clouds 8 1017 94 10000 5.73 291 00:59 14.04.2022
2047 Clouds 10 1017 85 10000 3.28 243 22:38 13.04.2022
2048 Clouds 10 1017 82 10000 3.09 216 21:43 13.04.2022
2049 Clouds 11 1017 81 10000 2.99 203 20:45 13.04.2022
2050 Clouds 11 1017 80 10000 3.29 184 19:54 13.04.2022
2051 Clouds 11 1016 78 10000 3.7 177 18:39 13.04.2022
2052 Clouds 11 1016 75 10000 4.26 171 17:41 13.04.2022
2053 Clouds 11 1017 74 10000 4.81 166 17:23 13.04.2022
2054 Clouds 11 1017 73 10000 5.2 161 16:18 13.04.2022
2055 Clouds 11 1017 73 10000 5.2 161 15:31 13.04.2022
2056 Clouds 11 1017 72 10000 5.41 155 14:43 13.04.2022
2057 Clouds 10 1017 71 10000 6.01 149 13:55 13.04.2022
2058 Clouds 10 1018 68 10000 6.93 147 12:58 13.04.2022
2059 Clouds 9 1018 67 10000 7.92 142 12:19 13.04.2022
2060 Clouds 13 1018 68 10000 8.6 140 10:41 13.04.2022
2061 Clouds 9 1018 71 10000 8.98 134 08:49 13.04.2022
2062 Clouds 8 1018 73 10000 8.32 137 08:28 13.04.2022
2063 Clouds 7 1018 76 10000 8 135 06:50 13.04.2022
2064 Clouds 7 1017 77 10000 7.73 131 06:25 13.04.2022
2065 Clouds 7 1018 79 10000 7.03 132 02:37 13.04.2022
2066 Clouds 7 1020 81 10000 7.97 114 00:20 13.04.2022
2067 Clouds 7 1020 79 10000 8.48 109 22:45 12.04.2022
2068 Clouds 7 1020 78 10000 8.25 106 21:56 12.04.2022
2069 Clouds 8 1020 77 10000 8.25 104 20:49 12.04.2022
2070 Clouds 8 1020 77 10000 8.25 104 20:49 12.04.2022
2071 Clouds 8 1019 76 10000 7.86 100 20:27 12.04.2022
2072 Clouds 6 1020 77 10000 7.93 101 19:41 12.04.2022
2073 Clouds 11 1020 74 10000 7.48 99 19:19 12.04.2022
2074 Clouds 13 1020 71 10000 6.86 99 17:50 12.04.2022
2075 Clouds 14 1020 69 10000 6.81 102 16:50 12.04.2022
2076 Clouds 14 1020 67 10000 6.32 103 15:52 12.04.2022
2077 Clouds 7 1020 65 10000 6.26 107 15:25 12.04.2022
2078 Clouds 7 1020 65 10000 6.2 110 13:54 12.04.2022
2079 Clouds 7 1021 64 10000 5.62 118 13:27 12.04.2022
2080 Clouds 7 1021 64 10000 5.62 118 12:31 12.04.2022
2081 Clouds 12 1021 65 10000 5.17 117 11:40 12.04.2022
2082 Clouds 6 1021 68 10000 4.52 129 10:29 12.04.2022
2083 Clouds 6 1021 69 10000 3.95 136 08:54 12.04.2022
2084 Clouds 6 1021 69 10000 3.95 136 08:54 12.04.2022
2085 Clouds 6 1021 69 10000 3.95 136 08:54 12.04.2022
2086 Clouds 2 1020 71 10000 3.5 129 07:47 12.04.2022
2087 Clouds 1 1020 68 10000 2.35 146 05:49 12.04.2022
2088 Clouds 2 1020 68 10000 0.94 199 03:28 12.04.2022
2089 Clouds 5 1020 71 10000 3.34 265 23:36 11.04.2022
2090 Clouds 5 1019 71 10000 3.25 264 22:44 11.04.2022
2091 Clouds 6 1019 72 10000 3.86 261 21:37 11.04.2022
2092 Clouds 5 1019 73 10000 4.37 257 20:54 11.04.2022
2093 Clouds 5 1018 74 10000 5.42 256 20:28 11.04.2022
2094 Clouds 5 1018 74 10000 5.26 255 19:37 11.04.2022
2095 Clouds 6 1018 75 10000 5.36 256 19:18 11.04.2022
2096 Clouds 6 1018 75 10000 5.36 256 18:40 11.04.2022
2097 Clouds 6 1018 74 10000 5.85 258 17:56 11.04.2022
2098 Clouds 5 1018 74 10000 6.5 261 16:54 11.04.2022
2099 Clouds 5 1018 74 10000 7.12 263 15:45 11.04.2022
2100 Clouds 5 1018 71 10000 8.22 267 13:53 11.04.2022
2101 Clouds 5 1018 70 10000 8.13 270 12:47 11.04.2022
2102 Clouds 5 1018 68 10000 8.05 275 12:29 11.04.2022
2103 Clouds 5 1018 68 10000 8.05 275 11:30 11.04.2022
2104 Clouds 5 1018 72 10000 8.49 282 10:21 11.04.2022
2105 Clouds 7 1017 74 10000 8.22 286 08:50 11.04.2022
2106 Clouds 5 1016 75 10000 8.73 289 06:21 11.04.2022
2107 Clouds 6 1016 77 10000 10.64 291 01:23 11.04.2022
2108 Clouds 7 1015 73 10000 10.41 290 22:34 10.04.2022
2109 Clouds 7 1015 71 10000 10.53 291 21:55 10.04.2022
2110 Clouds 7 1014 70 10000 10.56 293 21:26 10.04.2022
2111 Clouds 7 1014 70 10000 10.56 293 20:30 10.04.2022
2112 Clouds 6 1014 66 10000 11.11 297 19:41 10.04.2022
2113 Clouds 8 1013 63 10000 10.7 299 19:18 10.04.2022
2114 Clouds 6 1013 63 10000 10.7 299 18:38 10.04.2022
2115 Clouds 6 1012 65 10000 10.84 293 17:52 10.04.2022
2116 Clouds 6 1012 65 10000 10.84 293 17:32 10.04.2022
2117 Clouds 6 1012 64 10000 9.8 281 15:56 10.04.2022
2118 Clouds 6 1011 65 10000 9.98 286 14:51 10.04.2022
2119 Clouds 6 1011 67 10000 10.77 282 13:54 10.04.2022
2120 Clouds 5 1011 70 10000 11.27 278 12:33 10.04.2022
2121 Clouds 5 1010 71 10000 11.73 277 11:46 10.04.2022
2122 Clouds 5 1010 74 10000 11.72 278 11:28 10.04.2022
2123 Clouds 8 1010 74 10000 11.72 278 10:43 10.04.2022
2124 Clouds 7 1009 76 10000 11.7 279 09:50 10.04.2022
2125 Clouds 7 1009 77 10000 11.78 279 08:56 10.04.2022
2126 Clouds 6 1008 79 10000 11.77 279 08:21 10.04.2022
2127 Clear 6 1007 80 10000 12.83 275 06:59 10.04.2022
2128 Clear 6 1006 81 10000 12.62 274 04:42 10.04.2022
2129 Clear 6 1005 83 10000 13.43 274 02:20 10.04.2022
2130 Clear 6 1004 82 10000 13.59 275 23:54 09.04.2022
2131 Clear 6 1004 81 10000 13.49 275 23:29 09.04.2022
2132 Clear 6 1004 81 10000 13.49 275 22:39 09.04.2022
2133 Clouds 6 1003 80 10000 13.71 274 21:32 09.04.2022
2134 Clear 6 1003 79 10000 14.01 272 20:39 09.04.2022
2135 Clouds 6 1002 72 10000 13.86 274 20:19 09.04.2022
2136 Clouds 7 1002 72 10000 13.86 274 19:41 09.04.2022
2137 Clouds 7 1001 70 10000 14.34 275 18:54 09.04.2022
2138 Clouds 8 1001 69 10000 14.07 274 18:18 09.04.2022
2139 Clouds 9 1001 69 10000 14.07 274 17:32 09.04.2022
2140 Clouds 6 1000 69 10000 13.51 275 16:43 09.04.2022
2141 Clouds 6 1000 68 10000 12.85 274 15:53 09.04.2022
2142 Clouds 6 999 72 10000 12.17 265 15:28 09.04.2022
2143 Clouds 6 999 74 10000 12.32 265 14:27 09.04.2022
2144 Clouds 6 999 74 10000 12.32 265 14:27 09.04.2022
2145 Clear 6 999 74 10000 12.87 266 13:47 09.04.2022
2146 Clear 5 999 74 10000 13.47 267 12:59 09.04.2022
2147 Clear 5 998 73 10000 13.55 267 11:56 09.04.2022
2148 Clear 8 997 72 10000 13.14 271 11:21 09.04.2022
2149 Clear 8 997 72 10000 12.55 274 10:20 09.04.2022
2150 Clear 7 997 72 10000 12.55 274 09:37 09.04.2022
2151 Clear 6 996 75 10000 12.85 279 08:50 09.04.2022
2152 Clear 5 993 78 10000 12.91 278 05:58 09.04.2022
2153 Clouds 6 991 80 10000 10.48 259 00:38 09.04.2022
2154 Clouds 6 991 79 10000 9.61 257 23:25 08.04.2022
2155 Clouds 6 991 78 10000 9.69 258 21:58 08.04.2022
2156 Clouds 5 991 76 10000 9.72 261 20:47 08.04.2022
2157 Clouds 5 991 75 10000 10.53 263 19:58 08.04.2022
2158 Clouds 8 990 75 10000 11.43 267 19:18 08.04.2022
2159 Clouds 8 990 76 10000 12.36 268 18:28 08.04.2022
2160 Clouds 9 990 76 10000 12.36 268 17:45 08.04.2022
2161 Rain 10 990 76 10000 13.32 269 17:22 08.04.2022
2162 Clouds 10 990 76 10000 13.32 269 16:47 08.04.2022
2163 Clouds 11 990 75 10000 14.22 274 15:56 08.04.2022
2164 Clouds 11 989 69 10000 15.21 262 15:25 08.04.2022
2165 Clouds 6 989 69 10000 14.88 256 14:26 08.04.2022
2166 Clouds 11 989 69 10000 14.88 256 13:45 08.04.2022
2167 Clouds 6 990 70 10000 15.05 258 13:27 08.04.2022
2168 Clouds 9 990 72 10000 15.24 259 11:54 08.04.2022
2169 Clouds 8 990 73 10000 15.21 262 10:33 08.04.2022
2170 Clouds 7 989 72 10000 15.25 269 09:38 08.04.2022
2171 Clouds 7 987 72 10000 15.3 275 08:44 08.04.2022
2172 Clouds 6 986 74 10000 16.33 279 06:55 08.04.2022
2173 Clouds 6 983 79 10000 15.78 284 05:18 08.04.2022
2174 Clouds 6 976 86 10000 16.85 259 01:27 08.04.2022
2175 Clouds 7 975 89 10000 15.32 251 00:25 08.04.2022
2176 Clouds 7 975 89 10000 15.32 251 00:25 08.04.2022
2177 Clouds 7 975 84 10000 15.37 247 22:59 07.04.2022
2178 Rain 7 975 84 10000 15.37 247 22:39 07.04.2022
2179 Rain 7 975 81 10000 15.69 235 22:21 07.04.2022
2180 Rain 8 975 81 10000 15.69 235 21:53 07.04.2022
2181 Clouds 8 975 79 10000 13.1 227 21:19 07.04.2022
2182 Clouds 8 975 79 10000 13.1 227 20:37 07.04.2022
2183 Clouds 10 975 81 10000 11.85 232 18:35 07.04.2022
2184 Clouds 10 976 87 10000 10.18 241 17:27 07.04.2022
2185 Clouds 10 976 87 10000 10.18 241 16:44 07.04.2022
2186 Clouds 8 976 94 10000 8.72 292 16:23 07.04.2022
2187 Rain 7 975 89 6356 14.65 210 14:50 07.04.2022
2188 Rain 11 977 86 10000 14.47 196 13:43 07.04.2022
2189 Rain 11 979 85 7795 13.52 200 12:58 07.04.2022
2190 Clouds 9 980 82 10000 13.22 199 11:40 07.04.2022
2191 Clouds 11 983 84 10000 12.26 208 09:42 07.04.2022
2192 Clouds 11 983 82 10000 11.98 212 08:38 07.04.2022
2193 Clouds 10 985 89 10000 10.62 212 06:57 07.04.2022
2194 Clouds 10 987 88 10000 10.62 227 03:59 07.04.2022
2195 Clouds 10 988 85 10000 14.54 226 02:28 07.04.2022
2196 Clouds 10 988 88 10000 14.16 220 00:42 07.04.2022
2197 Rain 10 990 89 10000 11.64 223 22:58 06.04.2022
2198 Rain 10 990 89 10000 11.64 223 22:39 06.04.2022
2199 Rain 10 991 92 10000 9.86 228 21:47 06.04.2022
2200 Rain 10 991 88 10000 10.66 231 20:41 06.04.2022
2201 Clouds 11 991 90 10000 10.32 220 19:59 06.04.2022
2202 Rain 11 992 88 10000 10.95 225 18:53 06.04.2022
2203 Clouds 11 992 88 10000 10.95 225 18:34 06.04.2022
2204 Clouds 11 992 88 10000 11.65 231 17:35 06.04.2022
2205 Clouds 10 993 90 10000 11.49 233 16:39 06.04.2022
2206 Clouds 10 993 90 10000 12.3 236 15:57 06.04.2022
2207 Clouds 11 993 90 10000 12.3 236 15:39 06.04.2022
2208 Clouds 11 994 90 10000 12.84 239 13:31 06.04.2022
2209 Clouds 11 994 89 10000 13.44 238 12:28 06.04.2022
2210 Clouds 10 994 90 10000 13.34 239 10:57 06.04.2022
2211 Clouds 10 994 90 10000 13.34 239 10:33 06.04.2022
2212 Clouds 9 994 92 10000 8.78 228 09:46 06.04.2022
2213 Clouds 6 995 97 7694 7.2 154 08:51 06.04.2022
2214 Clouds 5 996 97 528 6.09 167 07:58 06.04.2022
2215 Rain 4 998 91 10000 4.85 235 05:23 06.04.2022
2216 Clouds 5 999 77 10000 7.06 276 00:20 06.04.2022
2217 Clouds 5 999 77 10000 7.06 276 23:47 05.04.2022
2218 Clouds 6 999 74 10000 7.74 278 21:48 05.04.2022
2219 Clouds 7 999 76 10000 8.88 272 20:59 05.04.2022
2220 Clouds 7 999 76 10000 9.3 265 20:23 05.04.2022
2221 Clouds 8 999 71 10000 8.21 275 18:31 05.04.2022
2222 Clouds 9 999 68 10000 7.23 268 17:22 05.04.2022
2223 Clouds 6 999 68 10000 7.23 268 16:43 05.04.2022
2224 Clouds 9 999 67 10000 7.3 277 15:51 05.04.2022
2225 Clouds 5 999 67 10000 7.3 277 15:31 05.04.2022
2226 Clouds 5 999 65 10000 9.16 287 13:55 05.04.2022
2227 Clouds 5 999 66 10000 9.97 291 12:39 05.04.2022
2228 Clouds 4 999 66 10000 10.48 290 11:43 05.04.2022
2229 Clouds 4 998 63 10000 11.48 296 11:25 05.04.2022
2230 Clouds 4 998 63 10000 11.48 296 11:25 05.04.2022
2231 Clouds 7 998 67 10000 12.67 297 09:40 05.04.2022
2232 Clouds 6 997 68 10000 12.65 298 08:51 05.04.2022
2233 Clouds 5 993 73 10000 15.56 287 04:25 05.04.2022
2234 Clouds 6 991 75 10000 16.35 285 23:48 04.04.2022
2235 Clouds 6 990 76 10000 16.3 282 22:41 04.04.2022
2236 Clouds 7 989 77 10000 16.15 281 21:52 04.04.2022
2237 Clouds 7 988 79 10000 16.78 281 21:21 04.04.2022
2238 Clouds 8 988 79 10000 16.78 281 20:48 04.04.2022
2239 Clouds 7 987 84 10000 16.7 271 19:39 04.04.2022
2240 Clouds 7 987 90 10000 16.13 266 18:59 04.04.2022
2241 Clouds 6 987 92 10000 18.74 241 17:39 04.04.2022
2242 Rain 5 988 95 1643 19.18 234 16:36 04.04.2022
2243 Rain 4 989 96 98 19.67 229 15:34 04.04.2022
2244 Rain 4 991 96 68 19.26 224 14:58 04.04.2022
2245 Clouds 4 991 96 68 19.26 224 14:40 04.04.2022
2246 Rain 3 995 96 290 17.9 219 13:21 04.04.2022
2247 Clouds 5 997 92 10000 17.21 217 11:48 04.04.2022
2248 Rain 5 999 88 10000 15.54 218 11:27 04.04.2022
2249 Clouds 5 1004 86 10000 13.14 230 08:29 04.04.2022
2250 Clouds 5 1008 88 10000 12.75 254 03:52 04.04.2022
2251 Clouds 6 1011 88 10000 11.61 269 00:26 04.04.2022
2252 Clouds 6 1011 85 10000 11.11 274 22:33 03.04.2022
2253 Clouds 7 1011 79 10000 10.03 276 21:44 03.04.2022
2254 Clouds 7 1011 77 10000 9.8 279 20:53 03.04.2022
2255 Clouds 7 1011 81 10000 8.49 275 19:45 03.04.2022
2256 Clouds 8 1012 89 10000 9.24 278 18:32 03.04.2022
2257 Clouds 8 1012 84 10000 9.15 271 17:47 03.04.2022
2258 Rain 5 1013 82 10000 9.67 271 16:57 03.04.2022
2259 Rain 5 1013 82 10000 9.67 271 16:39 03.04.2022
2260 Clouds 5 1014 70 10000 6.94 269 14:39 03.04.2022
2261 Clouds 4 1015 75 10000 6.73 256 13:51 03.04.2022
2262 Clouds 3 1015 78 10000 7.4 255 12:42 03.04.2022
2263 Clouds 3 1016 64 10000 6.73 253 10:58 03.04.2022
2264 Clouds 5 1016 62 10000 6.1 255 09:38 03.04.2022
2265 Clouds 1 1017 58 10000 4.82 266 08:36 03.04.2022
2266 Clouds -2 1017 57 10000 5.1 308 05:38 03.04.2022
2267 Clouds 0 1018 57 10000 5.19 328 01:54 03.04.2022
2268 Clouds 1 1018 57 10000 6.6 342 23:21 02.04.2022
2269 Clouds 1 1018 57 10000 6.9 347 22:18 02.04.2022
2270 Snow 1 1018 57 10000 6.9 347 21:47 02.04.2022
2271 Clouds 1 1018 54 10000 5.95 350 21:18 02.04.2022
2272 Clouds 2 1018 50 10000 3.63 342 20:29 02.04.2022
2273 Clouds 5 1018 51 10000 3.79 357 18:23 02.04.2022
2274 Clouds 5 1018 51 10000 3.79 357 17:53 02.04.2022
2275 Clouds 5 1018 52 10000 4.79 19 16:30 02.04.2022
2276 Clouds 6 1018 55 10000 7.7 38 15:23 02.04.2022
2277 Clouds 6 1018 55 10000 7.7 38 14:51 02.04.2022
2278 Clouds 6 1018 57 10000 8.61 36 13:56 02.04.2022
2279 Clouds 5 1018 58 10000 9.16 37 13:19 02.04.2022
2280 Clouds 5 1018 58 10000 9.53 39 11:39 02.04.2022
2281 Clouds 3 1017 61 10000 10.28 41 09:48 02.04.2022
2282 Clouds 2 1016 64 10000 10.73 39 06:58 02.04.2022
2283 Clouds 2 1015 64 10000 10.89 45 03:55 02.04.2022
2284 Clouds 3 1015 63 10000 10.3 56 00:27 02.04.2022
2285 Clouds 3 1015 63 10000 10.3 56 23:53 01.04.2022
2286 Clouds 2 1015 62 10000 11.05 64 22:24 01.04.2022
2287 Clouds 3 1014 62 10000 11.17 65 20:54 01.04.2022
2288 Clouds 3 1014 62 10000 11.17 65 20:32 01.04.2022
2289 Clouds 3 1014 60 10000 10.54 65 19:39 01.04.2022
2290 Clouds 4 1013 59 10000 10.72 62 18:54 01.04.2022
2291 Clouds 5 1013 60 10000 11.02 59 18:23 01.04.2022
2292 Clouds 5 1013 60 10000 11.02 59 17:36 01.04.2022
2293 Clouds 5 1013 60 10000 11.53 56 15:44 01.04.2022
2294 Clouds 5 1013 59 10000 11.44 58 14:47 01.04.2022
2295 Clouds 6 1013 58 10000 11.08 58 13:38 01.04.2022
2296 Clouds 5 1013 58 10000 11.01 59 12:33 01.04.2022
2297 Clouds 5 1013 59 10000 11.16 61 11:45 01.04.2022
2298 Clouds 5 1013 60 10000 11.34 63 10:41 01.04.2022
2299 Clouds 5 1012 61 10000 11.65 64 09:35 01.04.2022
2300 Clouds 3 1011 60 10000 11.34 66 07:24 01.04.2022
2301 Clouds 3 1011 58 10000 10.82 71 04:57 01.04.2022
2302 Clouds 3 1011 58 10000 10.82 71 04:39 01.04.2022
2303 Clouds 3 1010 56 10000 11.05 75 02:32 01.04.2022
2304 Clouds 3 1011 56 10000 10.72 76 01:31 01.04.2022
2305 Clouds 3 1011 55 10000 10.86 78 22:24 31.03.2022
2306 Clouds 3 1011 55 10000 10.86 78 21:38 31.03.2022
2307 Clouds 3 1010 54 10000 11.05 76 20:50 31.03.2022
2308 Clouds 3 1010 54 10000 11.3 74 20:28 31.03.2022
2309 Clouds 4 1010 51 10000 11.26 76 19:21 31.03.2022
2310 Clouds 4 1010 51 10000 11.26 76 18:31 31.03.2022
2311 Clouds 5 1009 51 10000 11.03 74 16:47 31.03.2022
2312 Clouds 6 1009 51 10000 10.99 76 15:54 31.03.2022
2313 Clouds 7 1010 51 10000 10.83 79 15:24 31.03.2022
2314 Clouds 7 1010 51 10000 10.83 79 14:44 31.03.2022
2315 Clouds 6 1010 51 10000 10.4 83 13:28 31.03.2022
2316 Clouds 5 1010 51 10000 10.47 87 11:30 31.03.2022
2317 Clouds 5 1009 52 10000 10.32 89 10:26 31.03.2022
2318 Clouds 4 1009 52 10000 10.32 89 09:39 31.03.2022
2319 Clouds 1 1009 52 10000 9.86 93 07:48 31.03.2022
2320 Clouds 2 1008 53 10000 9.01 96 02:33 31.03.2022
2321 Clouds 3 1009 64 10000 10.8 93 23:24 30.03.2022
2322 Clouds 3 1009 67 10000 11.16 89 21:55 30.03.2022
2323 Clouds 3 1009 67 10000 11.16 89 21:30 30.03.2022
2324 Clouds 3 1008 69 10000 11.08 87 20:37 30.03.2022
2325 Clouds 4 1008 68 10000 10.56 88 19:47 30.03.2022
2326 Clouds 5 1008 66 10000 10.1 89 18:41 30.03.2022
2327 Clouds 6 1008 65 10000 9.8 93 17:51 30.03.2022
2328 Clouds 6 1008 64 10000 9.21 96 17:20 30.03.2022
2329 Clouds 6 1008 64 10000 9.21 96 16:40 30.03.2022
2330 Clouds 6 1007 63 10000 8.65 97 15:55 30.03.2022
2331 Clouds 7 1008 63 10000 8.23 99 14:36 30.03.2022
2332 Clouds 7 1008 67 10000 7.29 94 13:22 30.03.2022
2333 Clouds 3 1008 65 10000 6.65 92 12:22 30.03.2022
2334 Clouds 7 1008 65 10000 6.18 88 10:48 30.03.2022
2335 Clouds 5 1008 67 10000 6.02 88 09:55 30.03.2022
2336 Clouds 3 1007 74 10000 5.42 75 08:21 30.03.2022
2337 Clouds 2 1007 78 10000 4.07 48 07:28 30.03.2022
2338 Clouds 2 1006 75 10000 3.7 32 05:40 30.03.2022
2339 Clouds 4 1006 64 10000 5.48 349 02:32 30.03.2022
2340 Clouds 7 1006 73 10000 6.32 335 22:42 29.03.2022
2341 Clouds 7 1006 69 10000 7.15 304 21:52 29.03.2022
2342 Clouds 7 1006 69 10000 7.15 304 21:34 29.03.2022
2343 Clouds 8 1006 71 10000 6.23 270 20:26 29.03.2022
2344 Clouds 6 1006 71 10000 6.23 270 19:32 29.03.2022
2345 Clouds 6 1006 71 10000 5.91 274 18:53 29.03.2022
2346 Clouds 6 1007 71 10000 6.42 283 17:52 29.03.2022
2347 Clouds 6 1007 72 10000 6.66 284 17:18 29.03.2022
2348 Clouds 6 1007 72 10000 6.66 284 16:53 29.03.2022
2349 Clouds 5 1008 74 10000 6.76 284 15:41 29.03.2022
2350 Clouds 5 1008 76 10000 6.81 278 14:43 29.03.2022
2351 Clouds 5 1008 76 10000 6.81 278 14:43 29.03.2022
2352 Clouds 5 1009 73 10000 7.17 278 13:35 29.03.2022
2353 Clouds 5 1009 76 10000 6.15 277 12:22 29.03.2022
2354 Clouds 5 1010 78 10000 5.84 283 11:18 29.03.2022
2355 Clouds 4 1010 80 10000 5.71 288 10:20 29.03.2022
2356 Clouds 7 1010 82 10000 5.95 296 08:52 29.03.2022
2357 Clouds 4 1010 82 10000 7.42 302 06:53 29.03.2022
2358 Clouds 7 1011 82 10000 8.68 300 02:52 29.03.2022
2359 Clouds 7 1013 88 10000 8.74 291 23:37 28.03.2022
2360 Clear 7 1013 88 10000 9.22 283 22:57 28.03.2022
2361 Clear 7 1013 88 10000 9.22 283 22:33 28.03.2022
2362 Clear 8 1013 86 10000 9.62 275 21:47 28.03.2022
2363 Clear 8 1014 85 10000 9.91 268 20:37 28.03.2022
2364 Clouds 8 1014 83 10000 9.76 268 19:57 28.03.2022
2365 Clouds 8 1014 83 10000 9.76 268 19:38 28.03.2022
2366 Clouds 10 1014 85 10000 9.77 262 18:51 28.03.2022
2367 Clouds 10 1014 85 10000 9.9 261 17:41 28.03.2022
2368 Clouds 11 1015 87 10000 10.08 264 16:56 28.03.2022
2369 Clouds 10 1016 86 10000 9.93 272 15:35 28.03.2022
2370 Clouds 10 1018 86 10000 9.92 278 14:24 28.03.2022
2371 Clouds 10 1019 88 10000 10.86 278 13:19 28.03.2022
2372 Clouds 10 1019 92 10000 9.78 279 11:52 28.03.2022
2373 Clouds 8 1020 93 10000 9.67 275 10:35 28.03.2022
2374 Clouds 7 1021 92 10000 8.88 274 09:21 28.03.2022
2375 Clouds 7 1021 92 10000 8.88 274 08:40 28.03.2022
2376 Clouds 7 1021 92 10000 8.87 274 08:20 28.03.2022
2377 Clouds 7 1021 90 10000 8.93 279 07:23 28.03.2022
2378 Clouds 8 1023 90 10000 7.98 278 02:44 28.03.2022
2379 Clouds 10 1025 87 10000 8.02 273 22:38 27.03.2022
2380 Clouds 7 1025 87 10000 7.75 270 21:48 27.03.2022
2381 Clear 7 1026 88 10000 7.6 267 21:28 27.03.2022
2382 Clear 7 1026 88 10000 7.6 267 20:41 27.03.2022
2383 Clear 7 1025 85 10000 7.76 261 19:43 27.03.2022
2384 Clear 7 1026 83 10000 7.52 255 18:47 27.03.2022
2385 Clear 7 1026 78 10000 7.45 253 18:24 27.03.2022
2386 Clear 7 1026 78 10000 7.45 253 17:37 27.03.2022
2387 Clouds 7 1028 83 10000 7.48 259 15:55 27.03.2022
2388 Clear 7 1029 76 10000 5.94 263 13:59 27.03.2022
2389 Clear 7 1029 76 10000 5.94 263 13:33 27.03.2022
2390 Clear 7 1030 73 10000 4.87 256 11:41 27.03.2022
2391 Clouds 9 1031 71 10000 2.99 243 09:49 27.03.2022
2392 Clouds 3 1031 76 10000 2.45 249 07:47 27.03.2022
2393 Clouds 3 1030 73 10000 1.31 243 05:18 27.03.2022
2394 Clouds 6 1031 74 10000 2.04 142 00:30 27.03.2022
2395 Clouds 8 1031 75 10000 3.35 86 22:53 26.03.2022
2396 Clouds 8 1031 76 10000 3.39 49 22:27 26.03.2022
2397 Clouds 8 1031 76 10000 3.39 49 21:31 26.03.2022
2398 Clear 10 1030 79 10000 3.68 326 19:45 26.03.2022
2399 Clouds 7 1030 86 10000 1.37 289 18:44 26.03.2022
2400 Clouds 7 1029 87 10000 2.09 301 17:44 26.03.2022
2401 Clouds 7 1029 87 10000 2.89 300 16:47 26.03.2022
2402 Clouds 7 1028 87 10000 3.18 300 15:43 26.03.2022
2403 Clouds 7 1028 90 10000 4.33 324 14:21 26.03.2022
2404 Clouds 7 1028 90 10000 4.33 324 13:51 26.03.2022
2405 Clouds 7 1027 92 10000 4.02 321 12:36 26.03.2022
2406 Clouds 11 1027 93 10000 5.44 312 10:56 26.03.2022
2407 Clouds 10 1026 94 10000 7.26 298 09:22 26.03.2022
2408 Clouds 9 1025 92 10000 8.13 293 07:36 26.03.2022
2409 Clouds 9 1024 88 10000 10.32 276 05:52 26.03.2022
2410 Clouds 9 1025 85 10000 10.33 268 03:23 26.03.2022
2411 Clouds 8 1027 83 10000 8.18 284 22:57 25.03.2022
2412 Clear 8 1027 82 10000 7.18 282 20:58 25.03.2022
2413 Clear 8 1027 82 10000 7.18 282 20:37 25.03.2022
2414 Clear 8 1027 81 10000 6.85 267 19:21 25.03.2022
2415 Clear 8 1027 80 10000 6.98 269 18:37 25.03.2022
2416 Clear 8 1027 81 10000 6.7 265 17:34 25.03.2022
2417 Clear 7 1027 83 10000 6.71 260 16:39 25.03.2022
2418 Clear 7 1027 83 10000 6.7 261 15:50 25.03.2022
2419 Clear 8 1028 80 10000 6.04 269 13:40 25.03.2022
2420 Clouds 7 1029 79 10000 5.52 280 11:49 25.03.2022
2421 Clouds 7 1029 80 10000 5.22 291 09:46 25.03.2022
2422 Clouds 11 1028 80 10000 4.65 289 08:59 25.03.2022
2423 Clouds 7 1028 81 10000 4.86 297 07:48 25.03.2022
2424 Clear 7 1028 86 10000 3.99 282 07:21 25.03.2022
2425 Clear 5 1028 86 10000 3.5 280 04:35 25.03.2022
2426 Clear 7 1028 79 10000 3.59 264 23:55 24.03.2022
2427 Clear 8 1029 76 10000 3.37 268 22:24 24.03.2022
2428 Clear 9 1029 76 10000 3.37 268 21:33 24.03.2022
2429 Clear 7 1029 76 10000 3.41 265 19:50 24.03.2022
2430 Clear 7 1028 75 10000 3.37 268 18:49 24.03.2022
2431 Clear 7 1028 75 10000 3.15 271 17:38 24.03.2022
2432 Clear 7 1028 73 10000 3.02 276 16:41 24.03.2022
2433 Clear 7 1029 71 10000 3.02 284 14:59 24.03.2022
2434 Clear 7 1029 71 10000 3.02 284 14:40 24.03.2022
2435 Clear 7 1030 70 10000 3.12 288 13:41 24.03.2022
2436 Clear 7 1030 66 10000 2.97 286 12:39 24.03.2022
2437 Clear 7 1030 65 10000 2.76 283 11:31 24.03.2022
2438 Clear 10 1030 66 10000 2.11 281 09:34 24.03.2022
2439 Clear 6 1030 67 10000 2.04 292 08:39 24.03.2022
2440 Clear 3 1030 68 10000 1.52 283 06:18 24.03.2022
2441 Clear 5 1031 67 10000 1.41 341 01:20 24.03.2022
2442 Clear 7 1032 69 10000 0.99 343 22:26 23.03.2022
2443 Clear 6 1032 69 10000 0.5 14 21:25 23.03.2022
2444 Clear 6 1032 69 10000 0.5 14 20:47 23.03.2022
2445 Clear 6 1032 70 10000 0.93 49 19:40 23.03.2022
2446 Clear 6 1031 71 10000 2.52 39 18:22 23.03.2022
2447 Clear 6 1031 71 10000 2.52 39 17:36 23.03.2022
2448 Clouds 6 1032 71 10000 3.25 39 16:18 23.03.2022
2449 Clouds 6 1032 72 10000 3.42 42 14:49 23.03.2022
2450 Clouds 6 1032 73 10000 3.88 43 13:51 23.03.2022
2451 Clouds 6 1033 75 10000 4.21 54 11:51 23.03.2022
2452 Clouds 10 1033 78 10000 4.07 68 09:21 23.03.2022
2453 Clouds 4 1032 76 10000 3.53 62 06:40 23.03.2022
2454 Clouds 5 1032 72 10000 3.85 55 03:57 23.03.2022
2455 Clear 7 1033 62 10000 0.78 58 00:29 23.03.2022
2456 Clear 8 1034 61 10000 1.13 63 22:26 22.03.2022
2457 Clear 9 1033 60 10000 1.31 54 21:29 22.03.2022
2458 Clear 10 1033 60 10000 1.31 54 20:39 22.03.2022
2459 Clear 7 1033 61 10000 1.57 72 19:31 22.03.2022
2460 Clear 7 1033 60 10000 2 69 18:57 22.03.2022
2461 Clear 8 1033 59 10000 2.21 49 17:47 22.03.2022
2462 Clear 8 1033 57 10000 2.07 32 17:25 22.03.2022
2463 Clear 9 1034 56 10000 1.12 22 15:54 22.03.2022
2464 Clear 8 1034 58 10000 0.14 149 15:22 22.03.2022
2465 Clear 8 1034 58 10000 0.14 149 14:46 22.03.2022
2466 Clear 8 1034 58 10000 1.11 189 14:25 22.03.2022
2467 Clear 8 1035 57 10000 1.95 197 12:55 22.03.2022
2468 Clear 8 1035 58 10000 2.86 189 11:48 22.03.2022
2469 Clear 12 1035 58 10000 3.69 184 10:35 22.03.2022
2470 Clear 6 1035 64 10000 4.66 171 07:57 22.03.2022
2471 Clear 3 1035 67 10000 4.76 168 05:21 22.03.2022
2472 Clear 4 1035 67 10000 4.67 166 03:41 22.03.2022
2473 Clear 7 1036 66 10000 4.82 165 23:59 21.03.2022
2474 Clear 7 1036 65 10000 4.74 155 22:29 21.03.2022
2475 Clear 6 1036 64 10000 4.62 147 20:54 21.03.2022
2476 Clear 6 1036 64 10000 4.62 147 20:33 21.03.2022
2477 Clear 6 1036 64 10000 4.51 141 19:58 21.03.2022
2478 Clear 7 1036 64 10000 4.26 135 19:27 21.03.2022
2479 Clear 7 1036 63 10000 4.17 137 18:18 21.03.2022
2480 Clear 8 1036 61 10000 4.58 138 17:19 21.03.2022
2481 Clear 8 1036 61 10000 4.58 138 16:44 21.03.2022
2482 Clear 8 1036 58 10000 5.36 138 15:52 21.03.2022
2483 Clear 8 1036 56 10000 6.22 136 15:19 21.03.2022
2484 Clear 8 1037 56 10000 6.48 135 14:25 21.03.2022
2485 Clear 7 1037 57 10000 6.73 137 12:40 21.03.2022
2486 Clear 12 1038 58 10000 6.91 139 11:52 21.03.2022
2487 Clear 11 1038 61 10000 6.87 141 10:40 21.03.2022
2488 Clear 7 1038 65 10000 6.72 147 08:55 21.03.2022
2489 Clear 3 1038 70 10000 6.6 144 06:54 21.03.2022
2490 Clear 5 1038 68 10000 7.4 138 02:53 21.03.2022
2491 Clear 6 1038 66 10000 7.67 135 00:35 21.03.2022
2492 Clear 6 1039 64 10000 8.16 128 22:54 20.03.2022
2493 Clear 7 1039 62 10000 8.14 126 21:56 20.03.2022
2494 Clear 6 1039 62 10000 7.64 123 21:29 20.03.2022
2495 Clear 6 1039 62 10000 7.64 123 20:43 20.03.2022
2496 Clear 6 1039 63 10000 6.9 123 19:59 20.03.2022
2497 Clear 6 1039 63 10000 6.9 123 19:59 20.03.2022
2498 Clear 6 1039 63 10000 6.9 123 19:38 20.03.2022
2499 Clear 8 1039 64 10000 6.58 119 18:40 20.03.2022
2500 Clear 10 1039 64 10000 7.21 114 17:37 20.03.2022
2501 Clear 11 1039 62 10000 8.14 109 16:58 20.03.2022
2502 Clear 11 1040 60 10000 8.83 105 15:52 20.03.2022
2503 Clear 7 1040 57 10000 9.14 108 14:36 20.03.2022
2504 Clear 6 1041 56 10000 9.49 113 13:18 20.03.2022
2505 Clear 11 1042 57 10000 9.49 115 11:37 20.03.2022
2506 Clear 9 1043 60 10000 8.71 118 09:57 20.03.2022
2507 Clear 4 1043 72 10000 7.57 115 07:51 20.03.2022
2508 Clear 2 1043 83 10000 6.88 107 05:49 20.03.2022
2509 Clear 2 1043 83 10000 6.88 107 05:49 20.03.2022
2510 Clear 3 1044 89 10000 6.98 99 03:18 20.03.2022
2511 Clear 4 1045 89 10000 7.6 94 00:48 20.03.2022
2512 Clear 5 1045 89 10000 8.3 93 23:35 19.03.2022
2513 Clear 5 1046 86 10000 8.88 85 21:54 19.03.2022
2514 Clear 5 1046 87 10000 9.05 79 21:20 19.03.2022
2515 Clear 5 1046 87 10000 8.6 72 19:21 19.03.2022
2516 Clear 6 1046 86 10000 8.88 72 18:30 19.03.2022
2517 Clear 7 1045 85 10000 8.69 65 17:45 19.03.2022
2518 Clear 8 1046 85 10000 8.46 66 16:40 19.03.2022
2519 Clear 10 1046 83 10000 8.66 64 15:22 19.03.2022
2520 Clear 11 1046 83 10000 8.56 63 13:40 19.03.2022
2521 Clear 5 1047 84 10000 8.8 60 12:42 19.03.2022
2522 Clear 5 1047 84 10000 8.73 58 12:20 19.03.2022
2523 Clear 5 1047 84 10000 8.73 58 11:42 19.03.2022
2524 Clear 7 1047 82 10000 7.63 56 09:22 19.03.2022
2525 Clear 4 1046 82 10000 6.13 28 04:53 19.03.2022
2526 Clear 5 1046 82 10000 6.13 20 02:33 19.03.2022
2527 Clear 6 1046 78 10000 6.4 358 23:51 18.03.2022
2528 Clear 6 1046 77 10000 6.41 358 22:58 18.03.2022
2529 Clear 7 1046 75 10000 6.57 348 22:21 18.03.2022
2530 Clear 8 1045 71 10000 7.1 341 20:26 18.03.2022
2531 Clear 6 1045 74 10000 6.38 352 19:24 18.03.2022
2532 Clear 6 1045 76 10000 6.09 356 18:58 18.03.2022
2533 Clouds 6 1044 90 10000 4.18 312 16:56 18.03.2022
2534 Clear 5 1043 91 10000 4.42 287 16:24 18.03.2022
2535 Clear 5 1043 89 10000 4.83 279 14:29 18.03.2022
2536 Clear 5 1043 89 10000 4.83 279 13:40 18.03.2022
2537 Clouds 5 1043 85 10000 5.53 276 11:37 18.03.2022
2538 Clear 5 1042 82 10000 4.9 261 10:27 18.03.2022
2539 Clear 3 1041 83 10000 4.5 254 08:50 18.03.2022
2540 Clear 2 1040 84 10000 3.82 245 07:26 18.03.2022
2541 Clear 3 1039 86 10000 3.18 274 05:20 18.03.2022
2542 Clear 6 1037 88 10000 3.28 301 01:51 18.03.2022
2543 Clouds 6 1036 87 10000 5.56 297 00:20 18.03.2022
2544 Clouds 5 1035 88 10000 5.63 286 22:54 17.03.2022
2545 Clouds 8 1034 90 10000 5.14 273 22:20 17.03.2022
2546 Clouds 8 1034 90 10000 5.14 273 21:31 17.03.2022
2547 Clouds 8 1033 90 10000 5.55 267 20:58 17.03.2022
2548 Clouds 8 1032 91 10000 5.5 261 20:28 17.03.2022
2549 Clouds 8 1032 91 10000 5.5 261 19:39 17.03.2022
2550 Clouds 9 1031 91 10000 6.24 253 18:55 17.03.2022
2551 Rain 9 1030 96 10000 6.41 244 17:47 17.03.2022
2552 Rain 10 1028 77 10000 6.56 219 16:29 17.03.2022
2553 Rain 10 1028 77 10000 6.56 219 15:43 17.03.2022
2554 Rain 11 1028 69 10000 7.68 191 15:21 17.03.2022
2555 Clouds 10 1027 69 10000 8.36 169 13:48 17.03.2022
2556 Clouds 10 1027 69 10000 8.76 157 12:48 17.03.2022
2557 Clouds 9 1027 70 10000 9.05 150 11:47 17.03.2022
2558 Clouds 8 1027 72 10000 8.9 147 11:22 17.03.2022
2559 Clouds 7 1028 75 10000 8.5 148 09:47 17.03.2022
2560 Clouds 6 1028 80 10000 8.5 142 08:31 17.03.2022
2561 Clouds 5 1029 88 10000 6.72 132 06:25 17.03.2022
2562 Clouds 5 1029 88 10000 6.72 132 05:39 17.03.2022
2563 Clouds 5 1029 88 10000 6.72 132 05:39 17.03.2022
2564 Clouds 5 1030 91 10000 6.69 106 00:42 17.03.2022
2565 Clouds 4 1030 90 10000 6.41 108 22:59 16.03.2022
2566 Clouds 4 1030 90 10000 6.41 108 22:40 16.03.2022
2567 Clouds 4 1030 90 10000 6.9 110 22:19 16.03.2022
2568 Clouds 5 1031 91 10000 7.12 117 21:29 16.03.2022
2569 Clouds 5 1031 93 10000 6.06 114 19:26 16.03.2022
2570 Clouds 5 1031 93 10000 6.06 114 18:58 16.03.2022
2571 Clouds 6 1030 90 10000 4.83 110 18:24 16.03.2022
2572 Clouds 7 1030 90 10000 4.83 110 17:37 16.03.2022
2573 Clouds 7 1030 85 10000 4.82 109 16:50 16.03.2022
2574 Clouds 7 1030 82 10000 5.23 98 15:53 16.03.2022
2575 Clear 7 1031 80 10000 4.84 76 14:24 16.03.2022
2576 Clear 5 1031 80 10000 3.98 70 13:22 16.03.2022
2577 Clear 5 1030 79 10000 3.47 65 11:53 16.03.2022
2578 Clear 6 1030 83 10000 2.81 67 11:20 16.03.2022
2579 Clear 5 1029 86 10000 3.35 71 10:18 16.03.2022
2580 Clear 4 1029 89 10000 3.59 64 08:38 16.03.2022
2581 Clear 5 1027 87 10000 2 8 04:35 16.03.2022
2582 Clouds 5 1026 84 10000 0.85 47 00:48 16.03.2022
2583 Clouds 5 1026 83 10000 1.24 66 22:37 15.03.2022
2584 Clouds 5 1026 83 10000 1.27 351 21:52 15.03.2022
2585 Clouds 6 1025 84 10000 0.9 332 19:53 15.03.2022
2586 Clouds 8 1025 81 10000 0.86 283 18:54 15.03.2022
2587 Clouds 10 1025 84 10000 2.52 280 16:55 15.03.2022
2588 Clouds 11 1025 86 10000 2.72 270 16:20 15.03.2022
2589 Clouds 5 1026 87 10000 3.23 259 14:57 15.03.2022
2590 Clouds 5 1026 87 10000 3.23 259 14:34 15.03.2022
2591 Clouds 5 1027 91 10000 4.43 263 13:28 15.03.2022
2592 Clouds 10 1027 91 10000 5.5 260 12:21 15.03.2022
2593 Clouds 9 1027 92 10000 5.8 258 11:29 15.03.2022
2594 Clouds 7 1027 94 10000 5.76 253 09:40 15.03.2022
2595 Clouds 8 1027 96 10000 5.92 251 08:42 15.03.2022
2596 Clouds 8 1027 98 10000 5.91 249 07:50 15.03.2022
2597 Clouds 8 1027 98 10000 5.85 249 06:54 15.03.2022
2598 Clouds 9 1026 95 10000 4.73 244 03:30 15.03.2022
2599 Clouds 5 1026 89 10000 5.33 240 23:40 14.03.2022
2600 Clouds 5 1026 77 10000 4.61 234 23:21 14.03.2022
2601 Clouds 5 1025 74 10000 3.86 231 22:26 14.03.2022
2602 Clouds 8 1025 74 10000 3.86 231 21:30 14.03.2022
2603 Clouds 8 1025 72 10000 3.9 227 20:41 14.03.2022
2604 Clouds 8 1025 71 10000 3.09 203 20:19 14.03.2022
2605 Clouds 6 1025 70 10000 3.58 151 18:55 14.03.2022
2606 Clouds 6 1024 68 10000 4.13 135 17:54 14.03.2022
2607 Clear 7 1024 65 10000 4.33 122 16:58 14.03.2022
2608 Clear 12 1024 62 10000 4.62 123 15:43 14.03.2022
2609 Clear 7 1025 59 10000 5.54 124 14:40 14.03.2022
2610 Clear 6 1026 62 10000 6.08 125 12:29 14.03.2022
2611 Clear 5 1026 63 10000 6.51 128 10:54 14.03.2022
2612 Clear 9 1026 65 10000 6.82 131 09:52 14.03.2022
2613 Clear 4 1026 68 10000 7.36 132 09:22 14.03.2022
2614 Clear 4 1026 68 10000 7.36 132 08:55 14.03.2022
2615 Clear 5 1025 72 10000 7.69 127 07:32 14.03.2022
2616 Clear 4 1025 74 10000 7.21 123 05:46 14.03.2022
2617 Clear 4 1025 68 10000 7.42 126 01:55 14.03.2022
2618 Clear 5 1025 66 10000 7.32 127 01:28 14.03.2022
2619 Clear 5 1025 62 10000 7.44 136 22:44 13.03.2022
2620 Clear 5 1024 61 10000 8.49 137 21:31 13.03.2022
2621 Clear 6 1024 59 10000 9.43 133 20:56 13.03.2022
2622 Clear 6 1024 59 10000 9.43 133 20:31 13.03.2022
2623 Clear 6 1024 59 10000 9.47 127 19:59 13.03.2022
2624 Clear 6 1024 59 10000 9.47 127 19:37 13.03.2022
2625 Clear 6 1023 59 10000 8.91 124 19:18 13.03.2022
2626 Clear 6 1023 59 10000 8.64 125 18:38 13.03.2022
2627 Clear 6 1023 59 10000 8.35 121 17:46 13.03.2022
2628 Clear 7 1023 57 10000 8.47 119 17:20 13.03.2022
2629 Clear 7 1023 57 10000 8.47 119 16:30 13.03.2022
2630 Clear 7 1023 56 10000 8.3 118 15:47 13.03.2022
2631 Clear 7 1023 53 10000 8.06 123 14:58 13.03.2022
2632 Clear 7 1023 51 10000 8.85 126 13:49 13.03.2022
2633 Clear 6 1024 51 10000 9.01 126 12:57 13.03.2022
2634 Clear 6 1024 53 10000 9 127 11:53 13.03.2022
2635 Clear 11 1024 53 10000 9 127 11:32 13.03.2022
2636 Clear 10 1024 55 10000 8.63 132 10:48 13.03.2022
2637 Clear 10 1024 55 10000 8.63 132 10:48 13.03.2022
2638 Clear 4 1024 58 10000 8.46 134 10:24 13.03.2022
2639 Clear 7 1024 58 10000 8.46 134 09:41 13.03.2022
2640 Clear 7 1024 58 10000 8.46 134 09:41 13.03.2022
2641 Clear 5 1024 61 10000 8.33 134 08:47 13.03.2022
2642 Clear 3 1024 64 10000 8.1 134 07:47 13.03.2022
2643 Clouds 2 1024 67 10000 7.58 131 05:48 13.03.2022
2644 Clear 2 1024 70 10000 7.13 131 02:50 13.03.2022
2645 Clear 3 1025 67 10000 5.87 134 00:30 13.03.2022
2646 Clear 4 1025 66 10000 5.36 137 22:44 12.03.2022
2647 Clear 4 1025 65 10000 5.21 143 20:58 12.03.2022
2648 Clear 5 1025 63 10000 6 140 19:57 12.03.2022
2649 Clear 5 1025 63 10000 6 140 19:57 12.03.2022
2650 Clear 5 1025 63 10000 6 140 19:38 12.03.2022
2651 Clear 6 1025 58 10000 7.03 136 18:29 12.03.2022
2652 Clear 6 1025 58 10000 7.03 136 17:39 12.03.2022
2653 Clear 11 1025 53 10000 8.12 130 16:25 12.03.2022
2654 Clear 7 1025 52 10000 8.3 130 15:24 12.03.2022
2655 Clear 7 1025 52 10000 8.3 130 15:24 12.03.2022
2656 Clear 7 1025 52 10000 8.3 130 14:52 12.03.2022
2657 Clear 6 1025 49 10000 8.25 135 13:47 12.03.2022
2658 Clear 11 1026 47 10000 8.42 144 12:25 12.03.2022
2659 Clear 10 1026 47 10000 8.42 144 11:51 12.03.2022
2660 Clear 9 1026 48 10000 8.63 149 11:19 12.03.2022
2661 Clear 6 1027 48 10000 8.88 151 09:58 12.03.2022
2662 Clear 5 1027 48 10000 8.88 151 09:38 12.03.2022
2663 Clear 2 1026 50 10000 9.32 148 07:50 12.03.2022
2664 Clear 1 1027 51 10000 9.62 147 05:20 12.03.2022
2665 Clear 3 1028 49 10000 10.05 152 00:24 12.03.2022
2666 Clear 3 1028 50 10000 10.61 148 23:28 11.03.2022
2667 Clear 4 1028 50 10000 10.63 148 21:48 11.03.2022
2668 Clear 3 1028 51 10000 10.63 146 20:58 11.03.2022
2669 Clear 3 1028 51 10000 10.63 146 20:37 11.03.2022
2670 Clear 4 1028 50 10000 10.76 142 19:54 11.03.2022
2671 Clear 6 1028 49 10000 10.79 138 19:27 11.03.2022
2672 Clear 5 1028 48 10000 10.5 136 17:37 11.03.2022
2673 Clear 7 1028 47 10000 10.41 136 17:18 11.03.2022
2674 Clear 8 1029 46 10000 10.53 135 15:57 11.03.2022
2675 Clear 10 1030 45 10000 10.9 135 14:22 11.03.2022
2676 Clear 8 1030 44 10000 11.04 137 13:21 11.03.2022
2677 Clear 8 1030 45 10000 10.41 140 12:22 11.03.2022
2678 Clear 7 1030 45 10000 10.41 140 11:56 11.03.2022
2679 Clear 5 1031 45 10000 10.03 149 10:24 11.03.2022
2680 Clear 3 1031 50 10000 9.88 146 09:27 11.03.2022
2681 Clear 1 1031 52 10000 9.92 147 08:25 11.03.2022
2682 Clear 1 1031 52 10000 9.92 147 07:46 11.03.2022
2683 Clouds 0 1031 56 10000 10.03 141 06:22 11.03.2022
2684 Clouds 1 1031 56 10000 9.61 144 04:24 11.03.2022
2685 Clouds 3 1032 55 10000 9.45 145 00:21 11.03.2022
2686 Clouds 3 1032 56 10000 9.15 146 22:31 10.03.2022
2687 Clouds 3 1032 57 10000 9.16 147 21:52 10.03.2022
2688 Clouds 5 1032 59 10000 8.86 145 21:24 10.03.2022
2689 Clouds 6 1032 59 10000 8.83 143 19:54 10.03.2022
2690 Clouds 6 1032 61 10000 8.39 138 18:56 10.03.2022
2691 Clouds 5 1032 63 10000 8.36 131 17:37 10.03.2022
2692 Clouds 9 1032 67 10000 8.19 126 16:42 10.03.2022
2693 Clouds 11 1032 73 10000 7.7 128 15:27 10.03.2022
2694 Clouds 5 1032 76 10000 7.55 128 13:30 10.03.2022
2695 Clouds 5 1032 77 10000 7.35 131 12:35 10.03.2022
2696 Clouds 9 1032 81 10000 7.37 140 11:26 10.03.2022
2697 Clear 4 1032 84 10000 7.13 140 09:28 10.03.2022
2698 Clear 2 1032 86 10000 6.68 137 07:47 10.03.2022
2699 Clear 3 1030 87 10000 5.66 135 05:30 10.03.2022
2700 Clear 4 1030 88 10000 5.76 113 01:56 10.03.2022
2701 Clear 4 1030 83 10000 4.76 115 23:30 09.03.2022
2702 Clear 4 1029 80 10000 5.26 114 22:20 09.03.2022
2703 Clear 4 1029 80 10000 5.26 114 21:36 09.03.2022
2704 Clear 4 1029 81 10000 4.97 110 20:31 09.03.2022
2705 Clear 4 1028 81 10000 5.02 102 18:35 09.03.2022
2706 Clear 5 1027 79 10000 4.76 79 17:28 09.03.2022
2707 Clear 5 1027 79 10000 4.76 79 16:36 09.03.2022
2708 Clear 5 1027 77 10000 4.31 71 15:32 09.03.2022
2709 Clear 5 1027 74 10000 3.15 67 13:58 09.03.2022
2710 Clear 4 1027 73 10000 2.77 65 12:59 09.03.2022
2711 Clear 4 1027 69 10000 2.17 40 12:19 09.03.2022
2712 Clear 4 1027 69 10000 2.17 40 11:36 09.03.2022
2713 Clear 4 1027 70 10000 1.96 24 10:49 09.03.2022
2714 Clear 4 1026 72 10000 2.08 19 09:22 09.03.2022
2715 Clear 4 1026 72 10000 2.08 19 08:42 09.03.2022
2716 Clear 1 1026 76 10000 3.17 341 04:47 09.03.2022
2717 Clouds 2 1025 76 10000 2.9 326 00:55 09.03.2022
2718 Clouds 2 1026 72 10000 3.45 300 23:21 08.03.2022
2719 Clouds 3 1026 72 10000 3.45 300 22:45 08.03.2022
2720 Clouds 3 1026 74 10000 3.52 289 21:26 08.03.2022
2721 Clouds 5 1026 74 10000 3.52 289 20:54 08.03.2022
2722 Clouds 6 1025 76 10000 3.28 286 19:59 08.03.2022
2723 Clouds 3 1025 78 10000 3.35 288 18:45 08.03.2022
2724 Clouds 4 1026 78 10000 2.8 291 17:50 08.03.2022
2725 Clouds 8 1026 79 10000 3.05 286 16:35 08.03.2022
2726 Clear 9 1026 82 10000 3.87 281 14:23 08.03.2022
2727 Clear 8 1026 81 10000 3.97 283 13:22 08.03.2022
2728 Clear 8 1027 78 10000 3.52 281 12:19 08.03.2022
2729 Clear 7 1027 78 10000 3.52 281 11:41 08.03.2022
2730 Clear 8 1026 75 10000 3.74 281 10:27 08.03.2022
2731 Clear 2 1026 75 10000 3.9 275 08:30 08.03.2022
2732 Clouds 0 1026 72 10000 2.56 272 05:48 08.03.2022
2733 Clouds 1 1026 71 10000 2.29 331 01:48 08.03.2022
2734 Clouds 2 1027 70 10000 2.99 337 22:41 07.03.2022
2735 Clouds 3 1027 70 10000 3.44 333 21:36 07.03.2022
2736 Clouds 3 1027 70 10000 3.52 335 20:55 07.03.2022
2737 Clouds 4 1026 69 10000 3.84 339 20:29 07.03.2022
2738 Clouds 6 1026 69 10000 3.84 339 19:48 07.03.2022
2739 Clouds 3 1026 67 10000 3.59 350 18:48 07.03.2022
2740 Clouds 5 1026 68 10000 4.02 348 18:28 07.03.2022
2741 Clear 5 1026 69 10000 4.33 343 16:56 07.03.2022
2742 Clear 5 1026 69 10000 4.33 343 16:37 07.03.2022
2743 Clear 8 1026 72 10000 4.68 343 14:41 07.03.2022
2744 Clear 8 1027 75 10000 4.91 343 12:34 07.03.2022
2745 Clear 6 1026 75 10000 5.66 343 11:21 07.03.2022
2746 Clear 4 1026 75 10000 6.19 340 10:26 07.03.2022
2747 Clear 1 1026 78 10000 6.1 345 07:42 07.03.2022
2748 Clear 1 1026 81 10000 4.56 1 01:23 07.03.2022
2749 Clouds 1 1026 80 10000 5.01 2 00:20 07.03.2022
2750 Clouds 1 1026 81 10000 5.03 355 23:19 06.03.2022
2751 Clouds 1 1026 83 10000 4.76 348 22:25 06.03.2022
2752 Clouds 2 1026 82 10000 4.3 334 21:22 06.03.2022
2753 Clouds 2 1025 79 10000 3.32 323 20:29 06.03.2022
2754 Clouds 3 1025 79 10000 3.32 323 19:39 06.03.2022
2755 Clouds 3 1025 77 10000 3.46 322 18:49 06.03.2022
2756 Clouds 4 1025 75 10000 4.35 320 17:46 06.03.2022
2757 Clouds 4 1025 72 10000 3.69 319 17:19 06.03.2022
2758 Clouds 4 1025 70 10000 3.79 328 16:26 06.03.2022
2759 Clouds 4 1025 69 10000 4.18 334 15:25 06.03.2022
2760 Clouds 4 1025 69 10000 4.18 334 14:42 06.03.2022
2761 Clouds 3 1026 69 10000 4.86 332 13:48 06.03.2022
2762 Clouds 3 1026 66 10000 4.21 343 12:39 06.03.2022
2763 Clouds 5 1026 65 10000 4.22 348 11:45 06.03.2022
2764 Clouds 4 1026 67 10000 4.68 349 10:39 06.03.2022
2765 Clouds 3 1026 70 10000 4.69 356 09:18 06.03.2022
2766 Clouds 3 1026 69 10000 4.88 359 08:27 06.03.2022
2767 Clouds 2 1026 69 10000 4.2 6 07:25 06.03.2022
2768 Clouds 1 1026 67 10000 3.1 43 02:22 06.03.2022
2769 Clouds 1 1026 66 10000 2.67 54 00:35 06.03.2022
2770 Clouds 1 1026 66 10000 2.93 68 23:59 05.03.2022
2771 Clouds 2 1026 66 10000 2.85 65 23:19 05.03.2022
2772 Clouds 2 1026 66 10000 2.85 65 22:34 05.03.2022
2773 Clouds 2 1026 66 10000 2.57 82 21:29 05.03.2022
2774 Clouds 2 1026 66 10000 2.57 82 20:32 05.03.2022
2775 Clouds 2 1026 67 10000 3.74 94 19:19 05.03.2022
2776 Clouds 3 1026 67 10000 3.9 92 18:37 05.03.2022
2777 Clouds 3 1026 67 10000 4.51 91 17:34 05.03.2022
2778 Clouds 3 1026 67 10000 4.51 91 17:34 05.03.2022
2779 Clouds 4 1026 65 10000 5.25 80 16:18 05.03.2022
2780 Clouds 4 1026 64 10000 5.26 71 15:20 05.03.2022
2781 Clouds 5 1026 64 10000 5.26 71 14:36 05.03.2022
2782 Clouds 5 1026 64 10000 5.1 67 13:42 05.03.2022
2783 Clouds 5 1026 65 10000 4.61 74 12:40 05.03.2022
2784 Clouds 4 1027 65 10000 4.36 86 11:20 05.03.2022
2785 Clouds 4 1027 65 10000 4.36 86 10:52 05.03.2022
2786 Clouds 3 1027 66 10000 4.28 91 09:33 05.03.2022
2787 Clouds 2 1026 70 10000 4.03 91 08:28 05.03.2022
2788 Clear 2 1026 72 10000 4.37 88 07:22 05.03.2022
2789 Clear 2 1026 73 10000 4.35 85 05:39 05.03.2022
2790 Clear 2 1027 74 10000 4.83 91 00:49 05.03.2022
2791 Clear 2 1026 75 10000 5.38 88 23:20 04.03.2022
2792 Clear 2 1026 75 10000 5.38 88 22:39 04.03.2022
2793 Clear 2 1026 74 10000 5.78 86 21:43 04.03.2022
2794 Clear 3 1026 74 10000 5.88 83 20:45 04.03.2022
2795 Clear 1 1026 74 10000 5.54 79 19:38 04.03.2022
2796 Clear 3 1026 74 10000 5.17 80 18:59 04.03.2022
2797 Clear 3 1026 74 10000 5.17 80 18:36 04.03.2022
2798 Clear 5 1026 71 10000 5.46 76 17:29 04.03.2022
2799 Clear 6 1026 69 10000 5.8 74 16:26 04.03.2022
2800 Clear 6 1026 69 10000 6.05 69 15:27 04.03.2022
2801 Clear 4 1026 69 10000 5.92 68 13:38 04.03.2022
2802 Clear 7 1026 70 10000 5.98 67 12:51 04.03.2022
2803 Clear 6 1026 71 10000 6.24 66 11:37 04.03.2022
2804 Clear 6 1026 72 10000 6.04 67 10:30 04.03.2022
2805 Clear 4 1026 74 10000 6 65 09:28 04.03.2022
2806 Clear 2 1025 77 10000 5.69 63 08:20 04.03.2022
2807 Clear 0 1025 79 10000 5.17 61 06:59 04.03.2022
2808 Clouds 1 1024 81 10000 4.05 66 03:28 04.03.2022
2809 Clear 1 1024 82 10000 3.6 65 00:19 04.03.2022
2810 Clear 2 1024 81 10000 2.91 79 22:21 03.03.2022
2811 Clear 3 1024 81 10000 2.91 79 21:39 03.03.2022
2812 Clear 2 1023 81 10000 3.33 83 20:59 03.03.2022
2813 Clear 5 1023 81 10000 3.64 72 19:48 03.03.2022
2814 Clear 2 1023 82 10000 3.83 59 18:51 03.03.2022
2815 Clear 3 1022 83 10000 4.32 59 18:22 03.03.2022
2816 Clear 6 1022 82 10000 4.78 51 17:27 03.03.2022
2817 Clear 6 1022 80 10000 4.97 48 15:48 03.03.2022
2818 Clear 6 1022 79 10000 4.71 45 15:20 03.03.2022
2819 Clear 6 1022 79 10000 4.71 45 14:42 03.03.2022
2820 Clear 8 1023 79 10000 4.58 43 13:18 03.03.2022
2821 Clear 4 1022 77 10000 4.33 39 11:51 03.03.2022
2822 Clear 3 1022 77 10000 4.38 34 10:41 03.03.2022
2823 Clear 3 1022 80 10000 4.63 29 08:57 03.03.2022
2824 Clear 3 1022 82 10000 4.69 23 07:45 03.03.2022
2825 Clear 3 1022 83 10000 4.14 24 06:35 03.03.2022
2826 Clear 2 1023 84 10000 4.21 349 01:52 03.03.2022
2827 Clouds 1 1023 83 10000 3.48 342 23:31 02.03.2022
2828 Clouds 2 1024 82 10000 3.28 342 22:52 02.03.2022
2829 Clouds 2 1024 81 10000 3.56 346 21:32 02.03.2022
2830 Clouds 2 1024 79 10000 3.26 334 20:46 02.03.2022
2831 Clouds 2 1024 79 10000 2.37 333 20:24 02.03.2022
2832 Clouds 3 1024 79 10000 2.37 333 19:36 02.03.2022
2833 Clear 3 1024 75 10000 2.38 340 18:48 02.03.2022
2834 Clear 5 1024 74 10000 2.39 339 18:18 02.03.2022
2835 Clear 6 1024 74 10000 2.39 339 17:32 02.03.2022
2836 Clear 4 1024 72 10000 2.28 339 16:51 02.03.2022
2837 Clear 6 1025 71 10000 2.47 347 14:49 02.03.2022
2838 Clouds 6 1026 70 10000 2.02 349 13:29 02.03.2022
2839 Clouds 6 1026 68 10000 1.58 327 12:44 02.03.2022
2840 Clouds 8 1027 65 10000 1.88 326 11:59 02.03.2022
2841 Clouds 5 1027 63 10000 1.14 284 11:25 02.03.2022
2842 Clouds 3 1027 62 10000 1.08 239 10:25 02.03.2022
2843 Clouds 3 1027 62 10000 1.35 231 09:25 02.03.2022
2844 Clouds 2 1027 63 10000 1.3 231 07:59 02.03.2022
2845 Clouds 1 1027 59 10000 1.74 204 07:23 02.03.2022
2846 Clouds 2 1028 60 10000 2.28 200 03:56 02.03.2022
2847 Clouds 3 1029 59 10000 3.26 206 00:39 02.03.2022
2848 Clouds 3 1030 60 10000 3.87 191 22:53 01.03.2022
2849 Clouds 3 1030 60 10000 3.87 191 22:35 01.03.2022
2850 Clouds 4 1030 60 10000 4.18 194 21:26 01.03.2022
2851 Clouds 4 1030 60 10000 4.18 194 20:38 01.03.2022
2852 Clouds 5 1030 60 10000 3.96 184 20:19 01.03.2022
2853 Clouds 5 1030 59 10000 3.79 183 18:52 01.03.2022
2854 Clouds 6 1030 57 10000 3.45 193 18:22 01.03.2022
2855 Clouds 5 1030 57 10000 3.45 193 17:39 01.03.2022
2856 Clouds 7 1030 56 10000 3.62 193 16:36 01.03.2022
2857 Clouds 7 1030 54 10000 3.87 199 15:47 01.03.2022
2858 Clouds 8 1030 53 10000 4.42 200 14:54 01.03.2022
2859 Clouds 8 1030 53 10000 4.42 200 14:31 01.03.2022
2860 Clouds 7 1031 52 10000 6.29 191 13:26 01.03.2022
2861 Clear 6 1031 52 10000 5.92 193 12:36 01.03.2022
2862 Clear 6 1031 52 10000 7.1 186 11:35 01.03.2022
2863 Clear 3 1033 57 10000 8.04 183 09:52 01.03.2022
2864 Clear 1 1033 67 10000 7.93 174 08:25 01.03.2022
2865 Clear 0 1033 67 10000 7.1 176 06:47 01.03.2022
2866 Clear 1 1034 67 10000 7.22 173 03:27 01.03.2022
2867 Clear 2 1035 66 10000 7.31 176 00:48 01.03.2022
2868 Clear 2 1035 64 10000 7.88 176 23:46 28.02.2022
2869 Clear 3 1035 64 10000 7.89 175 22:43 28.02.2022
2870 Clear 3 1035 65 10000 7.77 173 21:48 28.02.2022
2871 Clear 3 1035 65 10000 7.59 169 20:54 28.02.2022
2872 Clear 4 1035 66 10000 7.06 166 19:51 28.02.2022
2873 Clear 5 1035 65 10000 6.32 166 18:57 28.02.2022
2874 Clear 6 1035 67 10000 5.87 149 17:57 28.02.2022
2875 Clear 6 1035 64 10000 5.63 142 17:23 28.02.2022
2876 Clear 7 1035 64 10000 5.63 142 16:32 28.02.2022
2877 Clear 8 1035 57 10000 5.39 143 15:21 28.02.2022
2878 Clear 9 1036 57 10000 4.72 147 14:29 28.02.2022
2879 Clear 7 1036 57 10000 4.73 154 13:24 28.02.2022
2880 Clear 7 1036 56 10000 4.73 153 12:31 28.02.2022
2881 Clear 6 1036 57 10000 5.11 156 11:37 28.02.2022
2882 Clear 5 1036 61 10000 5.34 160 10:24 28.02.2022
2883 Clear 3 1036 61 10000 5.34 160 09:59 28.02.2022
2884 Clear 3 1036 66 10000 5.11 161 09:27 28.02.2022
2885 Clear 1 1036 68 10000 4.35 167 08:26 28.02.2022
2886 Clear 1 1036 68 10000 4.35 167 08:26 28.02.2022
2887 Clear 0 1036 64 10000 4.26 164 06:53 28.02.2022
2888 Clear 1 1036 65 10000 3.93 169 04:31 28.02.2022
2889 Clear 1 1036 66 10000 3.99 167 03:30 28.02.2022
2890 Clear 2 1037 74 10000 4.44 142 23:26 27.02.2022
2891 Clear 3 1037 74 10000 4.44 142 22:33 27.02.2022
2892 Clear 3 1037 74 10000 4.61 136 21:47 27.02.2022
2893 Clear 3 1037 76 10000 4.7 131 20:54 27.02.2022
2894 Clear 3 1037 77 10000 4.86 127 20:27 27.02.2022
2895 Clear 4 1037 77 10000 4.86 127 19:56 27.02.2022
2896 Clear 4 1037 78 10000 5.27 122 19:26 27.02.2022
2897 Clear 5 1037 78 10000 5.27 122 18:40 27.02.2022
2898 Clear 5 1037 78 10000 5.31 113 17:54 27.02.2022
2899 Clear 7 1037 76 10000 4.71 113 16:38 27.02.2022
2900 Clear 7 1037 73 10000 4.53 118 15:59 27.02.2022
2901 Clear 6 1038 73 10000 4 127 13:21 27.02.2022
2902 Clear 6 1038 73 10000 3.97 127 12:32 27.02.2022
2903 Clear 3 1039 77 10000 4.47 136 10:54 27.02.2022
2904 Clear 5 1038 81 10000 4.73 137 10:18 27.02.2022
2905 Clear 5 1038 81 10000 4.73 137 09:44 27.02.2022
2906 Clear 4 1038 84 10000 4.82 135 09:19 27.02.2022
2907 Clear 1 1038 85 10000 4.44 132 07:37 27.02.2022
2908 Clear 1 1038 84 10000 4.38 120 05:38 27.02.2022
2909 Clear 2 1038 82 10000 3.62 120 01:53 27.02.2022
2910 Clear 2 1038 81 10000 4.34 124 23:22 26.02.2022
2911 Clear 3 1037 81 10000 4.2 115 21:58 26.02.2022
2912 Clear 3 1037 79 10000 3.5 110 20:59 26.02.2022
2913 Clear 3 1036 78 10000 3.58 100 20:20 26.02.2022
2914 Clear 4 1036 78 10000 3.58 100 19:50 26.02.2022
2915 Clear 5 1036 76 10000 3.43 89 19:26 26.02.2022
2916 Clear 5 1035 76 10000 3.64 86 17:52 26.02.2022
2917 Clear 7 1035 75 10000 3.55 81 17:28 26.02.2022
2918 Clear 5 1035 75 10000 3.56 63 16:19 26.02.2022
2919 Clear 6 1035 76 10000 3.48 53 15:25 26.02.2022
2920 Clear 6 1035 76 10000 3.48 53 14:56 26.02.2022
2921 Clear 6 1035 76 10000 3.48 53 14:38 26.02.2022
2922 Clear 6 1034 77 10000 4.03 47 13:27 26.02.2022
2923 Clear 6 1034 77 10000 4.03 47 12:51 26.02.2022
2924 Clear 6 1033 73 10000 4.91 35 11:29 26.02.2022
2925 Clear 6 1033 73 10000 4.91 35 10:56 26.02.2022
2926 Clear 6 1031 75 10000 6.72 22 09:21 26.02.2022
2927 Clear 4 1029 76 10000 7.35 15 07:57 26.02.2022
2928 Clear 5 1023 89 10000 8.57 320 03:21 26.02.2022
2929 Clear 6 1019 84 10000 8.37 285 23:32 25.02.2022
2930 Clear 6 1017 83 10000 8.93 289 22:18 25.02.2022
2931 Clear 6 1016 82 10000 8.15 282 21:29 25.02.2022
2932 Clear 5 1016 82 10000 8.15 282 20:33 25.02.2022
2933 Clear 5 1015 82 10000 6.24 284 19:53 25.02.2022
2934 Clouds 6 1013 85 10000 8.49 268 17:54 25.02.2022
2935 Clouds 6 1012 87 10000 10 257 16:47 25.02.2022
2936 Rain 5 1011 91 10000 11.51 249 15:49 25.02.2022
2937 Rain 6 1011 88 10000 12.48 246 15:23 25.02.2022
2938 Clouds 6 1011 88 10000 12.48 246 14:55 25.02.2022
2939 Clouds 6 1010 89 10000 12.51 239 14:19 25.02.2022
2940 Clouds 6 1010 89 10000 12.51 239 13:30 25.02.2022
2941 Clouds 6 1010 83 10000 12.72 245 12:21 25.02.2022
2942 Clouds 6 1010 84 10000 13.38 244 11:21 25.02.2022
2943 Clouds 6 1009 85 10000 13.64 244 10:23 25.02.2022
2944 Clouds 5 1009 85 10000 13.64 244 09:45 25.02.2022
2945 Clouds 5 1008 89 10000 14.18 248 08:22 25.02.2022
2946 Rain 4 1007 96 1066 13.13 240 06:56 25.02.2022
2947 Clouds 3 1007 83 10000 13.44 250 05:42 25.02.2022
2948 Clouds 3 1006 79 10000 13.16 263 02:46 25.02.2022
2949 Clouds 5 1001 96 523 15.06 285 22:47 24.02.2022
2950 Rain 5 999 97 245 16.56 293 21:51 24.02.2022
2951 Rain 5 999 97 245 16.56 293 21:31 24.02.2022
2952 Rain 7 997 84 10000 13.14 221 20:47 24.02.2022
2953 Clouds 9 998 81 10000 11.89 210 19:32 24.02.2022
2954 Clouds 9 998 78 10000 11.35 203 18:36 24.02.2022
2955 Clouds 9 1000 79 10000 9.5 200 18:18 24.02.2022
2956 Clouds 9 1000 79 10000 9.5 200 17:33 24.02.2022
2957 Clouds 9 1002 77 10000 9.98 198 16:28 24.02.2022
2958 Clouds 9 1002 77 10000 9.98 198 15:46 24.02.2022
2959 Clouds 10 1003 77 10000 9.54 200 14:52 24.02.2022
2960 Clouds 9 1005 77 10000 9.24 204 14:20 24.02.2022
2961 Clouds 9 1005 77 10000 9.24 204 13:39 24.02.2022
2962 Clouds 8 1007 78 10000 9.98 202 12:27 24.02.2022
2963 Clouds 8 1008 78 10000 10.16 206 10:40 24.02.2022
2964 Clouds 7 1010 78 10000 9.66 202 08:56 24.02.2022
2965 Clouds 7 1010 78 10000 9.66 202 08:38 24.02.2022
2966 Clouds 6 1011 81 10000 9.85 206 05:52 24.02.2022
2967 Clear 6 1014 80 10000 10.28 197 01:56 24.02.2022
2968 Clouds 6 1017 81 10000 9.63 213 22:38 23.02.2022
2969 Clouds 6 1017 81 10000 9.63 213 22:38 23.02.2022
2970 Clouds 6 1017 82 10000 9.07 212 21:37 23.02.2022
2971 Clouds 7 1018 83 10000 8.53 213 20:31 23.02.2022
2972 Clouds 7 1019 84 10000 7.45 210 19:44 23.02.2022
2973 Clouds 7 1019 83 10000 7.03 221 18:32 23.02.2022
2974 Clear 8 1019 81 10000 8.03 238 17:36 23.02.2022
2975 Clear 7 1019 86 10000 8.24 265 14:42 23.02.2022
2976 Clear 8 1019 86 10000 10.69 274 12:42 23.02.2022
2977 Clear 8 1018 87 10000 11.56 275 11:34 23.02.2022
2978 Clear 7 1017 85 10000 12.08 279 10:31 23.02.2022
2979 Clear 7 1016 85 10000 13.56 281 08:59 23.02.2022
2980 Clear 7 1014 83 10000 13.77 281 08:23 23.02.2022
2981 Clouds 6 1011 79 10000 14.71 288 05:49 23.02.2022
2982 Clouds 7 1005 79 10000 16.14 286 00:40 23.02.2022
2983 Clouds 7 1004 84 10000 15.06 291 23:38 22.02.2022
2984 Rain 7 1002 93 10000 12.27 251 22:41 22.02.2022
2985 Rain 6 1003 95 6410 9.56 199 21:49 22.02.2022
2986 Rain 6 1003 95 6410 9.56 199 21:31 22.02.2022
2987 Rain 6 1004 94 10000 9.39 186 20:57 22.02.2022
2988 Clouds 6 1004 94 10000 9.39 186 20:30 22.02.2022
2989 Rain 6 1006 94 10000 8.5 194 19:47 22.02.2022
2990 Clouds 6 1007 83 10000 8.42 212 19:28 22.02.2022
2991 Clouds 7 1007 81 10000 6.17 210 18:21 22.02.2022
2992 Clouds 7 1008 82 10000 5.95 227 17:24 22.02.2022
2993 Clouds 7 1008 82 10000 5.95 227 16:41 22.02.2022
2994 Clouds 7 1008 82 10000 5.95 227 16:41 22.02.2022
2995 Clouds 7 1009 80 10000 6.14 236 15:59 22.02.2022
2996 Clouds 7 1010 74 10000 6.76 252 14:48 22.02.2022
2997 Clouds 7 1011 69 10000 6.64 281 12:48 22.02.2022
2998 Clouds 5 1009 67 10000 6.76 304 10:53 22.02.2022
2999 Clouds 5 1008 71 10000 7.93 319 08:53 22.02.2022
3000 Clouds 5 1006 80 10000 9.45 313 07:27 22.02.2022
3001 Clouds 5 1006 86 10000 9.12 306 06:52 22.02.2022
3002 Clouds 6 1001 79 10000 8.89 312 02:47 22.02.2022
3003 Clouds 6 996 86 10000 10.99 297 23:18 21.02.2022
3004 Clouds 6 994 85 10000 11.97 291 21:56 21.02.2022
3005 Clouds 5 992 83 10000 12.36 282 20:38 21.02.2022
3006 Clouds 5 992 83 10000 12.36 282 20:38 21.02.2022
3007 Clouds 5 991 86 10000 13.92 265 18:47 21.02.2022
3008 Clouds 5 990 90 10000 14.06 257 17:41 21.02.2022
3009 Clouds 5 990 90 10000 14.06 257 17:41 21.02.2022
3010 Clouds 6 989 93 10000 15.31 256 15:36 21.02.2022
3011 Clouds 5 988 92 10000 14.82 247 14:22 21.02.2022
3012 Clouds 5 988 92 10000 14.82 247 13:30 21.02.2022
3013 Clouds 6 986 80 10000 16.85 251 12:24 21.02.2022
3014 Clouds 6 986 80 10000 16.85 251 11:31 21.02.2022
3015 Clouds 6 984 78 10000 18.81 255 10:23 21.02.2022
3016 Rain 6 979 75 10000 20.55 247 05:40 21.02.2022
3017 Rain 10 980 89 10000 15.49 214 00:30 21.02.2022
3018 Rain 10 985 92 10000 13.68 214 22:30 20.02.2022
3019 Rain 10 987 93 10000 12.58 214 21:43 20.02.2022
3020 Clouds 10 988 92 10000 12.43 223 21:19 20.02.2022
3021 Clouds 10 988 92 10000 12.43 223 20:42 20.02.2022
3022 Clouds 10 990 91 10000 12.3 230 19:42 20.02.2022
3023 Clouds 9 991 93 10000 12.39 234 18:54 20.02.2022
3024 Clouds 9 991 93 10000 12.39 234 18:34 20.02.2022
3025 Rain 8 992 94 10000 11.64 222 17:55 20.02.2022
3026 Rain 6 995 97 864 11.25 193 16:18 20.02.2022
3027 Rain 5 997 98 62 10.27 177 14:53 20.02.2022
3028 Rain 5 999 87 10000 10.33 198 13:58 20.02.2022
3029 Clouds 6 1001 83 10000 9.52 214 12:35 20.02.2022
3030 Clouds 5 1003 83 10000 8.15 241 10:52 20.02.2022
3031 Clouds 5 1004 81 10000 9.15 255 10:20 20.02.2022
3032 Clouds 4 1004 83 10000 9.53 262 08:58 20.02.2022
3033 Rain 4 1003 99 44 7.56 237 02:54 20.02.2022
3034 Clouds 5 1004 81 10000 10.16 226 00:31 20.02.2022
3035 Clouds 5 1004 80 10000 10.89 230 23:30 19.02.2022
3036 Clouds 5 1005 80 10000 11.97 236 22:23 19.02.2022
3037 Clouds 5 1005 80 10000 11.97 236 21:45 19.02.2022
3038 -273 0 0 0 0 0 20:25 19.02.2022
3039 -273 0 0 0 0 0 20:25 19.02.2022
3040 Clouds 5 1005 80 10000 13.21 248 20:24 19.02.2022
3041 Clouds 5 1005 80 10000 13.21 248 19:34 19.02.2022
3042 Clouds 5 1005 82 10000 13.96 249 18:38 19.02.2022
3043 Clouds 5 1004 81 10000 13.75 251 17:54 19.02.2022
3044 Clouds 6 1004 80 10000 13.18 256 16:47 19.02.2022
3045 Clouds 7 1003 81 10000 14.77 266 15:20 19.02.2022
3046 Clouds 7 1003 81 10000 14.77 266 14:53 19.02.2022
3047 Clouds 8 1002 78 10000 16.12 272 13:55 19.02.2022
3048 Clouds 7 999 77 10000 17.95 279 11:42 19.02.2022
3049 Clouds 7 997 77 10000 18.69 280 10:45 19.02.2022
3050 Clouds 6 992 78 10000 19.98 274 08:54 19.02.2022
3051 Rain 6 987 80 10000 21.2 278 06:45 19.02.2022
3052 Rain 6 980 87 10000 23.3 244 00:23 19.02.2022
3053 Clouds 8 979 80 10000 20.72 230 22:24 18.02.2022
3054 Clouds 8 980 74 10000 17.93 228 21:21 18.02.2022
3055 Clouds 9 980 71 10000 14.79 233 19:56 18.02.2022
3056 Rain 9 980 90 7347 15.18 197 18:51 18.02.2022
3057 Rain 8 983 91 10000 14.18 187 18:28 18.02.2022
3058 Rain 8 983 91 10000 14.18 187 17:56 18.02.2022
3059 Rain 6 989 97 572 11.76 161 15:57 18.02.2022
3060 Rain 6 995 86 10000 8.67 194 13:56 18.02.2022
3061 Rain 6 995 86 10000 8.67 194 13:32 18.02.2022
3062 Clouds 7 998 74 10000 7.46 205 12:48 18.02.2022
3063 Clouds 6 1000 79 10000 8.07 221 11:56 18.02.2022
3064 Clouds 6 1001 84 10000 8.68 238 10:42 18.02.2022
3065 Clouds 5 1002 79 10000 12.53 263 07:20 18.02.2022
3066 Clouds 5 1002 77 10000 13.19 271 05:43 18.02.2022
3067 Clouds 6 1001 76 10000 14.74 277 03:47 18.02.2022
3068 Clouds 6 995 81 10000 17.54 281 21:59 17.02.2022
3069 Clouds 6 995 81 10000 17.54 281 21:33 17.02.2022
3070 Rain 6 994 90 10000 18.13 280 20:42 17.02.2022
3071 Clouds 6 994 83 10000 16.82 274 19:55 17.02.2022
3072 Clouds 6 993 80 10000 16.81 272 18:57 17.02.2022
3073 Clouds 7 992 77 10000 15.85 275 18:29 17.02.2022
3074 Clouds 7 992 77 10000 15.85 275 17:30 17.02.2022
3075 Clouds 7 990 87 10000 14.95 281 15:50 17.02.2022
3076 Rain 7 988 76 10000 11.86 282 14:29 17.02.2022
3077 Clouds 7 988 76 10000 11.86 282 13:31 17.02.2022
3078 Clouds 7 985 78 10000 15.14 299 11:48 17.02.2022
3079 Clouds 7 979 88 10000 15.04 296 09:58 17.02.2022
3080 Clouds 7 976 92 10000 15.76 262 07:45 17.02.2022
3081 Rain 11 976 90 10000 15.56 225 23:23 16.02.2022
3082 Rain 11 978 92 9060 13.6 222 22:28 16.02.2022
3083 Rain 12 982 90 10000 12.16 239 20:22 16.02.2022
3084 Clouds 12 984 89 10000 14.33 252 18:56 16.02.2022
3085 Clouds 12 985 87 10000 14.89 249 18:27 16.02.2022
3086 Clouds 12 985 87 10000 14.4 246 17:22 16.02.2022
3087 Clouds 11 985 91 10000 14.04 224 15:23 16.02.2022
3088 Rain 8 986 89 10000 14.57 207 13:46 16.02.2022
3089 Rain 7 991 92 9018 11.78 202 12:26 16.02.2022
3090 Rain 7 991 92 9018 11.78 202 11:46 16.02.2022
3091 Rain 7 992 94 8051 8.9 193 10:34 16.02.2022
3092 Rain 7 994 96 7371 5.05 174 09:39 16.02.2022
3093 Clouds 6 998 88 10000 7.03 209 06:44 16.02.2022
3094 Clouds 6 1000 93 10000 13.25 227 02:47 16.02.2022
3095 Clouds 7 1003 79 10000 11.53 200 22:34 15.02.2022
3096 Clouds 7 1004 84 10000 10.62 196 21:51 15.02.2022
3097 Clouds 7 1004 84 10000 10.62 196 21:30 15.02.2022
3098 Clouds 7 1005 84 10000 9.84 196 20:58 15.02.2022
3099 Clouds 7 1005 83 10000 9.45 198 20:26 15.02.2022
3100 Clouds 8 1005 83 10000 9.45 198 19:46 15.02.2022
3101 Clouds 8 1006 84 10000 7.19 197 18:27 15.02.2022
3102 Clouds 8 1006 84 10000 7.19 197 17:55 15.02.2022
3103 Clouds 8 1006 84 10000 7.19 197 17:37 15.02.2022
3104 Clouds 9 1006 87 10000 6.39 233 15:44 15.02.2022
3105 Clouds 10 1007 88 10000 6.93 240 14:31 15.02.2022
3106 Clouds 8 1007 87 10000 9.28 251 13:26 15.02.2022
3107 Clouds 8 1006 86 10000 9.81 253 11:41 15.02.2022
3108 Clouds 8 1006 86 10000 10.71 249 10:32 15.02.2022
3109 Clouds 7 1004 89 10000 12.14 246 08:56 15.02.2022
3110 Clouds 8 1003 83 10000 10.95 216 06:47 15.02.2022
3111 Clouds 8 1003 90 10000 7.41 207 00:26 15.02.2022
3112 Clouds 9 1003 87 10000 7.72 217 21:59 14.02.2022
3113 Clouds 10 1002 84 10000 7.59 219 21:19 14.02.2022
3114 Clouds 10 1002 84 10000 7.15 213 20:19 14.02.2022
3115 Clouds 11 1002 84 10000 7.15 213 19:30 14.02.2022
3116 Clouds 11 1001 82 10000 8.01 200 18:24 14.02.2022
3117 Clouds 11 1001 82 10000 8.01 200 17:37 14.02.2022
3118 Clouds 11 1001 80 10000 8.15 207 17:18 14.02.2022
3119 Clouds 12 1001 78 10000 8.5 206 15:58 14.02.2022
3120 Clouds 12 1001 74 10000 9.49 204 13:37 14.02.2022
3121 Clouds 12 1001 72 10000 10.01 197 13:18 14.02.2022
3122 Clouds 10 1001 71 10000 9.9 198 12:32 14.02.2022
3123 Clouds 10 1001 71 10000 10.38 194 11:43 14.02.2022
3124 Clouds 8 1001 74 10000 10.65 186 10:22 14.02.2022
3125 Clouds 6 1001 75 10000 10.68 188 08:34 14.02.2022
3126 Clouds 5 1001 78 10000 10.75 185 07:26 14.02.2022
3127 Clouds 5 1006 83 10000 9.71 191 23:37 13.02.2022
3128 Clouds 5 1007 80 10000 9.26 192 22:41 13.02.2022
3129 Clouds 5 1007 75 10000 9.05 193 22:23 13.02.2022
3130 Clouds 5 1008 73 10000 9.14 196 21:27 13.02.2022
3131 Clouds 4 1008 73 10000 9.14 196 20:30 13.02.2022
3132 Clouds 4 1009 70 10000 8.99 196 19:24 13.02.2022
3133 Clouds 5 1009 70 10000 8.75 197 18:42 13.02.2022
3134 Clouds 5 1010 69 10000 8.78 195 17:54 13.02.2022
3135 Clouds 7 1010 64 10000 8.88 199 15:54 13.02.2022
3136 Clouds 7 1010 64 10000 8.88 199 15:54 13.02.2022
3137 Clouds 8 1011 63 10000 8.91 203 14:58 13.02.2022
3138 Clouds 7 1012 62 10000 8.73 211 13:59 13.02.2022
3139 Clouds 7 1012 62 10000 9.11 207 12:50 13.02.2022
3140 Clouds 5 1013 69 10000 10.07 203 11:26 13.02.2022
3141 Clouds 4 1013 69 10000 10.07 203 10:30 13.02.2022
3142 Clouds 3 1014 72 10000 10.2 205 09:45 13.02.2022
3143 Clouds 2 1015 79 10000 10.14 199 07:21 13.02.2022
3144 Clouds 1 1020 72 10000 9.46 200 00:35 13.02.2022
3145 Clouds 2 1020 72 10000 10.02 200 23:42 12.02.2022
3146 Clouds 2 1021 73 10000 10.19 199 22:33 12.02.2022
3147 Clouds 2 1023 75 10000 10.06 199 21:27 12.02.2022
3148 Clouds 2 1023 75 10000 10.06 199 20:34 12.02.2022
3149 Clouds 3 1023 72 10000 9.59 201 19:30 12.02.2022
3150 Clouds 3 1024 71 10000 9.43 202 18:53 12.02.2022
3151 Clouds 3 1024 71 10000 9.43 202 18:35 12.02.2022
3152 Clouds 4 1025 69 10000 8.55 209 17:19 12.02.2022
3153 Clouds 5 1026 67 10000 8.49 213 16:26 12.02.2022
3154 Clouds 6 1026 67 10000 8.49 213 15:51 12.02.2022
3155 Clouds 6 1026 67 10000 8.49 213 15:51 12.02.2022
3156 Clouds 6 1026 66 10000 8.37 215 14:31 12.02.2022
3157 Clouds 6 1028 67 10000 8.79 222 13:22 12.02.2022
3158 Clouds 5 1029 76 10000 7.97 223 11:18 12.02.2022
3159 Clouds 2 1030 77 10000 7.44 223 09:51 12.02.2022
3160 Clouds 1 1030 79 10000 6.98 227 09:27 12.02.2022
3161 Clouds 0 1030 79 10000 6.98 227 08:45 12.02.2022
3162 Clear 0 1030 72 10000 6.17 244 05:40 12.02.2022
3163 Clear 0 1030 69 10000 5.61 257 04:33 12.02.2022
3164 Clear 0 1030 67 10000 6.05 288 02:18 12.02.2022
3165 Clear 3 1030 65 10000 6.7 307 22:57 11.02.2022
3166 Clear 3 1029 64 10000 7.26 313 22:20 11.02.2022
3167 Clear 3 1028 63 10000 7.86 318 20:52 11.02.2022
3168 Clear 4 1027 61 10000 8.82 326 19:50 11.02.2022
3169 Clouds 4 1026 64 10000 9.76 331 19:27 11.02.2022
3170 Clouds 5 1024 64 10000 10.42 325 18:29 11.02.2022
3171 Clouds 5 1023 67 10000 10.45 325 17:26 11.02.2022
3172 Clouds 6 1022 77 10000 9.15 313 16:26 11.02.2022
3173 Clouds 6 1021 93 10000 9.58 320 14:59 11.02.2022
3174 Clouds 6 1021 93 10000 9.58 320 14:37 11.02.2022
3175 Clouds 7 1020 93 6030 9.17 296 14:18 11.02.2022
3176 Clouds 7 1020 93 6030 9.17 296 13:40 11.02.2022
3177 Clouds 4 1020 89 10000 8.83 285 12:37 11.02.2022
3178 Clouds 4 1018 84 10000 8.01 286 10:31 11.02.2022
3179 Clouds 4 1017 87 10000 7.9 276 09:22 11.02.2022
3180 Clouds 3 1017 87 10000 7.9 276 08:31 11.02.2022
3181 Clouds 3 1016 85 10000 8.84 272 07:40 11.02.2022
3182 Clouds 3 1015 87 10000 8.56 263 02:40 11.02.2022
3183 Clouds 3 1015 85 10000 9.01 269 02:20 11.02.2022
3184 Clouds 5 1015 85 10000 9.57 267 23:41 10.02.2022
3185 Clouds 5 1015 85 10000 9.98 269 21:55 10.02.2022
3186 Clouds 5 1015 85 10000 9.98 269 21:35 10.02.2022
3187 Clouds 5 1015 84 10000 9.9 271 20:48 10.02.2022
3188 Clouds 6 1015 83 10000 9.84 272 19:49 10.02.2022
3189 Clouds 6 1014 82 10000 9.52 271 19:21 10.02.2022
3190 Clouds 7 1014 85 10000 8.41 265 17:53 10.02.2022
3191 Clouds 7 1014 86 10000 8.19 261 17:21 10.02.2022
3192 Clouds 7 1014 86 10000 8.19 261 16:31 10.02.2022
3193 Clouds 8 1014 88 10000 8.04 261 15:37 10.02.2022
3194 Clouds 8 1014 89 10000 7.9 260 15:18 10.02.2022
3195 Clouds 9 1014 89 10000 7.9 260 14:33 10.02.2022
3196 Clouds 7 1014 88 10000 7.79 256 13:37 10.02.2022
3197 Clouds 7 1014 88 10000 6.86 246 13:18 10.02.2022
3198 Rain 7 1014 89 10000 7.25 247 11:50 10.02.2022
3199 Rain 6 1015 87 10000 6.39 234 11:28 10.02.2022
3200 Rain 6 1015 87 10000 6.09 224 10:22 10.02.2022
3201 Clouds 6 1015 87 10000 6.09 224 09:37 10.02.2022
3202 Clouds 6 1016 91 10000 6.57 229 08:25 10.02.2022
3203 Clouds 6 1016 92 10000 6.32 233 06:32 10.02.2022
3204 Clouds 6 1018 92 10000 7.57 257 02:43 10.02.2022
3205 Clouds 6 1019 93 10000 8.34 258 00:52 10.02.2022
3206 Clouds 7 1019 93 10000 8.34 258 00:30 10.02.2022
3207 Clouds 7 1019 93 10000 8.34 258 00:30 10.02.2022
3208 Clouds 7 1019 92 10000 8.75 262 23:58 09.02.2022
3209 Clouds 7 1019 93 10000 9.02 263 22:54 09.02.2022
3210 Clouds 7 1019 93 10000 9.02 263 22:30 09.02.2022
3211 Clouds 7 1018 92 10000 9.4 264 21:46 09.02.2022
3212 Clouds 7 1018 90 10000 9.97 267 21:26 09.02.2022
3213 Clouds 8 1018 90 10000 9.97 267 20:42 09.02.2022
3214 Clouds 8 1018 90 10000 10.42 266 20:22 09.02.2022
3215 Clouds 8 1018 90 10000 10.42 266 19:41 09.02.2022
3216 Clouds 9 1017 94 10000 10.81 264 18:38 09.02.2022
3217 Clouds 9 1017 95 10000 10.96 256 16:55 09.02.2022
3218 Clouds 10 1017 93 10000 11.76 257 15:59 09.02.2022
3219 Clouds 10 1016 91 10000 12.26 256 15:23 09.02.2022
3220 Clouds 10 1016 89 10000 13 248 12:53 09.02.2022
3221 Clouds 10 1016 89 10000 13.32 247 11:29 09.02.2022
3222 Clouds 10 1016 89 10000 13.32 247 10:33 09.02.2022
3223 Clouds 10 1016 90 10000 12.76 242 09:50 09.02.2022
3224 Clouds 10 1016 92 10000 12.6 240 09:22 09.02.2022
3225 Clouds 10 1016 92 10000 12.6 240 08:44 09.02.2022
3226 Clouds 10 1017 96 10000 10.02 243 05:57 09.02.2022
3227 Clouds 8 1018 97 10000 9.22 252 03:51 09.02.2022
3228 Clouds 8 1019 97 10000 9.05 247 03:25 09.02.2022
3229 Clouds 8 1019 93 10000 9.58 261 23:45 08.02.2022
3230 Clouds 8 1019 94 10000 10.63 261 23:19 08.02.2022
3231 Clouds 8 1019 94 10000 10.63 261 23:19 08.02.2022
3232 Clouds 8 1019 94 10000 10.63 261 22:38 08.02.2022
3233 Clouds 8 1019 94 10000 10.9 262 22:19 08.02.2022
3234 Clouds 8 1019 92 10000 10.7 265 21:22 08.02.2022
3235 Clouds 8 1019 92 10000 10.7 265 20:58 08.02.2022
3236 Clouds 8 1019 92 10000 10.7 265 20:37 08.02.2022
3237 Clouds 8 1019 92 10000 10.7 265 20:37 08.02.2022
3238 Clouds 8 1017 89 10000 10.32 270 19:27 08.02.2022
3239 Clouds 8 1017 94 10000 10.87 268 18:24 08.02.2022
3240 Clouds 8 1017 94 10000 10.87 268 17:30 08.02.2022
3241 Clouds 9 1016 96 10000 12.18 272 15:47 08.02.2022
3242 Clouds 9 1015 96 10000 13.37 268 15:27 08.02.2022
3243 Clouds 9 1015 95 10000 13.54 267 13:50 08.02.2022
3244 Clouds 9 1014 95 10000 14.28 265 12:24 08.02.2022
3245 Clouds 8 1014 95 10000 14.34 260 10:52 08.02.2022
3246 Clouds 7 1014 94 10000 14.25 251 09:49 08.02.2022
3247 Clouds 6 1014 91 10000 13.81 244 08:53 08.02.2022
3248 Clouds 6 1014 91 10000 13.81 244 08:53 08.02.2022
3249 Clouds 5 1015 90 10000 12.21 241 06:49 08.02.2022
3250 Clouds 5 1016 87 10000 10.69 232 04:40 08.02.2022
3251 Clouds 5 1017 90 10000 10.78 240 04:22 08.02.2022
3252 Clouds 5 1017 90 10000 10.78 240 03:36 08.02.2022
3253 Clouds 5 1018 92 10000 10.34 248 03:18 08.02.2022
3254 Clouds 5 1018 92 10000 10.34 248 02:59 08.02.2022
3255 Clouds 5 1018 92 10000 10.34 248 02:36 08.02.2022
3256 Clouds 5 1018 91 10000 10.13 259 02:18 08.02.2022
3257 Clouds 5 1018 91 10000 10.13 259 01:45 08.02.2022
3258 Clouds 5 1018 88 10000 9.49 268 01:25 08.02.2022
3259 Clouds 5 1018 88 10000 9.49 268 00:55 08.02.2022
3260 Clouds 5 1018 88 10000 9.74 268 00:32 08.02.2022
3261 Clouds 6 1018 82 10000 9.85 277 23:45 07.02.2022
3262 Clouds 6 1018 82 10000 10.63 286 23:18 07.02.2022
3263 Clouds 6 1018 82 10000 10.63 286 22:59 07.02.2022
3264 Clouds 6 1018 82 10000 10.63 286 22:59 07.02.2022
3265 Clouds 6 1017 82 10000 11.56 287 22:19 07.02.2022
3266 Clouds 6 1017 82 10000 11.56 287 21:51 07.02.2022
3267 Clouds 6 1016 81 10000 11.53 290 21:27 07.02.2022
3268 Clouds 6 1016 81 10000 11.53 290 20:47 07.02.2022
3269 Clouds 6 1015 81 10000 11.86 292 20:29 07.02.2022
3270 Clouds 7 1015 81 10000 11.86 292 19:47 07.02.2022
3271 Clouds 7 1014 79 10000 13.14 296 18:40 07.02.2022
3272 Clouds 7 1013 78 10000 12.52 294 17:38 07.02.2022
3273 Clouds 7 1012 74 10000 13.95 298 16:52 07.02.2022
3274 Clouds 7 1011 76 10000 13.68 297 15:48 07.02.2022
3275 Clear 8 1010 74 10000 13.52 299 14:30 07.02.2022
3276 Clouds 6 1008 73 10000 14.57 299 13:27 07.02.2022
3277 Clouds 5 1008 73 10000 14.57 299 12:36 07.02.2022
3278 Clouds 5 1007 74 10000 14.26 300 11:52 07.02.2022
3279 Clouds 5 1005 75 10000 13.19 302 11:24 07.02.2022
3280 Clouds 4 1005 75 10000 13.19 302 10:43 07.02.2022
3281 Clouds 7 1004 75 10000 12.87 304 10:24 07.02.2022
3282 Clouds 6 1004 75 10000 12.87 304 09:52 07.02.2022
3283 Clouds 6 1002 77 10000 12.47 307 09:18 07.02.2022
3284 Clear 5 1001 81 10000 12.42 296 07:58 07.02.2022
3285 Clouds 4 999 78 10000 12.35 295 06:35 07.02.2022
3286 Clouds 4 996 83 10000 11.27 302 05:26 07.02.2022
3287 Clouds 4 993 84 10000 10.92 303 02:56 07.02.2022
3288 Clouds 4 990 83 10000 8.72 288 00:29 07.02.2022
3289 Clouds 4 990 83 10000 8.72 288 23:40 06.02.2022
3290 Clouds 4 989 83 10000 10 276 22:46 06.02.2022
3291 Clouds 5 989 83 10000 10.52 273 21:51 06.02.2022
3292 Clouds 5 988 83 10000 10.87 274 21:21 06.02.2022
3293 Clouds 5 988 83 10000 10.87 274 20:52 06.02.2022
3294 Clouds 5 988 85 10000 11.37 273 20:24 06.02.2022
3295 Clouds 5 988 85 10000 11.37 273 19:30 06.02.2022
3296 Clouds 4 987 90 10000 8.33 274 18:35 06.02.2022
3297 Clouds 3 987 94 10000 9.54 271 17:54 06.02.2022
3298 Rain 5 987 95 10000 6.71 241 16:53 06.02.2022
3299 Rain 5 987 95 10000 6.71 241 16:32 06.02.2022
3300 Rain 6 988 95 10000 7.68 229 15:47 06.02.2022
3301 Rain 6 989 93 10000 9.6 230 15:26 06.02.2022
3302 Rain 6 990 94 10000 7.95 226 14:27 06.02.2022
3303 Rain 7 992 91 10000 10.44 238 13:24 06.02.2022
3304 Rain 8 992 92 10000 9.73 238 12:49 06.02.2022
3305 Clouds 8 994 93 10000 8.76 251 11:23 06.02.2022
3306 Clouds 7 994 94 10000 11.1 256 09:56 06.02.2022
3307 Clouds 7 994 93 10000 13.14 258 08:47 06.02.2022
3308 Rain 7 994 94 9301 11.19 240 07:36 06.02.2022
3309 Clouds 7 997 93 9316 14.72 233 05:29 06.02.2022
3310 Clouds 6 1001 96 310 15.24 228 02:26 06.02.2022
3311 Clouds 6 1001 96 310 15.24 228 01:32 06.02.2022
3312 Clouds 6 1003 97 89 14.22 222 00:24 06.02.2022
3313 Clouds 6 1006 97 2194 13.45 223 22:20 05.02.2022
3314 Clouds 6 1007 92 10000 13.03 228 20:59 05.02.2022
3315 Clouds 6 1008 81 10000 13.49 238 20:24 05.02.2022
3316 Clouds 6 1008 81 10000 13.49 238 19:45 05.02.2022
3317 Clouds 6 1008 80 10000 12.74 238 18:52 05.02.2022
3318 Clouds 6 1009 81 10000 12.82 243 17:38 05.02.2022
3319 Clouds 6 1009 81 10000 13.17 249 16:48 05.02.2022
3320 Clouds 6 1009 81 10000 13.36 252 15:34 05.02.2022
3321 Clouds 7 1009 81 10000 13.38 258 14:53 05.02.2022
3322 Clouds 8 1009 82 10000 13.67 261 12:47 05.02.2022
3323 Clouds 7 1009 82 10000 13.65 265 11:49 05.02.2022
3324 Clouds 6 1009 82 10000 13.84 266 10:47 05.02.2022
3325 Clouds 6 1008 81 10000 13.44 270 09:53 05.02.2022
3326 Clouds 5 1007 78 10000 12.92 274 09:29 05.02.2022
3327 Clouds 3 1007 78 10000 12.93 275 07:38 05.02.2022
3328 Clouds 4 1006 78 10000 12.74 267 06:56 05.02.2022
3329 Clouds 5 1004 83 10000 13.2 260 04:28 05.02.2022
3330 Clouds 5 1002 80 10000 11.95 283 01:19 05.02.2022
3331 Clouds 5 1002 80 10000 11.95 283 00:52 05.02.2022
3332 Clouds 5 1001 85 10000 11.68 283 23:39 04.02.2022
3333 Clouds 5 1000 93 10000 11.27 297 23:21 04.02.2022
3334 Rain 5 999 97 62 11.82 299 21:54 04.02.2022
3335 Rain 5 999 97 62 11.82 299 21:36 04.02.2022
3336 Rain 5 997 97 1177 11.01 282 21:18 04.02.2022
3337 Clouds 8 997 87 10000 13.12 226 19:39 04.02.2022
3338 Clouds 8 998 84 10000 11.99 216 17:40 04.02.2022
3339 Clouds 8 1000 83 10000 10.69 214 15:39 04.02.2022
3340 Clouds 8 1001 83 10000 10.46 218 14:52 04.02.2022
3341 Clouds 8 1002 85 10000 9.99 217 13:31 04.02.2022
3342 Clouds 8 1003 87 10000 9.8 215 12:43 04.02.2022
3343 Clouds 7 1004 88 10000 9.95 215 11:41 04.02.2022
3344 Clouds 7 1004 88 10000 9.33 212 10:36 04.02.2022
3345 Clouds 7 1005 91 10000 8.13 208 08:34 04.02.2022
3346 Clouds 7 1006 94 10000 7.27 227 06:18 04.02.2022
3347 Clouds 7 1007 94 10000 7.52 236 02:42 04.02.2022
3348 Clouds 7 1007 95 10000 7.26 232 01:48 04.02.2022
3349 Rain 7 1008 95 10000 7.6 236 23:29 03.02.2022
3350 Clouds 7 1008 95 10000 7.6 236 22:33 03.02.2022
3351 Clouds 7 1008 95 10000 7.42 234 21:49 03.02.2022
3352 Clouds 8 1008 95 10000 7.46 235 20:38 03.02.2022
3353 Clouds 8 1008 95 10000 7.46 235 20:38 03.02.2022
3354 Clouds 8 1008 97 10000 7.42 232 20:18 03.02.2022
3355 Clouds 8 1008 97 10000 7.42 232 19:30 03.02.2022
3356 Clouds 8 1008 97 10000 7.34 232 18:35 03.02.2022
3357 Clouds 8 1008 98 10000 6.87 227 17:32 03.02.2022
3358 Clouds 8 1009 98 10000 7.92 219 16:25 03.02.2022
3359 Rain 7 1010 97 10000 8.38 219 14:45 03.02.2022
3360 Rain 6 1011 96 10000 6.85 195 12:52 03.02.2022
3361 Rain 6 1012 93 10000 6.47 205 10:58 03.02.2022
3362 Clouds 5 1013 90 10000 5.89 215 08:36 03.02.2022
3363 Clouds 6 1014 92 10000 8.82 248 05:26 03.02.2022
3364 Rain 5 1016 97 286 7.88 272 00:32 03.02.2022
3365 Clouds 4 1015 82 10000 8.15 273 23:39 02.02.2022
3366 Clouds 5 1015 80 10000 7.7 283 21:55 02.02.2022
3367 Clouds 5 1015 80 10000 7.7 283 21:31 02.02.2022
3368 Clouds 5 1015 76 10000 7.87 304 20:40 02.02.2022
3369 Clouds 5 1014 77 10000 7.58 302 19:58 02.02.2022
3370 Clouds 5 1014 78 10000 5.6 311 19:27 02.02.2022
3371 Clouds 5 1013 78 10000 6.42 304 18:45 02.02.2022
3372 Clouds 5 1013 77 10000 6.54 318 17:56 02.02.2022
3373 Clouds 6 1012 75 10000 7.83 328 17:19 02.02.2022
3374 Clouds 6 1012 75 10000 7.83 328 16:42 02.02.2022
3375 Clouds 6 1007 82 10000 10.74 326 13:28 02.02.2022
3376 Clouds 6 1005 96 1286 12.57 331 12:20 02.02.2022
3377 Clouds 6 1005 96 1286 12.57 331 11:34 02.02.2022
3378 Clouds 6 1002 93 5580 10.26 314 10:22 02.02.2022
3379 Clouds 6 999 78 10000 10.19 310 07:35 02.02.2022
3380 Clouds 7 994 80 10000 15.17 295 22:52 01.02.2022
3381 Clouds 7 993 81 10000 14.13 300 21:51 01.02.2022
3382 Clouds 7 992 80 10000 14.75 298 20:35 01.02.2022
3383 Clouds 7 991 82 10000 13.94 286 17:44 01.02.2022
3384 Rain 7 991 90 10000 12.07 281 16:40 01.02.2022
3385 Clouds 5 994 96 10000 14.86 234 14:47 01.02.2022
3386 Rain 5 999 97 66 11.49 221 12:45 01.02.2022
3387 Rain 5 1002 97 101 10.76 238 11:34 01.02.2022
3388 Rain 3 1007 95 2760 10.36 285 04:53 01.02.2022
3389 Clouds 5 1009 72 10000 5.89 297 23:42 31.01.2022
3390 Clouds 5 1009 72 10000 5.89 297 23:42 31.01.2022
3391 Clouds 5 1010 70 10000 5.73 300 23:21 31.01.2022
3392 Clouds 5 1009 63 10000 4.91 308 21:59 31.01.2022
3393 Rain 5 1009 63 10000 4.91 308 21:32 31.01.2022
3394 Clouds 5 1009 61 10000 4.17 323 20:33 31.01.2022
3395 Clouds 5 1008 60 10000 2.7 345 19:45 31.01.2022
3396 Clouds 5 1007 68 10000 4.36 33 18:26 31.01.2022
3397 Clouds 5 1007 68 10000 4.36 33 17:43 31.01.2022
3398 Clouds 3 1006 74 10000 4.21 28 16:43 31.01.2022
3399 Clouds 5 1006 84 9803 3.38 9 15:43 31.01.2022
3400 Clouds 6 1004 92 4542 1.22 336 14:22 31.01.2022
3401 Clouds 5 1004 89 9673 0.17 66 12:39 31.01.2022
3402 Clouds 5 1003 83 10000 0.75 165 11:58 31.01.2022
3403 Clouds 4 1004 83 10000 0.56 203 10:50 31.01.2022
3404 Clouds 4 1004 83 10000 0.56 203 10:32 31.01.2022
3405 Clouds 3 1004 87 10000 2.6 204 09:27 31.01.2022
3406 Clouds 3 1004 87 10000 2.6 204 08:51 31.01.2022
3407 Clouds 3 1004 85 10000 2.91 208 08:20 31.01.2022
3408 Clouds 4 1006 79 10000 2.35 259 06:18 31.01.2022
3409 Clouds 5 1008 80 10000 4.95 285 03:33 31.01.2022
3410 Clouds 5 1014 76 10000 9.23 300 23:19 30.01.2022
3411 Clouds 5 1014 75 10000 9.56 305 22:29 30.01.2022
3412 Clouds 5 1014 75 10000 9.56 305 21:42 30.01.2022
3413 Clear 5 1015 78 10000 10.02 303 21:20 30.01.2022
3414 Clear 5 1015 78 10000 10.02 303 20:50 30.01.2022
3415 Clear 5 1015 77 10000 10.81 304 20:29 30.01.2022
3416 Clear 5 1015 77 10000 10.81 304 19:52 30.01.2022
3417 Clear 6 1014 75 10000 11.7 307 18:44 30.01.2022
3418 Clear 6 1014 73 10000 13.03 309 18:20 30.01.2022
3419 Clear 7 1013 69 10000 13.94 313 17:28 30.01.2022
3420 Clear 6 1013 69 10000 13.94 313 16:41 30.01.2022
3421 Clear 6 1012 66 10000 14.42 316 16:22 30.01.2022
3422 Clear 5 1012 66 10000 14.42 316 15:52 30.01.2022
3423 Clear 5 1012 66 10000 14.42 316 15:32 30.01.2022
3424 Clear 6 1012 64 10000 15.05 317 14:46 30.01.2022
3425 Clear 6 1011 65 10000 15.47 316 13:36 30.01.2022
3426 Clear 5 1009 66 10000 16.98 313 12:40 30.01.2022
3427 Clear 5 1007 67 10000 18.53 312 10:38 30.01.2022
3428 Clear 7 1005 66 10000 19.22 311 09:56 30.01.2022
3429 Clear 7 1003 67 10000 20.41 309 09:21 30.01.2022
3430 Clear 7 1001 69 10000 20.65 307 07:56 30.01.2022
3431 Clouds 7 997 74 10000 22.89 284 02:43 30.01.2022
3432 Clouds 7 997 71 10000 23.44 285 01:50 30.01.2022
3433 Clouds 7 998 77 10000 22.1 283 23:30 29.01.2022
3434 Clouds 7 998 72 10000 22.87 283 22:37 29.01.2022
3435 Clouds 7 997 72 10000 22.47 280 21:27 29.01.2022
3436 Clouds 8 997 72 10000 22.47 280 20:48 29.01.2022
3437 Clouds 8 997 76 10000 22.48 280 19:47 29.01.2022
3438 Clouds 9 996 81 10000 23.29 263 19:25 29.01.2022
3439 Clouds 10 998 82 10000 23.28 267 18:39 29.01.2022
3440 Clouds 10 997 80 10000 20.86 263 17:42 29.01.2022
3441 Clouds 10 999 90 10000 18.98 252 16:42 29.01.2022
3442 Clouds 10 1003 89 10000 18.38 254 15:20 29.01.2022
3443 Clouds 9 1005 95 10000 17.27 255 13:47 29.01.2022
3444 Clouds 9 1006 96 10000 15.28 251 13:26 29.01.2022
3445 Clouds 9 1006 96 10000 15.28 251 12:42 29.01.2022
3446 Clouds 8 1008 96 10000 14.09 251 11:38 29.01.2022
3447 Clouds 8 1009 95 10000 13.33 248 10:31 29.01.2022
3448 Rain 6 1012 94 10000 12.25 226 07:57 29.01.2022
3449 Clouds 5 1021 85 10000 8.69 227 01:37 29.01.2022
3450 Clouds 5 1023 87 10000 9.09 240 00:31 29.01.2022
3451 Clouds 5 1023 87 10000 9.09 240 00:31 29.01.2022
3452 Clouds 5 1024 85 10000 8.64 260 23:29 28.01.2022
3453 Clouds 5 1024 85 10000 8.64 260 22:46 28.01.2022
3454 Clouds 5 1025 84 10000 8.05 269 22:18 28.01.2022
3455 Clouds 4 1026 82 10000 7.67 269 20:40 28.01.2022
3456 Clouds 5 1026 82 10000 6.58 266 19:53 28.01.2022
3457 Clouds 6 1026 81 10000 6.36 281 18:51 28.01.2022
3458 Clouds 6 1026 79 10000 6.9 289 17:52 28.01.2022
3459 Clouds 7 1026 62 10000 7.42 319 15:50 28.01.2022
3460 Clouds 6 1025 57 10000 9.34 330 14:46 28.01.2022
3461 Clear 6 1023 64 10000 10.66 324 12:40 28.01.2022
3462 Clear 6 1022 66 10000 11.16 330 11:43 28.01.2022
3463 Clear 4 1020 77 10000 12.14 330 10:26 28.01.2022
3464 Clear 7 1020 77 10000 12.14 330 09:46 28.01.2022
3465 Clear 5 1016 78 10000 13.14 318 07:41 28.01.2022
3466 Clouds 5 1013 75 10000 13.81 314 05:31 28.01.2022
3467 Clouds 6 1010 75 10000 14.79 306 03:50 28.01.2022
3468 Clouds 6 1008 76 10000 16.39 303 02:24 28.01.2022
3469 Clouds 6 1008 76 10000 16.39 303 01:37 28.01.2022
3470 Clouds 6 1006 77 10000 17.54 303 00:39 28.01.2022
3471 Clouds 6 1003 91 5652 19.05 288 22:18 27.01.2022
3472 Clouds 7 1003 91 5652 19.05 288 21:34 27.01.2022
3473 Clouds 6 1003 78 10000 18.9 277 20:59 27.01.2022
3474 Clouds 6 1003 79 10000 19.11 277 19:37 27.01.2022
3475 Clouds 7 1004 78 10000 18.31 272 18:18 27.01.2022
3476 Clouds 7 1004 77 10000 17.38 275 16:45 27.01.2022
3477 Clouds 10 1005 78 10000 14.85 270 13:57 27.01.2022
3478 Clouds 8 1006 82 10000 14.18 271 12:48 27.01.2022
3479 Clouds 7 1006 94 10000 15.45 251 11:24 27.01.2022
3480 Clouds 6 1007 93 10000 15.88 249 09:47 27.01.2022
3481 Clouds 6 1008 92 10000 16.01 250 08:40 27.01.2022
3482 Clouds 6 1008 91 10000 16.01 251 07:31 27.01.2022
3483 Clouds 6 1013 91 10000 14.79 242 03:19 27.01.2022
3484 Clouds 6 1017 92 10000 12.18 250 00:23 27.01.2022
3485 Clouds 6 1018 92 10000 11.97 260 22:27 26.01.2022
3486 Clouds 6 1018 92 10000 11.97 260 21:44 26.01.2022
3487 Clouds 6 1019 91 10000 11.94 262 20:49 26.01.2022
3488 Clouds 6 1019 91 10000 11.94 262 20:31 26.01.2022
3489 Clouds 6 1019 92 10000 12.31 264 19:38 26.01.2022
3490 Clouds 5 1019 93 10000 12.53 262 18:47 26.01.2022
3491 Clouds 5 1020 93 10000 12.89 261 18:18 26.01.2022
3492 Clouds 5 1020 93 10000 12.89 261 17:33 26.01.2022
3493 Clouds 5 1020 91 10000 13.17 260 16:47 26.01.2022
3494 Clouds 5 1020 90 10000 13.69 260 16:22 26.01.2022
3495 Clouds 5 1021 90 10000 13.74 258 14:40 26.01.2022
3496 Clouds 5 1023 89 10000 12.47 260 12:20 26.01.2022
3497 Clouds 5 1024 89 10000 12.37 262 10:52 26.01.2022
3498 Clouds 5 1024 89 10000 11.37 260 09:52 26.01.2022
3499 Clouds 5 1024 90 10000 10.97 260 08:49 26.01.2022
3500 Clouds 6 1024 92 10000 9.78 267 06:42 26.01.2022
3501 Clouds 6 1027 96 10000 7.79 275 00:24 26.01.2022
3502 Clouds 6 1027 96 10000 7.79 275 23:41 25.01.2022
3503 Clouds 7 1027 97 10000 6.91 272 22:48 25.01.2022
3504 Clouds 7 1028 98 10000 6.19 269 22:18 25.01.2022
3505 Clouds 7 1028 97 10000 6.11 271 21:27 25.01.2022
3506 Clouds 7 1028 97 10000 6.11 271 20:45 25.01.2022
3507 Clouds 7 1028 95 10000 5.97 276 19:57 25.01.2022
3508 Clouds 7 1028 93 10000 6.15 282 19:28 25.01.2022
3509 Clouds 7 1028 90 10000 6.9 286 17:56 25.01.2022
3510 Clouds 7 1028 94 10000 6.88 281 17:20 25.01.2022
3511 Clouds 7 1028 94 10000 6.88 281 16:34 25.01.2022
3512 Clouds 7 1028 94 10000 6.75 277 15:39 25.01.2022
3513 Clouds 7 1028 94 10000 6.87 274 15:19 25.01.2022
3514 Clouds 7 1028 94 10000 6.87 274 14:51 25.01.2022
3515 Clouds 7 1029 94 10000 6.82 269 12:20 25.01.2022
3516 Clouds 6 1029 95 10000 6.67 277 09:35 25.01.2022
3517 Clouds 6 1028 93 10000 8.14 291 07:52 25.01.2022
3518 Clouds 6 1028 93 10000 8.86 276 07:21 25.01.2022
3519 Clouds 6 1029 87 10000 9.03 269 05:26 25.01.2022
3520 Clouds 6 1030 87 10000 8.23 263 00:35 25.01.2022
3521 Clouds 6 1030 89 10000 8.45 263 23:36 24.01.2022
3522 Clouds 6 1030 90 10000 7.77 268 23:18 24.01.2022
3523 Clouds 6 1030 90 10000 7.77 268 22:42 24.01.2022
3524 Clouds 6 1031 89 10000 7.93 272 22:23 24.01.2022
3525 Clouds 6 1031 89 10000 7.93 272 21:42 24.01.2022
3526 Clouds 6 1031 89 10000 8.29 266 21:24 24.01.2022
3527 Clouds 6 1030 89 10000 8.53 262 20:27 24.01.2022
3528 Clouds 6 1030 89 10000 8.53 262 19:38 24.01.2022
3529 Clouds 5 1031 88 10000 8.55 262 18:50 24.01.2022
3530 Clouds 5 1031 89 10000 8.47 261 18:50 24.01.2022
3531 Clouds 5 1031 88 10000 8.16 257 17:42 24.01.2022
3532 Clouds 5 1031 89 10000 7.98 254 17:22 24.01.2022
3533 Clouds 6 1031 89 10000 7.98 254 16:31 24.01.2022
3534 Clouds 6 1031 90 10000 7.99 252 15:35 24.01.2022
3535 Clouds 6 1031 91 10000 7.43 252 13:59 24.01.2022
3536 Clouds 6 1031 91 10000 7.76 252 12:34 24.01.2022
3537 Clouds 6 1032 92 10000 7.86 250 11:42 24.01.2022
3538 Clouds 6 1032 93 10000 7.03 246 10:19 24.01.2022
3539 Clouds 6 1032 93 10000 7.03 246 09:45 24.01.2022
3540 Clouds 5 1032 93 10000 6.47 262 08:18 24.01.2022
3541 Clouds 6 1032 94 10000 6.62 263 02:26 24.01.2022
3542 Clouds 7 1032 94 10000 6.28 266 01:26 24.01.2022
3543 Clouds 7 1033 93 10000 6.26 270 00:32 24.01.2022
3544 Clouds 7 1032 95 10000 5.88 267 23:46 23.01.2022
3545 Clouds 7 1032 97 10000 5.64 263 22:21 23.01.2022
3546 Clouds 7 1032 97 10000 5.64 263 21:41 23.01.2022
3547 Clouds 7 1032 96 10000 4.87 255 21:23 23.01.2022
3548 Clouds 7 1032 96 10000 4.17 260 20:28 23.01.2022
3549 Clouds 7 1032 96 10000 3.64 268 19:19 23.01.2022
3550 Clouds 7 1032 92 10000 4.56 272 18:41 23.01.2022
3551 Clouds 7 1032 93 10000 4.09 274 17:25 23.01.2022
3552 Clouds 7 1031 93 10000 4.08 276 16:18 23.01.2022
3553 Clouds 7 1031 94 10000 4.41 285 14:54 23.01.2022
3554 Clouds 7 1031 94 10000 4.78 292 14:19 23.01.2022
3555 Clouds 8 1031 95 10000 4.73 301 12:47 23.01.2022
3556 Clouds 8 1031 95 10000 4.97 290 12:21 23.01.2022
3557 Clouds 7 1031 95 10000 4.8 298 11:27 23.01.2022
3558 Clouds 7 1031 95 10000 4.8 298 10:59 23.01.2022
3559 Clouds 7 1030 96 10000 4.89 300 10:25 23.01.2022
3560 Clouds 7 1030 96 10000 4.89 300 09:33 23.01.2022
3561 Clouds 7 1030 97 10000 4.97 298 08:51 23.01.2022
3562 Clouds 6 1028 96 10000 5.81 292 04:41 23.01.2022
3563 Clouds 6 1028 95 10000 5.09 290 01:43 23.01.2022
3564 Clouds 6 1027 95 10000 4.89 282 00:56 23.01.2022
3565 Clouds 6 1027 94 10000 4.58 277 00:22 23.01.2022
3566 Clouds 6 1027 94 10000 4.89 254 23:19 22.01.2022
3567 Clouds 6 1027 94 10000 4.89 254 22:34 22.01.2022
3568 Clouds 6 1027 94 10000 4.89 254 22:34 22.01.2022
3569 Clouds 6 1028 88 10000 4.53 220 21:18 22.01.2022
3570 Clouds 5 1028 79 10000 4.29 211 19:49 22.01.2022
3571 Clouds 5 1028 65 10000 4.05 211 18:45 22.01.2022
3572 Clouds 5 1028 61 10000 3.6 208 17:56 22.01.2022
3573 Clouds 5 1028 61 10000 3.6 208 17:35 22.01.2022
3574 Clouds 5 1028 59 10000 2.87 215 16:55 22.01.2022
3575 Clouds 3 1028 57 10000 3.04 229 15:49 22.01.2022
3576 Clouds 6 1027 56 10000 2.48 235 14:57 22.01.2022
3577 Clouds 3 1028 54 10000 2.2 256 13:39 22.01.2022
3578 Clouds 3 1028 50 10000 1.48 254 12:48 22.01.2022
3579 Clouds 2 1028 49 10000 0.3 348 12:28 22.01.2022
3580 Clouds 3 1028 51 10000 1.73 30 10:56 22.01.2022
3581 Clouds 2 1027 54 10000 2.63 11 10:28 22.01.2022
3582 Clouds 2 1027 54 10000 2.63 11 09:58 22.01.2022
3583 Clouds 2 1027 57 10000 3.52 12 08:51 22.01.2022
3584 Clouds 2 1026 59 10000 4.47 21 07:34 22.01.2022
3585 Clouds 3 1024 62 10000 5.47 14 04:52 22.01.2022
3586 Clouds 3 1024 62 10000 5.47 14 04:52 22.01.2022
3587 Clouds 5 1022 77 10000 7.01 17 01:34 22.01.2022
3588 Clouds 6 1021 82 10000 7.07 349 23:38 21.01.2022
3589 Clouds 6 1021 82 10000 8.69 346 22:28 21.01.2022
3590 Clouds 5 1020 93 10000 8.13 307 20:22 21.01.2022
3591 Rain 6 1019 92 10000 9.82 303 18:39 21.01.2022
3592 Clouds 5 1020 88 10000 11.07 293 17:28 21.01.2022
3593 Clouds 4 1020 83 10000 10.36 296 15:42 21.01.2022
3594 Clear 4 1021 68 10000 11.03 300 13:37 21.01.2022
3595 Clouds 3 1021 68 10000 11.34 306 12:38 21.01.2022
3596 Clouds 3 1022 63 10000 11.21 313 11:28 21.01.2022
3597 Clouds 4 1022 62 10000 11.92 316 10:19 21.01.2022
3598 Clear 2 1021 64 10000 13.15 319 08:24 21.01.2022
3599 Clouds 2 1021 64 10000 12.68 319 06:57 21.01.2022
3600 Clouds 2 1018 64 10000 14.86 321 23:40 20.01.2022
3601 Clouds 3 1018 63 10000 14.82 324 22:41 20.01.2022
3602 Clouds 2 1017 63 10000 14.62 325 21:43 20.01.2022
3603 Clouds 2 1017 61 10000 14.64 332 20:53 20.01.2022
3604 Clouds 2 1016 50 10000 15.21 340 19:20 20.01.2022
3605 Clouds 2 1016 50 10000 15.21 340 18:51 20.01.2022
3606 Clouds 2 1014 45 10000 14.99 339 17:30 20.01.2022
3607 Clouds 3 1012 55 10000 13.21 334 15:45 20.01.2022
3608 Clouds 3 1012 57 10000 12.79 334 15:24 20.01.2022
3609 Rain 5 1011 62 10000 12.65 323 13:42 20.01.2022
3610 Snow 2 1011 60 10000 14.51 325 12:35 20.01.2022
3611 Clouds 5 1011 64 10000 14.95 319 11:57 20.01.2022
3612 Clouds 5 1010 63 10000 15.51 325 10:47 20.01.2022
3613 Clouds 3 1010 64 10000 16.12 326 09:42 20.01.2022
3614 Clouds 2 1008 63 10000 17.01 319 08:35 20.01.2022
3615 Clouds 2 1008 63 10000 17.01 319 08:35 20.01.2022
3616 Clouds 2 1006 57 10000 17.22 313 05:38 20.01.2022
3617 Clouds 5 1006 65 10000 16.81 290 23:42 19.01.2022
3618 Clouds 6 1006 69 10000 16.88 290 22:37 19.01.2022
3619 Rain 6 1004 90 10000 15.91 245 21:24 19.01.2022
3620 Clouds 5 1004 90 10000 15.91 245 20:53 19.01.2022
3621 Clouds 5 1005 89 10000 14.57 230 20:22 19.01.2022
3622 Clouds 5 1007 88 10000 13.43 233 18:49 19.01.2022
3623 Clouds 5 1008 86 10000 12.61 235 17:50 19.01.2022
3624 Clouds 4 1009 84 10000 11.52 229 16:59 19.01.2022
3625 Clouds 5 1013 85 10000 9.72 224 14:43 19.01.2022
3626 Clouds 5 1017 88 10000 9.51 231 13:20 19.01.2022
3627 Clouds 5 1018 86 10000 10.12 228 11:54 19.01.2022
3628 Clouds 3 1019 88 10000 9.79 227 10:52 19.01.2022
3629 Clouds 3 1021 90 10000 9.09 230 09:35 19.01.2022
3630 Clouds 3 1022 92 10000 8.9 238 08:20 19.01.2022
3631 Clouds 4 1025 91 10000 9.74 246 05:19 19.01.2022
3632 Clouds 5 1029 92 10000 10.46 255 23:53 18.01.2022
3633 Clouds 5 1030 92 10000 10.67 255 23:18 18.01.2022
3634 Clouds 6 1030 93 10000 10.43 253 21:43 18.01.2022
3635 Clouds 6 1031 94 10000 9.08 249 20:22 18.01.2022
3636 Clouds 6 1030 93 10000 9.33 253 19:45 18.01.2022
3637 Clouds 6 1031 94 10000 8.42 255 19:25 18.01.2022
3638 Clouds 6 1031 95 10000 7.82 258 18:18 18.01.2022
3639 Clouds 6 1031 95 10000 7.82 258 17:31 18.01.2022
3640 Clouds 6 1032 95 10000 7.96 266 16:18 18.01.2022
3641 Clouds 7 1032 94 10000 7.96 266 15:25 18.01.2022
3642 Clouds 7 1033 91 10000 6.34 264 14:22 18.01.2022
3643 Clouds 6 1032 93 10000 4.48 249 11:31 18.01.2022
3644 Clouds 5 1032 87 10000 4.02 282 09:59 18.01.2022
3645 Clouds 3 1032 85 10000 4.13 308 08:29 18.01.2022
3646 Clouds 3 1032 85 10000 4.13 308 07:42 18.01.2022
3647 Clear 3 1030 81 10000 7.26 303 00:38 18.01.2022
3648 Clear 4 1028 78 10000 7.59 305 22:40 17.01.2022
3649 Clear 4 1028 77 10000 7.64 311 21:42 17.01.2022
3650 Clear 4 1027 75 10000 7.84 318 20:44 17.01.2022
3651 Clear 5 1025 71 10000 9.65 328 18:46 17.01.2022
3652 Clear 5 1024 70 10000 10.42 330 18:24 17.01.2022
3653 Clear 6 1023 68 10000 11.57 326 17:22 17.01.2022
3654 Clear 5 1022 66 10000 12.25 323 15:54 17.01.2022
3655 Clear 5 1021 65 10000 12.65 325 14:58 17.01.2022
3656 Clear 6 1021 65 10000 12.65 325 14:31 17.01.2022
3657 Clouds 5 1019 68 10000 13.6 323 13:18 17.01.2022
3658 Clouds 7 1017 68 10000 13.51 321 11:53 17.01.2022
3659 Clouds 5 1016 68 10000 13.62 323 10:52 17.01.2022
3660 Clouds 4 1014 68 10000 14.83 329 09:46 17.01.2022
3661 Clouds 7 1013 78 9422 15.57 323 08:43 17.01.2022
3662 Clouds 7 1009 81 10000 19.02 305 07:20 17.01.2022
3663 Clouds 6 1013 81 10000 16.41 275 00:59 17.01.2022
3664 Clouds 6 1014 82 10000 14.29 279 23:27 16.01.2022
3665 Clouds 6 1013 90 10000 13.95 274 20:51 16.01.2022
3666 Clouds 6 1013 87 10000 14.27 272 19:56 16.01.2022
3667 Clouds 6 1013 88 10000 14.27 267 18:45 16.01.2022
3668 Clouds 6 1013 90 10000 13.28 259 17:47 16.01.2022
3669 Rain 5 1013 92 10000 12.64 258 16:53 16.01.2022
3670 Clouds 5 1014 93 10000 12.65 259 15:40 16.01.2022
3671 Clouds 5 1014 92 10000 11.59 255 14:29 16.01.2022
3672 Clouds 4 1014 92 10000 10.6 253 13:21 16.01.2022
3673 Clouds 3 1015 90 10000 10.39 252 11:56 16.01.2022
3674 Clouds 3 1015 89 10000 9.88 252 11:27 16.01.2022
3675 Clouds 2 1016 90 10000 9.14 244 10:27 16.01.2022
3676 Clouds 2 1016 90 10000 9.14 244 09:57 16.01.2022
3677 Clouds 2 1016 93 10000 7.78 228 09:23 16.01.2022
3678 Clouds 2 1016 93 10000 7.78 228 08:53 16.01.2022
3679 Clouds 2 1018 90 10000 6.67 225 05:52 16.01.2022
3680 Clouds 2 1023 89 10000 5.54 230 00:19 16.01.2022
3681 Clouds 2 1024 89 10000 5.52 231 22:49 15.01.2022
3682 Clouds 3 1025 88 10000 5.51 235 21:21 15.01.2022
3683 Clouds 3 1025 88 10000 5.51 235 20:44 15.01.2022
3684 Clouds 3 1025 88 10000 5.28 242 20:18 15.01.2022
3685 Clouds 4 1026 88 10000 4.92 248 19:25 15.01.2022
3686 Clouds 3 1026 88 10000 4.31 249 17:52 15.01.2022
3687 Clouds 4 1026 86 10000 3.95 260 16:43 15.01.2022
3688 Clouds 3 1027 83 10000 4.05 276 14:32 15.01.2022
3689 Clouds 3 1027 83 10000 4.05 276 14:32 15.01.2022
3690 Clouds 3 1027 82 10000 4.32 281 12:38 15.01.2022
3691 Clouds 5 1028 82 10000 3.97 296 11:20 15.01.2022
3692 Clouds 2 1028 83 10000 4.42 306 09:35 15.01.2022
3693 Clear 3 1028 81 10000 6.14 301 01:25 15.01.2022
3694 Clear 5 1028 83 10000 6.05 301 22:40 14.01.2022
3695 Clear 5 1028 81 10000 6.93 308 20:54 14.01.2022
3696 Clear 5 1028 79 10000 7.39 309 20:23 14.01.2022
3697 Clear 5 1028 79 10000 7.39 309 19:49 14.01.2022
3698 Clouds 6 1027 79 10000 7.7 310 18:33 14.01.2022
3699 Clouds 7 1027 75 10000 8.89 319 16:56 14.01.2022
3700 Clouds 7 1027 75 10000 8.89 319 16:38 14.01.2022
3701 Clouds 7 1025 74 10000 10.85 320 14:50 14.01.2022
3702 Clear 7 1025 75 10000 11.7 316 14:20 14.01.2022
3703 Clouds 8 1025 78 10000 11.97 311 12:37 14.01.2022
3704 Clouds 8 1024 83 10000 12.83 304 11:34 14.01.2022
3705 Clouds 8 1024 94 10000 13.92 283 10:22 14.01.2022
3706 Clouds 7 1024 94 10000 14.45 280 08:52 14.01.2022
3707 Clouds 7 1023 93 10000 15.49 273 07:29 14.01.2022
3708 Clouds 7 1025 93 10000 14.98 272 01:43 14.01.2022
3709 Clouds 7 1026 92 10000 15.3 269 23:40 13.01.2022
3710 Clouds 8 1026 91 10000 14.31 265 21:46 13.01.2022
3711 Clouds 7 1027 89 10000 13.31 265 21:27 13.01.2022
3712 Clouds 8 1027 88 10000 13.28 271 19:44 13.01.2022
3713 Clouds 8 1027 89 10000 13.28 274 19:23 13.01.2022
3714 Clouds 8 1027 90 10000 13.04 273 18:36 13.01.2022
3715 Clouds 8 1028 91 10000 13.18 274 16:48 13.01.2022
3716 Clouds 8 1028 92 10000 12.93 275 15:38 13.01.2022
3717 Clouds 8 1028 91 10000 13.12 275 15:18 13.01.2022
3718 Clouds 7 1028 89 10000 14.07 277 13:22 13.01.2022
3719 Clouds 8 1029 92 10000 13.23 279 10:39 13.01.2022
3720 Clouds 7 1029 93 10000 12.9 277 09:23 13.01.2022
3721 Clouds 7 1029 94 10000 12.9 275 08:28 13.01.2022
3722 Clouds 7 1029 94 10000 12.9 275 07:58 13.01.2022
3723 Clouds 7 1029 94 10000 13.21 273 07:18 13.01.2022
3724 Clouds 7 1029 94 10000 13.64 269 05:20 13.01.2022
3725 Clouds 7 1029 95 10000 13.26 264 03:34 13.01.2022
3726 Clouds 7 1030 95 10000 12.75 261 01:38 13.01.2022
3727 Clouds 6 1031 93 10000 11.86 256 23:53 12.01.2022
3728 Clouds 6 1031 93 10000 11.86 256 23:33 12.01.2022
3729 Clouds 6 1032 93 10000 11.2 256 22:22 12.01.2022
3730 Clouds 6 1032 93 10000 11.2 256 21:43 12.01.2022
3731 Clouds 6 1032 92 10000 10.8 257 21:18 12.01.2022
3732 Clouds 6 1032 92 10000 10.8 257 20:44 12.01.2022
3733 Clouds 5 1032 91 10000 9.48 253 18:52 12.01.2022
3734 Clouds 5 1032 90 10000 9.05 253 18:18 12.01.2022
3735 Clouds 5 1033 90 10000 8.3 254 16:57 12.01.2022
3736 Clouds 5 1033 91 10000 8.05 251 15:38 12.01.2022
3737 Clouds 5 1034 90 10000 7.26 265 14:39 12.01.2022
3738 Clouds 7 1034 91 10000 5.5 265 12:57 12.01.2022
3739 Clouds 3 1033 93 10000 5.68 281 09:57 12.01.2022
3740 Clouds 3 1033 94 10000 5.91 257 07:58 12.01.2022
3741 Clouds 3 1033 94 10000 5.91 257 07:33 12.01.2022
3742 Clouds 2 1033 88 10000 6.71 220 02:38 12.01.2022
3743 Snow 1 1034 87 10000 6.84 207 23:27 11.01.2022
3744 Snow 1 1034 87 10000 6.84 207 22:40 11.01.2022
3745 Clouds 1 1034 86 10000 6.83 209 22:18 11.01.2022
3746 Clouds 1 1034 85 10000 6.92 204 20:40 11.01.2022
3747 Clouds 0 1034 85 10000 7.13 199 19:40 11.01.2022
3748 Clouds 1 1034 84 10000 6.34 192 17:55 11.01.2022
3749 Clouds 0 1034 84 10000 6.03 188 16:59 11.01.2022
3750 Clouds 0 1034 84 10000 6.03 188 16:35 11.01.2022
3751 Clear 0 1034 80 10000 5.44 189 14:57 11.01.2022
3752 Clear 0 1034 80 10000 5.44 189 14:39 11.01.2022
3753 Clear 0 1034 79 10000 5.78 187 13:53 11.01.2022
3754 Clear 0 1034 79 10000 5.78 187 13:31 11.01.2022
3755 Clear -1 1034 77 10000 5.93 184 12:37 11.01.2022
3756 Clear -1 1035 79 10000 6.43 182 10:45 11.01.2022
3757 Clear -3 1034 78 10000 6.44 170 08:27 11.01.2022
3758 Clear -2 1033 77 10000 6.48 166 06:22 11.01.2022
3759 Clear -1 1032 80 10000 5.88 145 00:28 11.01.2022
3760 Clear 0 1032 80 10000 5.88 145 23:40 10.01.2022
3761 Clear 0 1032 79 10000 5.38 146 22:43 10.01.2022
3762 Clear 0 1031 79 10000 5.88 140 22:18 10.01.2022
3763 Clear 0 1031 79 10000 5.88 140 21:42 10.01.2022
3764 Clear 0 1031 78 10000 6.12 135 21:18 10.01.2022
3765 Clear 1 1031 78 10000 6.12 135 20:55 10.01.2022
3766 Clear 1 1030 78 10000 6.25 134 20:24 10.01.2022
3767 Clear 1 1030 78 10000 6.25 134 19:41 10.01.2022
3768 Clear 1 1029 79 10000 6.41 127 19:19 10.01.2022
3769 Clear 1 1029 79 10000 6.41 127 18:48 10.01.2022
3770 Clouds 1 1027 77 10000 7.34 115 17:24 10.01.2022
3771 Clouds 2 1027 77 10000 7.34 115 16:41 10.01.2022
3772 Clouds 2 1025 77 10000 7.94 110 15:20 10.01.2022
3773 Clouds 3 1024 75 10000 7.51 111 13:39 10.01.2022
3774 Clouds 3 1022 76 10000 7.81 111 11:58 10.01.2022
3775 Clouds 3 1021 76 10000 8.02 113 11:24 10.01.2022
3776 Clouds 3 1020 78 10000 8.17 111 09:46 10.01.2022
3777 Clouds 2 1015 81 10000 8.07 111 06:47 10.01.2022
3778 Clouds 2 1014 82 10000 8.26 110 05:49 10.01.2022
3779 Clouds 2 1009 88 10000 8.49 116 01:30 10.01.2022
3780 Clouds 2 1007 89 10000 6.82 124 00:24 10.01.2022
3781 Clouds 2 1006 88 10000 6.83 128 23:29 09.01.2022
3782 Clouds 2 1006 88 10000 6.83 128 22:37 09.01.2022
3783 Clouds 2 1005 84 10000 6.89 128 21:46 09.01.2022
3784 Clouds 2 1004 79 10000 7.04 133 21:23 09.01.2022
3785 Clouds 2 1004 79 10000 7.04 133 20:51 09.01.2022
3786 Clouds 2 1004 79 10000 7.04 133 20:33 09.01.2022
3787 Clouds 2 1003 77 10000 7.13 136 19:44 09.01.2022
3788 Clouds 2 1002 76 10000 7.3 133 19:23 09.01.2022
3789 Clouds 2 1002 76 10000 7.3 133 18:52 09.01.2022
3790 Clouds 2 1002 76 10000 7.3 133 18:33 09.01.2022
3791 Clouds 2 1001 75 10000 7.24 136 17:40 09.01.2022
3792 Clouds 2 1000 75 10000 6.98 140 17:20 09.01.2022
3793 Clouds 2 999 74 10000 7.08 145 15:58 09.01.2022
3794 Clouds 2 999 74 10000 7.08 145 15:35 09.01.2022
3795 Clouds 2 998 73 10000 7.89 150 14:40 09.01.2022
3796 Clouds 3 998 73 10000 8.62 150 13:51 09.01.2022
3797 Clouds 3 998 73 10000 8.62 150 13:51 09.01.2022
3798 Clouds 2 997 74 10000 9.13 150 13:25 09.01.2022
3799 Clouds 2 997 76 10000 9.63 146 11:55 09.01.2022
3800 Clouds 2 997 77 10000 9.81 146 10:53 09.01.2022
3801 Clouds 1 996 78 10000 10.11 148 09:50 09.01.2022
3802 Clouds 1 996 77 10000 10.59 151 08:52 09.01.2022
3803 Clouds 1 995 78 10000 10.83 158 05:54 09.01.2022
3804 Clouds 2 998 81 10000 10.11 161 01:25 09.01.2022
3805 Clouds 2 998 82 10000 9.73 161 00:37 09.01.2022
3806 Clouds 2 1000 86 10000 8.79 171 23:27 08.01.2022
3807 Clouds 2 1000 86 10000 8.79 171 22:35 08.01.2022
3808 Clouds 2 1002 89 10000 8.09 190 21:26 08.01.2022
3809 Clouds 2 1002 89 10000 8.09 190 20:43 08.01.2022
3810 Clouds 2 1002 89 10000 8.12 204 20:21 08.01.2022
3811 Clouds 3 1002 89 10000 8.57 210 18:45 08.01.2022
3812 Clouds 3 1004 85 10000 9.96 232 17:24 08.01.2022
3813 Clouds 3 1004 85 10000 9.96 232 16:40 08.01.2022
3814 Clouds 4 1004 88 10000 9.77 239 14:50 08.01.2022
3815 Clouds 3 1004 91 10000 10.69 241 13:41 08.01.2022
3816 Clouds 3 1004 96 2807 9.23 221 11:30 08.01.2022
3817 Clouds 3 1005 91 10000 9.55 228 10:33 08.01.2022
3818 Clouds 2 1005 88 10000 8.9 221 09:57 08.01.2022
3819 Clouds 2 1005 88 10000 8.9 221 09:30 08.01.2022
3820 Clouds 3 1006 93 10000 8.01 228 05:39 08.01.2022
3821 Clouds 3 1007 88 10000 6.46 196 00:59 08.01.2022
3822 Clouds 3 1007 89 10000 6.97 207 23:30 07.01.2022
3823 Clouds 2 1008 90 10000 7.4 215 21:46 07.01.2022
3824 Clouds 3 1008 91 10000 8.17 220 20:26 07.01.2022
3825 Clouds 2 1008 94 10000 8 224 19:26 07.01.2022
3826 Clouds 3 1008 95 4835 7.83 220 18:46 07.01.2022
3827 Clouds 2 1008 98 90 7.96 216 18:18 07.01.2022
3828 Clouds 2 1008 98 56 8.27 216 17:23 07.01.2022
3829 Snow 2 1008 99 40 8.96 210 14:55 07.01.2022
3830 Snow 2 1008 98 44 9.15 206 13:52 07.01.2022
3831 Clouds 2 1009 97 60 9.33 204 12:51 07.01.2022
3832 Snow 2 1009 97 178 9.51 196 11:22 07.01.2022
3833 Clouds 2 1013 86 10000 8.89 216 04:25 07.01.2022
3834 Clouds 2 1013 86 10000 8.39 217 02:46 07.01.2022
3835 Clouds 1 1014 86 10000 7.9 220 01:48 07.01.2022
3836 Clouds 1 1014 86 10000 7.9 220 01:48 07.01.2022
3837 Clouds 1 1015 86 10000 7.49 221 01:25 07.01.2022
3838 Clouds 2 1014 85 10000 7.43 219 00:30 07.01.2022
3839 Clouds 2 1014 85 10000 7.43 219 00:30 07.01.2022
3840 Clouds 2 1015 84 10000 6.84 225 22:33 06.01.2022
3841 Clouds 2 1015 77 10000 6.75 221 20:51 06.01.2022
3842 Clear 2 1015 75 10000 6.51 226 20:18 06.01.2022
3843 Clear 1 1015 75 10000 6.51 226 19:38 06.01.2022
3844 Clear 2 1016 66 10000 5.42 239 17:51 06.01.2022
3845 Clear 2 1016 63 10000 4.66 258 17:27 06.01.2022
3846 Clear 3 1016 63 10000 4.66 258 16:38 06.01.2022
3847 Clear 4 1015 64 10000 5.25 281 15:44 06.01.2022
3848 Clear 4 1015 63 10000 5.31 296 15:22 06.01.2022
3849 Clear 3 1014 60 10000 5.51 319 14:20 06.01.2022
3850 Clear 3 1014 60 10000 5.51 319 13:41 06.01.2022
3851 Clear 2 1013 49 10000 8.94 343 12:28 06.01.2022
3852 Clear 2 1013 49 10000 8.94 343 11:31 06.01.2022
3853 Clear 2 1013 47 10000 9.88 344 10:59 06.01.2022
3854 Clouds 2 1008 52 10000 12.53 344 06:59 06.01.2022
3855 Clouds 3 1002 67 10000 12.37 340 00:35 06.01.2022
3856 Clouds 3 1001 75 10000 11.41 332 23:34 05.01.2022
3857 Clouds 4 999 74 10000 11.2 323 22:48 05.01.2022
3858 Clouds 4 998 72 10000 11.53 318 22:29 05.01.2022
3859 Clouds 4 998 72 10000 11.53 318 21:44 05.01.2022
3860 Clouds 5 997 76 10000 11.91 317 20:44 05.01.2022
3861 Clouds 5 995 78 10000 11.26 316 19:53 05.01.2022
3862 Clouds 5 993 86 10000 11.37 302 18:27 05.01.2022
3863 Clouds 5 992 85 10000 9.86 285 16:59 05.01.2022
3864 Clouds 4 991 94 4881 11.2 250 16:22 05.01.2022
3865 Clouds 5 991 95 6327 12.03 227 15:20 05.01.2022
3866 Clouds 5 991 89 10000 12.92 236 13:38 05.01.2022
3867 Clouds 5 992 86 10000 13.56 246 12:49 05.01.2022
3868 Clouds 3 992 84 10000 13.08 233 08:58 05.01.2022
3869 Clouds 3 991 84 10000 12.96 231 07:34 05.01.2022
3870 Clouds 2 992 84 10000 11.76 240 03:33 05.01.2022
3871 Clouds 3 992 83 10000 10.53 242 00:33 05.01.2022
3872 Clouds 3 992 84 10000 10.03 249 23:26 04.01.2022
3873 Clouds 3 992 84 10000 10.03 249 22:40 04.01.2022
3874 Clouds 3 992 86 10000 9.51 252 21:18 04.01.2022
3875 Clouds 4 991 87 10000 7.61 274 19:19 04.01.2022
3876 Clouds 6 991 88 10000 7.24 281 17:39 04.01.2022
3877 Clouds 6 991 95 10000 7.52 316 16:41 04.01.2022
3878 Clouds 6 990 97 3246 7.92 310 16:22 04.01.2022
3879 Rain 8 989 93 8643 7.92 245 14:53 04.01.2022
3880 Rain 8 989 93 8643 7.92 245 14:34 04.01.2022
3881 Clouds 8 991 88 10000 7.23 227 13:27 04.01.2022
3882 Clouds 8 993 90 10000 7.45 229 10:41 04.01.2022
3883 Clouds 8 994 91 10000 8.5 231 09:20 04.01.2022
3884 Clouds 8 994 89 10000 9.23 234 08:28 04.01.2022
3885 Clouds 8 997 81 10000 10.47 231 02:28 04.01.2022
3886 Clouds 8 997 81 10000 10.66 233 00:40 04.01.2022
3887 Clouds 8 998 83 10000 11.57 240 23:18 03.01.2022
3888 Clouds 8 999 85 10000 11.45 240 21:50 03.01.2022
3889 Clouds 8 999 85 10000 11.45 240 21:32 03.01.2022
3890 Clouds 8 1000 85 10000 11.46 248 19:47 03.01.2022
3891 Clouds 9 1000 84 10000 11.04 244 18:48 03.01.2022
3892 Clouds 8 1000 86 10000 10.88 244 18:27 03.01.2022
3893 Clouds 9 1001 85 10000 11.41 246 16:58 03.01.2022
3894 Clouds 10 1001 85 10000 12.81 245 14:56 03.01.2022
3895 Clouds 10 1001 85 10000 12.81 245 14:30 03.01.2022
3896 Clouds 10 1002 86 10000 13.03 248 12:46 03.01.2022
3897 Clouds 10 1002 87 10000 13.04 247 11:35 03.01.2022
3898 Clouds 9 1002 91 10000 10.66 252 10:27 03.01.2022
3899 Clouds 8 1002 93 10000 10.96 255 08:47 03.01.2022
3900 Clouds 8 1002 96 10000 10.13 262 07:34 03.01.2022
3901 Clouds 8 1002 96 10000 10.13 262 07:34 03.01.2022
3902 Clouds 9 1003 91 10000 11.18 260 23:56 02.01.2022
3903 Clouds 9 1003 91 10000 12.72 265 23:22 02.01.2022
3904 Clouds 10 1003 91 10000 12.72 265 22:53 02.01.2022
3905 Clouds 10 1003 93 10000 14.35 269 21:42 02.01.2022
3906 Clouds 10 1002 93 10000 13.83 268 20:38 02.01.2022
3907 Clouds 10 1001 92 10000 15.84 254 20:18 02.01.2022
3908 Clouds 11 1001 92 10000 15.84 254 19:30 02.01.2022
3909 Rain 11 1001 89 10000 14.66 246 18:46 02.01.2022
3910 Rain 11 1001 89 10000 14.66 246 18:46 02.01.2022
3911 Rain 12 1001 92 10000 12.74 245 17:54 02.01.2022
3912 Rain 12 1001 92 10000 12.74 245 17:36 02.01.2022
3913 Rain 12 1002 93 10000 11.12 247 17:18 02.01.2022
3914 Rain 12 1003 97 2897 10.74 248 16:26 02.01.2022
3915 Clouds 13 1003 97 2639 8.88 239 14:32 02.01.2022
3916 Rain 12 1006 99 2523 5.77 228 12:54 02.01.2022
3917 Clouds 12 1007 98 10000 7.65 234 12:22 02.01.2022
3918 Clouds 11 1007 98 10000 7.65 234 11:32 02.01.2022
3919 Clouds 11 1008 99 10000 7.95 241 10:46 02.01.2022
3920 Clouds 11 1008 99 8293 7.08 240 09:45 02.01.2022
3921 Rain 11 1011 96 10000 7.61 218 05:51 02.01.2022
3922 Clouds 11 1015 94 10000 7.93 205 01:48 02.01.2022
3923 Clouds 12 1017 97 10000 7.47 192 23:40 01.01.2022
3924 Clouds 12 1017 97 10000 6.85 180 22:58 01.01.2022
3925 Clouds 12 1019 97 10000 6.29 180 22:23 01.01.2022
3926 Clouds 12 1019 97 10000 6.29 180 21:44 01.01.2022
3927 Rain 12 1019 98 10000 5.79 172 20:56 01.01.2022
3928 Clouds 11 1020 99 10000 4.89 174 19:58 01.01.2022
3929 Rain 11 1020 99 10000 4.89 174 19:30 01.01.2022
3930 Rain 11 1020 98 10000 2.36 222 18:20 01.01.2022
3931 Clouds 11 1021 98 10000 3.74 255 16:43 01.01.2022
3932 Clouds 11 1021 98 10000 4.64 262 16:20 01.01.2022
3933 Clouds 11 1021 98 10000 4.64 262 15:30 01.01.2022
3934 Clouds 11 1020 99 10000 6.03 264 14:21 01.01.2022
3935 Clouds 11 1020 98 10000 6.84 269 12:50 01.01.2022
3936 Clouds 11 1020 98 10000 8.1 267 11:59 01.01.2022
3937 Clouds 11 1019 97 10000 8.72 267 11:24 01.01.2022
3938 Clouds 11 1019 97 10000 8.72 267 10:42 01.01.2022
3939 Clouds 11 1019 97 10000 9.14 268 09:47 01.01.2022
3940 Clouds 11 1017 99 6675 9.39 266 08:26 01.01.2022
3941 Clouds 11 1017 99 6675 9.39 266 07:56 01.01.2022
3942 Clouds 10 1017 99 6675 9.39 266 07:37 01.01.2022
3943 Clouds 11 1016 98 10000 9.08 266 06:42 01.01.2022
3944 Clouds 11 1015 99 4641 8.66 266 04:38 01.01.2022
3945 Clouds 11 1015 98 4514 8.36 272 03:38 01.01.2022
3946 Clouds 11 1012 99 440 9.92 267 23:52 31.12.2021
3947 Clouds 11 1012 99 420 8.95 271 21:55 31.12.2021
3948 Clouds 11 1011 99 825 8.94 270 20:49 31.12.2021
3949 Clouds 11 1010 99 1148 9.62 273 19:31 31.12.2021
3950 Clouds 7 1010 99 4473 9.31 269 18:46 31.12.2021
3951 Clouds 12 1009 98 5040 10.4 269 17:49 31.12.2021
3952 Clouds 12 1008 98 10000 10.88 267 17:22 31.12.2021
3953 Clouds 12 1008 98 10000 10.88 267 16:46 31.12.2021
3954 Clouds 12 1008 98 10000 11.51 262 16:18 31.12.2021
3955 Clouds 12 1008 98 10000 11.51 262 15:42 31.12.2021
3956 Clouds 12 1008 97 10000 12.22 262 15:20 31.12.2021
3957 Clouds 13 1008 97 10000 12.22 262 14:37 31.12.2021
3958 Rain 13 1007 97 10000 12.42 256 13:45 31.12.2021
3959 Rain 13 1007 97 10000 12.42 256 13:45 31.12.2021
3960 Clouds 13 1008 96 10000 13.21 255 12:50 31.12.2021
3961 Clouds 13 1008 92 10000 13.86 250 12:19 31.12.2021
3962 Clouds 13 1008 92 10000 13.86 250 11:41 31.12.2021
3963 Clouds 13 1008 91 10000 13.97 250 10:50 31.12.2021
3964 Clouds 13 1008 92 10000 13.82 248 10:28 31.12.2021
3965 Clouds 12 1008 92 10000 13.82 248 09:34 31.12.2021
3966 Clouds 12 1008 94 10000 13.37 249 08:50 31.12.2021
3967 Clouds 12 1008 96 10000 12.94 250 07:53 31.12.2021
3968 Rain 12 1009 99 403 9.06 251 02:36 31.12.2021
3969 Clouds 12 1009 98 10000 10.95 259 23:18 30.12.2021
3970 Clouds 11 1009 98 10000 10.95 259 22:31 30.12.2021
3971 Clouds 11 1009 98 10000 11.21 260 21:39 30.12.2021
3972 Clouds 11 1008 99 5503 11.05 256 21:19 30.12.2021
3973 Clouds 11 1008 99 5503 11.05 256 20:39 30.12.2021
3974 Clouds 11 1008 99 536 9.77 254 19:55 30.12.2021
3975 Clouds 11 1008 99 536 9.77 254 19:31 30.12.2021
3976 Clouds 11 1007 99 397 8.29 240 18:26 30.12.2021
3977 Clouds 10 1007 99 442 6.9 221 16:53 30.12.2021
3978 Clouds 10 1006 99 638 6.35 219 15:54 30.12.2021
3979 Clouds 9 1007 99 2336 6.68 224 15:21 30.12.2021
3980 Clouds 8 1007 99 2336 6.68 224 14:36 30.12.2021
3981 Rain 8 1007 98 988 9.11 229 13:26 30.12.2021
3982 Clouds 8 1007 96 10000 8.72 227 11:58 30.12.2021
3983 Clouds 7 1008 95 10000 8.86 236 10:40 30.12.2021
3984 Clouds 7 1007 96 10000 8.6 237 09:49 30.12.2021
3985 Clouds 6 1006 98 1145 8.14 234 07:25 30.12.2021
3986 Clouds 6 1006 98 1291 8.78 239 06:32 30.12.2021
3987 Clouds 3 1006 97 10000 7.4 181 03:41 30.12.2021
3988 Clouds 3 1006 97 10000 7.21 177 02:35 30.12.2021
3989 Rain 2 1007 99 77 5.66 171 23:40 29.12.2021
3990 Clouds 2 1007 99 240 5.23 159 22:59 29.12.2021
3991 Clouds 2 1008 98 2818 5.37 195 22:18 29.12.2021
3992 Clouds 2 1007 96 10000 4.14 171 21:19 29.12.2021
3993 Clouds 2 1007 96 10000 4.14 171 20:31 29.12.2021
3994 Clouds 2 1007 94 10000 3.49 177 19:44 29.12.2021
3995 Clouds 2 1007 91 10000 2.74 202 18:45 29.12.2021
3996 Clouds 2 1007 89 10000 3.22 215 17:53 29.12.2021
3997 Clouds 2 1007 88 10000 2.4 202 17:27 29.12.2021
3998 Clouds 2 1007 88 10000 2.4 202 17:27 29.12.2021
3999 Clouds 2 1005 88 10000 2.87 95 16:24 29.12.2021
4000 Clouds 2 1005 88 10000 2.87 95 15:45 29.12.2021
4001 Clouds 3 1005 87 10000 1.19 2 13:55 29.12.2021
4002 Clouds 3 1005 88 10000 0.86 286 12:37 29.12.2021
4003 Clouds 2 1004 88 10000 0.25 31 11:35 29.12.2021
4004 Clouds 2 1003 90 10000 0.65 66 09:58 29.12.2021
4005 Clouds 2 1002 91 10000 2.13 127 07:52 29.12.2021
4006 Clouds 2 1000 92 10000 2.28 122 06:39 29.12.2021
4007 Clouds 2 1000 93 10000 2.92 123 06:18 29.12.2021
4008 Clouds 1 1000 93 10000 2.92 123 05:39 29.12.2021
4009 Clouds 1 999 93 10000 3.15 140 02:48 29.12.2021
4010 Clouds 1 997 92 10000 5.82 139 00:23 29.12.2021
4011 Clouds 1 997 92 10000 5.82 139 23:35 28.12.2021
4012 Clouds 1 997 91 10000 6.25 140 22:42 28.12.2021
4013 Clouds 1 997 90 10000 6.63 136 22:24 28.12.2021
4014 Clouds 1 997 90 10000 6.63 136 21:52 28.12.2021
4015 Clouds 1 997 89 10000 7.38 141 20:40 28.12.2021
4016 Snow 0 997 90 10000 7.83 143 19:31 28.12.2021
4017 Clouds 0 997 91 10000 8.33 141 18:44 28.12.2021
4018 Clouds 0 997 91 10000 8.29 141 18:19 28.12.2021
4019 Clouds -1 997 90 10000 8.67 145 16:35 28.12.2021
4020 Clouds -1 997 90 10000 9.06 148 15:51 28.12.2021
4021 Snow -1 998 91 10000 9.49 147 15:23 28.12.2021
4022 Snow -1 998 91 10000 9.49 147 14:50 28.12.2021
4023 Snow -1 998 90 10000 9.7 146 14:21 28.12.2021
4024 Snow -1 998 90 10000 9.7 146 14:21 28.12.2021
4025 Snow -2 998 90 10000 9.7 146 13:51 28.12.2021
4026 Snow -2 998 90 10000 9.7 146 13:51 28.12.2021
4027 Clouds -2 999 88 10000 9.82 147 13:28 28.12.2021
4028 Clouds -2 999 88 10000 9.82 147 12:49 28.12.2021
4029 Clouds -2 1000 88 10000 9.53 147 11:51 28.12.2021
4030 Clouds -3 1001 87 10000 10.36 150 09:27 28.12.2021
4031 Clouds -3 1001 86 10000 10.59 145 07:31 28.12.2021
4032 Clouds -2 1006 87 10000 10.06 142 02:22 28.12.2021
4033 Snow -2 1006 86 10000 10.85 142 23:26 27.12.2021
4034 Snow -2 1007 87 10000 10.72 143 21:54 27.12.2021
4035 Snow -2 1007 86 7522 10.81 142 21:29 27.12.2021
4036 Clouds -2 1008 77 10000 10.33 140 20:24 27.12.2021
4037 Clouds -2 1008 77 10000 10.33 140 20:24 27.12.2021
4038 Clouds -3 1008 77 10000 10.33 140 19:45 27.12.2021
4039 Clouds -3 1008 74 10000 10.49 138 18:56 27.12.2021
4040 Clouds -2 1008 71 10000 10.47 136 17:50 27.12.2021
4041 Clouds -3 1008 69 10000 10.4 133 17:27 27.12.2021
4042 Clouds -3 1008 66 10000 9.94 137 15:53 27.12.2021
4043 Clouds -3 1008 65 10000 9.82 137 14:35 27.12.2021
4044 Clouds -3 1008 64 10000 10.1 138 13:59 27.12.2021
4045 Clear -3 1009 61 10000 10.36 140 12:49 27.12.2021
4046 Clear -4 1010 61 10000 10.91 138 10:37 27.12.2021
4047 Clear -4 1011 61 10000 10.73 138 10:18 27.12.2021
4048 Clear -6 1011 61 10000 10.69 138 08:42 27.12.2021
4049 Clear -6 1011 61 10000 10.69 138 08:42 27.12.2021
4050 Clear -6 1011 61 10000 10.59 138 07:34 27.12.2021
4051 Clear -7 1013 61 10000 8.08 142 02:29 27.12.2021
4052 Clear -7 1014 62 10000 7.43 145 00:57 27.12.2021
4053 Clear -6 1014 61 10000 6.76 147 23:43 26.12.2021
4054 Clear -6 1014 61 10000 6.44 151 23:19 26.12.2021
4055 Clear -6 1015 61 10000 6.27 156 21:33 26.12.2021
4056 Clear -7 1015 67 10000 5.23 159 19:55 26.12.2021
4057 Clouds -6 1015 70 10000 4.57 157 18:45 26.12.2021
4058 Clouds -6 1015 72 10000 3.59 163 18:21 26.12.2021
4059 Clouds -4 1015 75 10000 3.2 193 15:53 26.12.2021
4060 Clouds 0 1015 77 10000 4.56 220 13:51 26.12.2021
4061 Clouds 0 1015 77 10000 4.56 220 13:32 26.12.2021
4062 Clouds -2 1015 80 10000 4.47 228 12:37 26.12.2021
4063 Clouds -2 1014 81 10000 4.68 233 11:24 26.12.2021
4064 Clouds -4 1014 79 10000 4.2 243 09:42 26.12.2021
4065 Clouds -6 1014 77 10000 4.28 253 08:50 26.12.2021
4066 Clouds -6 1013 76 10000 4.56 265 08:27 26.12.2021
4067 Clouds -5 1013 74 10000 4.82 265 05:59 26.12.2021
4068 Clear -4 1013 75 10000 6.9 255 00:45 26.12.2021
4069 Clear -4 1014 74 10000 6.68 251 23:49 25.12.2021
4070 Clear -4 1014 69 10000 6.02 255 23:25 25.12.2021
4071 Clear -4 1014 64 10000 5.35 259 22:21 25.12.2021
4072 Clear -4 1013 62 10000 4.77 267 20:48 25.12.2021
4073 Clear -3 1013 62 10000 4.66 285 19:21 25.12.2021
4074 Clear -3 1013 62 10000 4.66 285 18:54 25.12.2021
4075 Clear -2 1013 64 10000 4.79 287 16:58 25.12.2021
4076 Clear -1 1013 65 10000 4.99 292 15:54 25.12.2021
4077 Clear -1 1012 66 10000 5.06 294 14:38 25.12.2021
4078 Clear -1 1012 65 10000 7.54 294 12:48 25.12.2021
4079 Clear 0 1012 62 10000 8.06 293 11:37 25.12.2021
4080 Clear -3 1012 58 10000 7.7 288 09:49 25.12.2021
4081 Clear -5 1011 57 10000 6.84 288 08:19 25.12.2021
4082 Clear -4 1009 53 10000 6.96 360 02:22 25.12.2021
4083 Clear -2 1009 51 10000 7.19 357 00:33 25.12.2021
4084 Clear -2 1008 54 10000 7.78 356 23:38 24.12.2021
4085 Clear -2 1006 60 10000 8.91 5 19:40 24.12.2021
4086 Clouds -2 1005 62 10000 9.71 13 19:22 24.12.2021
4087 Clouds -1 1003 56 10000 10.91 4 16:50 24.12.2021
4088 Clouds -1 1001 74 10000 11.72 5 16:21 24.12.2021
4089 Clouds 0 1001 74 10000 11.72 5 15:46 24.12.2021
4090 Rain 2 1000 83 7541 12.47 7 14:47 24.12.2021
4091 Clouds 2 998 90 5784 13.02 6 14:24 24.12.2021
4092 Clouds 3 998 90 5784 13.02 6 13:39 24.12.2021
4093 Clouds 3 995 91 5718 11.46 289 12:48 24.12.2021
4094 Clouds 3 996 84 10000 8.88 277 11:58 24.12.2021
4095 Clouds 3 996 84 10000 8.06 282 11:27 24.12.2021
4096 Clouds 3 996 84 10000 8.06 282 10:53 24.12.2021
4097 Clouds 2 996 84 10000 6.98 289 10:22 24.12.2021
4098 Clouds 2 996 81 10000 4.43 302 08:26 24.12.2021
4099 Snow 2 996 81 10000 4.43 302 07:50 24.12.2021
4100 Clouds 1 997 83 10000 3.6 317 03:21 24.12.2021
4101 Clouds 1 998 93 8525 4.03 255 00:19 24.12.2021
4102 Clouds 0 999 94 3675 4.6 245 23:23 23.12.2021
4103 Clouds 0 999 94 3675 4.6 245 23:23 23.12.2021
4104 Clouds 0 999 94 3675 4.6 245 22:40 23.12.2021
4105 Snow 0 999 94 7973 5.04 241 22:20 23.12.2021
4106 Snow 0 999 94 7973 5.04 241 21:34 23.12.2021
4107 Snow 0 1001 96 166 5.01 217 20:21 23.12.2021
4108 Clouds 0 1002 97 144 5.62 209 19:27 23.12.2021
4109 Snow 0 1003 97 149 6.16 207 17:57 23.12.2021
4110 Snow 0 1004 97 146 5.66 203 16:58 23.12.2021
4111 Snow 0 1005 94 584 4.63 202 16:26 23.12.2021
4112 Snow 0 1005 94 584 4.63 202 15:32 23.12.2021
4113 Snow 0 1006 82 10000 5.01 211 14:56 23.12.2021
4114 Snow 0 1006 82 10000 5.01 211 14:38 23.12.2021
4115 Snow 0 1009 70 10000 6.06 201 13:23 23.12.2021
4116 Snow 0 1010 81 10000 5.76 199 11:19 23.12.2021
4117 Clouds -1 1012 71 10000 6.14 205 09:53 23.12.2021
4118 Clouds -1 1012 71 10000 6.14 205 09:33 23.12.2021
4119 Clouds -1 1013 68 10000 5.78 196 08:25 23.12.2021
4120 Clouds -1 1016 67 10000 4.89 201 05:23 23.12.2021
4121 Clouds -1 1019 69 10000 5.57 221 00:40 23.12.2021
4122 Clouds 0 1021 71 10000 5.59 221 22:50 22.12.2021
4123 Clouds 0 1021 73 10000 5.55 224 21:59 22.12.2021
4124 Clouds 0 1021 73 10000 5.55 224 21:30 22.12.2021
4125 Clouds 0 1022 77 10000 5.84 228 20:59 22.12.2021
4126 Clouds 0 1022 77 10000 5.84 228 20:40 22.12.2021
4127 Clouds 0 1022 79 10000 5.82 230 19:50 22.12.2021
4128 Clouds 0 1023 77 10000 5.19 230 18:55 22.12.2021
4129 Clouds 0 1023 77 10000 5.23 231 17:38 22.12.2021
4130 Snow 0 1024 76 10000 5.97 235 15:56 22.12.2021
4131 Clouds 0 1024 74 10000 6.9 245 14:23 22.12.2021
4132 Clouds 0 1024 75 10000 6.7 242 12:53 22.12.2021
4133 Clouds -1 1025 76 10000 6.62 236 11:42 22.12.2021
4134 Clouds -1 1025 79 10000 6.73 235 09:52 22.12.2021
4135 Clouds -1 1025 82 10000 6.81 238 08:23 22.12.2021
4136 Clouds 1 1025 89 10000 6.84 232 05:54 22.12.2021
4137 Clouds 1 1025 89 10000 6.84 232 05:36 22.12.2021
4138 Clouds 1 1026 84 10000 6.64 230 05:18 22.12.2021
4139 Snow 1 1026 84 10000 6.64 230 04:37 22.12.2021
4140 Clouds 1 1026 86 10000 6.42 219 03:52 22.12.2021
4141 Clouds 1 1026 86 10000 6.42 219 03:31 22.12.2021
4142 Clouds 1 1027 83 10000 4.8 189 23:48 21.12.2021
4143 Snow 0 1027 80 10000 4.35 187 22:41 21.12.2021
4144 Snow 0 1026 76 10000 3.84 181 21:57 21.12.2021
4145 Clouds 0 1026 76 10000 3.84 181 21:33 21.12.2021
4146 Clouds 0 1026 73 10000 3.38 173 20:42 21.12.2021
4147 Clouds 0 1026 70 10000 3.07 169 20:18 21.12.2021
4148 Clouds 0 1026 70 10000 3.07 169 19:34 21.12.2021
4149 Clouds 0 1026 66 10000 2.72 158 18:33 21.12.2021
4150 Clouds 1 1026 65 10000 2.51 146 17:59 21.12.2021
4151 Clouds 1 1026 65 10000 2.51 146 17:40 21.12.2021
4152 Clouds 1 1026 64 10000 1.8 120 15:46 21.12.2021
4153 Clouds 3 1026 65 10000 1.94 94 14:29 21.12.2021
4154 Clouds 3 1026 65 10000 1.94 94 13:42 21.12.2021
4155 Clouds 4 1026 68 10000 1.51 105 12:39 21.12.2021
4156 Clouds 2 1026 70 10000 2.27 75 10:52 21.12.2021
4157 Clouds 2 1026 71 10000 2.59 60 09:56 21.12.2021
4158 Clouds 0 1026 71 10000 2.74 51 08:57 21.12.2021
4159 Clouds 0 1026 71 10000 2.55 45 07:45 21.12.2021
4160 Clouds 0 1026 71 10000 2.39 39 07:24 21.12.2021
4161 Clouds 1 1026 69 10000 1.26 57 04:37 21.12.2021
4162 Clouds 2 1026 71 10000 1.81 71 02:31 21.12.2021
4163 Clouds 3 1026 79 10000 3.3 46 23:57 20.12.2021
4164 Clouds 3 1026 80 10000 3.53 40 22:48 20.12.2021
4165 Clouds 5 1026 79 6956 3.59 28 22:27 20.12.2021
4166 Clouds 5 1026 77 9082 3.45 13 21:28 20.12.2021
4167 Clouds 5 1026 77 9082 3.45 13 20:57 20.12.2021
4168 Clouds 5 1026 77 9082 3.45 13 20:32 20.12.2021
4169 Rain 5 1026 74 7024 3.62 4 19:38 20.12.2021
4170 Clouds 5 1026 73 10000 3.71 2 19:20 20.12.2021
4171 Clouds 5 1026 72 10000 3.99 3 18:35 20.12.2021
4172 Clouds 5 1026 72 10000 4.43 5 17:51 20.12.2021
4173 Clouds 4 1026 71 10000 4.82 7 16:53 20.12.2021
4174 Clouds 3 1026 71 10000 4.82 7 16:35 20.12.2021
4175 Clouds 5 1026 71 10000 5.4 10 15:43 20.12.2021
4176 Clear 3 1026 71 10000 5.64 10 14:40 20.12.2021
4177 Clear 7 1025 71 10000 5.55 13 12:44 20.12.2021
4178 Clear 3 1025 72 10000 6.73 20 10:55 20.12.2021
4179 Clear 5 1024 73 10000 7.26 17 09:47 20.12.2021
4180 Clear 3 1024 73 10000 7.65 14 08:57 20.12.2021
4181 Clear 3 1024 73 10000 7.65 14 08:38 20.12.2021
4182 Clear 3 1023 72 10000 8.2 9 07:46 20.12.2021
4183 Clear 4 1023 69 10000 8.93 4 06:40 20.12.2021
4184 Clear 5 1022 66 10000 10.08 357 03:41 20.12.2021
4185 Clear 4 1021 62 10000 11.95 352 23:50 19.12.2021
4186 Clear 5 1021 61 10000 12.21 348 22:44 19.12.2021
4187 Clear 5 1021 62 10000 11.83 346 21:49 19.12.2021
4188 Clear 5 1020 62 10000 11.13 345 21:26 19.12.2021
4189 Clear 5 1020 62 10000 11.13 345 20:30 19.12.2021
4190 Clear 5 1020 61 10000 11.06 353 19:46 19.12.2021
4191 Clouds 5 1020 60 10000 10.42 358 18:57 19.12.2021
4192 Clouds 6 1019 57 10000 10.04 353 18:24 19.12.2021
4193 Clouds 6 1019 57 10000 10.04 353 17:46 19.12.2021
4194 Clouds 6 1019 62 10000 10.97 354 17:18 19.12.2021
4195 Clouds 7 1018 72 10000 10.17 347 16:24 19.12.2021
4196 Clouds 8 1017 70 10000 6.64 340 15:28 19.12.2021
4197 Clouds 8 1017 70 10000 6.64 340 14:57 19.12.2021
4198 Clouds 8 1017 70 10000 6.64 340 14:36 19.12.2021
4199 Clear 8 1017 86 10000 10.39 345 13:22 19.12.2021
4200 Clear 8 1017 86 10000 10.39 345 12:33 19.12.2021
4201 Clear 8 1017 86 10000 11.03 317 11:42 19.12.2021
4202 Clear 8 1017 86 10000 11.3 310 10:53 19.12.2021
4203 Clear 8 1018 87 10000 11.35 307 10:23 19.12.2021
4204 Clear 8 1018 87 10000 11.35 307 10:23 19.12.2021
4205 Clear 8 1018 86 10000 11.28 305 09:26 19.12.2021
4206 Clear 8 1018 86 10000 11.44 305 07:50 19.12.2021
4207 Clouds 8 1019 84 10000 12.26 309 04:44 19.12.2021
4208 Clear 7 1021 89 10000 12.47 288 00:55 19.12.2021
4209 Clear 8 1022 88 10000 12 288 23:52 18.12.2021
4210 Clear 8 1023 88 10000 11.74 287 22:32 18.12.2021
4211 Clear 8 1024 88 10000 11.39 283 21:54 18.12.2021
4212 Clear 8 1024 88 10000 11.39 283 21:34 18.12.2021
4213 Clear 7 1025 88 10000 10.61 285 20:44 18.12.2021
4214 Clear 8 1026 88 10000 10.08 290 19:51 18.12.2021
4215 Clouds 8 1026 88 10000 9.14 289 19:19 18.12.2021
4216 Clouds 8 1026 90 10000 9.19 281 18:20 18.12.2021
4217 Clouds 8 1026 90 10000 9.19 281 17:47 18.12.2021
4218 Clouds 8 1028 88 10000 9.34 289 16:25 18.12.2021
4219 Clouds 8 1029 89 10000 9.18 285 15:26 18.12.2021
4220 Clouds 8 1029 89 10000 9.18 285 14:32 18.12.2021
4221 Clouds 7 1030 87 10000 8.35 284 13:20 18.12.2021
4222 Clouds 7 1032 87 10000 6.71 271 11:21 18.12.2021
4223 Clouds 7 1032 84 10000 6.91 273 09:39 18.12.2021
4224 Clouds 7 1033 83 10000 6.97 271 08:46 18.12.2021
4225 Clouds 7 1033 86 10000 6.48 268 08:19 18.12.2021
4226 Clouds 8 1035 86 10000 4.37 287 02:20 18.12.2021
4227 Clouds 8 1036 88 10000 3.58 301 00:27 18.12.2021
4228 Clouds 7 1036 88 10000 3.58 301 23:39 17.12.2021
4229 Clouds 7 1036 90 10000 4.16 319 21:56 17.12.2021
4230 Clouds 7 1036 90 10000 4.16 319 21:56 17.12.2021
4231 Clouds 7 1036 93 10000 4.42 318 20:58 17.12.2021
4232 Clouds 7 1036 93 10000 4.42 318 20:38 17.12.2021
4233 Clouds 7 1035 93 10000 4.61 310 19:18 17.12.2021
4234 Clear 7 1035 90 10000 3.44 303 18:38 17.12.2021
4235 Clear 7 1035 89 10000 3.22 311 17:31 17.12.2021
4236 Clear 7 1035 89 10000 3.63 320 16:46 17.12.2021
4237 Clear 7 1035 89 10000 4.46 313 16:22 17.12.2021
4238 Clear 7 1035 89 10000 4.19 305 15:21 17.12.2021
4239 Clear 7 1035 89 10000 4.19 305 15:21 17.12.2021
4240 Clear 7 1035 89 10000 4.19 305 14:39 17.12.2021
4241 Clear 8 1034 90 10000 4.12 316 12:46 17.12.2021
4242 Clear 7 1034 89 10000 4.71 316 11:34 17.12.2021
4243 Clear 7 1035 89 10000 5.63 320 10:37 17.12.2021
4244 Clear 7 1034 90 10000 5.95 310 09:31 17.12.2021
4245 Clear 7 1034 90 10000 6.21 306 08:30 17.12.2021
4246 Clouds 7 1034 88 10000 6.84 314 05:58 17.12.2021
4247 Clear 7 1034 86 10000 8.08 312 02:53 17.12.2021
4248 Clear 7 1033 85 10000 8.8 304 23:25 16.12.2021
4249 Clear 7 1033 85 10000 8.94 298 22:24 16.12.2021
4250 Clear 7 1033 85 10000 8.94 298 21:50 16.12.2021
4251 Clear 7 1033 84 10000 8.71 299 21:25 16.12.2021
4252 Clear 7 1033 84 10000 8.71 299 20:30 16.12.2021
4253 Clear 7 1033 84 10000 8.39 300 19:44 16.12.2021
4254 Clear 8 1033 84 10000 9.1 306 18:39 16.12.2021
4255 Clear 8 1032 83 10000 9.89 298 17:56 16.12.2021
4256 Clear 8 1032 83 10000 9.89 298 17:30 16.12.2021
4257 Clear 9 1032 83 10000 9.84 295 16:21 16.12.2021
4258 Clear 10 1032 82 10000 9.75 292 14:50 16.12.2021
4259 Clouds 8 1032 82 10000 8.95 291 13:29 16.12.2021
4260 Clouds 8 1031 86 10000 8.42 292 11:20 16.12.2021
4261 Clouds 11 1031 86 10000 8.42 292 10:59 16.12.2021
4262 Clouds 10 1030 89 10000 8.5 288 10:20 16.12.2021
4263 Clouds 9 1029 91 10000 8.74 287 08:25 16.12.2021
4264 Clouds 9 1028 95 10000 8.62 280 06:22 16.12.2021
4265 Clouds 10 1026 92 10000 9.54 275 01:25 16.12.2021
4266 Clouds 10 1026 91 10000 10.73 276 23:33 15.12.2021
4267 Clouds 10 1026 93 10000 10.61 266 22:43 15.12.2021
4268 Clouds 10 1026 93 10000 10.28 260 21:56 15.12.2021
4269 Clouds 10 1025 91 10000 9.97 257 21:27 15.12.2021
4270 Clouds 10 1025 89 10000 10.05 255 20:18 15.12.2021
4271 Clouds 10 1025 89 10000 10.05 255 19:50 15.12.2021
4272 Clouds 10 1025 89 10000 10.19 256 18:38 15.12.2021
4273 Clouds 11 1025 89 10000 10.32 253 17:55 15.12.2021
4274 Clouds 11 1025 89 10000 10.32 253 17:36 15.12.2021
4275 Clouds 11 1025 81 10000 9.8 255 16:28 15.12.2021
4276 Clouds 11 1025 81 10000 9.8 255 15:47 15.12.2021
4277 Clouds 11 1024 83 10000 10.23 254 15:27 15.12.2021
4278 Clouds 11 1024 88 10000 9.92 255 14:42 15.12.2021
4279 Clouds 11 1024 88 10000 10.45 253 12:46 15.12.2021
4280 Clouds 11 1024 88 10000 10.45 253 12:46 15.12.2021
4281 Clouds 11 1025 89 10000 10.14 254 10:44 15.12.2021
4282 Clouds 10 1024 91 10000 9.71 245 08:55 15.12.2021
4283 Clouds 10 1023 92 10000 9.42 238 07:43 15.12.2021
4284 Clouds 8 1024 93 10000 6.8 231 01:39 15.12.2021
4285 Clouds 6 1025 94 10000 6.34 232 23:42 14.12.2021
4286 Clouds 5 1024 92 10000 6.43 223 22:49 14.12.2021
4287 Clouds 5 1025 90 10000 5.13 233 22:25 14.12.2021
4288 Clouds 6 1024 90 10000 4.65 241 20:57 14.12.2021
4289 Clouds 6 1024 90 10000 4.59 249 19:44 14.12.2021
4290 Clouds 6 1024 90 10000 4.59 249 19:44 14.12.2021
4291 Clouds 6 1024 91 10000 3.68 246 19:20 14.12.2021
4292 Clouds 6 1024 91 10000 3.83 257 18:29 14.12.2021
4293 Clouds 6 1024 91 10000 3.83 257 17:34 14.12.2021
4294 Clouds 6 1024 91 10000 3.99 268 16:43 14.12.2021
4295 Clouds 8 1024 89 10000 3.69 287 15:41 14.12.2021
4296 Clouds 9 1023 90 10000 4.15 323 13:32 14.12.2021
4297 Clouds 9 1022 95 10000 6.7 288 12:27 14.12.2021
4298 Clouds 9 1021 94 10000 9.32 264 11:24 14.12.2021
4299 Clouds 9 1021 93 10000 9.99 247 10:25 14.12.2021
4300 Clouds 9 1021 93 10000 9.99 247 09:53 14.12.2021
4301 Clouds 8 1021 90 10000 8.65 238 08:29 14.12.2021
4302 Clouds 9 1021 90 10000 8.65 238 07:59 14.12.2021
4303 Clouds 9 1021 92 10000 7.99 229 05:52 14.12.2021
4304 Clouds 10 1024 92 10000 6.62 229 23:39 13.12.2021
4305 Clouds 10 1024 93 10000 6.57 232 21:57 13.12.2021
4306 Clouds 10 1024 93 10000 6.57 232 21:34 13.12.2021
4307 Clouds 10 1024 94 10000 6.15 233 20:50 13.12.2021
4308 Clouds 10 1024 94 10000 5.74 230 19:59 13.12.2021
4309 Clouds 10 1024 94 10000 5.27 227 19:27 13.12.2021
4310 Clouds 10 1024 96 10000 4.98 241 17:27 13.12.2021
4311 Clouds 10 1024 96 10000 4.98 241 17:27 13.12.2021
4312 Clouds 10 1024 98 10000 4.87 247 16:23 13.12.2021
4313 Clouds 10 1024 98 10000 4.87 247 15:43 13.12.2021
4314 Clouds 10 1024 98 10000 4.87 247 15:43 13.12.2021
4315 Clouds 10 1024 99 264 4.54 239 13:52 13.12.2021
4316 Clouds 10 1024 99 264 4.54 239 13:31 13.12.2021
4317 Clouds 9 1023 99 595 4.92 238 12:36 13.12.2021
4318 Clouds 8 1023 98 10000 4.22 230 11:43 13.12.2021
4319 Clouds 8 1023 97 10000 3.72 223 11:24 13.12.2021
4320 Clouds 8 1023 97 10000 3.58 234 10:21 13.12.2021
4321 Clouds 7 1023 98 4936 3.83 243 08:31 13.12.2021
4322 Clouds 7 1022 98 4812 5.52 252 05:38 13.12.2021
4323 Clouds 7 1021 96 10000 5.63 262 03:57 13.12.2021
4324 Clouds 7 1020 98 5036 5.91 240 23:43 12.12.2021
4325 Clouds 6 1019 98 2742 5.59 220 21:57 12.12.2021
4326 Clouds 5 1019 97 10000 5.62 215 20:48 12.12.2021
4327 Clouds 5 1019 96 10000 5.49 211 19:34 12.12.2021
4328 Clouds 4 1019 95 10000 6.93 200 17:58 12.12.2021
4329 Clouds 3 1019 95 10000 7.98 196 16:29 12.12.2021
4330 Clouds 3 1019 95 10000 7.98 196 15:54 12.12.2021
4331 Rain 3 1019 96 10000 8.11 190 15:28 12.12.2021
4332 Clouds 3 1019 96 10000 8.11 190 14:42 12.12.2021
4333 Clouds 3 1020 97 2097 7.45 189 13:47 12.12.2021
4334 Rain 3 1020 96 5713 7.57 189 12:48 12.12.2021
4335 Rain 3 1020 95 8324 6.69 195 11:45 12.12.2021
4336 Rain 3 1020 93 10000 6.58 211 11:25 12.12.2021
4337 Rain 3 1020 93 10000 6.58 211 10:43 12.12.2021
4338 Rain 3 1020 91 10000 6.59 222 09:58 12.12.2021
4339 Clouds 3 1020 91 10000 7.12 229 08:44 12.12.2021
4340 Clouds 3 1020 91 10000 5.75 220 06:55 12.12.2021
4341 Clouds 3 1020 88 10000 5.97 235 05:29 12.12.2021
4342 Clouds 3 1019 85 10000 4.77 235 04:19 12.12.2021
4343 Clouds 3 1018 83 10000 5.22 254 00:54 12.12.2021
4344 Clouds 3 1017 84 10000 6.12 258 22:56 11.12.2021
4345 Clouds 2 1017 88 10000 6.8 255 22:20 11.12.2021
4346 Clouds 3 1017 88 10000 6.8 255 21:35 11.12.2021
4347 Clouds 3 1015 93 10000 8.38 248 20:18 11.12.2021
4348 Clouds 3 1015 91 9852 8.23 248 19:21 11.12.2021
4349 Clouds 3 1015 96 2229 7.65 232 18:45 11.12.2021
4350 Clouds 3 1014 98 1216 7.14 223 17:54 11.12.2021
4351 Clouds 3 1013 87 10000 7.63 233 15:59 11.12.2021
4352 Clouds 3 1013 87 10000 7.63 233 15:40 11.12.2021
4353 Clouds 2 1012 82 10000 7.12 235 14:35 11.12.2021
4354 Clouds 3 1011 78 10000 7.46 243 12:31 11.12.2021
4355 Clouds 2 1010 87 10000 6.95 231 10:50 11.12.2021
4356 Snow 2 1009 90 10000 6.03 230 09:43 11.12.2021
4357 Clouds 1 1005 97 237 4.8 216 03:58 11.12.2021
4358 Snow 1 1003 98 56 3.75 210 00:48 11.12.2021
4359 Snow 1 1003 98 62 3.96 201 23:44 10.12.2021
4360 Snow 1 1002 97 159 3.49 204 22:47 10.12.2021
4361 Clouds 1 1002 95 834 3.49 207 21:41 10.12.2021
4362 Snow 1 1000 97 94 3.57 195 20:28 10.12.2021
4363 Rain 1 1000 98 64 3.45 186 19:19 10.12.2021
4364 Snow 1 999 98 55 3.35 171 17:50 10.12.2021
4365 Rain 1 999 98 61 2.92 166 16:39 10.12.2021
4366 Rain 1 999 98 62 2.69 172 15:45 10.12.2021
4367 Rain 2 999 97 88 2.71 167 15:27 10.12.2021
4368 Rain 2 999 97 88 2.71 167 14:49 10.12.2021
4369 Snow 1 998 97 66 2.73 159 13:50 10.12.2021
4370 Snow 1 998 98 54 2.72 153 13:18 10.12.2021
4371 Rain 1 999 98 52 2.21 146 11:43 10.12.2021
4372 Rain 1 999 97 75 2.01 139 11:19 10.12.2021
4373 Snow 1 1000 97 122 2.18 143 09:53 10.12.2021
4374 Snow 1 1000 97 234 2.77 160 08:23 10.12.2021
4375 Snow 0 1001 96 221 4.12 144 05:46 10.12.2021
4376 Clouds 0 1002 89 10000 4.17 160 02:47 10.12.2021
4377 Clouds -1 1004 87 10000 4.24 161 23:43 09.12.2021
4378 Clouds -1 1005 87 10000 4.23 179 22:49 09.12.2021
4379 Clouds -1 1005 87 10000 4.5 172 22:23 09.12.2021
4380 Clouds -1 1005 87 10000 4.5 172 22:23 09.12.2021
4381 Clouds -1 1005 87 10000 4.5 172 21:40 09.12.2021
4382 Clouds -1 1006 88 10000 4.91 170 20:40 09.12.2021
4383 Clouds -1 1006 87 10000 5.04 184 19:46 09.12.2021
4384 Clouds -2 1006 87 10000 5.21 169 19:21 09.12.2021
4385 Clouds -2 1006 86 10000 5.1 166 18:25 09.12.2021
4386 Clouds -1 1006 86 10000 5.1 166 17:51 09.12.2021
4387 Clouds -1 1006 88 10000 5.63 160 17:25 09.12.2021
4388 Clouds -1 1006 88 10000 5.63 160 16:51 09.12.2021
4389 Clouds 0 1006 90 7487 4.95 153 15:31 09.12.2021
4390 Clouds 0 1006 92 2711 4.9 138 14:44 09.12.2021
4391 Snow 0 1007 77 10000 4.62 147 13:19 09.12.2021
4392 Snow 0 1007 77 10000 4.62 147 12:35 09.12.2021
4393 Snow -1 1007 78 10000 5.34 145 10:58 09.12.2021
4394 Clouds -1 1007 80 10000 6.77 135 08:54 09.12.2021
4395 Clouds -1 1007 81 10000 7.9 135 06:21 09.12.2021
4396 Clouds -1 1007 81 10000 8 137 02:58 09.12.2021
4397 Clouds -1 1008 80 10000 8.34 135 23:43 08.12.2021
4398 Clouds -1 1008 79 10000 7.59 138 23:21 08.12.2021
4399 Snow -1 1008 79 10000 7.59 138 22:47 08.12.2021
4400 Clouds -1 1008 80 10000 8.5 145 21:40 08.12.2021
4401 Clouds -1 1007 80 10000 8.52 139 20:59 08.12.2021
4402 Clouds 0 1007 79 10000 9.16 140 19:58 08.12.2021
4403 Clouds 0 1007 79 10000 9.16 140 19:34 08.12.2021
4404 Clouds 1 1007 79 10000 9.83 140 18:45 08.12.2021
4405 Clouds 1 1006 78 10000 10.34 142 17:36 08.12.2021
4406 Clouds 1 1006 78 10000 10.34 142 17:36 08.12.2021
4407 Clouds 1 1006 77 10000 10.9 142 15:51 08.12.2021
4408 Clouds 1 1006 78 10000 11.14 145 15:28 08.12.2021
4409 Clouds 1 1006 78 10000 11.14 145 14:31 08.12.2021
4410 Clouds 1 1005 81 10000 13.23 139 11:19 08.12.2021
4411 Clouds 1 1005 81 10000 13.23 139 10:31 08.12.2021
4412 Clouds 1 1006 81 10000 12.66 147 08:56 08.12.2021
4413 Clouds 1 1006 83 10000 13.11 140 07:26 08.12.2021
4414 Clouds 1 1007 82 10000 12.65 137 04:57 08.12.2021
4415 Clouds 0 1010 86 10000 10.75 145 23:34 07.12.2021
4416 Clouds 1 1011 85 10000 9.8 144 21:55 07.12.2021
4417 Clouds 1 1012 84 10000 9.36 148 21:23 07.12.2021
4418 Clouds 1 1012 83 10000 9.25 145 20:24 07.12.2021
4419 Clouds 1 1012 83 10000 9.95 140 18:47 07.12.2021
4420 Clouds 1 1012 82 10000 9.03 146 17:53 07.12.2021
4421 Clouds 1 1012 81 10000 8.75 146 17:20 07.12.2021
4422 Clouds 1 1012 81 10000 8.75 146 16:34 07.12.2021
4423 Clouds 1 1013 80 10000 8.88 143 15:34 07.12.2021
4424 Clouds 1 1013 79 10000 8.7 145 14:30 07.12.2021
4425 Clouds 2 1013 77 10000 9.2 143 13:18 07.12.2021
4426 Clouds 1 1013 78 10000 9.32 141 12:21 07.12.2021
4427 Clouds 1 1013 81 10000 8.93 146 10:43 07.12.2021
4428 Clouds 1 1013 82 10000 8.12 147 08:46 07.12.2021
4429 Clouds 1 1012 81 10000 7.97 150 06:22 07.12.2021
4430 Clouds 0 1012 81 10000 7.97 150 05:42 07.12.2021
4431 Clouds 1 1013 68 10000 7.53 149 00:54 07.12.2021
4432 Clouds 1 1014 71 10000 7.46 157 23:18 06.12.2021
4433 Clouds 1 1014 71 10000 7.46 157 22:39 06.12.2021
4434 Clouds 2 1014 74 10000 7.82 157 21:58 06.12.2021
4435 Clouds 2 1015 77 10000 7.51 158 21:20 06.12.2021
4436 Clouds 2 1015 77 10000 7.51 158 20:30 06.12.2021
4437 Clouds 2 1015 63 10000 6.26 132 19:24 06.12.2021
4438 Clouds 2 1016 62 10000 6.26 120 18:29 06.12.2021
4439 Clouds 2 1016 62 10000 6.26 120 17:52 06.12.2021
4440 Clouds 2 1016 62 10000 5.93 111 17:20 06.12.2021
4441 Clouds 2 1016 62 10000 6.09 110 15:51 06.12.2021
4442 Clouds 3 1016 60 10000 5.59 108 13:53 06.12.2021
4443 Clouds 3 1017 60 10000 6.19 105 12:40 06.12.2021
4444 Clouds 3 1017 62 10000 6.95 98 11:55 06.12.2021
4445 Clouds 3 1018 65 10000 7.07 89 09:44 06.12.2021
4446 Clouds 3 1017 65 10000 8.68 73 07:18 06.12.2021
4447 Clouds 3 1015 80 10000 11.29 71 02:20 06.12.2021
4448 Clouds 4 1013 93 3954 13.29 77 22:20 05.12.2021
4449 Clouds 3 1013 94 3609 13.69 69 21:25 05.12.2021
4450 Rain 4 1013 94 3609 13.69 69 20:43 05.12.2021
4451 Rain 4 1012 93 3102 14.1 72 20:18 05.12.2021
4452 Clouds 4 1011 93 2523 14.78 66 19:23 05.12.2021
4453 Clouds 4 1010 81 10000 13.54 67 18:28 05.12.2021
4454 Rain 4 1010 81 10000 13.54 67 17:49 05.12.2021
4455 Rain 4 1010 82 10000 14.11 67 17:18 05.12.2021
4456 Clouds 4 1009 87 9499 14.3 70 16:28 05.12.2021
4457 Rain 3 1009 87 9499 14.3 70 15:59 05.12.2021
4458 Clouds 3 1008 90 6200 13.98 74 14:48 05.12.2021
4459 Clouds 3 1007 90 10000 13.24 77 14:29 05.12.2021
4460 Clouds 3 1007 90 10000 13.24 77 13:33 05.12.2021
4461 Clouds 3 1007 89 10000 12.47 78 12:43 05.12.2021
4462 Clouds 3 1006 90 10000 12.05 80 12:25 05.12.2021
4463 Clouds 2 1006 90 10000 12.05 80 11:44 05.12.2021
4464 Clouds 2 1005 83 10000 10.52 93 10:25 05.12.2021
4465 Clouds 2 1005 83 10000 10.52 93 09:41 05.12.2021
4466 Clouds 2 1003 83 10000 8.97 116 05:30 05.12.2021
4467 Clouds 2 1001 84 10000 9.33 102 01:29 05.12.2021
4468 Clouds 4 1001 86 10000 6.95 125 22:45 04.12.2021
4469 Clouds 4 1001 86 10000 7.11 132 21:51 04.12.2021
4470 Clouds 4 1000 85 10000 6.33 129 20:47 04.12.2021
4471 Clouds 4 1000 85 10000 6 133 19:54 04.12.2021
4472 Clouds 4 1000 85 10000 6 133 19:30 04.12.2021
4473 Clouds 4 1000 85 10000 4.99 136 17:58 04.12.2021
4474 Clouds 4 1000 85 10000 4.99 136 17:36 04.12.2021
4475 Clouds 4 1000 84 10000 3.87 149 16:47 04.12.2021
4476 Clouds 5 1000 85 10000 3.67 165 16:28 04.12.2021
4477 Clouds 5 999 86 10000 4.12 206 13:39 04.12.2021
4478 Clouds 5 999 89 10000 6.18 223 11:44 04.12.2021
4479 Clouds 5 999 90 10000 6.73 227 11:20 04.12.2021
4480 Clouds 5 999 88 10000 6.93 230 10:24 04.12.2021
4481 Clouds 5 998 86 10000 6.46 240 08:42 04.12.2021
4482 Clouds 3 997 93 10000 8.73 242 05:47 04.12.2021
4483 Clouds 3 997 95 9107 9.62 240 04:41 04.12.2021
4484 Clouds 3 998 97 83 13.13 235 23:49 03.12.2021
4485 Clouds 3 998 97 64 13.9 230 22:56 03.12.2021
4486 Rain 3 998 97 162 14.82 226 22:00 03.12.2021
4487 Clouds 2 998 98 44 12.91 209 21:25 03.12.2021
4488 Rain 2 998 98 44 12.91 209 20:44 03.12.2021
4489 Rain 2 999 98 55 12.27 208 19:40 03.12.2021
4490 Rain 3 1001 83 10000 13.09 226 18:28 03.12.2021
4491 Rain 3 1001 83 10000 13.09 226 17:58 03.12.2021
4492 Clouds 3 1002 83 10000 12.76 242 14:23 03.12.2021
4493 Rain 3 1003 85 8975 12.14 246 12:54 03.12.2021
4494 Rain 3 1002 82 5123 11.73 257 11:38 03.12.2021
4495 Clouds 3 1002 75 9932 12.11 262 10:32 03.12.2021
4496 Clouds 4 1001 74 10000 11.72 286 08:25 03.12.2021
4497 Clouds 4 1001 74 10000 11.72 286 07:40 03.12.2021
4498 Clouds 1 1000 70 10000 12.1 271 02:39 03.12.2021
4499 Clouds -1 1000 80 10000 12.88 250 00:47 03.12.2021
4500 Clouds 2 1001 67 4807 10.26 260 23:47 02.12.2021
4501 Clouds 2 1001 58 10000 6.83 288 21:57 02.12.2021
4502 Clouds 2 1001 58 10000 6.83 288 21:30 02.12.2021
4503 Clouds 3 1001 60 10000 7.7 307 20:38 02.12.2021
4504 Clouds 3 1000 61 10000 8.44 317 19:43 02.12.2021
4505 Clouds 3 1000 59 10000 9.08 325 18:33 02.12.2021
4506 Clouds 3 1000 59 10000 9.08 325 18:33 02.12.2021
4507 Clouds 3 997 64 10000 12.11 337 15:52 02.12.2021
4508 Rain 3 995 66 10000 12.9 339 15:28 02.12.2021
4509 Rain 3 995 66 10000 12.9 339 14:48 02.12.2021
4510 Clouds 4 993 79 8657 12.58 334 12:53 02.12.2021
4511 Clouds 4 992 84 7239 13.1 335 12:19 02.12.2021
4512 Clouds 3 991 88 4108 13.42 334 10:38 02.12.2021
4513 Rain 3 987 95 2200 14.37 326 08:59 02.12.2021
4514 Rain 3 984 96 1071 16.1 320 06:45 02.12.2021
4515 Clouds 2 971 93 10000 14.48 294 00:55 02.12.2021
4516 Clouds 5 970 96 8264 15.68 220 23:30 01.12.2021
4517 Rain 7 973 82 10000 18.42 217 22:25 01.12.2021
4518 Clouds 7 973 82 10000 18.42 217 21:36 01.12.2021
4519 Clouds 7 975 77 10000 16.07 215 19:59 01.12.2021
4520 Clouds 8 975 77 10000 16.07 215 19:36 01.12.2021
4521 Clouds 8 977 81 10000 14.58 214 17:50 01.12.2021
4522 Clouds 8 978 84 10000 13.66 193 16:58 01.12.2021
4523 Clouds 8 980 86 10000 13.41 203 15:37 01.12.2021
4524 Clouds 8 982 90 10000 12.95 208 14:24 01.12.2021
4525 Clouds 8 982 90 10000 12.95 208 13:36 01.12.2021
4526 Rain 5 986 96 7414 13 163 10:43 01.12.2021
4527 Rain 3 988 97 3446 13.13 152 09:59 01.12.2021
4528 Rain 3 990 99 92 11.5 144 08:50 01.12.2021
4529 Rain 3 992 99 84 9.91 148 07:54 01.12.2021
4530 Rain 2 994 90 7601 8.48 162 07:19 01.12.2021
4531 Clouds 1 998 79 10000 4.84 194 03:53 01.12.2021
4532 Clouds 1 999 74 10000 3.87 226 03:19 01.12.2021
4533 Clouds 2 1001 67 10000 4.16 282 23:59 30.11.2021
4534 Clouds 3 1001 67 10000 4.02 299 23:28 30.11.2021
4535 Clouds 3 1000 69 10000 4.87 323 22:29 30.11.2021
4536 Clouds 4 1000 71 10000 5.73 340 20:46 30.11.2021
4537 Clouds 4 998 74 10000 8.13 353 20:24 30.11.2021
4538 Clouds 4 998 74 10000 8.13 353 19:39 30.11.2021
4539 Clouds 4 997 79 10000 10.12 3 18:52 30.11.2021
4540 Clouds 5 994 84 9598 11.73 350 17:45 30.11.2021
4541 Rain 6 989 80 10000 13.47 330 15:57 30.11.2021
4542 Clouds 7 987 82 10000 15.69 303 14:33 30.11.2021
4543 Clouds 7 987 78 10000 15.99 296 13:41 30.11.2021
4544 Clouds 7 987 79 10000 15.92 294 12:54 30.11.2021
4545 Rain 7 987 88 6020 16.37 287 11:59 30.11.2021
4546 Clouds 7 988 82 10000 15.73 285 11:25 30.11.2021
4547 Clouds 6 988 82 10000 15.73 285 10:36 30.11.2021
4548 Rain 5 988 73 10000 12.64 288 08:57 30.11.2021
4549 Rain 4 988 73 10000 12.64 288 08:32 30.11.2021
4550 Rain 3 989 97 87 16.31 239 07:56 30.11.2021
4551 Rain 2 991 98 49 12.9 212 06:38 30.11.2021
4552 Clouds 0 1002 73 10000 8.01 242 01:50 30.11.2021
4553 Clouds 0 1003 70 10000 6.43 265 01:28 30.11.2021
4554 Clouds 2 1004 67 10000 6.75 283 23:40 29.11.2021
4555 Clouds 2 1004 64 10000 6.65 289 23:19 29.11.2021
4556 Clouds 2 1004 64 10000 6.65 289 22:38 29.11.2021
4557 Clouds 3 1005 62 10000 5.46 301 21:56 29.11.2021
4558 Clouds 3 1005 63 10000 4.87 327 21:20 29.11.2021
4559 Clouds 3 1005 63 10000 4.87 327 20:54 29.11.2021
4560 Clouds 3 1004 64 10000 4.97 348 19:59 29.11.2021
4561 Clouds 3 1004 64 10000 4.97 348 19:41 29.11.2021
4562 Clouds 3 1004 65 10000 6.13 355 19:21 29.11.2021
4563 Clouds 4 1004 65 10000 6.13 355 18:42 29.11.2021
4564 Clouds 4 1004 66 10000 6.77 358 17:22 29.11.2021
4565 Clouds 4 1004 66 10000 6.77 358 16:54 29.11.2021
4566 Clouds 4 1004 68 10000 7.12 2 16:25 29.11.2021
4567 Clouds 4 1003 70 10000 7.05 8 14:52 29.11.2021
4568 Clouds 4 1003 72 10000 7.85 18 14:29 29.11.2021
4569 Clouds 5 1002 72 10000 8.42 24 13:23 29.11.2021
4570 Clouds 5 1002 73 10000 8.77 26 12:20 29.11.2021
4571 Clouds 5 1002 73 10000 8.77 26 11:31 29.11.2021
4572 Rain 5 1001 88 5390 8.7 48 10:27 29.11.2021
4573 Rain 4 1001 93 1809 7.34 52 08:30 29.11.2021
4574 Rain 4 999 78 10000 0.9 69 05:54 29.11.2021
4575 Clouds 3 998 88 10000 2.33 154 01:31 29.11.2021
4576 Clouds 3 997 90 10000 2.9 148 00:36 29.11.2021
4577 Clouds 3 997 94 5304 3.14 155 23:42 28.11.2021
4578 Clouds 3 997 95 2581 3.48 157 22:30 28.11.2021
4579 Clouds 3 997 94 2431 3.78 169 21:41 28.11.2021
4580 Clouds 3 997 95 3464 4.14 183 20:51 28.11.2021
4581 Clouds 3 996 95 4606 4.75 192 19:54 28.11.2021
4582 Clouds 3 996 88 10000 4.54 189 18:45 28.11.2021
4583 Clouds 3 996 87 10000 4.73 190 18:26 28.11.2021
4584 Clouds 3 996 87 10000 4.73 190 17:49 28.11.2021
4585 Clouds 3 996 86 10000 4.88 191 17:27 28.11.2021
4586 Clouds 4 995 87 10000 5 193 16:28 28.11.2021
4587 Clouds 4 995 87 10000 5 193 15:52 28.11.2021
4588 Clouds 4 995 88 10000 5.16 199 14:56 28.11.2021
4589 Clouds 4 995 88 10000 5.16 199 14:30 28.11.2021
4590 Clouds 4 995 87 10000 5.35 210 12:55 28.11.2021
4591 Clouds 4 995 90 10000 5.21 217 11:57 28.11.2021
4592 Clouds 4 995 91 10000 5.31 211 10:37 28.11.2021
4593 Clouds 4 995 92 10000 5.07 217 10:19 28.11.2021
4594 Clouds 4 995 92 10000 5.07 217 09:36 28.11.2021
4595 Clouds 2 993 97 60 2.67 218 06:29 28.11.2021
4596 Clouds 3 994 97 52 3.93 161 23:33 27.11.2021
4597 Rain 3 994 98 48 5.19 144 20:33 27.11.2021
4598 Rain 3 994 97 71 5.49 144 18:49 27.11.2021
4599 Rain 5 994 76 10000 6.27 138 16:31 27.11.2021
4600 Rain 5 994 74 10000 6.44 126 15:55 27.11.2021
4601 Clouds 5 993 71 10000 6.11 125 13:47 27.11.2021
4602 Clouds 5 993 70 10000 6.2 135 12:29 27.11.2021
4603 Clouds 5 993 71 10000 6.24 135 10:42 27.11.2021
4604 Clouds 4 993 72 10000 6.26 140 09:51 27.11.2021
4605 Clouds 4 993 73 10000 6.24 146 08:40 27.11.2021
4606 Clouds 5 992 75 10000 6.72 147 05:18 27.11.2021
4607 Clouds 5 992 76 10000 5.89 144 01:55 27.11.2021
4608 Clouds 4 992 83 10000 5.76 161 23:35 26.11.2021
4609 Clouds 5 993 80 10000 7.84 161 22:25 26.11.2021
4610 Clouds 5 993 80 10000 7.84 161 21:37 26.11.2021
4611 Clouds 5 993 87 10000 7.48 162 20:59 26.11.2021
4612 Clouds 4 993 92 10000 6.96 170 20:19 26.11.2021
4613 Clouds 4 993 92 10000 6.96 170 19:47 26.11.2021
4614 Clouds 4 993 95 4781 6.82 173 18:39 26.11.2021
4615 Clouds 5 994 85 10000 6.67 185 17:23 26.11.2021
4616 Clouds 5 994 82 10000 6.6 190 15:59 26.11.2021
4617 Clouds 5 994 94 5164 5.89 215 13:36 26.11.2021
4618 Clouds 5 995 94 4610 6.16 213 12:51 26.11.2021
4619 Rain 5 996 96 2539 6.97 210 10:39 26.11.2021
4620 Rain 5 997 86 10000 6.64 225 08:59 26.11.2021
4621 Clouds 4 997 86 10000 6.64 225 08:39 26.11.2021
4622 Clouds 4 997 80 10000 7.36 245 08:19 26.11.2021
4623 Clouds 4 997 65 10000 7.78 267 06:29 26.11.2021
4624 Clouds 3 998 63 10000 8.88 279 04:52 26.11.2021
4625 Clouds 3 998 68 10000 9.95 284 03:28 26.11.2021
4626 Clouds 6 999 69 10000 12.19 278 23:29 25.11.2021
4627 Clear 7 1000 69 10000 12.72 274 21:58 25.11.2021
4628 Clear 7 1000 69 10000 12.39 271 20:41 25.11.2021
4629 Clouds 7 1000 71 10000 12.28 269 19:21 25.11.2021
4630 Clouds 7 1000 75 10000 11.46 259 18:19 25.11.2021
4631 Clouds 7 1001 83 10000 10.82 245 17:27 25.11.2021
4632 Clouds 7 1001 83 10000 10.82 245 16:41 25.11.2021
4633 Clouds 6 1001 85 10000 9.41 239 15:58 25.11.2021
4634 Clouds 6 1003 78 10000 9.91 234 14:24 25.11.2021
4635 Clouds 7 1004 76 10000 9.12 234 12:55 25.11.2021
4636 Clouds 7 1005 74 10000 9.06 234 11:56 25.11.2021
4637 Clouds 6 1006 73 10000 8.73 216 10:34 25.11.2021
4638 Clouds 6 1009 82 10000 8.52 213 06:36 25.11.2021
4639 Clouds 6 1012 86 10000 8.5 218 02:56 25.11.2021
4640 Clouds 7 1013 85 10000 8.4 219 00:37 25.11.2021
4641 Clouds 8 1015 84 10000 7.94 227 22:29 24.11.2021
4642 Clouds 8 1015 84 10000 7.94 227 21:48 24.11.2021
4643 Clouds 8 1015 85 10000 8.18 228 21:22 24.11.2021
4644 Clouds 8 1016 85 10000 8.49 225 20:27 24.11.2021
4645 Clouds 8 1016 85 10000 8.49 225 20:27 24.11.2021
4646 Clouds 8 1016 85 10000 8.49 225 19:40 24.11.2021
4647 Clouds 8 1016 87 10000 8.31 235 18:19 24.11.2021
4648 Clouds 8 1017 87 10000 8.19 240 16:47 24.11.2021
4649 Clouds 9 1018 87 10000 8.46 254 14:58 24.11.2021
4650 Clouds 10 1018 87 10000 8.8 256 14:22 24.11.2021
4651 Clouds 10 1018 79 10000 7.24 254 13:35 24.11.2021
4652 Clouds 10 1019 78 10000 7.27 269 11:36 24.11.2021
4653 Clouds 10 1020 78 10000 7.66 273 11:18 24.11.2021
4654 Clouds 9 1020 78 10000 7.66 273 10:36 24.11.2021
4655 Clouds 9 1020 79 10000 7.85 279 09:35 24.11.2021
4656 Clouds 10 1020 80 10000 8.53 284 07:41 24.11.2021
4657 Clouds 10 1020 79 10000 9.47 281 05:41 24.11.2021
4658 Clouds 10 1020 82 10000 9.57 283 03:44 24.11.2021
4659 Clouds 10 1022 81 10000 10.16 286 23:35 23.11.2021
4660 Clouds 10 1022 82 10000 10.04 286 22:39 23.11.2021
4661 Clouds 10 1022 83 10000 9.61 288 21:45 23.11.2021
4662 Clouds 10 1022 84 10000 9.23 288 20:36 23.11.2021
4663 Clouds 10 1022 86 10000 9.45 288 19:36 23.11.2021
4664 Clouds 10 1022 84 10000 9.38 281 18:35 23.11.2021
4665 Clouds 10 1022 83 10000 9.01 281 17:57 23.11.2021
4666 Clouds 10 1022 82 10000 8.58 282 16:37 23.11.2021
4667 Clouds 10 1022 79 10000 8.36 285 15:41 23.11.2021
4668 Clouds 11 1023 72 10000 7.85 289 15:19 23.11.2021
4669 Clouds 11 1022 69 10000 7.93 285 13:33 23.11.2021
4670 Clouds 11 1023 79 10000 8 293 10:40 23.11.2021
4671 Clouds 10 1022 81 10000 8.34 297 09:48 23.11.2021
4672 Clouds 10 1022 82 10000 8.68 301 08:43 23.11.2021
4673 Clouds 10 1021 84 10000 9.52 302 05:57 23.11.2021
4674 Clouds 9 1020 83 10000 10.55 298 03:39 23.11.2021
4675 Clouds 6 1021 87 10000 10.84 249 23:43 22.11.2021
4676 Clouds 6 1022 85 10000 10.34 246 23:20 22.11.2021
4677 Clouds 5 1022 85 10000 10.34 246 22:32 22.11.2021
4678 Clouds 5 1022 79 10000 9.46 252 21:46 22.11.2021
4679 Clouds 5 1022 73 10000 8.61 258 21:26 22.11.2021
4680 Clouds 4 1022 73 10000 8.61 258 20:49 22.11.2021
4681 Clouds 4 1023 71 10000 8.26 259 19:31 22.11.2021
4682 Clear 4 1023 70 10000 7.83 262 18:58 22.11.2021
4683 Clouds 4 1022 68 10000 6.12 268 18:35 22.11.2021
4684 Clear 5 1023 68 10000 5.58 275 17:18 22.11.2021
4685 Clear 6 1023 68 10000 5.14 285 15:43 22.11.2021
4686 Clear 6 1023 63 10000 5.05 306 13:57 22.11.2021
4687 Clouds 6 1023 62 10000 4.03 328 11:41 22.11.2021
4688 Clouds 8 1023 63 10000 4.35 345 10:39 22.11.2021
4689 Clouds 6 1022 66 10000 5.34 1 09:26 22.11.2021
4690 Clouds 6 1022 66 10000 5.34 1 08:39 22.11.2021
4691 Clouds 6 1019 72 10000 6.53 359 04:33 22.11.2021
4692 Clouds 7 1015 65 10000 7.61 34 23:24 21.11.2021
4693 Clouds 7 1015 65 10000 7.61 34 22:48 21.11.2021
4694 Clouds 7 1014 66 10000 8.25 38 21:48 21.11.2021
4695 Clouds 7 1013 69 10000 7.79 48 20:41 21.11.2021
4696 Clouds 8 1012 70 10000 8.39 47 19:46 21.11.2021
4697 Clouds 10 1010 74 10000 7.24 37 18:18 21.11.2021
4698 Clouds 10 1010 74 10000 7.24 37 17:38 21.11.2021
4699 Clouds 8 1008 74 10000 5.58 350 15:49 21.11.2021
4700 Rain 8 1007 75 10000 5.46 328 14:45 21.11.2021
4701 Clouds 9 1007 76 10000 6.17 312 13:46 21.11.2021
4702 Clouds 9 1007 74 10000 6.9 308 12:35 21.11.2021
4703 Clouds 12 1006 76 10000 7.58 296 11:42 21.11.2021
4704 Clouds 12 1006 76 10000 8.06 293 11:24 21.11.2021
4705 Clouds 11 1006 76 10000 8.77 291 10:18 21.11.2021
4706 Clouds 10 1004 76 10000 9.76 286 08:42 21.11.2021
4707 Clouds 10 1004 79 10000 10.18 287 08:23 21.11.2021
4708 Clouds 10 1004 79 10000 10.18 287 07:47 21.11.2021
4709 Clouds 10 1003 88 10000 10.61 275 05:53 21.11.2021
4710 Clouds 10 1003 88 10000 13.46 243 05:25 21.11.2021
4711 Clouds 11 1004 89 10000 12.37 249 03:19 21.11.2021
4712 Clouds 11 1004 89 10000 12.37 249 02:52 21.11.2021
4713 Clouds 11 1006 88 10000 12.59 253 00:59 21.11.2021
4714 Clouds 11 1007 86 10000 12.34 254 23:56 20.11.2021
4715 Clouds 11 1008 88 10000 12.51 257 21:46 20.11.2021
4716 Clouds 11 1009 88 10000 12.21 258 21:27 20.11.2021
4717 Clouds 11 1010 89 10000 12.85 252 18:46 20.11.2021
4718 Clouds 11 1011 88 10000 12.64 254 18:26 20.11.2021
4719 Clouds 12 1011 88 10000 12.64 254 17:57 20.11.2021
4720 Clouds 12 1012 88 10000 12.73 254 16:59 20.11.2021
4721 Clouds 13 1013 84 10000 12.59 260 14:48 20.11.2021
4722 Clouds 13 1014 85 10000 12.27 261 14:27 20.11.2021
4723 Clouds 13 1016 85 10000 12.8 262 12:23 20.11.2021
4724 Clouds 12 1016 87 10000 12.36 259 11:19 20.11.2021
4725 Clouds 12 1017 88 10000 12.17 257 09:53 20.11.2021
4726 Clouds 12 1018 88 10000 11.58 265 07:47 20.11.2021
4727 Clouds 12 1018 89 10000 11.87 277 05:29 20.11.2021
4728 Clouds 12 1018 89 10000 11.87 277 04:51 20.11.2021
4729 Clouds 12 1018 87 10000 13.2 282 03:24 20.11.2021
4730 Clouds 13 1018 91 10000 14.57 280 00:42 20.11.2021
4731 Clouds 13 1018 89 10000 14.52 278 23:43 19.11.2021
4732 Clouds 13 1017 89 10000 14.51 278 22:52 19.11.2021
4733 Clouds 13 1017 91 10000 15.5 273 21:22 19.11.2021
4734 Clouds 13 1017 91 10000 15.5 273 20:37 19.11.2021
4735 Clouds 13 1017 90 10000 15.21 273 19:56 19.11.2021
4736 Clouds 13 1017 90 10000 15.21 273 19:34 19.11.2021
4737 Clouds 13 1016 90 10000 14.92 276 18:43 19.11.2021
4738 Clouds 13 1017 90 10000 14.76 275 17:38 19.11.2021
4739 Clouds 13 1017 84 10000 14.88 271 16:22 19.11.2021
4740 Clouds 13 1017 87 10000 14.84 271 14:19 19.11.2021
4741 Clouds 13 1017 91 10000 14.37 268 10:52 19.11.2021
4742 Clouds 13 1017 91 10000 14.19 267 10:23 19.11.2021
4743 Clouds 13 1017 92 10000 14.49 265 08:32 19.11.2021
4744 Clouds 13 1016 90 10000 14.32 267 04:58 19.11.2021
4745 Clouds 12 1016 95 10000 13.54 265 03:19 19.11.2021
4746 Clouds 12 1016 95 10000 13.67 273 23:53 18.11.2021
4747 Clouds 12 1015 95 10000 14.72 270 22:43 18.11.2021
4748 Clouds 12 1015 95 10000 14.73 264 20:57 18.11.2021
4749 Clouds 12 1015 95 10000 14.73 264 20:39 18.11.2021
4750 Clouds 12 1015 94 10000 14.97 260 20:19 18.11.2021
4751 Clouds 11 1015 94 10000 14.97 260 19:36 18.11.2021
4752 Clouds 11 1015 93 10000 15.44 257 18:37 18.11.2021
4753 Clouds 11 1015 92 10000 15.54 250 17:52 18.11.2021
4754 Clouds 10 1015 90 10000 14.92 244 16:47 18.11.2021
4755 Rain 10 1016 91 10000 13.94 239 15:56 18.11.2021
4756 Clouds 10 1017 91 10000 13.18 244 14:57 18.11.2021
4757 Clouds 11 1018 91 10000 12.24 252 12:55 18.11.2021
4758 Clouds 10 1019 91 10000 11.37 255 11:44 18.11.2021
4759 Clouds 10 1018 90 10000 11.47 254 11:25 18.11.2021
4760 Clouds 10 1019 88 10000 11.26 261 10:24 18.11.2021
4761 Clouds 8 1019 87 10000 11.02 263 08:44 18.11.2021
4762 Clouds 8 1017 84 10000 11.17 265 06:49 18.11.2021
4763 Clouds 7 1018 83 10000 11.56 270 05:46 18.11.2021
4764 Clouds 7 1016 74 10000 10.36 271 01:26 18.11.2021
4765 Clouds 8 1016 75 10000 10.41 276 23:46 17.11.2021
4766 Clouds 8 1016 78 10000 9.72 280 22:40 17.11.2021
4767 Clouds 8 1016 80 10000 8.43 281 22:19 17.11.2021
4768 Clouds 8 1016 80 10000 8.43 281 21:36 17.11.2021
4769 Clouds 8 1015 81 10000 9.01 289 20:18 17.11.2021
4770 Clouds 8 1013 88 10000 11.48 251 17:36 17.11.2021
4771 Clouds 7 1013 88 10000 10.69 237 16:28 17.11.2021
4772 Clouds 6 1014 81 10000 8.64 220 13:49 17.11.2021
4773 Clouds 6 1014 82 10000 7.64 218 12:38 17.11.2021
4774 Clouds 6 1015 84 10000 7.79 228 11:28 17.11.2021
4775 Clouds 5 1015 85 10000 7.58 229 09:58 17.11.2021
4776 Clouds 5 1016 85 10000 7.04 231 09:23 17.11.2021
4777 Clouds 5 1016 85 10000 6.72 233 07:41 17.11.2021
4778 Clouds 6 1016 82 10000 4.71 238 03:31 17.11.2021
4779 Clouds 6 1017 87 10000 3.57 218 00:46 17.11.2021
4780 Clouds 7 1019 86 10000 3.29 217 22:41 16.11.2021
4781 Clouds 7 1020 85 10000 3.22 194 20:20 16.11.2021
4782 Clouds 7 1020 85 10000 3.22 194 19:59 16.11.2021
4783 Clouds 7 1020 84 10000 3.38 185 18:53 16.11.2021
4784 Clouds 6 1020 84 10000 3.38 185 18:30 16.11.2021
4785 Clouds 7 1020 83 10000 3.7 170 17:34 16.11.2021
4786 Clouds 6 1021 83 10000 3.93 161 16:35 16.11.2021
4787 Clouds 7 1021 81 10000 3.55 160 15:49 16.11.2021
4788 Clouds 7 1022 80 10000 3.52 159 14:39 16.11.2021
4789 Clouds 7 1025 82 10000 4.04 136 11:29 16.11.2021
4790 Clouds 7 1025 82 10000 3.53 141 09:46 16.11.2021
4791 Clouds 6 1026 82 10000 3.21 141 08:27 16.11.2021
4792 Clouds 6 1026 82 10000 3.21 141 07:32 16.11.2021
4793 Clouds 6 1027 79 10000 3.99 125 02:20 16.11.2021
4794 Clouds 7 1028 71 10000 3.92 137 23:22 15.11.2021
4795 Clouds 7 1028 71 10000 3.92 137 22:37 15.11.2021
4796 Clouds 7 1028 71 10000 3.89 131 21:53 15.11.2021
4797 Clouds 7 1029 72 10000 4.09 131 21:29 15.11.2021
4798 Clouds 7 1029 71 10000 4.53 128 19:58 15.11.2021
4799 Clouds 7 1029 72 10000 4.75 131 18:48 15.11.2021
4800 Clouds 7 1029 73 10000 5.13 129 16:55 15.11.2021
4801 Clouds 7 1029 73 10000 4.86 123 15:42 15.11.2021
4802 Clouds 7 1030 73 10000 4.53 125 15:24 15.11.2021
4803 Clouds 7 1030 73 10000 4.58 119 13:35 15.11.2021
4804 Clouds 8 1031 71 10000 4.74 125 11:54 15.11.2021
4805 Clouds 8 1031 73 10000 5.45 131 09:29 15.11.2021
4806 Clouds 8 1031 74 10000 6.09 125 07:58 15.11.2021
4807 Clouds 7 1030 74 10000 6.47 109 05:24 15.11.2021
4808 Clouds 8 1031 80 10000 7.07 99 00:32 15.11.2021
4809 Clouds 10 1031 78 10000 7.49 93 22:38 14.11.2021
4810 Clouds 10 1030 81 10000 7.78 93 20:51 14.11.2021
4811 Clouds 10 1029 79 10000 8.86 84 19:18 14.11.2021
4812 Clouds 10 1029 79 10000 8.86 84 18:54 14.11.2021
4813 Clouds 10 1029 79 10000 8.86 84 18:36 14.11.2021
4814 Clouds 10 1029 78 10000 9.13 82 18:18 14.11.2021
4815 Clouds 10 1029 78 10000 9.13 82 17:57 14.11.2021
4816 Clouds 10 1029 78 10000 9.13 82 17:39 14.11.2021
4817 Clouds 10 1028 80 10000 8.65 80 17:21 14.11.2021
4818 Clouds 10 1028 80 10000 8.65 80 16:50 14.11.2021
4819 Clouds 10 1028 78 10000 9.14 76 16:21 14.11.2021
4820 Clouds 10 1028 78 10000 9.14 76 15:52 14.11.2021
4821 Clouds 10 1027 79 10000 8.43 78 15:19 14.11.2021
4822 Clouds 10 1027 79 10000 8.43 78 14:34 14.11.2021
4823 Clouds 9 1027 79 10000 8.11 81 13:59 14.11.2021
4824 Clouds 10 1027 79 10000 8.11 81 13:40 14.11.2021
4825 Clouds 10 1026 80 10000 7.8 85 12:45 14.11.2021
4826 Clouds 9 1026 81 10000 7.91 83 12:20 14.11.2021
4827 Clouds 10 1026 81 10000 7.79 85 10:52 14.11.2021
4828 Clouds 9 1025 81 10000 7.49 85 10:27 14.11.2021
4829 Clouds 9 1024 82 10000 7.3 87 09:18 14.11.2021
4830 Clouds 9 1024 82 10000 7.3 87 08:43 14.11.2021
4831 Clouds 7 1021 80 10000 6.32 75 04:46 14.11.2021
4832 Clouds 8 1018 75 10000 3.99 91 22:28 13.11.2021
4833 Clouds 8 1018 75 10000 3.99 91 22:28 13.11.2021
4834 Clouds 8 1018 75 10000 3.99 91 21:59 13.11.2021
4835 Clouds 8 1017 75 10000 3.54 92 21:29 13.11.2021
4836 Clouds 8 1017 74 10000 3.03 94 20:25 13.11.2021
4837 Clouds 8 1016 69 10000 2.32 100 18:53 13.11.2021
4838 Clouds 8 1016 68 10000 2.15 114 18:26 13.11.2021
4839 Clouds 7 1016 68 10000 2.15 114 17:32 13.11.2021
4840 Clouds 8 1015 68 10000 2.72 136 15:42 13.11.2021
4841 Clouds 7 1014 68 10000 3.38 140 14:39 13.11.2021
4842 Clouds 8 1014 67 10000 3.48 138 13:46 13.11.2021
4843 Clouds 7 1014 67 10000 3.31 141 12:41 13.11.2021
4844 Clouds 7 1014 68 10000 3.96 155 11:46 13.11.2021
4845 Clouds 6 1014 71 10000 5.33 147 10:57 13.11.2021
4846 Clouds 6 1014 72 10000 5.17 151 10:29 13.11.2021
4847 Clouds 6 1014 72 10000 5.17 151 09:43 13.11.2021
4848 Clouds 6 1014 73 10000 4.92 161 09:22 13.11.2021
4849 Clouds 6 1014 73 10000 4.92 161 08:42 13.11.2021
4850 Clouds 7 1013 76 10000 6.48 154 07:26 13.11.2021
4851 Clouds 7 1013 76 10000 7.15 159 04:40 13.11.2021
4852 Clouds 7 1013 79 10000 8.03 153 02:41 13.11.2021
4853 Clouds 8 1015 81 10000 8.73 151 23:35 12.11.2021
4854 Clouds 8 1016 85 10000 8.6 152 21:54 12.11.2021
4855 Clouds 10 1016 85 10000 8.11 155 20:46 12.11.2021
4856 Clouds 10 1016 84 10000 8.07 149 19:32 12.11.2021
4857 Clouds 10 1016 86 10000 7.95 145 18:57 12.11.2021
4858 Clouds 10 1016 86 10000 7.95 145 18:57 12.11.2021
4859 Clouds 10 1017 86 10000 6.97 137 18:19 12.11.2021
4860 Clouds 11 1018 82 10000 4.6 159 15:55 12.11.2021
4861 Clouds 10 1020 78 10000 3.46 184 13:28 12.11.2021
4862 Clouds 11 1020 85 10000 5.19 199 11:25 12.11.2021
4863 Clouds 11 1020 85 10000 5.19 199 10:40 12.11.2021
4864 Clouds 10 1020 91 10000 4.8 194 08:56 12.11.2021
4865 Clouds 10 1021 89 10000 3.17 213 07:49 12.11.2021
4866 Clouds 11 1021 89 10000 6.3 274 00:21 12.11.2021
4867 Clouds 11 1021 89 10000 6.3 274 23:30 11.11.2021
4868 Clouds 11 1021 90 10000 7.25 276 22:21 11.11.2021
4869 Clouds 11 1021 91 10000 7.67 269 21:26 11.11.2021
4870 Clouds 11 1021 93 10000 7.22 260 20:18 11.11.2021
4871 Clouds 11 1020 94 10000 6.96 253 18:42 11.11.2021
4872 Clouds 11 1020 91 10000 6.97 266 17:42 11.11.2021
4873 Clouds 12 1020 94 10000 8.16 264 16:24 11.11.2021
4874 Clouds 12 1020 94 10000 8.52 257 14:44 11.11.2021
4875 Clouds 12 1020 94 10000 8.22 251 14:25 11.11.2021
4876 Clouds 12 1020 94 10000 8.22 251 13:36 11.11.2021
4877 Clouds 12 1020 94 10000 8.34 252 12:30 11.11.2021
4878 Clouds 11 1020 93 10000 7.6 239 10:34 11.11.2021
4879 Clouds 10 1020 92 10000 7.3 235 09:33 11.11.2021
4880 Clouds 10 1021 93 10000 6.62 234 07:35 11.11.2021
4881 Clouds 10 1022 89 10000 5.29 239 00:43 11.11.2021
4882 Clouds 10 1022 86 10000 5.53 250 22:49 10.11.2021
4883 Clouds 10 1022 85 10000 5.54 243 21:58 10.11.2021
4884 Clouds 10 1023 83 10000 5.89 234 21:18 10.11.2021
4885 Clouds 10 1023 83 10000 5.89 234 20:36 10.11.2021
4886 Clouds 10 1023 82 10000 5.72 236 19:46 10.11.2021
4887 Clouds 11 1022 79 10000 5.77 235 17:40 10.11.2021
4888 Clouds 8 1022 78 10000 5.56 230 16:33 10.11.2021
4889 Clouds 12 1022 76 10000 5.62 228 14:44 10.11.2021
4890 Clouds 13 1022 74 10000 6.01 230 13:40 10.11.2021
4891 Clouds 13 1023 73 10000 6.6 231 12:44 10.11.2021
4892 Clouds 11 1023 75 10000 7.56 217 10:39 10.11.2021
4893 Clouds 7 1023 79 10000 7 215 08:45 10.11.2021
4894 Clouds 7 1023 80 10000 7.17 214 07:32 10.11.2021
4895 Clouds 7 1023 80 10000 7.17 214 07:32 10.11.2021
4896 Clouds 7 1024 79 10000 7.61 219 06:26 10.11.2021
4897 Clouds 7 1024 79 10000 7.61 219 05:51 10.11.2021
4898 Clouds 8 1025 78 10000 8.68 215 23:53 09.11.2021
4899 Clouds 9 1026 79 10000 9.91 212 21:48 09.11.2021
4900 Clouds 9 1026 79 10000 9.81 212 20:32 09.11.2021
4901 Clouds 10 1026 81 10000 9.19 209 19:25 09.11.2021
4902 Clouds 10 1026 80 10000 9.05 207 17:37 09.11.2021
4903 Clouds 12 1026 77 10000 7.88 212 15:45 09.11.2021
4904 Clouds 12 1025 76 10000 7.89 213 14:43 09.11.2021
4905 Clouds 12 1026 75 10000 7.86 215 12:53 09.11.2021
4906 Clouds 12 1026 75 10000 7.86 215 12:53 09.11.2021
4907 Clouds 12 1026 78 10000 7.57 217 11:56 09.11.2021
4908 Clouds 10 1026 84 10000 7.23 214 10:45 09.11.2021
4909 Clouds 10 1025 89 10000 6.53 204 09:28 09.11.2021
4910 Clouds 9 1025 91 10000 6.29 186 08:27 09.11.2021
4911 Clouds 8 1025 85 10000 6.28 160 05:56 09.11.2021
4912 Clouds 8 1024 79 10000 6.73 131 02:23 09.11.2021
4913 Clouds 9 1024 79 10000 6.73 131 01:46 09.11.2021
4914 Clouds 9 1024 73 10000 5.87 114 23:59 08.11.2021
4915 Clouds 9 1024 75 10000 6.61 115 22:51 08.11.2021
4916 Clouds 9 1023 76 10000 6.93 110 22:27 08.11.2021
4917 Clouds 9 1023 79 10000 7.46 107 20:56 08.11.2021
4918 Clouds 10 1022 82 10000 8.46 103 19:53 08.11.2021
4919 Clouds 10 1021 82 10000 9.14 96 18:57 08.11.2021
4920 Clouds 10 1019 85 10000 9.43 89 16:34 08.11.2021
4921 Rain 11 1018 77 10000 2.73 50 15:27 08.11.2021
4922 Rain 11 1018 77 10000 2.73 50 14:43 08.11.2021
4923 Rain 11 1018 76 10000 2.23 356 13:55 08.11.2021
4924 Rain 11 1017 77 10000 2.96 350 12:44 08.11.2021
4925 Rain 11 1016 77 10000 4.19 341 11:27 08.11.2021
4926 Rain 10 1015 76 10000 4.44 332 09:59 08.11.2021
4927 Clouds 11 1015 77 10000 4.64 332 08:55 08.11.2021
4928 Clouds 11 1014 79 10000 6.02 324 07:38 08.11.2021
4929 Clouds 11 1012 81 10000 5.75 326 06:20 08.11.2021
4930 Clear 10 1011 86 10000 7.11 312 03:33 08.11.2021
4931 Clouds 11 1007 83 10000 5.38 332 23:51 07.11.2021
4932 Clouds 10 1006 84 10000 5.73 334 22:30 07.11.2021
4933 Clouds 9 1004 88 10000 8.13 289 21:22 07.11.2021
4934 Clouds 9 1004 86 10000 12.1 257 19:55 07.11.2021
4935 Clouds 9 1003 80 10000 10.47 264 18:26 07.11.2021
4936 Clouds 10 1003 80 10000 10.47 264 17:38 07.11.2021
4937 Clouds 10 1004 76 10000 11.85 268 15:55 07.11.2021
4938 Clouds 11 1003 75 10000 11.72 268 14:42 07.11.2021
4939 Clouds 11 1003 76 10000 11.82 270 13:57 07.11.2021
4940 Clouds 12 1003 79 10000 13.07 267 11:54 07.11.2021
4941 Clouds 11 1003 80 10000 14.14 260 10:23 07.11.2021
4942 Rain 11 1003 81 10000 14.07 257 08:58 07.11.2021
4943 Rain 10 1007 85 10000 14.18 218 02:49 07.11.2021
4944 Clouds 11 1011 84 10000 13.35 217 00:18 07.11.2021
4945 Clouds 10 1013 84 10000 12.99 222 22:54 06.11.2021
4946 Clouds 10 1014 83 10000 12.22 227 21:49 06.11.2021
4947 Clouds 10 1014 85 10000 12.3 229 20:54 06.11.2021
4948 Clouds 10 1015 87 10000 12.49 228 19:40 06.11.2021
4949 Rain 11 1016 89 10000 12.39 232 17:31 06.11.2021
4950 Clouds 11 1017 83 10000 12.05 240 16:21 06.11.2021
4951 Clouds 11 1019 87 10000 12.6 247 13:39 06.11.2021
4952 Clouds 11 1019 90 10000 12.29 247 12:55 06.11.2021
4953 Clouds 11 1020 90 10000 12.58 249 10:35 06.11.2021
4954 Clouds 11 1019 87 10000 12 255 08:36 06.11.2021
4955 Clouds 11 1018 87 10000 11.74 262 04:50 06.11.2021
4956 Clouds 11 1017 87 10000 12.61 265 23:49 05.11.2021
4957 Clouds 11 1017 89 10000 12.17 261 23:28 05.11.2021
4958 Clouds 11 1017 89 10000 12.17 261 22:33 05.11.2021
4959 Clouds 11 1017 85 10000 11.57 271 20:32 05.11.2021
4960 Clouds 11 1016 81 10000 12.82 278 19:51 05.11.2021
4961 Clouds 11 1015 83 10000 13.51 264 18:43 05.11.2021
4962 Clouds 11 1015 81 10000 11.52 262 17:52 05.11.2021
4963 Clouds 12 1015 80 10000 10.99 271 16:45 05.11.2021
4964 Clear 11 1014 78 10000 9.97 286 14:22 05.11.2021
4965 Clouds 12 1013 79 10000 10.67 288 12:27 05.11.2021
4966 Clouds 10 1011 79 10000 9.98 305 09:29 05.11.2021
4967 Clouds 10 1011 79 10000 9.98 305 08:31 05.11.2021
4968 Clouds 10 1008 77 10000 12.59 317 06:21 05.11.2021
4969 Clouds 10 1003 78 10000 13.89 328 02:38 05.11.2021
4970 Clouds 10 1002 81 10000 14.74 332 02:19 05.11.2021
4971 Rain 10 1000 85 7768 15.45 341 23:57 04.11.2021
4972 Rain 10 999 87 6116 15.71 347 22:36 04.11.2021
4973 Rain 9 998 88 5590 16.16 350 22:18 04.11.2021
4974 Rain 9 998 89 6353 16.57 352 21:27 04.11.2021
4975 Rain 10 997 90 6920 16.19 360 20:29 04.11.2021
4976 Rain 10 997 90 6920 16.19 360 19:49 04.11.2021
4977 Rain 10 998 91 5310 15.8 14 19:28 04.11.2021
4978 Rain 10 997 92 6700 15.81 22 18:29 04.11.2021
4979 Rain 10 998 92 5643 15.85 29 17:26 04.11.2021
4980 Rain 10 998 91 7721 15.06 31 16:23 04.11.2021
4981 Rain 11 1000 88 10000 12.79 41 13:50 04.11.2021
4982 Rain 10 1003 82 10000 10.53 56 10:48 04.11.2021
4983 Rain 10 1004 80 10000 9.28 66 08:41 04.11.2021
4984 Clouds 9 1004 80 10000 8 71 07:49 04.11.2021
4985 Clouds 9 1004 80 10000 8 71 07:31 04.11.2021
4986 Clouds 8 1005 83 10000 3.56 144 23:23 03.11.2021
4987 Clouds 8 1006 82 10000 3.68 154 22:29 03.11.2021
4988 Clouds 8 1006 82 10000 3.68 154 21:37 03.11.2021
4989 Clouds 8 1005 81 10000 3.01 155 20:44 03.11.2021
4990 Clouds 7 1005 79 10000 3.43 160 20:26 03.11.2021
4991 Clouds 8 1005 79 10000 3.43 160 19:37 03.11.2021
4992 Clouds 9 1004 76 10000 2.8 169 18:27 03.11.2021
4993 Clouds 10 1004 76 10000 2.8 169 17:56 03.11.2021
4994 Clouds 10 1004 74 10000 2.55 171 16:49 03.11.2021
4995 Clouds 11 1003 73 10000 1.5 190 15:51 03.11.2021
4996 Clouds 12 1003 73 10000 1.5 190 15:30 03.11.2021
4997 Clouds 12 1003 73 10000 1.5 190 15:30 03.11.2021
4998 Clouds 9 1003 76 10000 3.46 220 13:42 03.11.2021
4999 Clouds 13 1003 79 10000 4.27 228 11:37 03.11.2021
5000 Clouds 12 1003 81 10000 5.16 224 10:51 03.11.2021
5001 Clouds 10 1003 84 10000 5.13 214 09:48 03.11.2021
5002 Clouds 9 1003 85 10000 4.46 216 08:58 03.11.2021
5003 Clouds 8 1002 84 10000 3.83 222 07:59 03.11.2021
5004 Clouds 9 1002 84 10000 3.83 222 07:35 03.11.2021
5005 Clouds 9 1001 85 10000 4.01 227 04:23 03.11.2021
5006 Clouds 8 1001 85 10000 4.63 221 01:32 03.11.2021
5007 Clouds 8 1001 82 10000 4.04 237 23:30 02.11.2021
5008 Clouds 9 1001 79 10000 3.72 234 22:20 02.11.2021
5009 Clouds 9 1000 79 10000 3.5 237 20:45 02.11.2021
5010 Clouds 9 1000 79 10000 2.96 235 20:21 02.11.2021
5011 Clouds 10 1000 79 10000 2.96 235 19:40 02.11.2021
5012 Clouds 10 1000 81 10000 4.34 266 18:36 02.11.2021
5013 Clouds 11 1000 81 10000 3.89 271 17:56 02.11.2021
5014 Clouds 11 1000 81 10000 3.89 271 17:31 02.11.2021
5015 Clouds 12 999 84 10000 1.89 205 16:26 02.11.2021
5016 Clouds 11 999 85 10000 2.42 178 14:58 02.11.2021
5017 Clouds 11 999 86 10000 3.07 166 13:44 02.11.2021
5018 Clouds 11 999 87 10000 3.22 192 13:26 02.11.2021
5019 Clouds 11 1000 88 10000 3.64 178 12:28 02.11.2021
5020 Clouds 10 1000 87 10000 3.81 161 11:28 02.11.2021
5021 Clouds 10 1000 87 10000 3.81 161 10:50 02.11.2021
5022 Clouds 10 1000 86 10000 3.68 151 10:23 02.11.2021
5023 Rain 10 1000 86 10000 3.89 142 08:42 02.11.2021
5024 Clouds 10 1000 87 10000 4.37 163 06:42 02.11.2021
5025 Rain 10 1000 84 10000 4.5 157 03:33 02.11.2021
5026 Rain 10 1001 83 10000 3.72 200 00:58 02.11.2021
5027 Clouds 11 1002 86 10000 5.88 193 22:28 01.11.2021
5028 Clouds 11 1002 86 10000 5.77 193 20:50 01.11.2021
5029 Clouds 11 1002 86 10000 5.77 193 20:32 01.11.2021
5030 Clouds 12 1002 87 10000 6.57 183 19:44 01.11.2021
5031 Clouds 12 1002 83 10000 6.86 174 18:57 01.11.2021
5032 Clouds 12 1001 82 10000 6.36 169 18:19 01.11.2021
5033 Clouds 12 1001 79 10000 5.59 176 17:18 01.11.2021
5034 Clouds 13 1001 79 10000 5.59 176 16:37 01.11.2021
5035 Clouds 13 1001 75 10000 5.28 191 15:45 01.11.2021
5036 Rain 13 1001 74 10000 5.7 206 15:19 01.11.2021
5037 Clouds 13 1001 74 10000 5.7 206 14:41 01.11.2021
5038 Clouds 13 1001 76 10000 6.64 197 14:19 01.11.2021
5039 Clouds 13 1001 78 10000 6.95 202 12:59 01.11.2021
5040 Clouds 12 1000 81 10000 5.64 208 11:40 01.11.2021
5041 Clouds 13 1000 83 10000 6.13 222 10:23 01.11.2021
5042 Clouds 12 999 79 10000 7.28 215 08:43 01.11.2021
5043 Clouds 12 999 78 10000 7.53 203 07:47 01.11.2021
5044 Clouds 12 999 75 10000 9.64 174 03:58 01.11.2021
5045 Clouds 12 999 75 10000 9.64 174 03:39 01.11.2021
5046 Clouds 15 1000 65 10000 12.2 162 23:59 31.10.2021
5047 Clouds 14 1002 71 10000 10.99 152 21:31 31.10.2021
5048 Clouds 14 1004 80 10000 9.09 148 20:24 31.10.2021
5049 Clouds 14 1005 83 10000 8.28 147 18:46 31.10.2021
5050 Clouds 15 1005 85 10000 6.92 143 18:23 31.10.2021
5051 Clouds 15 1006 86 10000 5.8 145 16:48 31.10.2021
5052 Clouds 16 1007 79 10000 3.95 154 15:18 31.10.2021
5053 Clouds 17 1008 83 10000 4.03 199 13:27 31.10.2021
5054 Clouds 16 1008 83 10000 4.27 203 12:30 31.10.2021
5055 Clouds 15 1009 89 10000 5.43 215 10:51 31.10.2021
5056 Clouds 13 1009 90 10000 5.91 214 09:43 31.10.2021
5057 Clouds 13 1009 91 10000 6.29 212 08:48 31.10.2021
5058 Clouds 12 1007 83 10000 7.3 217 04:55 31.10.2021
5059 Clouds 11 1006 70 10000 6.89 184 00:47 31.10.2021
5060 Clouds 12 1005 68 10000 7.36 180 22:28 30.10.2021
5061 Clouds 12 1005 68 10000 7.36 180 21:30 30.10.2021
5062 Clouds 12 1006 66 10000 7.92 166 20:19 30.10.2021
5063 Clouds 13 1006 67 10000 7.26 154 18:21 30.10.2021
5064 Clouds 14 1006 70 10000 6.7 136 16:20 30.10.2021
5065 Clouds 14 1007 70 10000 5.69 146 14:25 30.10.2021
5066 Clouds 15 1008 67 10000 5.49 149 13:39 30.10.2021
5067 Clouds 15 1009 70 10000 5.61 154 13:20 30.10.2021
5068 Clouds 12 1009 71 10000 5.1 164 11:50 30.10.2021
5069 Clouds 11 1009 71 10000 5.1 164 11:31 30.10.2021
5070 Clouds 10 1010 72 10000 5.07 176 10:24 30.10.2021
5071 Clear 9 1010 73 10000 5.32 191 08:48 30.10.2021
5072 Clouds 9 1009 69 10000 5.49 200 05:50 30.10.2021
5073 Clouds 9 1009 69 10000 6.3 199 05:19 30.10.2021
5074 Clouds 10 1010 66 10000 7.43 182 23:52 29.10.2021
5075 Clear 11 1010 67 10000 7.59 167 22:36 29.10.2021
5076 Clear 11 1010 70 10000 7.64 168 21:23 29.10.2021
5077 Clear 12 1010 70 10000 7.64 168 20:42 29.10.2021
5078 Clouds 13 1011 72 10000 7.45 170 19:44 29.10.2021
5079 Clouds 13 1010 74 10000 6.88 162 18:27 29.10.2021
5080 Clouds 16 1010 71 10000 6.3 167 16:51 29.10.2021
5081 Clear 18 1011 68 10000 6.07 177 14:32 29.10.2021
5082 Clouds 11 1012 72 10000 6.23 194 10:57 29.10.2021
5083 Clouds 10 1012 72 10000 6.23 194 10:34 29.10.2021
5084 Clouds 7 1012 78 10000 6.74 191 08:19 29.10.2021
5085 Clear 11 1015 73 10000 6.4 172 00:36 29.10.2021
5086 Clear 11 1015 73 10000 6.4 172 00:36 29.10.2021
5087 Clear 12 1015 76 10000 6.83 174 22:58 28.10.2021
5088 Clear 12 1016 78 10000 7.06 175 21:55 28.10.2021
5089 Clouds 13 1016 78 10000 6.88 171 20:29 28.10.2021
5090 Clouds 14 1016 78 10000 6.88 171 19:48 28.10.2021
5091 Clouds 15 1017 80 10000 5.71 166 18:20 28.10.2021
5092 Clouds 17 1017 78 10000 5.37 173 16:58 28.10.2021
5093 Clouds 17 1018 77 10000 5.15 195 15:20 28.10.2021
5094 Clouds 18 1019 78 10000 5.52 205 13:46 28.10.2021
5095 Clouds 18 1019 79 10000 6.2 213 13:22 28.10.2021
5096 Clouds 17 1019 79 10000 6.2 213 12:41 28.10.2021
5097 Clouds 15 1019 85 10000 7.71 212 10:57 28.10.2021
5098 Clouds 13 1019 88 10000 7.65 211 09:39 28.10.2021
5099 Clouds 12 1019 90 10000 7.6 212 08:58 28.10.2021
5100 Clouds 13 1019 90 10000 7.6 212 08:34 28.10.2021
5101 Clouds 11 1019 90 10000 7.86 217 07:20 28.10.2021
5102 Clouds 15 1019 84 10000 9.31 233 23:59 27.10.2021
5103 Clouds 15 1019 86 10000 9.91 238 22:31 27.10.2021
5104 Clouds 15 1019 86 10000 10.12 239 21:33 27.10.2021
5105 Clouds 15 1018 86 10000 10.78 240 20:53 27.10.2021
5106 Clouds 15 1018 86 10000 10.78 240 20:33 27.10.2021
5107 Clouds 15 1018 87 10000 10.83 243 19:41 27.10.2021
5108 Clouds 15 1018 87 10000 10.82 245 18:53 27.10.2021
5109 Clouds 16 1017 86 10000 11.36 244 16:32 27.10.2021
5110 Clouds 16 1017 84 10000 11.62 242 15:34 27.10.2021
5111 Clouds 16 1017 84 10000 11.82 238 14:42 27.10.2021
5112 Clouds 15 1017 85 10000 12.09 242 12:33 27.10.2021
5113 Clouds 15 1017 86 10000 11.92 234 10:58 27.10.2021
5114 Clouds 14 1017 87 10000 11.52 230 09:51 27.10.2021
5115 Clouds 13 1016 87 10000 10.87 232 08:47 27.10.2021
5116 Clouds 13 1016 89 10000 10.31 231 07:32 27.10.2021
5117 Clouds 12 1017 88 10000 8.83 232 02:39 27.10.2021
5118 Rain 12 1017 87 10000 8.77 229 00:57 27.10.2021
5119 Rain 12 1017 87 10000 8.77 229 00:33 27.10.2021
5120 Clouds 12 1017 87 10000 8.63 223 23:50 26.10.2021
5121 Rain 12 1017 87 10000 8.66 226 22:39 26.10.2021
5122 Clouds 12 1017 85 10000 9.04 228 22:19 26.10.2021
5123 Rain 12 1017 84 10000 7.97 231 20:51 26.10.2021
5124 Rain 12 1017 84 10000 8.61 237 19:33 26.10.2021
5125 Rain 13 1017 85 10000 9.57 245 18:52 26.10.2021
5126 Clouds 14 1016 86 10000 9.8 253 16:58 26.10.2021
5127 Clouds 15 1016 84 10000 9.23 256 15:34 26.10.2021
5128 Clouds 12 1015 88 10000 9.2 250 11:49 26.10.2021
5129 Clouds 12 1015 91 10000 9.67 244 10:46 26.10.2021
5130 Clouds 11 1014 87 10000 7.48 227 08:24 26.10.2021
5131 Rain 11 1014 88 10000 6.81 218 07:21 26.10.2021
5132 Clouds 12 1016 78 10000 6.54 231 23:51 25.10.2021
5133 Clouds 12 1016 78 10000 6.63 227 22:55 25.10.2021
5134 Clouds 11 1016 78 10000 6.58 225 22:21 25.10.2021
5135 Clouds 11 1016 78 10000 6.58 225 21:40 25.10.2021
5136 Clouds 11 1016 76 10000 6.73 217 20:19 25.10.2021
5137 Clouds 11 1016 76 10000 6.73 217 19:43 25.10.2021
5138 Clouds 11 1016 73 10000 6.66 215 19:21 25.10.2021
5139 Clouds 11 1016 73 10000 6.66 215 18:33 25.10.2021
5140 Clouds 12 1016 67 10000 6.17 219 16:38 25.10.2021
5141 Clouds 13 1017 66 10000 6.45 222 14:47 25.10.2021
5142 Clouds 11 1017 68 10000 6.73 223 12:31 25.10.2021
5143 Clear 8 1018 70 10000 7.15 215 10:46 25.10.2021
5144 Clear 5 1018 73 10000 7.53 204 08:57 25.10.2021
5145 Clear 6 1019 72 10000 7.72 194 06:27 25.10.2021
5146 Clear 6 1021 73 10000 7.72 186 03:18 25.10.2021
5147 Clouds 7 1022 73 10000 7.51 185 00:49 25.10.2021
5148 Clouds 7 1022 73 10000 7.51 185 00:31 25.10.2021
5149 Clouds 7 1022 73 10000 7.66 184 23:33 24.10.2021
5150 Clouds 8 1023 72 10000 7.94 182 22:38 24.10.2021
5151 Clouds 8 1023 72 10000 8.24 180 22:19 24.10.2021
5152 Clouds 9 1023 72 10000 8.36 177 20:54 24.10.2021
5153 Clouds 10 1024 72 10000 8.09 174 20:29 24.10.2021
5154 Clouds 8 1024 72 10000 7.93 177 19:36 24.10.2021
5155 Clouds 9 1025 67 10000 6.43 182 18:29 24.10.2021
5156 Clouds 10 1025 67 10000 6.43 182 17:43 24.10.2021
5157 Clouds 13 1026 64 10000 6.66 194 15:56 24.10.2021
5158 Clouds 12 1026 64 10000 6.78 196 14:41 24.10.2021
5159 Clouds 13 1027 68 10000 6.88 204 12:58 24.10.2021
5160 Clouds 12 1028 72 10000 7.06 204 11:45 24.10.2021
5161 Clouds 12 1028 77 10000 7.33 205 11:25 24.10.2021
5162 Clouds 9 1028 79 10000 7.38 204 10:27 24.10.2021
5163 Clouds 8 1028 80 10000 6.49 216 07:51 24.10.2021
5164 Clouds 9 1028 69 10000 4.83 271 01:22 24.10.2021
5165 Clouds 8 1027 69 10000 4.8 279 23:49 23.10.2021
5166 Clouds 8 1027 67 10000 5.6 298 22:29 23.10.2021
5167 Clouds 10 1026 67 10000 6.06 302 20:37 23.10.2021
5168 Clouds 12 1025 65 10000 7.47 309 18:59 23.10.2021
5169 Clouds 12 1025 65 10000 7.47 309 18:30 23.10.2021
5170 Clouds 9 1024 64 10000 7.92 307 17:43 23.10.2021
5171 Clear 11 1024 63 10000 8.43 307 16:35 23.10.2021
5172 Clear 11 1022 63 10000 8.88 311 14:35 23.10.2021
5173 Clear 11 1018 66 10000 12.36 312 09:45 23.10.2021
5174 Clouds 10 1009 69 10000 16.16 293 00:25 23.10.2021
5175 Clouds 10 1008 68 10000 15.97 291 23:22 22.10.2021
5176 Clear 10 1006 64 10000 15.23 293 20:55 22.10.2021
5177 Clouds 10 1004 61 10000 15.21 295 18:57 22.10.2021
5178 Clouds 10 1003 63 10000 14.93 295 17:44 22.10.2021
5179 Clouds 11 1000 67 10000 13.04 293 15:57 22.10.2021
5180 Clouds 10 1000 71 10000 12.57 291 14:30 22.10.2021
5181 Rain 8 997 86 10000 11.95 298 12:41 22.10.2021
5182 Rain 8 997 87 10000 16.87 236 10:50 22.10.2021
5183 Clouds 8 997 88 10000 17.96 242 09:56 22.10.2021
5184 Clouds 8 997 88 10000 17.96 242 09:56 22.10.2021
5185 Clouds 8 997 88 10000 17.96 242 09:56 22.10.2021
5186 Rain 8 997 88 10000 17.96 242 09:32 22.10.2021
5187 Rain 8 1000 83 10000 15.23 242 07:28 22.10.2021
5188 Clouds 8 1000 70 10000 15.02 269 04:59 22.10.2021
5189 Clouds 10 999 64 10000 16.51 286 00:31 22.10.2021
5190 Clouds 10 998 64 10000 17.14 286 23:48 21.10.2021
5191 Clouds 9 996 64 10000 16.52 285 22:22 21.10.2021
5192 Clear 9 995 65 10000 16.07 284 21:18 21.10.2021
5193 Clouds 9 994 65 10000 15.42 284 20:21 21.10.2021
5194 Clouds 11 994 66 10000 15.62 280 19:30 21.10.2021
5195 Clouds 11 993 69 10000 15.3 280 18:52 21.10.2021
5196 Clouds 11 992 73 10000 15.86 269 18:27 21.10.2021
5197 Clouds 11 992 73 10000 15.86 269 17:47 21.10.2021
5198 Clouds 11 992 73 10000 15.86 269 17:47 21.10.2021
5199 Clouds 12 991 69 10000 15.56 270 16:40 21.10.2021
5200 Clouds 13 988 75 10000 14.46 280 15:22 21.10.2021
5201 Clouds 13 988 75 10000 14.46 280 14:50 21.10.2021
5202 Rain 12 986 86 10000 17.04 285 13:39 21.10.2021
5203 Rain 12 981 83 5762 16.08 251 11:47 21.10.2021
5204 Clouds 14 982 77 10000 14.94 234 09:24 21.10.2021
5205 Clouds 15 982 86 4211 15.24 197 07:33 21.10.2021
5206 Clouds 15 987 89 10000 8.95 196 05:33 21.10.2021
5207 Clouds 16 995 79 10000 12.38 229 00:22 21.10.2021
5208 Clouds 17 995 79 10000 13.08 233 22:22 20.10.2021
5209 Clouds 17 995 79 10000 13.08 233 21:46 20.10.2021
5210 Clouds 17 996 79 10000 13.39 231 20:58 20.10.2021
5211 Clouds 17 996 79 10000 13.39 231 20:37 20.10.2021
5212 Clouds 17 996 75 10000 13.72 232 20:00 20.10.2021
5213 Clouds 18 996 75 10000 14.04 233 19:18 20.10.2021
5214 Clouds 17 996 76 10000 13.94 234 18:29 20.10.2021
5215 Clouds 17 996 76 10000 13.94 234 18:29 20.10.2021
5216 Clouds 18 997 75 10000 13.31 233 15:57 20.10.2021
5217 Clouds 18 999 72 10000 14.97 229 13:46 20.10.2021
5218 Clouds 16 1002 82 10000 12.18 218 09:52 20.10.2021
5219 Clouds 17 1005 88 10000 11.39 229 05:29 20.10.2021
5220 Clouds 16 1008 87 10000 10.92 234 01:27 20.10.2021
5221 Clouds 16 1008 87 10000 10.92 234 00:32 20.10.2021
5222 Clouds 15 1009 95 10000 10.26 215 22:30 19.10.2021
5223 Clouds 15 1010 92 10000 9.65 206 21:35 19.10.2021
5224 Rain 15 1012 84 10000 6.98 208 20:26 19.10.2021
5225 Rain 15 1012 84 10000 6.98 208 19:56 19.10.2021
5226 Rain 15 1012 84 10000 7.97 203 19:29 19.10.2021
5227 Rain 15 1012 84 10000 7.97 203 18:31 19.10.2021
5228 Clouds 15 1013 84 10000 6.38 204 17:24 19.10.2021
5229 Clouds 15 1015 83 10000 6.13 202 15:28 19.10.2021
5230 Clouds 15 1015 83 10000 6.13 202 14:33 19.10.2021
5231 Clouds 15 1016 80 10000 6.32 200 13:50 19.10.2021
5232 Clouds 13 1017 78 10000 6.41 195 12:20 19.10.2021
5233 Clouds 12 1017 78 10000 6.08 196 11:23 19.10.2021
5234 Clouds 11 1018 78 10000 5.92 198 09:43 19.10.2021
5235 Clouds 11 1018 78 10000 6.69 194 08:56 19.10.2021
5236 Clouds 11 1021 78 10000 4.51 196 02:18 19.10.2021
5237 Clouds 12 1021 78 10000 4.39 206 23:58 18.10.2021
5238 Clouds 12 1021 78 10000 4.39 206 23:39 18.10.2021
5239 Clouds 12 1022 80 10000 4.21 211 22:55 18.10.2021
5240 Clouds 12 1021 82 10000 4.3 221 22:18 18.10.2021
5241 Clouds 12 1021 85 10000 4.21 230 20:48 18.10.2021
5242 Clouds 13 1021 88 10000 5.53 255 20:24 18.10.2021
5243 Clouds 12 1021 88 10000 5.53 255 19:32 18.10.2021
5244 Clouds 13 1021 87 10000 5 255 18:59 18.10.2021
5245 Clouds 12 1021 91 10000 6.1 248 16:48 18.10.2021
5246 Clouds 12 1021 92 10000 7.28 252 14:47 18.10.2021
5247 Clouds 11 1022 92 10000 4.05 230 12:20 18.10.2021
5248 Clouds 11 1021 93 10000 3.82 226 10:25 18.10.2021
5249 Clouds 10 1021 93 10000 3.69 230 09:25 18.10.2021
5250 Clouds 12 1019 81 10000 2.28 272 01:23 18.10.2021
5251 Clouds 12 1019 81 10000 3.52 293 23:20 17.10.2021
5252 Clouds 12 1019 80 10000 4.27 295 21:45 17.10.2021
5253 Clouds 12 1018 78 10000 4.98 298 20:58 17.10.2021
5254 Clouds 12 1018 76 10000 5.57 296 20:26 17.10.2021
5255 Clouds 11 1018 75 10000 5.28 286 19:38 17.10.2021
5256 Clouds 11 1018 74 10000 5.78 283 18:35 17.10.2021
5257 Clouds 11 1017 68 10000 6.45 285 16:57 17.10.2021
5258 Clouds 12 1016 65 10000 8.08 289 14:47 17.10.2021
5259 Clouds 12 1016 66 10000 8.21 289 14:24 17.10.2021
5260 Clouds 12 1016 66 10000 8.21 289 13:34 17.10.2021
5261 Clouds 11 1016 74 10000 7.07 289 11:54 17.10.2021
5262 Clouds 11 1016 74 10000 7.07 289 11:54 17.10.2021
5263 Clouds 10 1016 80 10000 8.9 248 10:20 17.10.2021
5264 Clouds 8 1016 77 10000 8.85 243 09:23 17.10.2021
5265 Clouds 10 1016 78 10000 9.52 240 06:56 17.10.2021
5266 Clouds 9 1017 75 10000 11.14 248 00:50 17.10.2021
5267 Clouds 10 1017 77 10000 10.69 249 23:43 16.10.2021
5268 Clouds 11 1017 73 10000 9.42 260 21:30 16.10.2021
5269 Rain 11 1017 69 10000 9.36 267 20:31 16.10.2021
5270 Rain 11 1017 68 10000 9.54 275 19:44 16.10.2021
5271 Clouds 11 1017 68 10000 9.97 279 19:21 16.10.2021
5272 Clouds 11 1017 68 10000 9.97 279 18:51 16.10.2021
5273 Clouds 10 1017 69 10000 10.87 273 18:29 16.10.2021
5274 Clouds 11 1017 69 10000 10.87 273 17:53 16.10.2021
5275 Clouds 11 1017 72 10000 10.74 265 17:22 16.10.2021
5276 Clouds 11 1017 68 10000 11.01 266 14:48 16.10.2021
5277 Clouds 12 1018 63 10000 9.13 274 11:31 16.10.2021
5278 Clouds 12 1018 60 10000 8.93 283 10:36 16.10.2021
5279 Clouds 11 1017 61 10000 10.42 293 07:50 16.10.2021
5280 Clouds 11 1015 67 10000 11.49 298 01:25 16.10.2021
5281 Clouds 8 1015 67 10000 11.28 301 23:53 15.10.2021
5282 Clouds 8 1015 65 10000 11.66 306 22:38 15.10.2021
5283 Clear 9 1014 67 10000 11.89 305 22:18 15.10.2021
5284 Clear 9 1013 70 10000 11.89 304 21:26 15.10.2021
5285 Clear 12 1013 70 10000 11.89 304 20:46 15.10.2021
5286 Clear 10 1012 72 10000 12.7 301 19:31 15.10.2021
5287 Clear 13 1011 75 10000 12.4 298 18:40 15.10.2021
5288 Clouds 12 1008 73 10000 13.11 288 16:29 15.10.2021
5289 Clouds 12 1008 73 10000 13.11 288 15:36 15.10.2021
5290 Clouds 13 1007 68 10000 11.99 278 13:29 15.10.2021
5291 Clouds 12 1007 70 10000 12.45 291 11:36 15.10.2021
5292 Rain 12 1006 78 10000 10.44 297 10:46 15.10.2021
5293 Rain 12 1005 87 10000 8.14 313 09:49 15.10.2021
5294 Clouds 12 1006 85 10000 12.97 230 05:32 15.10.2021
5295 Clouds 12 1010 86 10000 12.65 236 01:47 15.10.2021
5296 Clouds 12 1011 87 10000 12.15 239 00:22 15.10.2021
5297 Clouds 12 1012 84 10000 11.76 251 22:52 14.10.2021
5298 Clouds 12 1012 86 10000 11.51 255 21:45 14.10.2021
5299 Clouds 13 1013 84 10000 11.5 259 20:50 14.10.2021
5300 Clouds 13 1013 85 10000 10.38 255 20:19 14.10.2021
5301 Clouds 13 1013 85 10000 10.38 255 19:38 14.10.2021
5302 Clouds 14 1014 89 10000 7.91 227 17:37 14.10.2021
5303 Clouds 14 1014 86 10000 8.56 240 16:51 14.10.2021
5304 Clouds 14 1015 85 10000 8.32 249 16:21 14.10.2021
5305 Clouds 14 1015 83 10000 8.1 253 14:43 14.10.2021
5306 Clouds 14 1016 77 10000 6.83 262 14:22 14.10.2021
5307 Clouds 15 1017 79 10000 7.47 281 11:50 14.10.2021
5308 Clouds 14 1017 81 10000 7.95 285 09:57 14.10.2021
5309 Clouds 13 1016 82 10000 7.51 301 07:37 14.10.2021
5310 Clouds 10 1017 88 10000 6.4 226 02:41 14.10.2021
5311 Clouds 10 1018 75 10000 6.91 281 00:31 14.10.2021
5312 Clouds 11 1019 67 10000 7.25 290 22:32 13.10.2021
5313 Clouds 11 1019 67 10000 7.4 290 21:34 13.10.2021
5314 Clouds 12 1019 70 10000 7.84 276 20:23 13.10.2021
5315 Clouds 12 1019 70 10000 7.9 276 19:19 13.10.2021
5316 Clouds 12 1019 70 10000 7.9 276 18:37 13.10.2021
5317 Clouds 14 1019 62 10000 6.65 282 15:53 13.10.2021
5318 Clouds 14 1019 65 10000 5.96 275 14:46 13.10.2021
5319 Clouds 13 1019 64 10000 4.57 288 14:22 13.10.2021
5320 Clouds 12 1019 65 10000 5.5 314 12:24 13.10.2021
5321 Clouds 11 1019 65 10000 5.5 314 11:35 13.10.2021
5322 Clouds 11 1019 65 10000 5.5 314 11:35 13.10.2021
5323 Clear 11 1018 67 10000 6.47 328 08:57 13.10.2021
5324 Clouds 10 1018 68 10000 6.72 329 07:48 13.10.2021
5325 Clouds 11 1016 67 10000 7.18 325 02:51 13.10.2021
5326 Clouds 11 1016 64 10000 7.35 333 02:19 13.10.2021
5327 Clouds 11 1016 63 10000 7.44 352 23:31 12.10.2021
5328 Clouds 11 1015 63 10000 7.95 357 22:48 12.10.2021
5329 Clear 11 1015 63 10000 8.86 354 22:23 12.10.2021
5330 Clear 12 1015 63 10000 9.98 348 20:50 12.10.2021
5331 Clouds 12 1014 61 10000 10.08 347 20:24 12.10.2021
5332 Clouds 8 1014 59 10000 10.38 346 18:58 12.10.2021
5333 Clear 8 1013 58 10000 9.95 340 18:23 12.10.2021
5334 Clear 10 1013 58 10000 9.75 342 16:47 12.10.2021
5335 Clear 11 1013 60 10000 10.54 347 16:19 12.10.2021
5336 Clear 9 1012 62 10000 10.51 346 15:29 12.10.2021
5337 Clouds 9 1012 66 10000 11 342 13:45 12.10.2021
5338 Clouds 12 1011 65 10000 9.48 326 12:44 12.10.2021
5339 Clouds 9 1012 66 10000 9.81 319 10:45 12.10.2021
5340 Clouds 11 1011 70 10000 9.87 313 09:20 12.10.2021
5341 Clouds 10 1012 72 10000 9.69 311 08:19 12.10.2021
5342 Clouds 10 1012 72 10000 9.58 314 06:43 12.10.2021
5343 Clouds 11 1012 71 10000 8.36 294 04:35 12.10.2021
5344 Clouds 12 1014 66 10000 10.69 297 01:31 12.10.2021
5345 Clouds 12 1015 65 10000 11.68 299 23:46 11.10.2021
5346 Clouds 12 1015 67 10000 11.88 297 23:28 11.10.2021
5347 Clouds 12 1015 67 10000 11.88 297 22:31 11.10.2021
5348 Clouds 13 1016 69 10000 11.9 299 21:20 11.10.2021
5349 Clear 13 1016 69 10000 11.75 301 19:48 11.10.2021
5350 Clear 13 1016 70 10000 11.55 304 19:23 11.10.2021
5351 Clear 14 1016 73 10000 10.18 300 18:23 11.10.2021
5352 Clear 16 1016 73 10000 9.4 280 16:40 11.10.2021
5353 Rain 15 1017 73 10000 8.05 281 16:19 11.10.2021
5354 Clear 15 1017 73 10000 8.05 281 15:42 11.10.2021
5355 Clear 14 1017 73 10000 8.77 285 14:53 11.10.2021
5356 Clear 13 1017 74 10000 9.67 283 13:55 11.10.2021
5357 Clear 13 1017 74 10000 9.67 283 13:35 11.10.2021
5358 Clear 15 1019 76 10000 8.61 284 11:18 11.10.2021
5359 Clear 13 1019 78 10000 8.34 290 09:45 11.10.2021
5360 Clouds 9 1018 75 10000 8.86 306 07:57 11.10.2021
5361 Clouds 8 1022 68 10000 7.47 227 01:44 11.10.2021
5362 Clouds 8 1022 66 10000 7.5 223 00:57 11.10.2021
5363 Clouds 8 1022 66 10000 7.5 223 00:36 11.10.2021
5364 Clouds 9 1023 63 10000 7.63 206 22:35 10.10.2021
5365 Clouds 10 1024 62 10000 7.22 207 21:49 10.10.2021
5366 Clear 11 1024 59 10000 6.63 200 20:57 10.10.2021
5367 Clear 11 1024 59 10000 6.63 200 20:38 10.10.2021
5368 Clouds 11 1025 56 10000 6.17 200 20:19 10.10.2021
5369 Clouds 12 1025 56 10000 6.17 200 19:40 10.10.2021
5370 Clouds 13 1025 54 10000 5.9 190 18:55 10.10.2021
5371 Clouds 13 1025 52 10000 5.56 203 18:19 10.10.2021
5372 Clouds 16 1026 48 10000 5.73 182 15:48 10.10.2021
5373 Clouds 16 1027 47 10000 5.34 188 14:45 10.10.2021
5374 Clouds 16 1028 49 10000 5.41 184 13:40 10.10.2021
5375 Clouds 15 1028 52 10000 5.87 178 12:43 10.10.2021
5376 Clouds 12 1029 56 10000 6.05 176 11:30 10.10.2021
5377 Clouds 12 1029 56 10000 6.05 176 11:30 10.10.2021
5378 Clouds 11 1029 65 10000 5.99 177 10:26 10.10.2021
5379 Clouds 8 1030 68 10000 5.73 178 09:18 10.10.2021
5380 Clouds 7 1030 66 10000 5.9 177 08:50 10.10.2021
5381 Clouds 8 1031 63 10000 4.89 182 04:31 10.10.2021
5382 Clouds 8 1032 61 10000 5.56 172 02:19 10.10.2021
5383 Clouds 9 1033 60 10000 5.49 171 00:47 10.10.2021
5384 Clouds 10 1033 60 10000 5.19 167 23:45 09.10.2021
5385 Clouds 11 1033 59 10000 4.44 160 22:20 09.10.2021
5386 Clouds 11 1033 59 10000 4.44 160 21:30 09.10.2021
5387 Clouds 12 1033 58 10000 4.75 142 20:19 09.10.2021
5388 Clouds 12 1033 58 10000 4.75 142 19:41 09.10.2021
5389 Clouds 11 1033 59 10000 4.98 133 18:48 09.10.2021
5390 Clouds 12 1033 58 10000 4.96 128 18:26 09.10.2021
5391 Clouds 15 1034 55 10000 4.34 136 16:21 09.10.2021
5392 Clouds 15 1034 52 10000 4.48 146 14:37 09.10.2021
5393 Clouds 14 1034 51 10000 4.88 153 13:39 09.10.2021
5394 Clouds 14 1035 55 10000 5.14 156 12:28 09.10.2021
5395 Clouds 10 1035 57 10000 5.39 155 10:47 09.10.2021
5396 Clouds 10 1035 61 10000 5.37 155 10:19 09.10.2021
5397 Clouds 9 1035 64 10000 4.81 151 09:23 09.10.2021
5398 Clouds 8 1034 62 10000 4.72 154 08:20 09.10.2021
5399 Clouds 8 1034 62 10000 4.72 154 08:20 09.10.2021
5400 Clouds 8 1034 62 10000 4.54 150 06:46 09.10.2021
5401 Clouds 9 1034 60 10000 4.28 148 04:55 09.10.2021
5402 Clouds 7 1034 58 10000 4.28 153 02:46 09.10.2021
5403 Clear 12 1034 62 10000 5.06 156 00:43 09.10.2021
5404 Clear 9 1035 67 10000 5.15 145 23:35 08.10.2021
5405 Clear 13 1034 74 10000 4.83 117 22:47 08.10.2021
5406 Clear 13 1034 74 10000 5.02 103 21:45 08.10.2021
5407 Clear 13 1034 73 10000 5.03 98 20:31 08.10.2021
5408 Clear 16 1034 72 10000 4.89 93 18:23 08.10.2021
5409 Clear 16 1033 73 10000 4.63 94 17:18 08.10.2021
5410 Clear 17 1033 73 10000 4.63 94 16:44 08.10.2021
5411 Clear 17 1034 74 10000 4.64 97 16:22 08.10.2021
5412 Clouds 19 1034 81 10000 4.75 86 13:49 08.10.2021
5413 Clouds 17 1034 84 10000 3.92 89 11:57 08.10.2021
5414 Clouds 16 1034 84 10000 4.53 92 10:50 08.10.2021
5415 Clouds 16 1034 83 10000 5.27 90 10:25 08.10.2021
5416 Clouds 10 1033 80 10000 4.76 86 06:51 08.10.2021
5417 Clouds 13 1032 82 10000 3.71 107 23:29 07.10.2021
5418 Clouds 13 1032 82 10000 3.71 107 22:56 07.10.2021
5419 Clouds 14 1031 83 10000 4 115 21:33 07.10.2021
5420 Clouds 14 1031 81 10000 3.38 113 20:43 07.10.2021
5421 Clouds 15 1031 79 10000 3.44 95 19:39 07.10.2021
5422 Clouds 13 1031 78 10000 3.42 81 18:59 07.10.2021
5423 Clouds 13 1031 78 10000 3.42 81 18:59 07.10.2021
5424 Clouds 16 1030 76 10000 3.04 63 17:38 07.10.2021
5425 Clouds 17 1030 73 10000 2.87 40 16:42 07.10.2021
5426 Clouds 17 1029 68 10000 1.3 20 14:57 07.10.2021
5427 Clouds 16 1029 67 10000 0.49 317 13:44 07.10.2021
5428 Clouds 16 1029 67 10000 0.88 280 13:20 07.10.2021
5429 Clouds 16 1029 67 10000 0.88 280 13:20 07.10.2021
5430 Clouds 14 1029 68 10000 1.04 230 11:49 07.10.2021
5431 Clouds 16 1028 72 10000 2.37 179 10:48 07.10.2021
5432 Clouds 15 1028 74 10000 2.4 175 10:19 07.10.2021
5433 Clouds 11 1027 74 10000 1.75 196 08:55 07.10.2021
5434 Clear 10 1027 75 10000 1.93 194 08:25 07.10.2021
5435 Clear 9 1027 75 10000 2.15 203 07:40 07.10.2021
5436 Clear 9 1026 76 10000 2.56 194 06:48 07.10.2021
5437 Clouds 11 1023 78 10000 3.03 150 02:21 07.10.2021
5438 Clouds 13 1022 79 10000 3.54 108 23:35 06.10.2021
5439 Clouds 13 1021 80 10000 3.43 89 22:41 06.10.2021
5440 Clouds 13 1021 79 10000 3.5 77 21:45 06.10.2021
5441 Clouds 14 1021 76 10000 2.97 91 20:34 06.10.2021
5442 Clouds 16 1019 75 10000 1.86 313 19:28 06.10.2021
5443 Clouds 14 1019 75 10000 1.86 313 18:33 06.10.2021
5444 Clouds 17 1018 74 10000 3.07 296 16:52 06.10.2021
5445 Clouds 18 1017 75 10000 4.89 271 15:25 06.10.2021
5446 Clouds 16 1016 76 10000 5.45 236 13:32 06.10.2021
5447 Clouds 16 1015 78 10000 6.08 230 12:54 06.10.2021
5448 Clouds 16 1015 78 10000 6.08 230 12:30 06.10.2021
5449 Clouds 16 1014 82 10000 6.09 225 11:49 06.10.2021
5450 Clouds 15 1013 91 10000 6.33 212 09:57 06.10.2021
5451 Clouds 14 1013 91 10000 6.33 212 09:38 06.10.2021
5452 Clouds 13 1012 93 10000 5.58 199 08:40 06.10.2021
5453 Clouds 13 1010 91 10000 6.06 206 06:48 06.10.2021
5454 Clouds 11 1009 90 10000 6.33 190 05:19 06.10.2021
5455 Clouds 12 1007 91 10000 7.95 217 00:26 06.10.2021
5456 Clouds 13 1007 91 10000 7.95 217 23:52 05.10.2021
5457 Clouds 13 1007 91 10000 7.95 217 23:52 05.10.2021
5458 Clouds 13 1007 91 10000 7.95 217 23:32 05.10.2021
5459 Clouds 13 1007 91 10000 8.9 219 22:44 05.10.2021
5460 Clouds 13 1006 94 10000 9.08 226 21:58 05.10.2021
5461 Clouds 13 1006 94 10000 9.08 226 21:58 05.10.2021
5462 Clouds 13 1006 94 10000 9.08 226 21:36 05.10.2021
5463 Clouds 13 1005 92 10000 8.5 219 20:39 05.10.2021
5464 Clouds 13 1005 94 10000 7.32 210 20:20 05.10.2021
5465 Clouds 13 1005 94 10000 5.16 183 19:27 05.10.2021
5466 Rain 15 1005 94 10000 5.16 183 18:49 05.10.2021
5467 Rain 15 1005 96 7578 7.42 73 16:36 05.10.2021
5468 Rain 13 1008 96 4283 10.23 77 14:30 05.10.2021
5469 Rain 12 1009 96 4640 10.11 78 13:33 05.10.2021
5470 Rain 12 1010 96 7299 9.48 72 12:38 05.10.2021
5471 Rain 12 1011 96 4073 7.37 78 11:59 05.10.2021
5472 Rain 12 1013 94 4715 6.38 92 10:39 05.10.2021
5473 Rain 12 1013 94 4715 6.38 92 10:39 05.10.2021
5474 Rain 12 1014 90 10000 6.28 120 08:56 05.10.2021
5475 Clouds 11 1017 78 10000 3.66 167 03:56 05.10.2021
5476 Clouds 13 1018 81 10000 5.48 194 23:53 04.10.2021
5477 Clouds 13 1018 82 10000 6.19 189 21:59 04.10.2021
5478 Clouds 15 1018 82 10000 6.41 189 19:34 04.10.2021
5479 Clouds 16 1018 83 10000 7.13 187 18:26 04.10.2021
5480 Clouds 16 1017 83 10000 6.62 183 16:23 04.10.2021
5481 Clouds 17 1017 84 10000 6.28 182 15:31 04.10.2021
5482 Clouds 17 1017 84 10000 6.28 182 15:31 04.10.2021
5483 Rain 16 1017 83 10000 5.68 190 14:42 04.10.2021
5484 Clouds 16 1017 83 10000 5.26 187 13:48 04.10.2021
5485 Clouds 16 1017 82 10000 4.83 203 13:24 04.10.2021
5486 Clouds 16 1017 82 10000 5.42 222 11:35 04.10.2021
5487 Clouds 15 1017 80 10000 5.69 222 10:48 04.10.2021
5488 Clouds 15 1016 80 10000 5.47 220 09:58 04.10.2021
5489 Rain 14 1016 83 10000 5.33 220 08:40 04.10.2021
5490 Clouds 14 1015 86 10000 5.01 236 07:19 04.10.2021
5491 Rain 20 1008 71 10000 7.55 195 00:29 04.10.2021
5492 Rain 21 1008 68 10000 9.13 192 22:34 03.10.2021
5493 Clouds 21 1007 67 10000 9.35 179 21:39 03.10.2021
5494 Clouds 21 1006 66 10000 9.94 175 20:59 03.10.2021
5495 Rain 20 1006 62 10000 11.31 169 19:58 03.10.2021
5496 Rain 20 1006 66 10000 9.2 159 18:56 03.10.2021
5497 Rain 20 1005 66 10000 9.3 163 18:27 03.10.2021
5498 Clouds 20 1005 65 10000 10.97 171 16:34 03.10.2021
5499 Clouds 20 1005 63 10000 11.54 172 14:46 03.10.2021
5500 Clouds 20 1005 64 10000 10.91 176 13:58 03.10.2021
5501 Clouds 19 1005 63 10000 11.07 175 13:22 03.10.2021
5502 Clouds 20 1005 65 10000 11.73 172 12:29 03.10.2021
5503 Clouds 18 1004 65 10000 10.93 164 10:37 03.10.2021
5504 Clouds 17 1004 63 10000 11.72 166 08:43 03.10.2021
5505 Clouds 16 1006 73 10000 10.61 154 01:51 03.10.2021
5506 Clouds 16 1008 76 10000 8.28 149 22:40 02.10.2021
5507 Clouds 16 1009 78 10000 6.64 136 20:57 02.10.2021
5508 Clouds 16 1010 77 10000 5.42 133 19:50 02.10.2021
5509 Clouds 17 1011 78 10000 4.41 149 18:54 02.10.2021
5510 Clouds 17 1011 78 10000 4.07 157 17:57 02.10.2021
5511 Clouds 17 1011 78 10000 3.41 176 17:21 02.10.2021
5512 Clouds 17 1012 77 10000 4.79 213 15:29 02.10.2021
5513 Clouds 14 1020 68 10000 13.38 246 16:35 30.09.2021
5514 Clouds 15 1020 71 10000 13.81 245 15:36 30.09.2021
5515 Rain 13 1018 72 10000 15.06 236 13:20 30.09.2021
5516 Rain 12 1018 78 10000 15.44 237 11:37 30.09.2021
5517 Rain 12 1017 82 10000 15.96 232 10:43 30.09.2021
5518 Clouds 12 1016 82 10000 15.69 225 09:33 30.09.2021
5519 Clouds 12 1015 84 10000 14.28 211 08:29 30.09.2021
5520 Clouds 11 1017 74 10000 12.57 220 07:33 30.09.2021
5521 Clouds 11 1016 85 10000 11.68 210 04:58 30.09.2021
5522 Clouds 12 1016 82 10000 9.83 216 01:20 30.09.2021
5523 Clouds 12 1016 81 10000 9.86 222 23:55 29.09.2021
5524 Rain 12 1015 82 10000 10.36 220 22:31 29.09.2021
5525 Clouds 14 1014 87 10000 8.61 169 21:24 29.09.2021
5526 Clouds 15 1015 83 10000 8.3 149 20:26 29.09.2021
5527 Clouds 15 1015 83 10000 8.3 149 19:50 29.09.2021
5528 Clouds 15 1015 85 10000 8.47 138 18:45 29.09.2021
5529 Rain 15 1015 90 10000 9.06 146 17:38 29.09.2021
5530 Rain 15 1015 92 5353 10.22 151 16:47 29.09.2021
5531 Rain 15 1015 92 8041 9.77 149 15:55 29.09.2021
5532 Rain 16 1016 86 4845 9.94 156 14:39 29.09.2021
5533 Rain 16 1016 83 10000 10.02 145 13:42 29.09.2021
5534 Clouds 16 1017 93 10000 7.69 132 12:58 29.09.2021
5535 Clouds 16 1017 89 10000 5.92 133 11:55 29.09.2021
5536 Clouds 15 1018 85 10000 5.74 136 10:47 29.09.2021
5537 Clouds 13 1018 84 10000 5 135 09:50 29.09.2021
5538 Clouds 13 1018 84 10000 4.19 137 09:18 29.09.2021
5539 Clouds 11 1019 82 10000 3.72 144 07:32 29.09.2021
5540 Clouds 12 1020 76 10000 1.88 138 03:58 29.09.2021
5541 Clouds 14 1022 76 10000 0.87 158 23:26 28.09.2021
5542 Clouds 15 1022 76 10000 0.72 180 22:23 28.09.2021
5543 Clouds 15 1022 76 10000 0.72 180 21:37 28.09.2021
5544 Clouds 14 1022 77 10000 0.47 199 20:38 28.09.2021
5545 Clouds 14 1022 78 10000 0.8 332 19:46 28.09.2021
5546 Clouds 16 1022 78 10000 1.47 313 18:46 28.09.2021
5547 Clouds 17 1022 77 10000 1.98 300 17:59 28.09.2021
5548 Clouds 18 1022 77 10000 2.91 305 16:23 28.09.2021
5549 Clouds 18 1022 81 10000 4.93 303 13:49 28.09.2021
5550 Clouds 16 1022 84 10000 5.7 306 12:50 28.09.2021
5551 Clouds 16 1022 85 10000 6.2 306 12:21 28.09.2021
5552 Clouds 16 1022 85 10000 6.2 306 11:46 28.09.2021
5553 Clouds 15 1021 88 10000 6.63 304 11:19 28.09.2021
5554 Clouds 15 1021 89 10000 7 302 10:19 28.09.2021
5555 Clouds 16 1020 91 10000 7.42 295 09:18 28.09.2021
5556 Clouds 17 1020 91 10000 7.42 295 08:39 28.09.2021
5557 Clouds 15 1020 88 10000 7.06 291 07:48 28.09.2021
5558 Clouds 16 1019 89 10000 7.07 272 05:31 28.09.2021
5559 Clouds 18 1017 94 10000 5.46 233 01:25 28.09.2021
5560 Clouds 18 1017 92 10000 5.28 168 00:26 28.09.2021
5561 Clouds 18 1017 92 10000 5.28 168 23:41 27.09.2021
5562 Clouds 18 1016 88 10000 5.77 157 23:22 27.09.2021
5563 Rain 19 1016 86 10000 5.64 153 21:55 27.09.2021
5564 Rain 20 1016 86 10000 5.28 149 20:45 27.09.2021
5565 Rain 20 1016 85 10000 5.32 145 19:57 27.09.2021
5566 Clouds 20 1016 84 10000 5.66 139 19:29 27.09.2021
5567 Rain 20 1016 84 10000 5.66 139 18:51 27.09.2021
5568 Clouds 21 1016 81 10000 6 139 17:33 27.09.2021
5569 Clouds 21 1016 81 10000 5.54 135 16:51 27.09.2021
5570 Clouds 22 1016 79 10000 6.25 129 15:46 27.09.2021
5571 Clouds 21 1016 78 10000 6.45 130 15:27 27.09.2021
5572 Clouds 20 1016 78 10000 6.54 130 13:34 27.09.2021
5573 Clouds 19 1017 81 10000 7.58 135 12:20 27.09.2021
5574 Clouds 19 1017 81 10000 7.21 137 10:42 27.09.2021
5575 Clouds 18 1017 84 10000 7.24 142 09:31 27.09.2021
5576 Clouds 15 1017 90 10000 6.52 135 06:37 27.09.2021
5577 -273 0 0 0 0 0 03:31 27.09.2021
5578 Clouds 17 1018 82 10000 7.54 118 23:41 26.09.2021
5579 Clouds 17 1018 82 10000 7.64 112 21:55 26.09.2021
5580 Clouds 18 1018 82 10000 7.68 109 21:26 26.09.2021
5581 Clouds 18 1018 85 10000 7.72 103 20:24 26.09.2021
5582 Clouds 18 1018 85 10000 7.72 103 19:54 26.09.2021
5583 Clouds 18 1018 85 10000 7.35 100 19:25 26.09.2021
5584 Clouds 18 1018 85 10000 7.35 100 19:25 26.09.2021
5585 Clouds 18 1018 85 10000 7.35 100 19:25 26.09.2021
5586 Clouds 18 1018 85 10000 7.35 100 18:34 26.09.2021
5587 Clouds 20 1018 83 10000 7.55 99 17:38 26.09.2021
5588 Clouds 21 1018 81 10000 7.15 102 17:20 26.09.2021
5589 Clouds 22 1018 81 10000 6.8 104 16:22 26.09.2021
5590 Clouds 22 1018 82 10000 6.49 109 15:27 26.09.2021
5591 Clouds 22 1019 81 10000 5.93 116 14:22 26.09.2021
5592 Clouds 21 1019 81 10000 5.93 116 13:42 26.09.2021
5593 Clouds 18 1019 82 10000 5.57 120 12:31 26.09.2021
5594 Clouds 17 1019 83 10000 5.24 125 11:56 26.09.2021
5595 Clouds 17 1019 85 10000 5.07 130 11:26 26.09.2021
5596 Clouds 16 1019 86 10000 4.85 133 09:51 26.09.2021
5597 Clouds 14 1018 86 10000 4.5 132 08:52 26.09.2021
5598 Clouds 14 1018 79 10000 1.94 81 01:18 26.09.2021
5599 Clouds 13 1017 82 10000 0.88 59 00:20 26.09.2021
5600 Clouds 16 1017 84 10000 0.71 355 22:40 25.09.2021
5601 Clouds 16 1017 85 10000 1.26 321 22:20 25.09.2021
5602 Clouds 14 1017 85 10000 1.26 321 21:47 25.09.2021
5603 Clouds 14 1016 87 10000 2.04 300 20:53 25.09.2021
5604 Clouds 16 1016 87 10000 3.41 285 19:53 25.09.2021
5605 Clouds 18 1015 88 10000 4.19 277 18:31 25.09.2021
5606 Clouds 19 1015 87 10000 5.18 271 17:46 25.09.2021
5607 Clouds 20 1014 88 10000 7.81 266 14:49 25.09.2021
5608 Clouds 19 1013 87 10000 7.99 267 13:56 25.09.2021
5609 Clouds 18 1013 87 10000 8.25 264 12:48 25.09.2021
5610 Clouds 17 1012 88 10000 8.23 263 11:38 25.09.2021
5611 Clouds 17 1012 86 10000 8.58 284 10:21 25.09.2021
5612 Clouds 18 1011 89 10000 9.49 286 09:25 25.09.2021
5613 Clouds 17 1010 91 10000 10.54 280 07:50 25.09.2021
5614 Clouds 17 1008 92 10000 12.34 259 00:59 25.09.2021
5615 Clouds 18 1008 90 10000 12.44 257 23:33 24.09.2021
5616 Clouds 17 1008 88 10000 11.9 254 21:41 24.09.2021
5617 Clouds 17 1008 88 10000 11.65 255 20:33 24.09.2021
5618 Clouds 17 1009 88 10000 12.34 258 19:45 24.09.2021
5619 Clouds 17 1009 91 10000 11.86 256 18:32 24.09.2021
5620 Clouds 17 1008 91 10000 11.57 256 17:53 24.09.2021
5621 Clouds 17 1008 91 10000 11.57 256 17:35 24.09.2021
5622 Clouds 17 1009 92 10000 11.93 257 16:55 24.09.2021
5623 Clouds 17 1010 78 10000 12.18 273 13:57 24.09.2021
5624 Clouds 18 1010 77 10000 12.01 276 12:45 24.09.2021
5625 Clouds 16 1009 71 10000 11.85 283 12:27 24.09.2021
5626 Clouds 17 1009 71 10000 11.85 283 11:59 24.09.2021
5627 Clouds 13 1009 73 10000 12.99 292 10:25 24.09.2021
5628 Clouds 13 1008 74 10000 13.83 291 08:29 24.09.2021
5629 Clouds 13 1008 74 10000 13.83 291 07:33 24.09.2021
5630 Clouds 13 1007 75 10000 13.9 293 06:45 24.09.2021
5631 Clouds 13 1006 75 10000 14.66 295 04:54 24.09.2021
5632 Clouds 13 1004 81 10000 16 291 23:57 23.09.2021
5633 Clouds 13 1003 80 10000 17.91 284 22:22 23.09.2021
5634 Clouds 13 1003 80 10000 17.91 284 21:52 23.09.2021
5635 Clouds 13 1003 78 10000 18.04 281 20:34 23.09.2021
5636 Clouds 14 1002 72 10000 18.4 283 19:46 23.09.2021
5637 Clouds 14 1002 86 10000 17.62 266 17:47 23.09.2021
5638 Clouds 15 1003 87 10000 16.52 260 15:32 23.09.2021
5639 Clouds 15 1004 90 10000 16.61 253 14:59 23.09.2021
5640 Rain 15 1006 88 10000 15.51 247 13:46 23.09.2021
5641 Rain 15 1007 87 10000 14.92 245 13:21 23.09.2021
5642 Rain 15 1007 87 10000 14.92 245 12:52 23.09.2021
5643 Rain 15 1008 86 10000 14.41 246 12:22 23.09.2021
5644 Rain 15 1008 86 10000 14.41 246 11:40 23.09.2021
5645 Clouds 15 1010 86 10000 12.15 239 10:26 23.09.2021
5646 Clouds 15 1010 86 10000 12.15 239 09:52 23.09.2021
5647 Clouds 14 1012 89 10000 11.7 245 08:25 23.09.2021
5648 Clouds 15 1015 92 10000 10.73 250 04:27 23.09.2021
5649 Clear 15 1019 84 10000 9.95 256 23:35 22.09.2021
5650 Clear 15 1019 83 10000 9.18 251 22:37 22.09.2021
5651 Clear 15 1019 81 10000 8.3 245 21:56 22.09.2021
5652 Clear 15 1019 81 10000 8.3 245 21:34 22.09.2021
5653 Clear 15 1020 79 10000 6.93 239 20:57 22.09.2021
5654 Clear 16 1020 77 10000 6.6 243 19:33 22.09.2021
5655 Clear 16 1021 77 10000 6.4 242 18:40 22.09.2021
5656 Clear 16 1021 77 10000 6.4 242 18:40 22.09.2021
5657 Clear 16 1021 77 10000 6.38 243 17:48 22.09.2021
5658 Clear 15 1022 78 10000 6.4 244 16:40 22.09.2021
5659 Clear 15 1024 82 10000 6.52 257 15:29 22.09.2021
5660 Clouds 15 1024 81 10000 6.71 263 13:58 22.09.2021
5661 Clouds 14 1025 80 10000 5.05 281 12:19 22.09.2021
5662 Clouds 14 1025 81 10000 4.94 293 10:57 22.09.2021
5663 Clouds 14 1025 82 10000 4.73 309 09:28 22.09.2021
5664 Clouds 14 1025 82 10000 4.73 309 08:31 22.09.2021
5665 Clouds 14 1024 84 10000 5.77 321 07:25 22.09.2021
5666 Clouds 14 1024 84 10000 5.87 324 06:19 22.09.2021
5667 Clouds 14 1024 84 10000 5.87 324 05:38 22.09.2021
5668 Clouds 14 1023 83 10000 6.95 334 03:53 22.09.2021
5669 Clouds 14 1023 82 10000 7.68 331 02:43 22.09.2021
5670 Clouds 14 1023 81 10000 8.88 328 23:30 21.09.2021
5671 Clouds 15 1023 83 10000 9.76 327 21:38 21.09.2021
5672 Clouds 15 1022 85 10000 7.31 271 20:27 21.09.2021
5673 Clouds 15 1022 85 10000 8.1 268 19:23 21.09.2021
5674 Clouds 14 1022 86 10000 6.06 244 17:59 21.09.2021
5675 Clouds 13 1023 88 10000 6.36 225 16:40 21.09.2021
5676 Rain 12 1024 87 10000 6.7 234 15:56 21.09.2021
5677 Rain 13 1024 82 10000 6.03 243 14:58 21.09.2021
5678 Clouds 13 1024 73 10000 6.47 251 13:57 21.09.2021
5679 Clouds 13 1024 73 10000 6.47 251 13:39 21.09.2021
5680 Clouds 13 1025 67 10000 6.35 269 12:44 21.09.2021
5681 Clouds 13 1025 58 10000 5.06 286 10:39 21.09.2021
5682 Clouds 13 1025 59 10000 4.37 317 08:45 21.09.2021
5683 Clouds 12 1025 78 10000 2.14 3 07:37 21.09.2021
5684 Clouds 12 1025 84 10000 3.19 64 01:54 21.09.2021
5685 Clouds 13 1025 81 10000 4.25 68 22:54 20.09.2021
5686 Clouds 13 1025 80 10000 3.9 60 21:43 20.09.2021
5687 Clouds 13 1024 79 10000 3.87 55 21:25 20.09.2021
5688 Clouds 13 1024 79 10000 4.59 72 19:48 20.09.2021
5689 Clouds 13 1024 79 10000 4.65 45 17:55 20.09.2021
5690 Clouds 13 1024 79 10000 4.65 45 17:55 20.09.2021
5691 Clouds 13 1023 77 10000 4.87 36 17:19 20.09.2021
5692 Clouds 13 1023 75 10000 5.07 34 16:23 20.09.2021
5693 Clouds 13 1023 75 10000 5.07 34 15:36 20.09.2021
5694 Clouds 13 1023 73 10000 5.17 32 14:38 20.09.2021
5695 Clouds 13 1023 68 10000 5.19 53 12:44 20.09.2021
5696 Clouds 13 1023 70 10000 6.41 54 12:25 20.09.2021
5697 Clouds 13 1023 71 10000 7.54 51 10:56 20.09.2021
5698 Clouds 13 1023 72 10000 8.09 47 09:51 20.09.2021
5699 Clouds 13 1023 72 10000 8.09 47 09:32 20.09.2021
5700 Clouds 13 1022 73 10000 8.48 49 08:54 20.09.2021
5701 Clouds 13 1022 72 10000 8.5 50 06:33 20.09.2021
5702 Clouds 13 1021 65 10000 7.51 65 22:58 19.09.2021
5703 Clouds 13 1021 63 10000 7.67 64 21:50 19.09.2021
5704 Clouds 13 1021 64 10000 8.03 63 21:21 19.09.2021
5705 Clouds 13 1020 66 10000 8.81 63 20:19 19.09.2021
5706 Clouds 13 1020 67 10000 8.73 60 18:54 19.09.2021
5707 Clouds 13 1020 66 10000 8.5 59 17:56 19.09.2021
5708 Clouds 13 1020 66 10000 8.47 57 16:52 19.09.2021
5709 Clouds 14 1020 65 10000 8.49 56 15:44 19.09.2021
5710 Clouds 14 1020 65 10000 8.35 55 14:49 19.09.2021
5711 Clouds 14 1021 67 10000 8.46 56 13:59 19.09.2021
5712 Clouds 13 1021 69 10000 8.88 56 12:56 19.09.2021
5713 Clouds 13 1021 69 10000 8.88 56 12:30 19.09.2021
5714 Clouds 13 1021 71 10000 8.79 58 11:25 19.09.2021
5715 Clouds 13 1020 71 10000 8.72 56 09:52 19.09.2021
5716 Clouds 13 1020 71 10000 8.83 56 09:26 19.09.2021
5717 Clouds 13 1020 73 10000 8.95 56 06:49 19.09.2021
5718 Clouds 13 1020 70 10000 8.19 50 01:38 19.09.2021
5719 Clouds 13 1021 73 10000 8.67 55 23:25 18.09.2021
5720 Clouds 14 1021 74 10000 8.68 57 21:58 18.09.2021
5721 Clouds 14 1021 74 10000 8.88 57 20:48 18.09.2021
5722 Clouds 14 1020 74 10000 9.16 52 19:58 18.09.2021
5723 Clouds 14 1020 73 10000 9.06 55 19:37 18.09.2021
5724 Clouds 14 1020 74 10000 9.23 53 19:19 18.09.2021
5725 Clouds 14 1020 74 10000 9.23 53 18:30 18.09.2021
5726 Clouds 14 1019 74 10000 9.24 53 16:35 18.09.2021
5727 Clouds 14 1019 74 10000 9.46 53 14:32 18.09.2021
5728 Clouds 14 1019 75 10000 9.02 54 13:45 18.09.2021
5729 Clouds 14 1019 75 10000 8.89 58 13:21 18.09.2021
5730 Clouds 14 1018 76 10000 8.88 60 12:18 18.09.2021
5731 Clouds 14 1018 76 10000 8.88 60 11:30 18.09.2021
5732 Clouds 14 1018 77 10000 9.17 61 10:31 18.09.2021
5733 Clouds 14 1017 79 10000 10.31 62 09:24 18.09.2021
5734 Clouds 15 1016 82 10000 10.12 61 08:29 18.09.2021
5735 Clouds 15 1014 85 10000 9.59 45 00:55 18.09.2021
5736 Clouds 15 1013 87 10000 10.1 48 23:56 17.09.2021
5737 Clouds 15 1013 87 10000 10.1 48 23:32 17.09.2021
5738 Clouds 15 1012 90 10000 11.69 42 22:25 17.09.2021
5739 Clouds 15 1012 90 10000 11.69 42 21:47 17.09.2021
5740 Clouds 16 1011 91 10000 7.73 17 19:53 17.09.2021
5741 Rain 15 1011 91 10000 6.43 330 18:45 17.09.2021
5742 Clouds 15 1011 84 10000 6.68 302 16:47 17.09.2021
5743 Clouds 15 1011 84 10000 6.27 302 15:32 17.09.2021
5744 Clouds 15 1010 86 10000 7.06 306 12:32 17.09.2021
5745 Clouds 15 1010 85 10000 8.06 311 10:40 17.09.2021
5746 Clouds 15 1009 90 10000 9.19 316 07:50 17.09.2021
5747 Clouds 15 1009 92 10000 8.21 308 06:29 17.09.2021
5748 Clouds 16 1009 93 10000 8.02 293 00:39 17.09.2021
5749 Clouds 16 1009 93 10000 7 244 22:46 16.09.2021
5750 Clouds 16 1009 92 10000 8.06 242 22:24 16.09.2021
5751 Clouds 16 1009 92 10000 8.06 242 21:39 16.09.2021
5752 Clouds 16 1009 91 10000 8.29 245 20:43 16.09.2021
5753 Clouds 16 1009 93 10000 8.95 252 19:36 16.09.2021
5754 Clouds 16 1009 93 10000 8.78 252 18:19 16.09.2021
5755 Clouds 16 1009 91 10000 8.83 249 17:22 16.09.2021
5756 Clouds 17 1009 87 10000 8.68 247 14:53 16.09.2021
5757 Clouds 16 1009 86 10000 8.96 243 13:48 16.09.2021
5758 Clouds 16 1010 86 10000 9.06 241 12:47 16.09.2021
5759 Clouds 16 1010 85 10000 9.24 247 12:27 16.09.2021
5760 Clouds 16 1010 86 10000 9.48 255 11:24 16.09.2021
5761 Clouds 16 1010 86 10000 9.48 255 10:30 16.09.2021
5762 Clouds 16 1009 89 10000 9.16 255 09:53 16.09.2021
5763 Clouds 16 1009 91 10000 9.22 250 08:32 16.09.2021
5764 Clouds 16 1008 86 10000 10.02 250 07:22 16.09.2021
5765 Clouds 16 1008 86 10000 10.02 250 06:39 16.09.2021
5766 Clouds 17 1008 95 10000 9.26 258 04:31 16.09.2021
5767 Clouds 17 1008 96 10000 6.74 236 01:26 16.09.2021
5768 Clouds 17 1008 96 10000 6.74 236 01:26 16.09.2021
5769 Clouds 17 1007 97 10000 6.22 214 23:35 15.09.2021
5770 Rain 17 1007 97 10000 6.64 188 22:46 15.09.2021
5771 Rain 17 1007 96 10000 6.25 159 21:41 15.09.2021
5772 Rain 17 1008 97 3588 9.1 101 21:23 15.09.2021
5773 Rain 16 1009 94 4999 10.46 94 19:51 15.09.2021
5774 Rain 16 1010 92 9494 10.04 87 19:19 15.09.2021
5775 Rain 16 1011 90 8905 8.71 86 17:49 15.09.2021
5776 Rain 17 1012 90 8933 7.5 93 16:48 15.09.2021
5777 Clouds 17 1012 84 10000 6.92 101 15:33 15.09.2021
5778 Clouds 17 1012 82 10000 7.15 101 14:44 15.09.2021
5779 Clouds 17 1013 78 10000 8.87 114 13:51 15.09.2021
5780 Clouds 18 1013 77 10000 8.7 109 13:29 15.09.2021
5781 Rain 18 1013 77 10000 8.7 109 12:42 15.09.2021
5782 Rain 17 1014 79 10000 7.94 113 11:51 15.09.2021
5783 Clouds 17 1014 79 10000 7.88 110 11:21 15.09.2021
5784 Clouds 17 1014 79 10000 7.88 110 10:55 15.09.2021
5785 Clouds 16 1015 81 10000 6.9 105 09:28 15.09.2021
5786 Clouds 16 1015 83 10000 5.92 110 07:43 15.09.2021
5787 Clouds 15 1016 82 10000 5.23 118 04:24 15.09.2021
5788 Clear 15 1018 77 10000 4.44 115 22:59 14.09.2021
5789 Clear 15 1018 76 10000 4.38 116 21:40 14.09.2021
5790 Clear 16 1018 76 10000 4.28 116 20:39 14.09.2021
5791 Clouds 16 1017 77 10000 4.21 107 19:41 14.09.2021
5792 Clouds 17 1018 72 10000 3.39 75 17:40 14.09.2021
5793 Clouds 17 1018 72 10000 3.39 75 17:40 14.09.2021
5794 Clouds 17 1018 71 10000 3.06 58 16:58 14.09.2021
5795 Clouds 16 1018 71 10000 2.59 32 15:33 14.09.2021
5796 Clouds 16 1018 71 10000 2.12 1 14:31 14.09.2021
5797 Clouds 16 1018 73 10000 2.26 296 12:39 14.09.2021
5798 Clouds 16 1019 73 10000 3.33 244 10:54 14.09.2021
5799 Clouds 16 1018 74 10000 3.52 230 09:50 14.09.2021
5800 Clouds 16 1018 76 10000 2.95 228 08:39 14.09.2021
5801 Clouds 16 1018 79 10000 2.35 227 06:24 14.09.2021
5802 Clear 16 1018 84 10000 3.49 242 00:31 14.09.2021
5803 Clear 16 1018 83 10000 4.1 258 22:48 13.09.2021
5804 Clear 16 1018 82 10000 4.64 262 22:23 13.09.2021
5805 Clear 16 1018 82 10000 4.64 262 21:45 13.09.2021
5806 Clouds 16 1018 80 10000 4.86 266 20:50 13.09.2021
5807 Clouds 16 1017 75 10000 3.27 263 18:57 13.09.2021
5808 Clouds 16 1017 75 10000 3.27 263 18:39 13.09.2021
5809 Clouds 16 1017 74 10000 4.99 270 16:50 13.09.2021
5810 Clouds 16 1017 74 10000 5.95 268 15:31 13.09.2021
5811 Clouds 15 1017 74 10000 5.93 287 12:26 13.09.2021
5812 Clouds 15 1016 75 10000 6.23 290 10:58 13.09.2021
5813 Clouds 15 1016 75 10000 6.65 292 09:36 13.09.2021
5814 Clouds 16 1014 88 10000 7.17 269 04:59 13.09.2021
5815 Clouds 17 1014 86 10000 8.52 263 23:41 12.09.2021
5816 Clouds 17 1013 82 10000 7.53 267 22:25 12.09.2021
5817 Clouds 17 1013 82 10000 7.53 267 21:37 12.09.2021
5818 Clouds 18 1013 79 10000 6.91 264 20:29 12.09.2021
5819 Clouds 18 1013 80 10000 8.16 266 19:51 12.09.2021
5820 Clouds 18 1012 78 10000 7.98 262 19:19 12.09.2021
5821 Clouds 18 1012 77 10000 7.24 258 18:29 12.09.2021
5822 Clouds 18 1012 77 10000 7.15 255 16:32 12.09.2021
5823 Clouds 18 1013 82 10000 7.02 260 14:56 12.09.2021
5824 Clouds 18 1013 82 10000 7.02 260 14:56 12.09.2021
5825 Clouds 17 1014 85 10000 7.6 255 13:45 12.09.2021
5826 Clouds 17 1014 85 10000 7.9 253 11:31 12.09.2021
5827 Clouds 17 1014 85 10000 7.81 264 09:35 12.09.2021
5828 Clouds 17 1014 88 10000 8.18 260 08:38 12.09.2021
5829 Clouds 17 1014 93 10000 5.88 240 02:22 12.09.2021
5830 Clouds 18 1013 91 10000 5.43 241 23:38 11.09.2021
5831 Clouds 18 1014 90 10000 4.93 242 21:56 11.09.2021
5832 Clouds 18 1014 89 10000 5.24 247 20:59 11.09.2021
5833 Clouds 18 1012 86 10000 4.76 240 19:25 11.09.2021
5834 Clouds 18 1013 87 10000 4.36 246 17:38 11.09.2021
5835 Clouds 18 1013 87 10000 4.01 260 15:52 11.09.2021
5836 Clouds 18 1013 89 10000 5.5 262 13:52 11.09.2021
5837 Clouds 18 1013 89 10000 5.81 258 13:18 11.09.2021
5838 Clouds 18 1014 90 10000 6.35 254 11:34 11.09.2021
5839 Rain 18 1013 93 10000 5.73 239 09:41 11.09.2021
5840 Clouds 17 1012 96 10000 3.5 240 07:50 11.09.2021
5841 Rain 17 1012 95 10000 3.9 224 07:28 11.09.2021
5842 Clouds 18 1013 93 10000 2.86 242 00:49 11.09.2021
5843 Clouds 18 1012 93 10000 3.4 250 22:25 10.09.2021
5844 Clouds 18 1012 93 10000 3.4 250 21:54 10.09.2021
5845 Clouds 18 1012 93 10000 2.88 242 20:31 10.09.2021
5846 Clouds 18 1012 95 10000 3.93 260 18:28 10.09.2021
5847 Clouds 18 1012 95 8143 4.33 261 16:57 10.09.2021
5848 Clouds 18 1012 89 10000 3.57 288 14:52 10.09.2021
5849 Clouds 19 1012 86 10000 4.05 285 13:18 10.09.2021
5850 Clouds 20 1011 72 10000 3.83 169 09:50 10.09.2021
5851 Clouds 18 1011 75 10000 4.2 150 07:51 10.09.2021
5852 Clear 18 1011 75 10000 3.58 146 03:43 10.09.2021
5853 Clear 18 1012 75 10000 4.41 128 22:33 09.09.2021
5854 Clear 18 1012 74 10000 4.81 125 21:46 09.09.2021
5855 Clear 18 1012 73 10000 5.17 118 20:47 09.09.2021
5856 Clear 18 1011 73 10000 5.21 111 20:21 09.09.2021
5857 Clear 19 1011 71 10000 5.66 107 18:34 09.09.2021
5858 Clear 20 1012 62 10000 6 101 16:41 09.09.2021
5859 Clear 21 1012 60 10000 5.79 104 15:51 09.09.2021
5860 Clouds 20 1013 58 10000 3.67 125 13:22 09.09.2021
5861 Clouds 20 1014 61 10000 3.97 135 11:49 09.09.2021
5862 Clouds 19 1014 66 10000 4.12 138 10:31 09.09.2021
5863 Clouds 18 1014 80 10000 4.41 134 08:55 09.09.2021
5864 Clouds 16 1015 81 10000 3.2 134 06:39 09.09.2021
5865 Clouds 17 1016 80 10000 3.06 157 03:44 09.09.2021
5866 Clear 18 1017 75 10000 3.47 164 22:53 08.09.2021
5867 Clear 18 1018 74 10000 3.09 144 21:36 08.09.2021
5868 Clouds 18 1018 74 10000 2.91 118 20:19 08.09.2021
5869 Clouds 18 1018 76 10000 2.92 98 19:29 08.09.2021
5870 Clouds 18 1018 76 10000 2.92 98 18:31 08.09.2021
5871 Clouds 18 1018 76 10000 2.92 98 18:30 08.09.2021
5872 Clouds 18 1018 75 10000 2.56 72 17:57 08.09.2021
5873 Clouds 18 1019 75 10000 2.11 25 16:38 08.09.2021
5874 Clouds 18 1020 76 10000 2.87 328 14:30 08.09.2021
5875 Clouds 18 1020 76 10000 2.87 328 14:30 08.09.2021
5876 Clouds 18 1020 76 10000 2.87 328 14:30 08.09.2021
5877 Clouds 18 1020 76 10000 2.87 328 14:30 08.09.2021
5878 Clouds 18 1020 76 10000 2.87 328 14:30 08.09.2021
5879 Clouds 18 1020 76 10000 2.87 328 14:30 08.09.2021
5880 Clouds 19 1020 73 10000 3.03 266 12:57 08.09.2021
5881 Clouds 18 1021 73 10000 3.22 234 12:28 08.09.2021
5882 Clouds 18 1021 73 10000 3.22 234 11:38 08.09.2021
5883 Clouds 18 1021 76 10000 3.73 218 10:50 08.09.2021
5884 Clouds 17 1021 79 10000 4 210 10:25 08.09.2021
5885 Clouds 16 1021 80 10000 4.26 207 09:21 08.09.2021
5886 Clouds 15 1021 81 10000 4.04 204 07:38 08.09.2021
5887 Clouds 15 1021 81 10000 3.97 200 05:35 08.09.2021
5888 Clouds 16 1023 78 10000 2.67 239 22:51 07.09.2021
5889 Clouds 16 1023 79 10000 2.63 249 22:18 07.09.2021
5890 Clouds 16 1023 79 10000 2.31 268 20:27 07.09.2021
5891 Clouds 16 1023 79 10000 2.4 273 18:46 07.09.2021
5892 Clouds 17 1023 77 10000 2.28 287 18:21 07.09.2021
5893 Clouds 17 1023 78 10000 2.35 306 16:56 07.09.2021
5894 Clouds 17 1023 79 10000 2.49 317 15:43 07.09.2021
5895 Clouds 16 1024 81 10000 3.25 323 14:44 07.09.2021
5896 Clouds 17 1024 81 10000 4.32 317 12:45 07.09.2021
5897 Clouds 17 1024 81 10000 4.32 317 12:45 07.09.2021
5898 Clouds 17 1024 81 10000 4.32 317 12:45 07.09.2021
5899 Clouds 17 1024 81 10000 3.91 320 11:51 07.09.2021
5900 Clouds 17 1023 81 10000 3.46 322 10:43 07.09.2021
5901 Clouds 17 1023 81 10000 2.91 342 08:40 07.09.2021
5902 Clouds 16 1023 82 10000 4.27 336 07:44 07.09.2021
5903 Clouds 16 1022 82 10000 3.62 314 05:46 07.09.2021
5904 Clouds 17 1022 80 10000 3.09 295 02:38 07.09.2021
5905 Clouds 17 1023 74 10000 1.04 250 00:53 07.09.2021
5906 Clouds 17 1023 75 10000 0.74 218 23:43 06.09.2021
5907 Clouds 16 1023 75 10000 1.76 183 23:20 06.09.2021
5908 Clouds 16 1023 75 10000 1.76 183 22:45 06.09.2021
5909 Clouds 16 1023 75 10000 3.02 160 21:31 06.09.2021
5910 Clouds 17 1023 72 10000 4.01 117 19:32 06.09.2021
5911 Clouds 18 1023 69 10000 4.25 111 18:58 06.09.2021
5912 Clouds 18 1022 65 10000 4.57 108 18:24 06.09.2021
5913 Clouds 18 1022 65 10000 4.57 108 17:36 06.09.2021
5914 Clouds 19 1023 63 10000 4.62 116 15:58 06.09.2021
5915 Clouds 19 1024 62 10000 3.02 112 14:26 06.09.2021
5916 Clouds 18 1024 63 10000 2.49 126 12:48 06.09.2021
5917 Clouds 18 1024 63 10000 3.54 144 11:33 06.09.2021
5918 Clouds 16 1024 66 10000 4.23 162 09:59 06.09.2021
5919 Clouds 14 1024 72 10000 4.23 154 07:34 06.09.2021
5920 Clouds 15 1025 78 10000 7 103 00:22 06.09.2021
5921 Clouds 15 1025 76 10000 7.28 98 23:20 05.09.2021
5922 Clouds 15 1025 76 10000 7.28 98 22:31 05.09.2021
5923 Clouds 15 1025 75 10000 7.18 94 21:55 05.09.2021
5924 Clouds 15 1025 72 10000 7.18 94 21:19 05.09.2021
5925 Clouds 16 1025 66 10000 6.36 103 19:22 05.09.2021
5926 Clouds 16 1025 64 10000 6.06 109 17:51 05.09.2021
5927 Clouds 16 1025 64 10000 7.13 112 15:40 05.09.2021
5928 Clouds 16 1026 64 10000 7.92 109 14:45 05.09.2021
5929 Clouds 16 1026 63 10000 8.25 106 12:34 05.09.2021
5930 Clouds 15 1026 64 10000 9.05 109 11:22 05.09.2021
5931 Clouds 15 1026 64 10000 9.05 109 10:34 05.09.2021
5932 Clouds 15 1025 67 10000 9.1 106 09:26 05.09.2021
5933 Clouds 15 1025 68 10000 9.09 105 08:23 05.09.2021
5934 Clouds 15 1024 70 10000 8.91 100 03:21 05.09.2021
5935 Clouds 15 1023 73 10000 8.31 102 00:34 05.09.2021
5936 Clouds 15 1023 73 10000 8.36 97 23:52 04.09.2021
5937 Clouds 16 1023 73 10000 8.32 89 22:55 04.09.2021
5938 Clouds 16 1023 73 10000 8.32 89 22:34 04.09.2021
5939 Clouds 16 1023 73 10000 8.32 89 22:34 04.09.2021
5940 Clouds 16 1021 77 10000 8.46 77 19:59 04.09.2021
5941 Clouds 16 1021 75 10000 8.67 84 19:32 04.09.2021
5942 Clouds 16 1020 78 10000 7.69 79 16:48 04.09.2021
5943 Clouds 17 1019 80 10000 6.64 75 14:28 04.09.2021
5944 Clouds 17 1018 78 10000 2.36 66 11:22 04.09.2021
5945 Clouds 17 1018 79 10000 1.73 33 10:27 04.09.2021
5946 Clouds 16 1017 79 10000 0.88 33 07:30 04.09.2021
5947 Clear 17 1017 76 10000 1.39 358 00:48 04.09.2021
5948 Clear 17 1017 76 10000 2.11 355 23:32 03.09.2021
5949 Clear 17 1017 76 10000 3.04 335 22:57 03.09.2021
5950 Clear 18 1017 75 10000 4.12 311 21:37 03.09.2021
5951 Clear 18 1016 75 10000 4.75 292 20:54 03.09.2021
5952 Clear 18 1016 75 10000 5.05 277 20:19 03.09.2021
5953 Clear 18 1016 77 10000 5.19 283 19:33 03.09.2021
5954 Clear 18 1016 75 10000 6.31 269 18:20 03.09.2021
5955 Clear 18 1017 75 10000 6.36 270 16:46 03.09.2021
5956 Clear 18 1017 75 10000 6.4 271 15:38 03.09.2021
5957 Clouds 17 1017 76 10000 6.22 273 13:48 03.09.2021
5958 Clouds 17 1018 77 10000 7.69 290 10:45 03.09.2021
5959 Clouds 16 1018 81 10000 9.69 282 09:21 03.09.2021
5960 Clear 16 1017 87 10000 11.41 268 08:18 03.09.2021
5961 Clear 16 1018 88 10000 11.38 263 06:48 03.09.2021
5962 Clear 16 1023 82 10000 6.2 239 23:56 02.09.2021
5963 Clear 16 1023 84 10000 5.26 246 21:55 02.09.2021
5964 Clear 16 1024 86 10000 4.93 251 20:40 02.09.2021
5965 Clear 17 1025 67 10000 1.39 282 18:27 02.09.2021
5966 Clear 17 1025 62 10000 1.58 321 16:30 02.09.2021
5967 Clear 17 1026 61 10000 1.72 344 15:30 02.09.2021
5968 Clear 17 1026 64 10000 2.6 51 13:33 02.09.2021
5969 Clear 17 1027 66 10000 2.85 56 11:43 02.09.2021
5970 Clear 17 1027 68 10000 3.54 66 10:53 02.09.2021
5971 Clouds 16 1026 75 10000 4.19 54 08:57 02.09.2021
5972 Clouds 16 1025 87 10000 3.6 344 07:22 02.09.2021
5973 Clouds 16 1024 88 10000 3.98 322 05:32 02.09.2021
5974 Clouds 17 1024 82 10000 3.59 309 02:37 02.09.2021
5975 Clouds 17 1025 74 10000 3.29 303 01:49 02.09.2021
5976 Clouds 17 1025 70 10000 3.02 327 23:41 01.09.2021
5977 Clouds 18 1025 70 10000 3.03 342 23:19 01.09.2021
5978 Clouds 18 1024 71 10000 3.32 351 22:29 01.09.2021
5979 Clouds 18 1024 71 10000 3.32 351 21:32 01.09.2021
5980 Clouds 18 1024 71 10000 3.32 303 19:37 01.09.2021
5981 Clouds 18 1024 71 10000 4.38 292 17:52 01.09.2021
5982 Clouds 18 1024 70 10000 4.49 299 16:59 01.09.2021
5983 Clouds 18 1024 70 10000 4.49 299 16:35 01.09.2021
5984 Clouds 17 1024 73 10000 4.39 310 14:59 01.09.2021
5985 Clouds 17 1024 74 10000 3.49 309 11:47 01.09.2021
5986 Clouds 17 1024 76 10000 2.62 342 10:23 01.09.2021
5987 Clouds 17 1023 81 10000 2.37 26 08:27 01.09.2021
5988 Clouds 16 1022 82 10000 1.45 94 06:42 01.09.2021
5989 Clouds 17 1022 83 10000 5.47 348 23:32 31.08.2021
5990 Clouds 17 1021 81 10000 5.66 337 22:21 31.08.2021
5991 Clear 17 1021 74 10000 4.9 314 20:19 31.08.2021
5992 Clear 17 1021 75 10000 5.18 300 19:43 31.08.2021
5993 Clear 17 1021 72 10000 3.37 304 17:52 31.08.2021
5994 Clear 17 1021 73 10000 3.47 316 17:26 31.08.2021
5995 Clear 17 1021 73 10000 3.47 316 16:41 31.08.2021
5996 Clear 17 1021 73 10000 4.02 341 15:26 31.08.2021
5997 Clear 16 1021 71 10000 5.83 13 12:43 31.08.2021
5998 Clouds 16 1021 73 10000 6.7 24 11:20 31.08.2021
5999 Clouds 16 1021 73 10000 6.7 24 10:43 31.08.2021
6000 Clouds 15 1020 74 10000 7.2 27 09:41 31.08.2021
6001 Clouds 15 1020 79 10000 7.47 21 07:57 31.08.2021
6002 Clouds 15 1019 82 10000 7.49 22 05:57 31.08.2021
6003 Clouds 16 1019 85 10000 5.69 19 23:36 30.08.2021
6004 Clouds 16 1019 84 10000 5.92 28 22:52 30.08.2021
6005 Clouds 16 1019 84 10000 6.2 26 21:38 30.08.2021
6006 Clouds 17 1018 83 10000 5.97 35 20:42 30.08.2021
6007 Clouds 16 1018 82 10000 6.88 43 19:54 30.08.2021
6008 Clouds 16 1018 82 10000 7.47 46 19:54 30.08.2021
6009 Clouds 16 1018 82 10000 8.23 40 19:24 30.08.2021
6010 Clouds 16 1018 83 10000 8.57 41 17:51 30.08.2021
6011 Clouds 16 1018 85 10000 9.02 42 16:29 30.08.2021
6012 Clouds 16 1018 85 10000 9.02 42 15:50 30.08.2021
6013 Clouds 16 1018 87 10000 9.56 40 14:24 30.08.2021
6014 Clouds 16 1018 88 10000 9.85 40 13:21 30.08.2021
6015 Clouds 16 1018 87 10000 10.4 42 11:29 30.08.2021
6016 Clouds 16 1017 91 10000 10.32 40 08:22 30.08.2021
6017 Clouds 17 1016 89 10000 8.56 38 21:58 29.08.2021
6018 Clouds 16 1016 90 10000 8.24 40 21:19 29.08.2021
6019 Clouds 17 1016 90 10000 8.1 46 19:31 29.08.2021
6020 Clouds 17 1016 89 10000 8.63 49 18:28 29.08.2021
6021 Clouds 16 1016 89 10000 8.7 41 16:25 29.08.2021
6022 Clouds 16 1016 91 10000 9.4 39 14:29 29.08.2021
6023 Clouds 16 1016 91 10000 9.4 39 13:55 29.08.2021
6024 Clouds 16 1016 91 10000 9.19 34 12:58 29.08.2021
6025 Clouds 16 1015 92 10000 9 32 12:18 29.08.2021
6026 Clouds 16 1015 92 10000 9 32 11:41 29.08.2021
6027 Rain 16 1015 93 9251 9.16 39 10:48 29.08.2021
6028 Rain 16 1015 93 10000 10.09 42 10:29 29.08.2021
6029 Rain 16 1015 93 10000 10.09 42 09:35 29.08.2021
6030 Clouds 16 1014 96 10000 5.56 11 04:21 29.08.2021
6031 Clouds 16 1015 88 10000 5.81 357 22:58 28.08.2021
6032 Clouds 16 1015 89 10000 6.07 354 20:34 28.08.2021
6033 Clouds 16 1015 91 10000 6.5 0 19:30 28.08.2021
6034 Clouds 16 1015 90 10000 7.14 14 18:26 28.08.2021
6035 Clouds 16 1015 90 10000 7.14 14 17:46 28.08.2021
6036 Clouds 16 1015 91 10000 7.21 16 16:56 28.08.2021
6037 Rain 15 1015 91 10000 6.98 9 15:20 28.08.2021
6038 Clouds 15 1016 89 10000 6.38 12 13:59 28.08.2021
6039 Clouds 15 1016 89 10000 6.38 12 13:40 28.08.2021
6040 Clouds 15 1016 91 10000 6.96 20 12:35 28.08.2021
6041 Clouds 15 1016 92 10000 7.92 28 11:40 28.08.2021
6042 Clouds 15 1016 93 10000 9.67 27 10:18 28.08.2021
6043 Clouds 16 1015 91 10000 8.88 23 07:57 28.08.2021
6044 Clouds 16 1014 88 10000 9.35 35 02:36 28.08.2021
6045 Rain 16 1014 88 9138 8.86 41 21:45 27.08.2021
6046 Rain 16 1014 85 10000 8.72 44 20:53 27.08.2021
6047 Clouds 16 1013 86 10000 9.99 48 19:43 27.08.2021
6048 Clouds 16 1013 82 10000 6.83 47 18:39 27.08.2021
6049 Clouds 16 1013 79 10000 4.85 30 17:54 27.08.2021
6050 Clouds 16 1013 80 10000 4.18 17 16:46 27.08.2021
6051 Clouds 16 1013 75 10000 5.26 39 15:21 27.08.2021
6052 Clouds 16 1013 75 10000 5.26 39 14:36 27.08.2021
6053 Clouds 16 1012 73 10000 7.92 57 12:28 27.08.2021
6054 Rain 16 1012 73 10000 8.21 61 10:58 27.08.2021
6055 Clouds 16 1012 73 10000 8.21 61 10:36 27.08.2021
6056 Clouds 15 1011 75 10000 7.01 83 09:19 27.08.2021
6057 Clouds 15 1011 75 10000 7.01 83 08:38 27.08.2021
6058 Clouds 15 1008 81 10000 5.7 72 05:51 27.08.2021
6059 Clouds 14 1008 84 10000 5.52 32 00:49 27.08.2021
6060 Clouds 14 1008 87 10000 7 11 00:28 27.08.2021
6061 Rain 14 1008 87 10000 7.19 8 22:28 26.08.2021
6062 Rain 14 1008 87 10000 7.19 8 21:57 26.08.2021
6063 Clouds 14 1008 81 10000 7.29 18 19:53 26.08.2021
6064 Clouds 15 1007 74 10000 7.77 13 18:36 26.08.2021
6065 Clouds 14 1007 76 10000 9.47 2 17:26 26.08.2021
6066 Clouds 14 1007 76 10000 9.47 2 16:31 26.08.2021
6067 Clouds 14 1007 82 10000 8.76 352 14:53 26.08.2021
6068 Rain 14 1007 77 10000 9.13 349 13:27 26.08.2021
6069 Clouds 14 1007 77 10000 9.13 349 12:47 26.08.2021
6070 Clouds 15 1007 75 10000 9.47 348 11:49 26.08.2021
6071 Clouds 15 1007 71 10000 9.44 352 09:30 26.08.2021
6072 Clouds 14 1007 70 10000 10.27 354 08:19 26.08.2021
6073 Clouds 17 1007 70 10000 5.68 341 23:45 25.08.2021
6074 Clouds 17 1007 73 10000 5.94 355 22:46 25.08.2021
6075 Clouds 17 1007 79 10000 7.63 329 22:26 25.08.2021
6076 Clouds 17 1007 82 10000 9.58 303 20:58 25.08.2021
6077 Clouds 17 1007 82 10000 9.58 303 20:31 25.08.2021
6078 Clouds 17 1008 82 10000 10.7 297 19:52 25.08.2021
6079 Clouds 17 1008 85 10000 11.7 287 18:18 25.08.2021
6080 Rain 17 1010 89 10000 13.44 271 15:59 25.08.2021
6081 Rain 17 1010 89 10000 13.44 271 15:40 25.08.2021
6082 Clouds 17 1011 88 10000 14.03 261 14:47 25.08.2021
6083 Clouds 17 1012 88 10000 14.25 258 13:58 25.08.2021
6084 Clouds 17 1013 89 10000 13.9 257 12:40 25.08.2021
6085 Clouds 16 1015 87 10000 12.97 258 11:25 25.08.2021
6086 Clouds 16 1016 84 10000 12.42 258 10:26 25.08.2021
6087 Clouds 16 1016 84 10000 12.42 258 09:42 25.08.2021
6088 Clouds 16 1018 83 10000 11.51 257 08:39 25.08.2021
6089 Clouds 16 1018 81 10000 10.59 245 07:32 25.08.2021
6090 Clouds 15 1025 73 10000 5.69 226 01:26 25.08.2021
6091 Clouds 15 1026 73 10000 5.12 216 23:40 24.08.2021
6092 Clouds 15 1027 72 10000 4.05 191 21:41 24.08.2021
6093 Clouds 16 1027 69 10000 3.13 177 20:38 24.08.2021
6094 Clouds 16 1027 68 10000 2.82 147 19:44 24.08.2021
6095 Clouds 17 1028 65 10000 2.94 92 17:57 24.08.2021
6096 Clouds 17 1028 64 10000 2.95 63 17:22 24.08.2021
6097 Clouds 17 1028 64 10000 2.95 63 16:38 24.08.2021
6098 Clouds 17 1029 66 10000 3.45 57 14:25 24.08.2021
6099 Clouds 17 1029 67 10000 4.41 61 13:23 24.08.2021
6100 Clouds 17 1029 68 10000 5.01 68 11:26 24.08.2021
6101 Clouds 17 1029 68 10000 5.01 68 10:48 24.08.2021
6102 Clouds 16 1029 69 10000 5.39 70 10:25 24.08.2021
6103 Clouds 16 1028 68 10000 5.77 70 08:46 24.08.2021
6104 Clouds 16 1028 66 10000 6.45 54 06:35 24.08.2021
6105 Clouds 16 1027 71 10000 5.98 50 03:59 24.08.2021
6106 Clear 16 1027 71 10000 4.83 63 00:28 24.08.2021
6107 Clear 16 1027 72 10000 4.97 60 22:51 23.08.2021
6108 Clear 16 1026 74 10000 4.55 64 21:54 23.08.2021
6109 Clear 17 1026 75 10000 4.01 61 20:27 23.08.2021
6110 Clear 17 1025 76 10000 3.8 50 18:50 23.08.2021
6111 Clear 17 1025 74 10000 4.4 42 16:35 23.08.2021
6112 Clear 17 1024 74 10000 6.21 47 13:58 23.08.2021
6113 Clear 17 1024 73 10000 6.63 52 12:56 23.08.2021
6114 Clear 17 1024 73 10000 6.99 55 11:48 23.08.2021
6115 Clear 17 1024 72 10000 7.34 56 10:37 23.08.2021
6116 Clear 17 1023 72 10000 7.47 56 09:31 23.08.2021
6117 Clear 17 1022 74 10000 7.93 62 08:20 23.08.2021
6118 Clouds 17 1022 74 10000 8.46 66 06:48 23.08.2021
6119 Clouds 17 1021 74 10000 8.74 68 05:40 23.08.2021
6120 Clouds 17 1020 76 10000 7.46 73 00:51 23.08.2021
6121 Clouds 17 1020 76 10000 7.84 75 22:44 22.08.2021
6122 Clouds 17 1019 77 10000 8.08 74 22:24 22.08.2021
6123 Clouds 17 1018 77 10000 7.4 73 20:21 22.08.2021
6124 Clouds 17 1018 76 10000 7.47 77 19:28 22.08.2021
6125 Clouds 17 1018 71 10000 6.97 85 16:28 22.08.2021
6126 Clouds 17 1018 70 10000 7.1 85 14:56 22.08.2021
6127 Clouds 17 1018 70 10000 7.1 85 14:37 22.08.2021
6128 Clouds 17 1018 67 10000 6.65 88 13:21 22.08.2021
6129 Clouds 17 1018 67 10000 6.66 88 12:51 22.08.2021
6130 Clouds 17 1019 67 10000 6.26 90 12:19 22.08.2021
6131 Clouds 17 1019 67 10000 6.26 90 11:41 22.08.2021
6132 Clouds 17 1019 66 10000 4.97 92 10:21 22.08.2021
6133 Clouds 16 1018 70 10000 4.15 108 08:19 22.08.2021
6134 Clouds 15 1018 68 10000 3.14 106 04:55 22.08.2021
6135 Clouds 16 1020 66 10000 1.39 128 23:57 21.08.2021
6136 Clouds 16 1020 66 10000 1.39 128 23:57 21.08.2021
6137 Clouds 16 1020 66 10000 0.77 106 22:34 21.08.2021
6138 Clear 16 1019 65 10000 0.63 222 20:24 21.08.2021
6139 Clear 16 1019 66 10000 1.01 253 18:39 21.08.2021
6140 Clear 16 1019 67 10000 1.61 265 17:48 21.08.2021
6141 Clear 16 1019 68 10000 1.91 269 16:53 21.08.2021
6142 Clear 16 1020 68 10000 1.85 269 16:25 21.08.2021
6143 Clear 16 1020 68 10000 1.85 269 15:35 21.08.2021
6144 Clear 16 1020 69 10000 1.99 279 14:38 21.08.2021
6145 Clear 16 1020 71 10000 3.36 294 13:29 21.08.2021
6146 Clear 15 1020 73 10000 3.75 299 12:24 21.08.2021
6147 Clear 15 1019 74 10000 4.04 307 09:28 21.08.2021
6148 Clear 16 1017 75 10000 4.96 320 05:33 21.08.2021
6149 Clouds 16 1016 77 10000 5.1 271 22:56 20.08.2021
6150 Clouds 16 1016 76 10000 4.7 271 21:41 20.08.2021
6151 Rain 16 1014 81 10000 3.67 312 17:47 20.08.2021
6152 Clouds 16 1014 80 10000 5.02 295 15:57 20.08.2021
6153 Clouds 16 1014 78 10000 5.13 283 13:36 20.08.2021
6154 Clouds 16 1014 77 10000 5.26 269 11:38 20.08.2021
6155 Clouds 16 1013 78 10000 5.09 264 10:43 20.08.2021
6156 Clouds 16 1013 78 10000 4.95 253 09:42 20.08.2021
6157 Clouds 16 1013 77 10000 4.63 268 08:42 20.08.2021
6158 Clouds 16 1013 78 10000 5.22 274 07:44 20.08.2021
6159 Clouds 16 1012 77 10000 6.29 280 04:22 20.08.2021
6160 Clouds 17 1011 77 10000 8.31 279 00:19 20.08.2021
6161 Clouds 17 1010 77 10000 8.04 275 23:20 19.08.2021
6162 Clouds 17 1010 77 10000 8.04 275 22:33 19.08.2021
6163 Clouds 18 1010 76 10000 8.01 267 20:39 19.08.2021
6164 Clouds 17 1009 75 10000 8.12 263 19:43 19.08.2021
6165 Clouds 17 1009 76 10000 8.99 261 17:25 19.08.2021
6166 Clouds 17 1009 76 10000 9.42 261 15:54 19.08.2021
6167 Clouds 17 1008 76 10000 10.66 267 13:47 19.08.2021
6168 Clouds 17 1008 77 10000 10.31 269 12:37 19.08.2021
6169 Clouds 17 1008 77 10000 9.89 275 11:30 19.08.2021
6170 Clouds 17 1007 77 10000 10.25 281 10:23 19.08.2021
6171 Clouds 17 1007 77 10000 10.25 281 09:47 19.08.2021
6172 Clouds 17 1006 78 10000 10.83 283 09:19 19.08.2021
6173 Clouds 16 1006 80 10000 11.94 278 07:35 19.08.2021
6174 Clouds 17 1005 86 10000 13.03 266 02:25 19.08.2021
6175 Clouds 17 1005 84 10000 12.94 267 01:51 19.08.2021
6176 Rain 17 1005 86 10000 13.54 261 22:56 18.08.2021
6177 Clouds 17 1005 86 10000 13.55 262 21:41 18.08.2021
6178 Clouds 17 1005 83 10000 13.56 264 20:32 18.08.2021
6179 Clouds 17 1005 80 10000 13.72 264 19:34 18.08.2021
6180 Clouds 18 1005 78 10000 13.67 267 18:54 18.08.2021
6181 Clouds 17 1006 80 10000 13.36 265 17:57 18.08.2021
6182 Rain 18 1005 78 10000 13.17 264 16:23 18.08.2021
6183 Clouds 18 1005 78 10000 13.17 264 15:38 18.08.2021
6184 Clouds 18 1006 78 10000 12.81 263 15:20 18.08.2021
6185 Clouds 17 1006 78 10000 12.63 264 12:43 18.08.2021
6186 Clouds 17 1006 81 10000 13.1 260 12:25 18.08.2021
6187 Clouds 17 1006 83 10000 13.61 254 10:43 18.08.2021
6188 Clouds 16 1007 78 10000 12.54 271 07:48 18.08.2021
6189 Clouds 17 1006 77 10000 14.25 277 00:45 18.08.2021
6190 Clouds 17 1006 81 10000 14.07 278 22:31 17.08.2021
6191 Clouds 17 1005 80 8612 13.38 278 21:29 17.08.2021
6192 Clouds 17 1005 80 8612 13.38 278 20:45 17.08.2021
6193 Clouds 18 1004 76 10000 11.54 279 19:19 17.08.2021
6194 Clouds 18 1004 75 9848 13.03 273 17:33 17.08.2021
6195 Clouds 18 1004 77 10000 13.67 266 16:46 17.08.2021
6196 Rain 18 1004 78 10000 14.2 265 15:40 17.08.2021
6197 Clouds 18 1004 78 10000 13.8 263 14:39 17.08.2021
6198 Clouds 18 1004 75 10000 13.02 273 12:36 17.08.2021
6199 Clouds 16 1003 77 10000 10.85 277 09:27 17.08.2021
6200 Clouds 15 1003 77 10000 11.77 287 08:21 17.08.2021
6201 Clouds 15 1002 78 10000 10.84 283 06:40 17.08.2021
6202 Clouds 15 1004 71 10000 10.03 229 23:18 16.08.2021
6203 Clouds 15 1004 71 10000 10.03 229 22:47 16.08.2021
6204 Clouds 16 1004 66 10000 10.26 244 22:28 16.08.2021
6205 Clouds 16 1004 66 10000 10.26 244 21:37 16.08.2021
6206 Clouds 17 1004 66 10000 10.9 249 20:50 16.08.2021
6207 Clouds 17 1003 73 10000 9.41 258 19:26 16.08.2021
6208 Rain 16 1003 82 10000 8.6 237 18:25 16.08.2021
6209 Rain 16 1003 82 10000 8.6 237 17:52 16.08.2021
6210 Rain 16 1003 89 7572 11.66 255 16:25 16.08.2021
6211 Rain 17 1003 84 10000 11.21 233 15:18 16.08.2021
6212 Clouds 18 1003 81 7449 9.47 246 13:41 16.08.2021
6213 Clouds 17 1003 84 8983 7.87 257 12:56 16.08.2021
6214 Clouds 17 1003 87 7939 7.18 252 11:30 16.08.2021
6215 Clouds 17 1003 84 10000 6.3 249 09:22 16.08.2021
6216 Clouds 17 1003 84 10000 6.3 249 08:41 16.08.2021
6217 Clouds 17 1004 87 10000 7.85 237 07:29 16.08.2021
6218 Clouds 17 1004 86 10000 8.3 234 05:54 16.08.2021
6219 Clouds 17 1007 88 10000 5.65 172 23:54 15.08.2021
6220 Clouds 17 1009 84 10000 2.31 228 21:21 15.08.2021
6221 Clouds 18 1010 79 10000 4.92 259 19:27 15.08.2021
6222 Clouds 18 1010 79 10000 4.92 259 18:39 15.08.2021
6223 Clouds 18 1011 79 10000 5.85 259 17:48 15.08.2021
6224 Clouds 18 1011 78 10000 6.74 255 16:30 15.08.2021
6225 Clouds 18 1012 79 10000 7.69 253 15:34 15.08.2021
6226 Clouds 18 1012 78 10000 8.43 254 14:32 15.08.2021
6227 Clouds 18 1012 77 10000 8.82 258 13:34 15.08.2021
6228 Clouds 17 1013 74 10000 10.92 261 09:57 15.08.2021
6229 Rain 17 1012 73 10000 10.7 264 06:53 15.08.2021
6230 Clouds 18 1014 74 10000 10.43 271 01:21 15.08.2021
6231 Clouds 18 1014 74 10000 10.43 271 00:31 15.08.2021
6232 Clouds 19 1015 79 10000 9.95 270 21:22 14.08.2021
6233 Clouds 19 1015 79 10000 9.95 270 21:22 14.08.2021
6234 Clouds 19 1014 79 10000 10.87 264 19:45 14.08.2021
6235 Clouds 19 1015 77 10000 10.06 263 19:26 14.08.2021
6236 Clouds 19 1015 78 10000 10.17 267 17:35 14.08.2021
6237 Clouds 20 1015 73 10000 10.79 264 16:39 14.08.2021
6238 Clouds 20 1015 71 10000 9.75 258 15:34 14.08.2021
6239 Clouds 20 1017 71 10000 8.51 260 13:35 14.08.2021
6240 Clouds 19 1018 72 10000 9.13 238 10:57 14.08.2021
6241 Clouds 18 1018 77 10000 7.9 241 08:53 14.08.2021
6242 Clouds 18 1018 80 10000 9.88 275 00:21 14.08.2021
6243 Clouds 18 1018 80 10000 9.88 275 23:49 13.08.2021
6244 Clouds 19 1018 79 10000 8.43 279 21:50 13.08.2021
6245 Clouds 21 1017 78 10000 7.12 287 20:22 13.08.2021
6246 Clouds 20 1017 80 10000 5.19 254 18:45 13.08.2021
6247 Clouds 21 1018 72 10000 3.11 260 17:18 13.08.2021
6248 Clouds 21 1018 73 10000 3.97 276 15:55 13.08.2021
6249 Clouds 20 1019 79 10000 3.99 275 11:55 13.08.2021
6250 Clouds 20 1019 79 10000 3.25 268 11:18 13.08.2021
6251 Clouds 20 1019 80 10000 3.86 252 08:40 13.08.2021
6252 Clouds 19 1018 82 10000 4.08 247 07:59 13.08.2021
6253 Clouds 19 1018 80 10000 4.53 230 06:35 13.08.2021
6254 Clouds 20 1019 74 10000 5.25 148 00:29 13.08.2021
6255 Clouds 19 1019 77 10000 6.21 123 21:51 12.08.2021
6256 Clouds 20 1019 74 10000 6 111 20:42 12.08.2021
6257 Clouds 20 1019 72 10000 5.77 107 19:50 12.08.2021
6258 Clouds 21 1019 70 10000 5.31 106 18:35 12.08.2021
6259 Clouds 21 1020 68 10000 5.01 85 16:51 12.08.2021
6260 Clouds 20 1020 67 10000 4.79 68 16:27 12.08.2021
6261 Clouds 20 1021 65 10000 2.03 348 13:52 12.08.2021
6262 Clouds 19 1021 70 10000 1.94 283 11:42 12.08.2021
6263 Clouds 19 1021 73 10000 3.23 243 09:43 12.08.2021
6264 Clouds 18 1020 77 10000 3.1 244 07:52 12.08.2021
6265 Clouds 18 1019 78 10000 5.64 259 23:25 11.08.2021
6266 Clouds 19 1019 78 10000 5.72 262 21:53 11.08.2021
6267 Clear 19 1018 77 10000 6.39 258 19:35 11.08.2021
6268 Clear 19 1018 74 10000 7.05 261 18:27 11.08.2021
6269 Clear 18 1018 73 10000 7.71 266 15:38 11.08.2021
6270 Clear 18 1018 76 10000 7.99 268 15:19 11.08.2021
6271 Clouds 18 1018 79 10000 7.74 267 14:20 11.08.2021
6272 Clouds 18 1018 75 10000 6.8 279 12:29 11.08.2021
6273 Clouds 18 1018 75 10000 6.8 279 11:46 11.08.2021
6274 Clouds 17 1017 78 10000 6.53 284 11:21 11.08.2021
6275 Clouds 17 1017 78 10000 6.22 287 09:43 11.08.2021
6276 Clear 17 1016 79 10000 6.18 277 07:23 11.08.2021
6277 Clouds 18 1014 75 10000 5.27 283 22:53 10.08.2021
6278 Clouds 18 1014 77 10000 5.11 259 22:28 10.08.2021
6279 Clouds 18 1014 74 10000 4.72 260 20:57 10.08.2021
6280 Clouds 18 1013 75 10000 5.21 265 19:42 10.08.2021
6281 Rain 18 1013 72 10000 5.52 270 18:31 10.08.2021
6282 Clouds 19 1014 68 10000 4.24 292 15:58 10.08.2021
6283 Rain 19 1015 69 10000 4.3 271 14:42 10.08.2021
6284 Clouds 19 1015 71 10000 5.97 223 11:53 10.08.2021
6285 Clouds 17 1015 75 10000 5.92 216 09:51 10.08.2021
6286 Clouds 15 1015 85 10000 6.56 208 06:48 10.08.2021
6287 Clouds 15 1016 85 10000 6.69 208 04:58 10.08.2021
6288 Clouds 17 1016 80 10000 7.09 213 23:41 09.08.2021
6289 Clouds 17 1016 75 10000 6.01 207 21:55 09.08.2021
6290 Clouds 17 1016 75 10000 6.01 207 21:34 09.08.2021
6291 Clouds 17 1016 77 10000 5.13 251 19:35 09.08.2021
6292 Clouds 19 1016 68 10000 5.47 273 17:19 09.08.2021
6293 Clouds 20 1016 64 10000 6.2 256 15:33 09.08.2021
6294 Clouds 19 1016 65 10000 7.18 251 13:46 09.08.2021
6295 Clouds 19 1015 66 10000 7.2 248 13:26 09.08.2021
6296 Clouds 18 1015 68 10000 7.34 228 10:44 09.08.2021
6297 Clouds 16 1014 81 10000 7.7 220 08:26 09.08.2021
6298 Clouds 18 1012 77 10000 7.71 236 23:27 08.08.2021
6299 Clouds 18 1010 77 10000 7.81 245 21:26 08.08.2021
6300 Clouds 18 1010 77 10000 8.37 245 19:46 08.08.2021
6301 Clouds 18 1009 78 10000 9.71 250 16:54 08.08.2021
6302 Clouds 18 1008 81 10000 11.48 245 15:42 08.08.2021
6303 Clouds 18 1006 78 10000 10.16 230 13:26 08.08.2021
6304 Clear 18 1005 75 10000 8.61 238 11:25 08.08.2021
6305 Clouds 16 1003 88 10000 8.01 219 06:57 08.08.2021
6306 Clouds 16 1003 88 10000 8.01 219 06:39 08.08.2021
6307 Rain 19 1004 77 10000 5.45 180 00:33 08.08.2021
6308 Clouds 19 1003 74 10000 2.31 122 22:47 07.08.2021
6309 Clouds 19 1003 76 10000 2.1 38 21:41 07.08.2021
6310 Clouds 19 1004 75 10000 2.75 292 20:55 07.08.2021
6311 Rain 19 1003 73 10000 3.34 77 17:46 07.08.2021
6312 Clear 19 1004 71 10000 2.35 33 16:43 07.08.2021
6313 Clear 19 1004 68 10000 1.14 345 14:56 07.08.2021
6314 Clouds 19 1004 74 10000 1.75 307 13:33 07.08.2021
6315 Clouds 19 1004 74 10000 1.75 307 13:33 07.08.2021
6316 Clouds 18 1005 69 10000 2.8 213 10:25 07.08.2021
6317 Clouds 17 1004 69 10000 5.02 146 06:31 07.08.2021
6318 Rain 17 1006 67 10000 5.69 128 01:51 07.08.2021
6319 Clouds 19 1006 64 10000 9.7 103 21:51 06.08.2021
6320 Clouds 20 1006 64 10000 10.26 101 20:34 06.08.2021
6321 Clouds 21 1006 63 10000 10.84 103 19:56 06.08.2021
6322 Clouds 21 1006 66 10000 10.51 103 18:45 06.08.2021
6323 Clouds 20 1006 67 10000 8.59 105 15:48 06.08.2021
6324 Clouds 23 1007 70 10000 6.37 101 10:53 06.08.2021
6325 Clouds 21 1007 73 10000 6.3 103 09:56 06.08.2021
6326 Clouds 17 1007 76 10000 5.97 111 07:47 06.08.2021
6327 Clouds 18 1009 76 10000 7.45 91 23:34 05.08.2021
6328 Clouds 19 1010 74 10000 7.1 89 22:28 05.08.2021
6329 Clouds 20 1010 72 10000 7.71 94 20:44 05.08.2021
6330 Clouds 22 1010 71 10000 7.42 82 19:29 05.08.2021
6331 Clouds 22 1011 69 10000 7.05 78 16:53 05.08.2021
6332 Clouds 19 1012 68 10000 6.87 80 14:49 05.08.2021
6333 Clear 22 1013 62 10000 6 83 11:38 05.08.2021
6334 Clear 21 1013 62 10000 4.7 91 08:51 05.08.2021
6335 Clear 15 1014 65 10000 4.04 91 04:51 05.08.2021
6336 Clear 16 1015 61 10000 2.01 79 23:36 04.08.2021
6337 Clear 17 1015 60 10000 1.61 85 21:49 04.08.2021
6338 Clear 19 1014 60 10000 2.07 65 21:21 04.08.2021
6339 Clear 21 1014 61 10000 2.38 69 18:54 04.08.2021
6340 Clear 23 1015 64 10000 3.31 47 16:42 04.08.2021
6341 Clear 21 1015 68 10000 3.89 29 14:44 04.08.2021
6342 Clear 22 1015 70 10000 3.53 1 11:49 04.08.2021
6343 Clouds 14 1014 68 10000 1.46 261 04:55 04.08.2021
6344 Clouds 21 1013 63 10000 2.79 285 20:41 03.08.2021
6345 Clouds 17 1013 63 10000 3.06 280 19:59 03.08.2021
6346 Clouds 21 1013 61 10000 3.47 276 18:33 03.08.2021
6347 Clouds 21 1013 65 10000 4.83 280 16:27 03.08.2021
6348 Clouds 19 1013 69 10000 5.24 279 13:31 03.08.2021
6349 Clouds 18 1013 70 10000 4.74 289 10:40 03.08.2021
6350 Clouds 17 1012 71 10000 5.88 299 07:51 03.08.2021
6351 Clouds 22 1008 71 10000 8.59 263 17:59 02.08.2021
6352 Clouds 18 1008 70 10000 8.51 263 16:39 02.08.2021
6353 Clouds 22 1008 69 10000 8.82 270 15:30 02.08.2021
6354 Clouds 21 1007 69 10000 11.28 263 11:59 02.08.2021
6355 Clouds 19 1007 69 10000 11.28 263 11:39 02.08.2021
6356 Clouds 20 1007 70 10000 10.55 269 09:49 02.08.2021
6357 Clouds 15 1006 71 10000 8.76 277 04:22 02.08.2021
6358 Clouds 19 1006 67 10000 6.84 261 18:26 01.08.2021
6359 Clouds 22 1006 67 10000 7.01 259 15:30 01.08.2021
6360 Clouds 17 1005 69 10000 8.54 265 11:38 01.08.2021
6361 Clouds 17 1005 80 10000 8.66 259 09:36 01.08.2021
6362 Rain 16 1004 79 10000 8.95 272 03:48 01.08.2021
6363 Rain 17 1003 82 10000 12.34 261 22:52 31.07.2021
6364 Rain 18 1002 84 10000 14.22 259 20:54 31.07.2021
6365 Clouds 21 1001 77 10000 13.52 230 17:49 31.07.2021
6366 Clouds 23 1001 72 10000 11.98 224 16:36 31.07.2021
6367 Clouds 18 1003 71 10000 11.18 228 12:50 31.07.2021
6368 Clear 20 1003 79 10000 9.2 238 08:57 31.07.2021
6369 Clouds 16 1004 72 10000 4.39 197 02:29 31.07.2021
6370 Clouds 24 1005 70 10000 6.42 270 20:36 30.07.2021
6371 Clouds 24 1006 70 10000 7.76 267 20:18 30.07.2021
6372 Clouds 20 1006 70 10000 13.6 251 09:38 30.07.2021
6373 Clouds 20 1007 66 10000 12.79 256 17:34 29.07.2021
6374 Clouds 18 1007 81 10000 8.58 223 06:59 29.07.2021
6375 Clouds 17 1007 83 10000 8.42 229 04:34 29.07.2021
6376 Clouds 22 1008 78 10000 4.34 224 21:22 28.07.2021
6377 Clouds 21 1009 74 10000 3.13 218 17:47 28.07.2021
6378 Clouds 20 1009 73 10000 2.56 221 16:54 28.07.2021
6379 Clouds 20 1010 84 10000 4.38 249 08:26 28.07.2021
6380 Clouds 19 1011 82 10000 2.67 239 23:44 27.07.2021
6381 Clouds 20 1011 82 10000 4.46 255 21:29 27.07.2021
6382 Clear 21 1010 81 10000 6.15 267 14:53 27.07.2021
6383 Clouds 27 1010 85 10000 6.71 262 11:52 27.07.2021
6384 Clouds 24 1010 83 10000 4.54 231 10:19 27.07.2021
6385 Rain 22 1010 85 10000 2.08 154 20:43 26.07.2021
6386 Clouds 27 1011 78 10000 4.44 122 15:32 26.07.2021
6387 Clouds 22 1011 80 10000 4.92 144 07:49 26.07.2021
6388 Clouds 24 1010 84 10000 7.85 88 20:57 25.07.2021
6389 Clouds 22 1010 80 10000 9.33 75 18:45 25.07.2021
6390 Clouds 28 1011 71 10000 8.83 84 16:20 25.07.2021
6391 Clouds 26 1012 72 10000 7.97 110 10:57 25.07.2021
6392 Clouds 23 1011 77 10000 9.1 115 08:20 25.07.2021
6393 Clouds 20 1012 73 10000 8.31 116 02:34 25.07.2021
6394 Clouds 24 1013 78 10000 9.36 93 20:20 24.07.2021
6395 Clear 22 1015 69 10000 6.82 83 15:50 24.07.2021
6396 Clear 17 1016 73 10000 2.98 90 04:20 24.07.2021
6397 Clear 22 1017 74 10000 3.33 304 14:46 23.07.2021
6398 Clouds 18 1017 78 10000 3.78 308 12:42 23.07.2021
6399 Clouds 17 1017 81 10000 2.84 321 07:34 23.07.2021
6400 Clear 17 1018 74 10000 5.66 274 22:43 22.07.2021
6401 Clouds 23 1020 69 10000 6.16 269 13:59 22.07.2021
6402 Clouds 21 1021 70 10000 4.19 280 09:58 22.07.2021
6403 Clouds 19 1021 73 10000 3.56 270 08:23 22.07.2021
6404 Clouds 19 1021 73 10000 3.56 270 08:23 22.07.2021
6405 Clouds 19 1021 73 10000 3.56 270 08:23 22.07.2021
6406 Clear 16 1021 69 10000 4.34 284 22:33 21.07.2021
6407 Clear 18 1021 68 10000 4.2 287 21:30 21.07.2021
6408 Clouds 18 1021 69 10000 5.43 289 15:20 21.07.2021
6409 Clouds 19 1020 74 10000 6.22 294 09:50 21.07.2021
6410 Clouds 19 1020 74 10000 6.52 300 09:18 21.07.2021
6411 Clouds 18 1018 73 10000 7.81 296 23:55 20.07.2021
6412 Clouds 19 1017 69 10000 7.98 283 17:46 20.07.2021
6413 Clouds 19 1017 68 10000 8.69 271 16:33 20.07.2021
6414 Clouds 22 1018 69 10000 8.81 270 15:26 20.07.2021
6415 Clouds 21 1018 74 10000 7.21 288 11:19 20.07.2021
6416 Clouds 19 1017 81 10000 6.4 301 07:23 20.07.2021
6417 Clouds 14 1017 71 10000 5.81 288 00:21 20.07.2021
6418 Clear 18 1018 66 10000 5.79 284 15:39 19.07.2021
6419 Clouds 21 1018 69 10000 5.75 292 12:38 19.07.2021
6420 Clouds 21 1017 66 10000 9.03 308 20:44 18.07.2021
6421 Clear 23 1017 76 10000 8.04 290 15:20 18.07.2021
6422 Clear 22 1018 79 10000 8.48 300 10:19 18.07.2021
6423 Clear 21 1018 76 10000 7.81 315 22:29 17.07.2021
6424 Clear 21 1018 76 10000 7.81 315 21:57 17.07.2021
6425 Clear 21 1018 76 10000 7.81 315 21:38 17.07.2021
6426 Clear 26 1019 76 10000 4.44 294 12:34 17.07.2021
6427 Clear 24 1020 85 10000 5.01 315 11:29 17.07.2021
6428 Clear 22 1019 94 10000 3.86 35 04:47 17.07.2021
6429 Clouds 29 1017 83 10000 3.17 311 14:24 16.07.2021
6430 Clouds 27 1016 86 10000 3.06 318 11:43 16.07.2021
6431 Clouds 21 1015 83 10000 3.33 308 07:24 16.07.2021
6432 Clouds 22 1012 80 10000 1.68 301 18:33 15.07.2021
6433 Clouds 26 1013 83 10000 3.45 301 13:49 15.07.2021
6434 Clouds 23 1012 88 10000 3.84 256 09:25 15.07.2021
6435 Clouds 20 1010 89 10000 3.25 229 00:31 15.07.2021
6436 Clouds 26 1009 86 7935 5.79 86 16:48 14.07.2021
6437 Clouds 28 1009 84 10000 5.42 83 11:59 14.07.2021
6438 Clouds 21 1009 90 10000 4.33 70 04:44 14.07.2021
6439 Clouds 21 1010 84 10000 5.7 81 20:22 13.07.2021
6440 Clouds 21 1010 84 10000 5.7 81 19:50 13.07.2021
6441 Clouds 21 1010 83 10000 6.06 85 19:21 13.07.2021
6442 Clouds 21 1010 83 10000 6.06 85 18:43 13.07.2021
6443 Clouds 22 1010 81 10000 6.18 84 18:23 13.07.2021
6444 Clouds 22 1011 77 10000 6.17 91 14:34 13.07.2021
6445 Clouds 25 1011 82 10000 5.01 116 09:38 13.07.2021
6446 Clouds 21 1012 94 10000 7.36 79 22:51 12.07.2021
6447 Clouds 20 1014 84 10000 8.06 82 17:28 12.07.2021
6448 Clouds 20 1015 83 10000 7.51 86 15:20 12.07.2021
6449 Clouds 19 1017 82 10000 4.77 88 00:31 12.07.2021
6450 Clouds 20 1018 81 10000 5.23 89 21:57 11.07.2021
6451 Clouds 25 1018 75 10000 5.6 77 15:50 11.07.2021
6452 Clouds 16 1017 74 10000 1.64 224 02:31 11.07.2021
6453 Clouds 23 1015 77 10000 7.55 251 17:38 10.07.2021
6454 Rain 17 1012 89 10000 11.61 284 07:57 10.07.2021
6455 Rain 17 1011 91 10000 11.9 294 07:22 10.07.2021
6456 Rain 18 1015 82 10000 9.96 341 20:42 09.07.2021
6457 Rain 20 1017 74 10000 6.93 30 14:52 09.07.2021
6458 Rain 22 1018 80 10000 7 39 12:55 09.07.2021
6459 Clouds 18 1021 82 10000 4.19 90 00:48 09.07.2021
6460 Clouds 18 1021 78 10000 3.93 95 22:52 08.07.2021
6461 Clouds 18 1021 78 10000 3.93 95 22:52 08.07.2021
6462 Clouds 20 1021 75 10000 4.59 96 20:20 08.07.2021
6463 Clouds 21 1021 73 10000 4.66 109 18:41 08.07.2021
6464 Clouds 20 1021 66 10000 6.35 114 13:52 08.07.2021
6465 Clouds 26 1021 66 10000 6.35 114 13:30 08.07.2021
6466 Clouds 25 1022 65 10000 6.22 113 12:35 08.07.2021
6467 Clouds 23 1022 71 10000 5.18 137 11:21 08.07.2021
6468 Clouds 17 1021 86 10000 5.77 160 06:52 08.07.2021
6469 Clouds 17 1021 88 10000 6.05 175 03:52 08.07.2021
6470 Clear 18 1020 84 10000 6.56 158 22:59 07.07.2021
6471 Clear 21 1020 83 10000 6.57 140 22:20 07.07.2021
6472 Clear 20 1020 83 10000 6.57 140 21:45 07.07.2021
6473 Clear 23 1019 79 10000 6.32 136 21:25 07.07.2021
6474 Clouds 24 1019 76 10000 5.89 131 19:59 07.07.2021
6475 Clouds 25 1019 76 10000 5.89 131 19:30 07.07.2021
6476 Clouds 25 1018 69 10000 3.84 135 18:55 07.07.2021
6477 Clouds 20 1018 67 10000 1.43 125 15:58 07.07.2021
6478 Clouds 23 1018 67 10000 0.75 176 15:24 07.07.2021
6479 Rain 19 1017 76 10000 3.03 212 11:52 07.07.2021
6480 Rain 18 1014 80 10000 3.56 228 07:27 07.07.2021
6481 Rain 19 1013 82 10000 5.89 258 05:52 07.07.2021
6482 Rain 19 1012 83 10000 5.94 251 02:56 07.07.2021
6483 Clouds 22 1008 88 10000 3.26 146 20:53 06.07.2021
6484 Rain 22 1008 83 10000 2.4 99 19:18 06.07.2021
6485 Rain 22 1008 83 10000 2.4 99 19:18 06.07.2021
6486 Clouds 24 1008 83 10000 2.4 99 18:43 06.07.2021
6487 Clouds 23 1008 85 10000 0.66 153 17:43 06.07.2021
6488 Clouds 22 1009 73 9422 5.08 189 13:37 06.07.2021
6489 Clouds 21 1010 81 10000 6.26 156 09:44 06.07.2021
6490 Clouds 20 1009 84 10000 6.15 149 08:49 06.07.2021
6491 Clouds 19 1010 84 10000 4.59 149 08:21 06.07.2021
6492 Clouds 16 1010 83 10000 4.36 255 02:29 06.07.2021
6493 Clouds 17 1010 84 10000 5.28 268 23:57 05.07.2021
6494 Clouds 18 1010 86 10000 5.27 254 21:58 05.07.2021
6495 Clouds 22 1008 91 10000 5.04 275 17:21 05.07.2021
6496 Rain 23 1008 83 10000 6.05 251 14:29 05.07.2021
6497 Clouds 17 1009 87 10000 4.63 127 05:59 05.07.2021
6498 Clouds 17 1009 87 10000 4.63 127 05:41 05.07.2021
6499 Clear 18 1010 87 10000 4.55 113 00:58 05.07.2021
6500 Clear 21 1011 88 10000 5.12 103 21:38 04.07.2021
6501 Clouds 23 1011 78 10000 5.04 83 18:29 04.07.2021
6502 Clouds 25 1011 76 10000 4.65 75 15:30 04.07.2021
6503 Clouds 21 1013 82 10000 1.5 340 11:26 04.07.2021
6504 Clouds 19 1013 85 10000 1.56 270 08:38 04.07.2021
6505 Clouds 18 1012 89 10000 2.97 252 23:31 03.07.2021
6506 Clouds 18 1013 89 10000 3.44 262 22:19 03.07.2021
6507 Clouds 17 1014 90 10000 7.05 278 14:19 03.07.2021
6508 Clouds 17 1014 90 10000 7.23 277 12:37 03.07.2021
6509 Clouds 18 1014 90 10000 7.52 280 09:28 03.07.2021
6510 Clouds 17 1014 90 10000 7.52 280 08:46 03.07.2021
6511 Rain 18 1013 91 10000 8.61 288 02:46 03.07.2021
6512 Clouds 21 1013 84 10000 8.25 274 12:51 02.07.2021
6513 Clouds 20 1011 91 10000 8.68 276 07:40 02.07.2021
6514 Clouds 18 1010 90 10000 7.5 286 04:38 02.07.2021
6515 Clouds 18 1010 90 10000 5.77 305 22:32 01.07.2021
6516 Clouds 18 1010 90 10000 5.81 310 21:40 01.07.2021
6517 Clouds 19 1009 88 10000 5.6 320 20:38 01.07.2021
6518 Clouds 20 1008 92 10000 8.65 329 19:21 01.07.2021
6519 Clouds 19 1008 92 10000 8.65 329 18:49 01.07.2021
6520 Clouds 19 1008 91 10000 8.88 330 17:48 01.07.2021
6521 Clouds 19 1008 90 10000 8.84 336 17:18 01.07.2021
6522 Clouds 19 1007 88 10000 9.64 338 15:25 01.07.2021
6523 Clouds 18 1007 88 10000 10.24 341 14:23 01.07.2021
6524 Clouds 20 1007 88 10000 10.01 349 10:55 01.07.2021
6525 Clouds 20 1007 88 10000 10.01 349 10:55 01.07.2021
6526 Clouds 19 1006 91 10000 11.52 13 05:47 01.07.2021
6527 Clouds 20 1008 92 10000 8.85 44 23:21 30.06.2021
6528 Rain 20 1008 93 10000 8.74 49 22:20 30.06.2021
6529 Rain 20 1007 93 10000 8.17 50 21:22 30.06.2021
6530 Rain 21 1006 90 10000 10.85 48 20:27 30.06.2021
6531 Clouds 22 1006 90 10000 9.91 47 18:54 30.06.2021
6532 Clouds 24 1007 91 10000 7.76 36 14:26 30.06.2021
6533 Clouds 22 1007 90 10000 7.28 41 13:23 30.06.2021
6534 Clouds 21 1008 90 10000 4.02 43 08:18 30.06.2021
6535 Rain 21 1009 91 10000 2.37 240 21:29 29.06.2021
6536 Rain 21 1009 91 10000 5 256 18:36 29.06.2021
6537 Rain 21 1009 91 10000 5 256 18:36 29.06.2021
6538 Clouds 24 1010 82 10000 3.96 179 17:43 29.06.2021
6539 Clouds 22 1010 73 10000 3.25 104 16:36 29.06.2021
6540 Clouds 26 1010 71 10000 3.51 87 15:49 29.06.2021
6541 Clouds 24 1011 74 10000 4.21 113 13:59 29.06.2021
6542 Clouds 23 1011 78 10000 4.65 112 13:19 29.06.2021
6543 Clouds 18 1014 75 10000 3.36 117 00:41 29.06.2021
6544 Clear 19 1015 73 10000 3.29 96 21:47 28.06.2021
6545 Clear 20 1015 75 10000 3.86 73 19:53 28.06.2021
6546 Clear 20 1016 70 10000 3.07 57 17:32 28.06.2021
6547 Clear 26 1017 72 10000 2.23 6 15:22 28.06.2021
6548 Clouds 25 1017 75 10000 2.27 330 12:59 28.06.2021
6549 Clouds 20 1017 79 10000 2.5 273 08:59 28.06.2021
6550 Clouds 17 1017 80 10000 2.88 267 23:46 27.06.2021
6551 Clouds 18 1017 79 10000 2.59 280 21:51 27.06.2021
6552 Clouds 19 1017 76 10000 3.83 270 19:42 27.06.2021
6553 Clouds 24 1017 81 10000 2.95 271 16:53 27.06.2021
6554 Clouds 23 1018 82 10000 2.81 296 14:23 27.06.2021
6555 Clouds 19 1018 84 10000 4.65 291 09:33 27.06.2021
6556 Clouds 17 1019 80 10000 4.47 292 23:30 26.06.2021
6557 Clouds 18 1018 75 10000 4.34 271 21:24 26.06.2021
6558 Clouds 22 1018 75 10000 4.34 271 20:42 26.06.2021
6559 Clouds 18 1018 73 10000 3.89 275 19:25 26.06.2021
6560 Clouds 23 1019 73 10000 3.35 296 15:39 26.06.2021
6561 Clouds 23 1020 72 10000 4.36 292 12:57 26.06.2021
6562 Clouds 21 1020 70 10000 3.67 280 09:58 26.06.2021
6563 Clouds 11 1019 73 10000 3.31 326 06:20 26.06.2021
6564 Clouds 19 1017 73 10000 4.5 280 21:23 25.06.2021
6565 Clouds 20 1017 76 10000 4.81 275 20:20 25.06.2021
6566 Clouds 20 1017 73 10000 4.41 290 17:58 25.06.2021
6567 Clouds 21 1017 74 10000 4.57 294 16:57 25.06.2021
6568 Clouds 21 1017 76 10000 4.66 306 15:51 25.06.2021
6569 Clouds 17 1017 80 10000 5.31 290 13:27 25.06.2021
6570 Clouds 19 1017 80 10000 4.25 276 09:51 25.06.2021
6571 Clouds 17 1016 82 10000 5.71 288 07:22 25.06.2021
6572 Clouds 16 1016 82 10000 4.05 274 03:58 25.06.2021
6573 Clouds 17 1016 81 10000 2.64 319 23:40 24.06.2021
6574 Clouds 18 1017 82 10000 2.47 311 21:48 24.06.2021
6575 Clouds 17 1017 82 10000 1.94 266 20:41 24.06.2021
6576 Rain 17 1017 79 10000 1.6 276 19:39 24.06.2021
6577 Clouds 20 1018 74 10000 2.75 289 17:29 24.06.2021
6578 Clouds 20 1018 75 10000 1.44 262 15:23 24.06.2021
6579 Clouds 20 1018 75 10000 1.44 262 14:51 24.06.2021
6580 Clouds 19 1019 79 10000 2.1 351 12:55 24.06.2021
6581 Clouds 19 1020 76 10000 2.93 17 09:51 24.06.2021
6582 Clouds 18 1020 80 10000 3.53 12 08:28 24.06.2021
6583 Clouds 17 1019 80 10000 3.09 357 06:39 24.06.2021
6584 Clouds 18 1021 81 10000 3.08 285 23:33 23.06.2021
6585 Clouds 19 1021 82 10000 2.44 291 22:25 23.06.2021
6586 Clouds 19 1021 82 10000 2.44 291 22:25 23.06.2021
6587 Clouds 19 1020 83 10000 3.01 295 21:20 23.06.2021
6588 Clouds 21 1020 82 10000 4.34 279 19:55 23.06.2021
6589 Clouds 21 1020 82 10000 4.92 273 18:29 23.06.2021
6590 Clouds 21 1020 82 10000 5.59 273 16:52 23.06.2021
6591 Clouds 21 1020 83 10000 5.1 248 14:31 23.06.2021
6592 Clouds 21 1019 80 10000 4.34 288 12:47 23.06.2021
6593 Clouds 21 1019 82 10000 6.41 275 11:22 23.06.2021
6594 Clouds 19 1018 84 10000 5.69 244 09:26 23.06.2021
6595 Clouds 18 1018 83 10000 6.1 256 08:38 23.06.2021
6596 Clouds 17 1018 83 10000 5.99 256 07:49 23.06.2021
6597 Clear 11 1017 83 10000 5.24 263 05:34 23.06.2021
6598 Clear 13 1016 80 10000 6.65 280 01:54 23.06.2021
6599 Clear 15 1016 77 10000 6.04 287 23:59 22.06.2021
6600 Clear 15 1016 77 10000 6.04 287 23:41 22.06.2021
6601 Clear 16 1016 75 10000 6.06 292 22:39 22.06.2021
6602 Clear 17 1015 74 10000 7.1 279 21:45 22.06.2021
6603 Clear 16 1015 74 10000 7.46 273 20:54 22.06.2021
6604 Clouds 16 1015 73 10000 7.62 265 19:18 22.06.2021
6605 Clouds 16 1015 73 10000 7.62 265 18:31 22.06.2021
6606 Clouds 16 1015 70 10000 7.22 269 17:29 22.06.2021
6607 Clouds 16 1015 70 10000 7.22 269 16:56 22.06.2021
6608 Clouds 16 1014 69 10000 6.42 278 15:21 22.06.2021
6609 Clouds 19 1014 70 10000 6.89 276 14:28 22.06.2021
6610 Rain 16 1014 70 10000 6.89 276 13:38 22.06.2021
6611 Clouds 16 1014 69 10000 7.1 279 12:30 22.06.2021
6612 Clouds 18 1013 73 10000 6.99 285 10:52 22.06.2021
6613 Clouds 18 1013 78 10000 5.96 285 08:43 22.06.2021
6614 Clouds 16 1009 86 10000 7.14 332 00:56 22.06.2021
6615 Clear 16 1009 84 10000 6.35 343 23:59 21.06.2021
6616 Clear 16 1009 85 10000 5.46 347 22:52 21.06.2021
6617 Clear 16 1008 86 10000 5.55 1 21:36 21.06.2021
6618 Clear 17 1008 88 10000 6.17 359 20:50 21.06.2021
6619 Clear 17 1008 88 10000 6.17 359 20:50 21.06.2021
6620 Clouds 17 1008 91 10000 4.6 338 19:55 21.06.2021
6621 Clouds 17 1007 92 10000 5.15 1 19:20 21.06.2021
6622 Clouds 17 1007 92 10000 5.54 350 17:54 21.06.2021
6623 Clouds 26 1006 91 10000 5.6 322 16:53 21.06.2021
6624 Clouds 22 1006 91 10000 3.2 352 16:27 21.06.2021
6625 Clouds 22 1006 91 10000 3.2 352 15:48 21.06.2021
6626 Clouds 22 1005 83 10000 3 174 14:28 21.06.2021
6627 Clouds 22 1005 83 10000 3 174 13:37 21.06.2021
6628 Clouds 22 1005 90 10000 4.95 88 12:51 21.06.2021
6629 Clouds 22 1005 90 10000 4.95 88 12:30 21.06.2021
6630 Clouds 21 1006 94 10000 7.3 55 10:42 21.06.2021
6631 Clouds 21 1006 94 10000 10.28 44 10:18 21.06.2021
6632 Rai